<
# Wetter Temperatur Luftdruck Luftfeuchtigkeit Sichtweite Windgeschwindigkeit Windrichtung Zeit
1 Clouds 25 1021 61 16093 2.1 310 21:55 28.01.2020
2 Clouds 25 1021 61 16093 2.1 310 21:36 28.01.2020
3 Clouds 25 1021 61 16093 2.1 310 21:18 28.01.2020
4 Drizzle 22 1022 73 16093 0.48 47 20:45 28.01.2020
5 Clouds 21 1021 73 16093 2.6 340 20:25 28.01.2020
6 Clouds 20 1021 82 16093 2.1 320 19:55 28.01.2020
7 Clouds 19 1021 82 16093 2.1 320 19:37 28.01.2020
8 Clouds 19 1021 82 16093 2.1 320 19:18 28.01.2020
9 Clouds 19 1021 82 16093 2.1 320 19:18 28.01.2020
10 Clouds 19 1020 82 16093 0.83 349 18:41 28.01.2020
11 Clouds 19 1020 82 16093 0.83 349 18:23 28.01.2020
12 Clouds 19 1020 82 16093 0.83 349 18:23 28.01.2020
13 Clouds 18 1019 88 16093 3.1 330 17:59 28.01.2020
14 Clouds 18 1019 88 16093 3.1 330 17:39 28.01.2020
15 Clouds 18 1019 88 16093 3.1 330 17:39 28.01.2020
16 Clouds 18 1019 88 16093 3.1 330 17:21 28.01.2020
17 Clear 18 1019 82 16093 1.5 320 16:56 28.01.2020
18 Clear 18 1019 82 16093 1.5 320 16:37 28.01.2020
19 Clear 18 1019 82 16093 1.5 320 16:19 28.01.2020
20 Clear 18 1019 82 16093 1.5 310 15:44 28.01.2020
21 Clear 18 1019 82 16093 1.5 310 15:19 28.01.2020
22 Clear 18 1019 77 16093 2.1 340 14:57 28.01.2020
23 Clear 18 1019 77 16093 2.1 340 14:38 28.01.2020
24 Clear 18 1019 77 16093 2.1 340 14:38 28.01.2020
25 Clear 18 1019 77 16093 2.1 340 14:38 28.01.2020
26 Clear 18 1019 77 16093 2.1 340 14:18 28.01.2020
27 Clear 18 1020 82 16093 2.1 330 13:40 28.01.2020
28 Clear 18 1020 82 16093 2.1 330 13:22 28.01.2020
29 Clear 19 1020 68 16093 2.1 320 12:43 28.01.2020
30 Clear 19 1020 68 16093 2.1 320 12:24 28.01.2020
31 Clouds 20 1020 64 16093 1.5 350 11:55 28.01.2020
32 Clouds 20 1020 64 16093 1.5 350 11:55 28.01.2020
33 Clouds 20 1020 64 16093 1.5 350 11:37 28.01.2020
34 Clouds 20 1020 64 16093 1.5 350 11:18 28.01.2020
35 Clouds 20 1019 73 16093 0.2 310 10:40 28.01.2020
36 Clouds 20 1019 73 16093 0.2 310 10:22 28.01.2020
37 Clouds 20 1020 73 16093 2.1 80 09:55 28.01.2020
38 Clouds 20 1020 73 16093 2.1 80 09:37 28.01.2020
39 Clouds 20 1020 73 16093 2.1 80 09:18 28.01.2020
40 Clouds 22 1021 69 16093 1.5 50 08:41 28.01.2020
41 Clouds 22 1021 69 16093 1.5 50 08:19 28.01.2020
42 Clouds 22 1020 69 16093 1.5 20 07:38 28.01.2020
43 Clouds 22 1019 69 16093 0.69 63 06:51 28.01.2020
44 Clouds 23 1019 69 16093 0.69 63 06:28 28.01.2020
45 Clouds 24 1018 57 16093 4.1 140 05:55 28.01.2020
46 Clouds 24 1018 57 16093 4.1 140 05:27 28.01.2020
47 Clouds 25 1018 51 16093 4.6 70 04:30 28.01.2020
48 Clouds 26 1018 48 16093 4.1 60 02:58 28.01.2020
49 Clouds 26 1018 48 16093 4.1 60 02:25 28.01.2020
50 Clouds 27 1019 54 16093 5.7 150 01:57 28.01.2020
51 Clouds 27 1019 54 16093 5.7 150 01:26 28.01.2020
52 Clouds 26 1020 54 16093 6.7 140 00:51 28.01.2020
53 Clouds 26 1020 54 16093 6.7 140 00:29 28.01.2020
54 Clouds 26 1021 48 16093 5.7 60 23:51 27.01.2020
55 Clouds 26 1021 48 16093 5.7 60 23:30 27.01.2020
56 Clouds 26 1021 44 16093 4.1 90 22:56 27.01.2020
57 Clouds 26 1021 44 16093 4.1 90 22:38 27.01.2020
58 Clouds 26 1021 44 16093 4.1 90 22:18 27.01.2020
59 Clouds 26 1022 51 16093 5.7 50 21:54 27.01.2020
60 Clouds 26 1022 51 16093 5.7 50 21:36 27.01.2020
61 Clouds 25 1022 51 16093 5.7 50 21:18 27.01.2020
62 Clouds 24 1021 64 16093 2.6 70 20:42 27.01.2020
63 Clouds 23 1021 64 16093 2.6 70 20:21 27.01.2020
64 Rain 22 1022 88 16093 1.23 94 19:59 27.01.2020
65 Clouds 21 1021 78 16093 1.23 94 19:40 27.01.2020
66 Clouds 21 1021 78 16093 1.23 94 19:21 27.01.2020
67 Clouds 22 1021 93 16093 1.23 94 18:55 27.01.2020
68 Clouds 22 1020 73 16093 1.5 90 18:37 27.01.2020
69 Clouds 22 1020 73 16093 1.5 90 18:37 27.01.2020
70 Clouds 21 1020 73 16093 1.5 90 18:19 27.01.2020
71 Clouds 21 1018 73 16093 3.6 110 17:39 27.01.2020
72 Clouds 21 1018 73 16093 3.6 110 17:19 27.01.2020
73 Clouds 21 1018 73 16093 3.6 110 16:57 27.01.2020
74 Clouds 21 1019 77 16093 2.29 91 16:37 27.01.2020
75 Clouds 20 1019 77 16093 2.29 91 16:19 27.01.2020
76 Clouds 21 1020 73 16093 2.1 350 15:42 27.01.2020
77 Clouds 21 1020 73 16093 2.1 350 15:20 27.01.2020
78 Clear 20 1020 77 16093 2.29 91 14:59 27.01.2020
79 Clear 20 1020 77 16093 2.29 91 14:40 27.01.2020
80 Clear 20 1020 77 16093 2.51 96 14:21 27.01.2020
81 Clouds 20 1021 73 16093 1.5 320 13:46 27.01.2020
82 Clouds 20 1021 73 16093 1.5 320 13:24 27.01.2020
83 Clouds 20 1022 73 16093 2.31 92 12:58 27.01.2020
84 Clouds 20 1022 73 16093 2.31 92 12:39 27.01.2020
85 Clouds 21 1022 73 16093 2.31 92 12:21 27.01.2020
86 Clouds 21 1022 77 16093 2.1 310 11:43 27.01.2020
87 Clouds 21 1022 77 16093 2.1 310 11:22 27.01.2020
88 Clouds 21 1021 64 16093 2.1 0 10:57 27.01.2020
89 Clouds 23 1021 64 16093 2.1 0 10:39 27.01.2020
90 Clouds 21 1021 64 16093 2.1 0 10:20 27.01.2020
91 Clouds 21 1021 64 16093 3.6 80 09:39 27.01.2020
92 Clouds 21 1021 64 16093 3.6 80 09:19 27.01.2020
93 Clouds 22 1021 69 16093 4.1 70 08:55 27.01.2020
94 Clouds 22 1021 69 16093 4.1 70 08:37 27.01.2020
95 Clouds 23 1021 69 16093 4.1 70 08:18 27.01.2020
96 Clouds 22 1020 64 16093 3.6 70 07:45 27.01.2020
97 Clouds 22 1020 64 16093 3.6 70 07:25 27.01.2020
98 Clouds 23 1019 64 16093 4.6 80 06:37 27.01.2020
99 Clouds 23 1019 64 16093 4.6 80 06:37 27.01.2020
100 Clouds 24 1019 57 16093 7.2 70 05:38 27.01.2020
101 Clouds 25 1018 54 16093 7.2 70 04:37 27.01.2020
102 Clouds 26 1018 65 16093 4.6 60 03:35 27.01.2020
103 Clouds 27 1018 65 16093 4.6 100 01:47 27.01.2020
104 Clouds 27 1018 45 16093 6.7 70 01:22 27.01.2020
105 Clouds 27 1019 61 16093 3.6 80 00:40 27.01.2020
106 Clouds 27 1019 61 16093 3.6 80 00:21 27.01.2020
107 Clouds 27 1020 51 16093 4.1 50 23:43 26.01.2020
108 Clouds 27 1020 51 16093 4.1 50 23:21 26.01.2020
109 Clouds 26 1020 65 16093 5.1 90 22:57 26.01.2020
110 Clouds 26 1020 65 16093 4.6 70 22:38 26.01.2020
111 Clouds 26 1020 65 16093 4.6 70 22:19 26.01.2020
112 Clouds 26 1021 65 16093 5.1 110 21:57 26.01.2020
113 Clouds 26 1021 57 16093 5.7 80 21:38 26.01.2020
114 Clouds 26 1021 57 16093 5.7 80 21:20 26.01.2020
115 Clouds 24 1020 65 16093 4.1 90 20:57 26.01.2020
116 Clouds 24 1021 73 16093 2.6 320 20:38 26.01.2020
117 Clouds 24 1021 73 16093 2.6 320 20:18 26.01.2020
118 Clouds 24 1020 78 16093 1.5 350 19:57 26.01.2020
119 Clouds 22 1020 78 16093 1.5 350 19:37 26.01.2020
120 Clouds 22 1020 78 16093 1.5 350 19:18 26.01.2020
121 Clear 21 1020 83 16093 2.1 330 18:41 26.01.2020
122 Clear 21 1020 83 16093 2.1 330 18:22 26.01.2020
123 Clouds 21 1019 83 16093 1.8 82 17:59 26.01.2020
124 Clouds 21 1019 83 16093 1.8 82 17:39 26.01.2020
125 Clouds 20 1019 83 16093 1.92 88 17:20 26.01.2020
126 Clouds 21 1018 78 16093 1.92 88 16:58 26.01.2020
127 Clouds 21 1018 83 16093 1.5 330 16:40 26.01.2020
128 Clouds 21 1018 83 16093 1.5 330 16:21 26.01.2020
129 Rain 21 1015 80 0 1.92 88 15:58 26.01.2020
130 Rain 22 1015 80 0 1.92 88 15:39 26.01.2020
131 Rain 21 1017 78 0 2.24 70 15:18 26.01.2020
132 Rain 21 1015 80 0 1.92 88 14:40 26.01.2020
133 Rain 21 1015 80 0 1.92 88 14:40 26.01.2020
134 Rain 21 1015 80 0 2.18 69 14:21 26.01.2020
135 Rain 22 1016 80 0 2.18 69 13:55 26.01.2020
136 Rain 22 1016 79 0 2.18 69 13:37 26.01.2020
137 Rain 22 1019 73 0 1.79 310 13:18 26.01.2020
138 Rain 22 1017 79 0 2.12 78 12:41 26.01.2020
139 Rain 22 1017 79 0 2.12 78 12:23 26.01.2020
140 Rain 22 1020 73 0 3.58 60 11:57 26.01.2020
141 Rain 22 1017 78 0 2.12 78 11:39 26.01.2020
142 Clouds 22 1021 69 16093 3.6 70 11:18 26.01.2020
143 Clouds 22 1021 69 16093 3.6 70 10:58 26.01.2020
144 Clouds 22 1021 69 16093 3.6 70 10:38 26.01.2020
145 Clouds 22 1021 69 16093 3.6 70 10:20 26.01.2020
146 Clouds 22 1020 73 16093 3.6 90 09:56 26.01.2020
147 Clouds 23 1020 73 16093 3.6 90 09:38 26.01.2020
148 Clouds 23 1020 73 16093 3.6 90 09:20 26.01.2020
149 Clouds 23 1020 73 16093 2.1 100 08:42 26.01.2020
150 Clouds 23 1020 73 16093 2.1 100 08:22 26.01.2020
151 Clouds 23 1020 69 16093 1.5 120 07:54 26.01.2020
152 Clouds 23 1020 69 16093 1.5 120 07:36 26.01.2020
153 Clouds 23 1020 69 16093 1.5 120 07:36 26.01.2020
154 Clouds 23 1020 69 16093 1.5 120 07:18 26.01.2020
155 Clouds 23 1019 69 16093 3.1 60 06:26 26.01.2020
156 Clouds 24 1019 61 16093 4.1 50 05:29 26.01.2020
157 Clouds 25 1018 78 16093 3.6 70 04:43 26.01.2020
158 Clouds 26 1018 51 16093 4.1 50 02:38 26.01.2020
159 Clouds 26 1018 54 16093 5.1 60 01:45 26.01.2020
160 Clouds 26 1018 54 16093 5.1 60 01:23 26.01.2020
161 Clouds 26 1019 51 16093 3.6 50 00:43 26.01.2020
162 Clouds 26 1019 51 16093 3.6 50 00:25 26.01.2020
163 Clear 26 1016 67 0 3.5 86 23:40 25.01.2020
164 Rain 26 1016 69 0 4.01 82 23:21 25.01.2020
165 Rain 26 1017 68 0 4.01 82 22:56 25.01.2020
166 Rain 26 1017 68 0 4.01 82 22:56 25.01.2020
167 Rain 26 1017 69 0 4.01 82 22:36 25.01.2020
168 Rain 26 1020 54 0 4.01 82 22:18 25.01.2020
169 Rain 26 1020 54 0 4.01 82 22:18 25.01.2020
170 Rain 25 1018 75 0 4.01 82 21:41 25.01.2020
171 Rain 24 1018 77 0 4.01 82 21:23 25.01.2020
172 Rain 24 1018 77 0 4.01 82 21:23 25.01.2020
173 Rain 23 1018 72 0 4.01 82 20:56 25.01.2020
174 Rain 23 1021 68 0 4.01 82 20:38 25.01.2020
175 Rain 24 1018 73 0 2.3 68 20:19 25.01.2020
176 Rain 22 1017 73 0 2.64 68 19:43 25.01.2020
177 Rain 20 1016 79 0 2.64 68 19:20 25.01.2020
178 Rain 20 1016 79 0 2.64 68 18:57 25.01.2020
179 Rain 20 1016 79 0 2.64 68 18:38 25.01.2020
180 Rain 20 1016 79 0 2.64 68 18:20 25.01.2020
181 Rain 20 1018 77 0 2.64 68 17:40 25.01.2020
182 Rain 21 1016 78 0 1.84 55 17:20 25.01.2020
183 Rain 21 1015 77 0 1.84 55 16:58 25.01.2020
184 Rain 21 1015 77 0 2.16 56 16:38 25.01.2020
185 Rain 21 1015 77 0 2.16 56 16:19 25.01.2020
186 Rain 21 1015 78 0 2.16 56 15:47 25.01.2020
187 Rain 21 1015 78 0 2.16 56 15:25 25.01.2020
188 Rain 21 1015 79 0 2.16 56 14:57 25.01.2020
189 Rain 21 1015 78 0 2.16 56 14:39 25.01.2020
190 Rain 21 1015 77 0 1.6 49 14:18 25.01.2020
191 Rain 20 1018 77 0 1.6 49 13:42 25.01.2020
192 Rain 20 1015 80 0 2.4 46 13:23 25.01.2020
193 Clouds 20 1019 93 16093 1.5 320 12:45 25.01.2020
194 Clouds 20 1019 93 16093 1.5 320 12:25 25.01.2020
195 Clouds 21 1019 93 16093 1.5 320 11:45 25.01.2020
196 Clouds 22 1019 73 16093 2.6 0 11:22 25.01.2020
197 Clouds 21 1019 73 16093 2.1 320 10:58 25.01.2020
198 Clouds 21 1019 73 16093 2.1 320 10:40 25.01.2020
199 Clouds 21 1019 73 16093 2.1 320 10:20 25.01.2020
200 Clouds 22 1019 69 16093 3.1 330 09:41 25.01.2020
201 Clouds 21 1019 69 16093 3.1 330 09:22 25.01.2020
202 Clouds 22 1019 69 16093 1.86 37 08:44 25.01.2020
203 Clouds 22 1019 69 16093 1.87 49 08:22 25.01.2020
204 Clouds 23 1019 64 16093 2.1 360 07:49 25.01.2020
205 Clouds 23 1018 64 16093 2.6 20 06:51 25.01.2020
206 Clouds 23 1018 64 16093 2.6 20 06:51 25.01.2020
207 Clouds 23 1018 64 16093 2.6 20 06:27 25.01.2020
208 Clouds 24 1018 78 16093 3.1 310 05:46 25.01.2020
209 Clouds 24 1017 61 16093 2.6 210 04:43 25.01.2020
210 Clouds 26 1017 57 16093 3.1 190 03:51 25.01.2020
211 Clouds 26 1017 57 16093 3.1 190 03:51 25.01.2020
212 Clouds 26 1017 65 16093 4.1 190 02:54 25.01.2020
213 Clouds 26 1017 65 16093 4.1 190 02:18 25.01.2020
214 Clouds 27 1018 61 16093 4.6 200 01:37 25.01.2020
215 Clouds 26 1018 57 16093 4.6 210 00:43 25.01.2020
216 Clouds 27 1018 57 16093 4.6 210 00:24 25.01.2020
217 Clouds 26 1019 54 16093 4.6 210 23:57 24.01.2020
218 Clouds 26 1019 54 16093 4.6 210 23:38 24.01.2020
219 Clouds 26 1019 54 16093 4.6 210 23:38 24.01.2020
220 Clouds 27 1019 54 16093 4.6 210 23:20 24.01.2020
221 Clouds 26 1020 57 16093 3.1 200 22:42 24.01.2020
222 Clouds 26 1020 57 16093 3.1 200 22:24 24.01.2020
223 Clear 25 1020 65 16093 2.6 300 21:42 24.01.2020
224 Clear 25 1020 65 16093 2.6 300 21:20 24.01.2020
225 Clouds 23 1019 69 16093 1.5 20 20:56 24.01.2020
226 Clouds 23 1019 69 16093 1.5 20 20:37 24.01.2020
227 Clouds 23 1019 69 16093 1.5 20 20:18 24.01.2020
228 Clouds 20 1019 82 16093 3.1 330 19:55 24.01.2020
229 Clouds 20 1019 82 16093 3.1 330 19:37 24.01.2020
230 Clouds 19 1019 82 16093 3.1 330 19:19 24.01.2020
231 Clouds 19 1018 77 16093 1.5 320 18:42 24.01.2020
232 Clouds 19 1018 77 16093 1.5 320 18:42 24.01.2020
233 Clouds 19 1018 77 16093 1.5 320 18:22 24.01.2020
234 Clouds 19 1018 77 16093 1.5 320 18:22 24.01.2020
235 Clouds 18 1017 88 16093 2.1 340 17:45 24.01.2020
236 Clouds 18 1017 88 16093 2.1 340 17:45 24.01.2020
237 Clouds 18 1017 88 16093 2.1 340 17:22 24.01.2020
238 Clouds 18 1017 88 16093 1.5 290 16:57 24.01.2020
239 Clouds 19 1017 88 16093 1.5 290 16:38 24.01.2020
240 Clouds 19 1017 88 16093 1.5 290 16:19 24.01.2020
241 Clouds 19 1017 77 16093 1.5 330 15:41 24.01.2020
242 Clouds 19 1017 77 16093 1.5 330 15:21 24.01.2020
243 Clouds 19 1017 77 16093 0.38 90 14:42 24.01.2020
244 Clouds 19 1017 77 16093 0.85 113 14:24 24.01.2020
245 Clouds 20 1017 77 16093 2.1 330 13:58 24.01.2020
246 Clouds 19 1017 77 16093 2.1 330 13:40 24.01.2020
247 Clouds 19 1017 77 16093 2.1 330 13:21 24.01.2020
248 Clouds 19 1018 77 16093 1.5 330 12:42 24.01.2020
249 Clouds 19 1018 77 16093 1.5 330 12:19 24.01.2020
250 Clouds 19 1018 77 16093 1.5 350 11:44 24.01.2020
251 Clouds 19 1018 77 16093 1.5 350 11:19 24.01.2020
252 Clouds 19 1018 73 16093 0.16 115 10:43 24.01.2020
253 Clouds 20 1018 73 16093 0.16 115 10:23 24.01.2020
254 Clouds 20 1018 73 16093 0.16 115 10:23 24.01.2020
255 Clouds 20 1018 68 16093 1.5 350 09:57 24.01.2020
256 Clouds 20 1018 68 16093 1.5 350 09:57 24.01.2020
257 Clouds 20 1018 68 16093 1.5 350 09:57 24.01.2020
258 Clouds 20 1018 68 16093 1.5 350 09:39 24.01.2020
259 Clouds 20 1018 68 16093 1.5 350 09:21 24.01.2020
260 Clear 21 1017 69 16093 2.6 50 08:41 24.01.2020
261 Clear 21 1017 69 16093 2.6 50 08:20 24.01.2020
262 Clouds 21 1017 69 16093 0.37 277 07:51 24.01.2020
263 Clouds 21 1017 69 16093 0.37 277 07:32 24.01.2020
264 Clear 22 1016 64 16093 0.37 277 06:48 24.01.2020
265 Clear 22 1016 64 16093 0.37 277 06:29 24.01.2020
266 Clear 24 1016 61 16093 2.1 0 05:58 24.01.2020
267 Clear 26 1016 57 16093 2.6 210 04:54 24.01.2020
268 Clouds 26 1015 57 16093 3.1 190 02:53 24.01.2020
269 Clouds 26 1015 57 16093 3.1 190 02:24 24.01.2020
270 Clouds 26 1016 57 16093 3.6 170 01:42 24.01.2020
271 Clouds 26 1016 57 16093 3.6 170 01:24 24.01.2020
272 Clouds 26 1017 54 16093 3.1 170 00:20 24.01.2020
273 Clouds 25 1018 54 16093 3.6 170 23:48 23.01.2020
274 Clouds 25 1018 54 16093 3.6 170 23:30 23.01.2020
275 Clear 25 1019 54 16093 2.6 160 22:59 23.01.2020
276 Clear 25 1019 54 16093 2.6 160 22:37 23.01.2020
277 Clear 25 1019 54 16093 2.6 160 22:19 23.01.2020
278 Clear 25 1019 54 16093 3.7 183 21:57 23.01.2020
279 Clear 25 1019 54 16093 3.7 183 21:38 23.01.2020
280 Clear 25 1019 54 16093 3.7 183 21:20 23.01.2020
281 Clear 23 1018 64 16093 1.5 350 20:57 23.01.2020
282 Clear 23 1018 64 16093 1.5 350 20:38 23.01.2020
283 Clear 22 1018 64 16093 1.5 350 20:19 23.01.2020
284 Clear 18 1018 82 16093 2.1 340 19:44 23.01.2020
285 Clear 18 1018 82 16093 2.1 340 19:44 23.01.2020
286 Clear 18 1018 82 16093 2.1 340 19:24 23.01.2020
287 Clouds 18 1017 82 16093 2.1 350 18:59 23.01.2020
288 Clouds 17 1017 82 16093 2.1 350 18:40 23.01.2020
289 Clouds 17 1017 82 16093 2.1 350 18:20 23.01.2020
290 Clear 17 1017 77 16093 2.1 340 17:57 23.01.2020
291 Clear 17 1017 77 16093 2.1 340 17:39 23.01.2020
292 Clear 17 1017 77 16093 2.1 340 17:19 23.01.2020
293 Clear 17 1016 77 16093 1.5 340 16:39 23.01.2020
294 Clear 17 1016 77 16093 1.5 340 16:20 23.01.2020
295 Clear 18 1016 82 16093 1.5 330 15:58 23.01.2020
296 Clear 18 1016 82 16093 1.5 330 15:40 23.01.2020
297 Clear 18 1016 82 16093 1.5 330 15:19 23.01.2020
298 Clear 18 1016 77 16093 2.1 330 14:59 23.01.2020
299 Clear 18 1016 77 16093 2.1 330 14:41 23.01.2020
300 Clear 18 1016 77 16093 2.1 330 14:23 23.01.2020
301 Clear 19 1017 72 16093 1.5 330 13:59 23.01.2020
302 Clear 18 1017 72 16093 1.5 330 13:37 23.01.2020
303 Clear 18 1017 72 16093 1.5 330 13:19 23.01.2020
304 Clear 19 1018 72 16093 2.1 340 12:44 23.01.2020
305 Clear 18 1018 72 16093 2.1 340 12:25 23.01.2020
306 Clear 19 1018 73 16093 2.1 340 11:56 23.01.2020
307 Clear 19 1018 73 16093 2.1 340 11:37 23.01.2020
308 Clear 19 1018 73 16093 2.1 340 11:37 23.01.2020
309 Clear 19 1018 73 16093 2.1 340 11:18 23.01.2020
310 Clouds 20 1018 77 16093 2.6 330 10:43 23.01.2020
311 Clouds 20 1018 77 16093 2.6 330 10:19 23.01.2020
312 Clouds 19 1018 73 16093 2.6 350 09:43 23.01.2020
313 Clouds 19 1018 73 16093 2.6 350 09:25 23.01.2020
314 Clouds 20 1018 68 16093 2.1 30 08:58 23.01.2020
315 Clouds 20 1018 68 16093 2.1 30 08:58 23.01.2020
316 Clouds 20 1018 68 16093 2.1 30 08:40 23.01.2020
317 Clouds 20 1018 68 16093 2.1 30 08:21 23.01.2020
318 Clouds 21 1018 69 16093 0.88 185 07:44 23.01.2020
319 Clouds 21 1018 69 16093 0.88 185 07:24 23.01.2020
320 Clouds 22 1017 64 16093 1.5 160 06:51 23.01.2020
321 Clouds 22 1017 64 16093 1.5 160 06:51 23.01.2020
322 Clouds 22 1017 64 16093 1.5 160 06:20 23.01.2020
323 Clouds 23 1016 57 16093 2.6 150 05:37 23.01.2020
324 Clouds 25 1016 54 16093 3.6 160 04:22 23.01.2020
325 Clouds 25 1016 50 16093 4.6 150 02:31 23.01.2020
326 Clouds 26 1018 51 16093 4.1 170 00:56 23.01.2020
327 Clouds 26 1018 51 16093 4.1 170 00:26 23.01.2020
328 Clouds 26 1019 54 16093 3.6 160 23:47 22.01.2020
329 Clouds 26 1019 54 16093 3.6 160 23:29 22.01.2020
330 Clouds 26 1019 54 16093 3.6 200 22:56 22.01.2020
331 Clouds 25 1019 54 16093 3.6 200 22:38 22.01.2020
332 Clouds 25 1019 54 16093 3.6 200 22:20 22.01.2020
333 Clear 24 1019 64 16093 1.62 73 21:39 22.01.2020
334 Clear 24 1019 64 16093 1.62 73 21:21 22.01.2020
335 Clear 22 1019 73 16093 2.6 340 20:56 22.01.2020
336 Clear 21 1019 73 16093 2.6 340 20:56 22.01.2020
337 Clear 21 1019 73 16093 2.6 340 20:36 22.01.2020
338 Clear 21 1019 73 16093 2.6 340 20:36 22.01.2020
339 Clear 21 1019 73 16093 2.6 340 20:36 22.01.2020
340 Clear 21 1019 73 16093 2.6 340 20:18 22.01.2020
341 Clear 21 1019 73 16093 2.6 340 20:18 22.01.2020
342 Clear 19 1019 77 16093 3.1 350 19:55 22.01.2020
343 Clear 19 1019 77 16093 3.1 350 19:36 22.01.2020
344 Clear 19 1019 77 16093 3.1 350 19:36 22.01.2020
345 Clear 19 1019 77 16093 3.1 350 19:18 22.01.2020
346 Clear 18 1018 82 16093 2.1 10 18:54 22.01.2020
347 Clear 18 1018 82 16093 2.1 10 18:36 22.01.2020
348 Clear 18 1018 82 16093 2.1 10 18:18 22.01.2020
349 Clear 18 1018 82 16093 2.1 340 17:39 22.01.2020
350 Clear 18 1018 82 16093 2.1 340 17:20 22.01.2020
351 Clear 18 1018 82 16093 1.5 340 16:56 22.01.2020
352 Clear 18 1018 82 16093 1.5 340 16:37 22.01.2020
353 Clear 18 1018 82 16093 1.5 340 16:37 22.01.2020
354 Clear 18 1018 82 16093 1.5 340 16:18 22.01.2020
355 Clear 18 1018 82 16093 0.98 77 15:43 22.01.2020
356 Clear 18 1018 82 16093 0.98 77 15:24 22.01.2020
357 Clear 18 1018 77 16093 2.6 340 14:59 22.01.2020
358 Clear 19 1018 77 16093 2.6 340 14:38 22.01.2020
359 Clear 19 1018 77 16093 2.6 340 14:20 22.01.2020
360 Clear 19 1019 82 16093 2.1 350 13:56 22.01.2020
361 Clear 19 1019 82 16093 2.1 350 13:37 22.01.2020
362 Clear 19 1019 82 16093 2.1 350 13:19 22.01.2020
363 Clear 19 1019 77 16093 1.5 330 12:56 22.01.2020
364 Clear 19 1019 77 16093 1.5 330 12:56 22.01.2020
365 Clear 19 1019 77 16093 1.5 330 12:38 22.01.2020
366 Clear 19 1019 77 16093 1.5 330 12:19 22.01.2020
367 Clear 20 1020 77 16093 1.5 340 11:56 22.01.2020
368 Clear 20 1020 77 16093 1.5 340 11:38 22.01.2020
369 Clear 20 1020 77 16093 1.5 340 11:19 22.01.2020
370 Clear 20 1020 77 16093 1.03 106 10:44 22.01.2020
371 Clear 20 1020 77 16093 1.03 106 10:21 22.01.2020
372 Clouds 21 1020 69 16093 1.5 360 09:45 22.01.2020
373 Clouds 21 1020 69 16093 1.5 360 09:26 22.01.2020
374 Clouds 22 1020 69 16093 1.03 106 08:59 22.01.2020
375 Clouds 22 1020 69 16093 1.03 106 08:40 22.01.2020
376 Clouds 22 1020 69 16093 0.54 231 08:21 22.01.2020
377 Clouds 22 1020 69 16093 2.1 20 07:58 22.01.2020
378 Clouds 22 1020 69 16093 2.1 20 07:58 22.01.2020
379 Clouds 22 1020 69 16093 2.1 20 07:40 22.01.2020
380 Clouds 22 1020 69 16093 2.1 20 07:21 22.01.2020
381 Clouds 23 1019 60 16093 2.1 270 06:31 22.01.2020
382 Clouds 24 1018 54 16093 2.1 200 05:42 22.01.2020
383 Clouds 25 1017 51 16093 4.1 170 04:20 22.01.2020
384 Clouds 25 1017 51 16093 4.1 170 03:23 22.01.2020
385 Clouds 25 1017 51 16093 4.1 170 03:23 22.01.2020
386 Clouds 26 1017 54 16093 4.1 170 02:27 22.01.2020
387 Clouds 26 1018 54 16093 4.6 160 00:45 22.01.2020
388 Clouds 26 1018 54 16093 4.6 160 00:26 22.01.2020
389 Clouds 26 1020 47 16093 2.6 300 23:39 21.01.2020
390 Clouds 26 1020 47 16093 2.6 300 23:21 21.01.2020
391 Clouds 26 1020 44 16093 0.63 233 22:59 21.01.2020
392 Clouds 26 1020 44 16093 0.63 233 22:39 21.01.2020
393 Clouds 26 1020 44 16093 0.63 233 22:20 21.01.2020
394 Clouds 26 1021 57 16093 0.63 233 21:56 21.01.2020
395 Clouds 26 1021 57 16093 0.63 233 21:37 21.01.2020
396 Clouds 26 1021 57 16093 0.63 233 21:19 21.01.2020
397 Clouds 26 1021 57 16093 0.63 233 21:19 21.01.2020
398 Clouds 23 1021 69 16093 2.1 0 20:55 21.01.2020
399 Clouds 23 1021 69 16093 2.1 0 20:37 21.01.2020
400 Clouds 22 1021 69 16093 2.1 0 20:18 21.01.2020
401 Clouds 22 1021 69 16093 2.1 0 20:18 21.01.2020
402 Clouds 20 1020 82 16093 2.1 0 19:55 21.01.2020
403 Clouds 20 1020 82 16093 2.1 0 19:36 21.01.2020
404 Clouds 20 1020 82 16093 2.1 0 19:18 21.01.2020
405 Clouds 19 1020 88 16093 0.86 131 18:54 21.01.2020
406 Clouds 19 1020 88 16093 0.86 131 18:36 21.01.2020
407 Clouds 19 1020 88 16093 0.86 131 18:18 21.01.2020
408 Clouds 19 1019 82 16093 1.5 330 17:42 21.01.2020
409 Clouds 19 1019 82 16093 1.5 330 17:19 21.01.2020
410 Clear 19 1019 82 16093 2.6 350 16:56 21.01.2020
411 Clear 19 1019 82 16093 2.6 350 16:36 21.01.2020
412 Clear 19 1019 82 16093 2.6 350 16:18 21.01.2020
413 Clouds 19 1019 82 16093 1.5 10 15:40 21.01.2020
414 Clouds 19 1019 82 16093 1.5 10 15:20 21.01.2020
415 Clouds 20 1019 82 16093 2.6 340 14:55 21.01.2020
416 Clouds 20 1019 82 16093 2.6 340 14:36 21.01.2020
417 Clouds 20 1019 82 16093 2.6 340 14:18 21.01.2020
418 Clear 20 1019 68 16093 1.5 330 13:38 21.01.2020
419 Clear 20 1019 68 16093 1.5 330 13:18 21.01.2020
420 Clear 21 1020 68 16093 2.1 40 12:43 21.01.2020
421 Clear 21 1020 68 16093 2.1 40 12:43 21.01.2020
422 Clear 21 1020 68 16093 2.1 40 12:24 21.01.2020
423 Clouds 21 1020 73 16093 2.6 30 11:56 21.01.2020
424 Clouds 21 1020 73 16093 2.6 30 11:38 21.01.2020
425 Clouds 21 1020 73 16093 2.6 30 11:38 21.01.2020
426 Clouds 21 1020 73 16093 2.6 30 11:19 21.01.2020
427 Clouds 22 1020 69 16093 1.5 30 10:43 21.01.2020
428 Clouds 22 1020 69 16093 1.5 30 10:23 21.01.2020
429 Clouds 22 1021 64 16093 2.1 30 09:57 21.01.2020
430 Clouds 22 1021 64 16093 2.1 30 09:39 21.01.2020
431 Clouds 22 1021 64 16093 2.1 30 09:21 21.01.2020
432 Clouds 22 1020 64 16093 3.6 60 08:45 21.01.2020
433 Clouds 22 1020 64 16093 3.6 60 08:27 21.01.2020
434 Clouds 23 1020 64 16093 4.1 50 07:45 21.01.2020
435 Clouds 23 1020 64 16093 4.1 50 07:26 21.01.2020
436 Clouds 23 1019 64 16093 5.1 70 06:58 21.01.2020
437 Clouds 23 1019 64 16093 5.1 70 06:39 21.01.2020
438 Clouds 23 1019 64 16093 5.1 70 06:20 21.01.2020
439 Clouds 23 1019 61 16093 4.6 60 05:40 21.01.2020
440 Clouds 24 1018 57 16093 4.1 50 04:38 21.01.2020
441 Clouds 25 1018 65 16093 5.1 90 02:29 21.01.2020
442 Rain 25 1019 61 16093 5.1 70 01:36 21.01.2020
443 Clouds 25 1019 65 16093 5.7 100 00:51 21.01.2020
444 Rain 25 1019 73 16093 6.2 70 00:28 21.01.2020
445 Rain 24 1019 73 16093 6.2 90 23:56 20.01.2020
446 Rain 24 1021 61 16093 5.7 40 23:36 20.01.2020
447 Rain 24 1021 61 16093 5.7 40 23:18 20.01.2020
448 Rain 24 1021 57 16093 7.2 40 22:40 20.01.2020
449 Rain 24 1021 57 16093 7.2 40 22:21 20.01.2020
450 Rain 24 1021 69 16093 4.6 80 21:58 20.01.2020
451 Rain 24 1021 69 16093 4.6 80 21:38 20.01.2020
452 Rain 24 1021 69 16093 4.6 80 21:20 20.01.2020
453 Rain 23 1022 88 16093 6.27 84 20:59 20.01.2020
454 Rain 23 1020 78 11265 4.6 110 20:41 20.01.2020
455 Rain 23 1020 78 11265 4.6 110 20:20 20.01.2020
456 Clouds 22 1019 73 16093 5.1 80 19:58 20.01.2020
457 Rain 22 1021 100 16093 1.5 110 19:40 20.01.2020
458 Rain 21 1021 100 16093 1.5 110 19:19 20.01.2020
459 Rain 21 1021 93 16093 1.5 210 18:54 20.01.2020
460 Rain 21 1020 78 16093 2.6 60 18:36 20.01.2020
461 Rain 21 1020 78 16093 2.6 60 18:18 20.01.2020
462 Rain 21 1020 78 9656 2.6 60 17:38 20.01.2020
463 Rain 21 1020 78 9656 2.6 60 17:19 20.01.2020
464 Clouds 21 1019 78 16093 4.6 80 16:46 20.01.2020
465 Rain 21 1019 78 16093 4.6 80 16:26 20.01.2020
466 Rain 21 1019 93 16093 2.1 320 15:59 20.01.2020
467 Clouds 21 1018 78 16093 7.2 80 15:40 20.01.2020
468 Clouds 21 1018 78 16093 7.2 80 15:21 20.01.2020
469 Clouds 21 1019 69 16093 3.6 40 14:56 20.01.2020
470 Clouds 21 1019 69 16093 3.6 40 14:37 20.01.2020
471 Clouds 21 1019 69 16093 3.6 40 14:19 20.01.2020
472 Clouds 21 1020 69 16093 4.6 50 13:42 20.01.2020
473 Clouds 21 1020 69 16093 4.6 50 13:23 20.01.2020
474 Clouds 22 1020 93 16093 2.1 300 12:56 20.01.2020
475 Clouds 22 1021 93 16093 1.5 290 12:38 20.01.2020
476 Clouds 22 1021 93 16093 1.5 290 12:19 20.01.2020
477 Drizzle 22 1021 93 16093 2.6 290 11:43 20.01.2020
478 Clouds 22 1020 69 16093 5.1 50 11:24 20.01.2020
479 Clouds 22 1021 64 16093 6.7 60 10:57 20.01.2020
480 Clouds 22 1021 64 16093 6.7 60 10:39 20.01.2020
481 Clouds 23 1021 64 16093 6.7 60 10:19 20.01.2020
482 Clouds 22 1020 69 16093 5.7 60 09:41 20.01.2020
483 Clouds 22 1021 82 16093 2.99 65 09:41 20.01.2020
484 Clouds 22 1020 69 16093 5.7 60 09:21 20.01.2020
485 Clouds 23 1021 77 16093 2.99 65 08:49 20.01.2020
486 Clouds 22 1021 82 16093 2.99 65 08:30 20.01.2020
487 Clouds 22 1020 64 16093 3.1 40 07:54 20.01.2020
488 Clouds 22 1020 64 16093 3.1 40 07:30 20.01.2020
489 Clouds 22 1019 60 16093 6.7 70 06:59 20.01.2020
490 Clouds 22 1019 60 16093 6.7 70 06:30 20.01.2020
491 Clouds 23 1018 57 16093 5.1 60 05:44 20.01.2020
492 Clouds 23 1018 57 16093 5.1 60 05:25 20.01.2020
493 Clouds 24 1018 53 16093 8.7 80 04:58 20.01.2020
494 Clouds 24 1018 47 16093 5.1 40 03:30 20.01.2020
495 Clouds 25 1019 42 16093 7.2 60 01:57 20.01.2020
496 Clouds 25 1019 42 16093 7.2 60 01:37 20.01.2020
497 Clouds 25 1020 42 16093 7.2 50 00:45 20.01.2020
498 Clouds 25 1020 42 16093 7.2 50 00:25 20.01.2020
499 Clouds 24 1021 42 16093 6.2 50 23:40 19.01.2020
500 Clouds 25 1021 42 16093 6.2 50 23:20 19.01.2020
501 Clouds 25 1019 50 16093 6.7 60 22:58 19.01.2020
502 Clouds 25 1019 50 16093 6.7 60 22:40 19.01.2020
503 Clouds 25 1019 50 16093 6.7 60 22:21 19.01.2020
504 Clouds 24 1022 50 16093 6.2 50 21:57 19.01.2020
505 Clouds 24 1022 50 16093 6.2 50 21:57 19.01.2020
506 Clouds 24 1022 50 16093 6.2 50 21:57 19.01.2020
507 Clouds 23 1022 50 16093 6.2 50 21:39 19.01.2020
508 Clouds 23 1022 50 16093 6.2 50 21:39 19.01.2020
509 Clouds 23 1022 50 16093 6.2 50 21:21 19.01.2020
510 Clouds 23 1021 53 16093 3.6 30 20:58 19.01.2020
511 Clouds 23 1021 53 16093 3.6 30 20:39 19.01.2020
512 Clouds 23 1021 53 16093 3.6 30 20:21 19.01.2020
513 Clouds 22 1020 53 16093 2.6 0 19:58 19.01.2020
514 Clouds 22 1020 53 16093 2.6 0 19:39 19.01.2020
515 Clouds 22 1020 53 16093 2.6 0 19:39 19.01.2020
516 Clouds 22 1020 53 16093 2.6 0 19:21 19.01.2020
517 Clouds 22 1019 56 16093 1.5 40 18:59 19.01.2020
518 Clouds 21 1019 56 16093 1.5 40 18:41 19.01.2020
519 Clouds 21 1019 56 16093 1.5 40 18:21 19.01.2020
520 Clouds 21 1018 60 16093 5.1 60 17:59 19.01.2020
521 Clouds 21 1018 60 16093 5.1 60 17:40 19.01.2020
522 Clouds 21 1018 60 16093 5.1 60 17:40 19.01.2020
523 Clouds 21 1018 60 16093 5.1 60 17:22 19.01.2020
524 Clouds 21 1018 72 16093 1.5 10 16:59 19.01.2020
525 Clouds 21 1018 72 16093 3.78 59 16:40 19.01.2020
526 Clouds 21 1018 72 16093 3.78 59 16:40 19.01.2020
527 Clouds 21 1018 72 16093 3.78 59 16:22 19.01.2020
528 Clouds 20 1018 60 16093 3.1 40 15:59 19.01.2020
529 Clouds 20 1018 60 16093 3.1 40 15:40 19.01.2020
530 Clouds 20 1018 60 16093 3.1 40 15:21 19.01.2020
531 Clouds 21 1019 72 16093 2.6 360 14:59 19.01.2020
532 Clouds 21 1019 56 16093 3.6 50 14:39 19.01.2020
533 Clouds 21 1019 56 16093 3.6 50 14:19 19.01.2020
534 Clouds 21 1019 56 16093 3.6 50 13:58 19.01.2020
535 Clouds 21 1019 56 16093 3.6 50 13:38 19.01.2020
536 Clouds 21 1019 56 16093 3.6 50 13:20 19.01.2020
537 Clouds 21 1019 56 16093 3.1 40 12:55 19.01.2020
538 Clouds 21 1019 56 16093 3.1 40 12:37 19.01.2020
539 Clouds 21 1019 56 16093 3.1 40 12:37 19.01.2020
540 Clouds 21 1019 56 16093 3.1 40 12:19 19.01.2020
541 Clouds 21 1020 72 16093 5.1 10 11:42 19.01.2020
542 Clouds 21 1019 60 16093 5.7 50 11:21 19.01.2020
543 Clouds 21 1020 68 16093 3.6 350 10:57 19.01.2020
544 Clouds 21 1020 56 16093 3.1 40 10:39 19.01.2020
545 Clouds 21 1020 56 16093 3.1 40 10:19 19.01.2020
546 Clouds 21 1019 56 16093 5.7 40 09:56 19.01.2020
547 Clouds 21 1019 56 16093 5.7 40 09:56 19.01.2020
548 Clouds 21 1019 56 16093 5.7 40 09:56 19.01.2020
549 Clouds 21 1019 56 16093 5.7 40 09:56 19.01.2020
550 Clouds 21 1019 56 16093 5.7 40 09:56 19.01.2020
551 Clouds 21 1019 56 16093 5.7 40 09:37 19.01.2020
552 Clouds 22 1019 56 16093 5.7 40 09:18 19.01.2020
553 Clouds 22 1020 77 16093 3.1 330 08:48 19.01.2020
554 Clouds 22 1019 60 16093 3.6 40 08:28 19.01.2020
555 Clouds 22 1019 60 16093 4.1 40 07:42 19.01.2020
556 Clouds 22 1019 60 16093 4.1 40 07:22 19.01.2020
557 Clouds 22 1018 60 16093 3.1 40 06:53 19.01.2020
558 Clouds 22 1018 60 16093 3.1 40 06:21 19.01.2020
559 Clouds 25 1016 47 16093 5.7 20 02:44 19.01.2020
560 Clouds 25 1016 47 16093 5.7 20 02:21 19.01.2020
561 Clouds 25 1017 47 16093 8.2 30 01:25 19.01.2020
562 Clouds 25 1018 44 16093 6.7 30 00:50 19.01.2020
563 Clouds 24 1014 64 0 0.45 92 00:29 19.01.2020
564 Clouds 25 1019 44 16093 5.7 30 23:58 18.01.2020
565 Clouds 25 1019 44 16093 5.7 30 23:40 18.01.2020
566 Clouds 25 1019 44 16093 5.7 30 23:21 18.01.2020
567 Clouds 24 1019 68 16093 3.1 30 22:55 18.01.2020
568 Clouds 24 1019 44 16093 5.7 60 22:37 18.01.2020
569 Clouds 24 1019 44 16093 5.7 60 22:19 18.01.2020
570 Clouds 23 1019 50 16093 7.7 50 21:56 18.01.2020
571 Clouds 23 1019 50 16093 7.7 50 21:37 18.01.2020
572 Clouds 23 1019 50 16093 7.7 50 21:18 18.01.2020
573 Clouds 22 1018 53 16093 5.7 50 20:42 18.01.2020
574 Clouds 22 1018 53 16093 5.7 50 20:21 18.01.2020
575 Clouds 22 1018 53 16093 3.1 40 19:55 18.01.2020
576 Clouds 22 1018 53 16093 3.1 40 19:37 18.01.2020
577 Clouds 22 1018 53 16093 3.1 40 19:37 18.01.2020
578 Clouds 22 1018 53 16093 3.1 40 19:19 18.01.2020
579 Clouds 21 1017 60 16093 3.6 50 18:42 18.01.2020
580 Clouds 21 1017 60 16093 3.6 50 18:21 18.01.2020
581 Clouds 21 1016 60 16093 2.6 20 17:41 18.01.2020
582 Clouds 21 1016 60 16093 2.6 20 17:21 18.01.2020
583 Clouds 21 1016 60 16093 2.6 20 17:21 18.01.2020
584 Clear 21 1016 53 16093 3.6 30 16:59 18.01.2020
585 Clear 21 1016 53 16093 3.6 30 16:41 18.01.2020
586 Clear 21 1016 53 16093 3.6 30 16:22 18.01.2020
587 Clouds 21 1015 56 16093 7.2 50 15:58 18.01.2020
588 Clouds 21 1015 56 16093 7.2 50 15:58 18.01.2020
589 Clouds 21 1015 56 16093 7.2 50 15:40 18.01.2020
590 Clouds 21 1015 56 16093 7.2 50 15:21 18.01.2020
591 Clouds 21 1015 60 16093 7.2 50 14:44 18.01.2020
592 Clouds 21 1015 60 16093 3.6 30 14:24 18.01.2020
593 Clouds 21 1016 64 16093 2.6 30 13:59 18.01.2020
594 Clouds 21 1016 64 16093 2.6 30 13:41 18.01.2020
595 Clouds 21 1016 64 16093 2.6 30 13:20 18.01.2020
596 Clouds 21 1016 68 16093 3.6 30 12:55 18.01.2020
597 Clouds 21 1016 68 16093 3.6 30 12:36 18.01.2020
598 Clouds 21 1016 68 16093 3.6 30 12:18 18.01.2020
599 Rain 21 1017 68 16093 3.1 10 11:43 18.01.2020
600 Rain 21 1017 68 16093 3.1 10 11:21 18.01.2020
601 Rain 21 1017 56 16093 4.1 30 10:43 18.01.2020
602 Rain 21 1017 56 16093 4.1 30 10:22 18.01.2020
603 Clouds 22 1017 60 16093 4.1 10 09:57 18.01.2020
604 Clouds 22 1017 60 16093 4.1 10 09:39 18.01.2020
605 Clouds 22 1017 60 16093 4.1 10 09:19 18.01.2020
606 Clouds 22 1016 56 16093 6.2 30 08:42 18.01.2020
607 Clouds 22 1016 56 16093 6.2 30 08:20 18.01.2020
608 Clouds 22 1016 56 16093 6.2 30 08:20 18.01.2020
609 Clouds 22 1015 56 16093 5.1 10 07:58 18.01.2020
610 Clouds 22 1015 56 16093 5.1 10 07:37 18.01.2020
611 Clouds 22 1015 60 16093 4.1 20 06:50 18.01.2020
612 Clouds 22 1015 60 16093 4.1 20 06:27 18.01.2020
613 Clouds 22 1014 64 16093 6.2 20 05:49 18.01.2020
614 Clouds 23 1014 61 16093 7.7 30 04:24 18.01.2020
615 Rain 23 1013 61 16093 7.2 30 02:33 18.01.2020
616 Clouds 24 1013 61 16093 6.7 30 01:36 18.01.2020
617 Haze 24 1014 73 9656 10.3 30 00:39 18.01.2020
618 Haze 24 1014 73 9656 10.3 30 00:19 18.01.2020
619 Clouds 24 1014 69 16093 8.2 30 23:56 17.01.2020
620 Rain 24 1015 61 16093 5.7 20 23:38 17.01.2020
621 Rain 24 1015 61 16093 5.7 20 23:18 17.01.2020
622 Rain 23 1015 61 16093 6.7 360 22:40 17.01.2020
623 Clouds 24 1015 61 16093 6.7 360 22:19 17.01.2020
624 Clouds 24 1015 61 16093 6.7 360 22:19 17.01.2020
625 Rain 23 1015 65 16093 6.2 10 21:43 17.01.2020
626 Rain 23 1015 65 16093 6.2 10 21:24 17.01.2020
627 Clouds 23 1016 100 16093 4.1 350 20:59 17.01.2020
628 Clouds 23 1015 69 16093 4.6 360 20:41 17.01.2020
629 Clouds 23 1015 69 16093 4.6 360 20:20 17.01.2020
630 Clouds 22 1014 73 16093 4.6 320 19:57 17.01.2020
631 Clouds 22 1014 73 16093 4.6 320 19:38 17.01.2020
632 Clouds 22 1014 73 16093 4.6 320 19:19 17.01.2020
633 Clouds 21 1013 78 16093 3.6 310 18:57 17.01.2020
634 Clouds 21 1013 78 16093 3.6 310 18:37 17.01.2020
635 Clouds 21 1013 78 16093 3.6 310 18:19 17.01.2020
636 Clouds 22 1013 78 16093 3.1 330 17:39 17.01.2020
637 Clouds 22 1013 78 16093 3.1 330 17:21 17.01.2020
638 Clouds 21 1012 78 16093 5.1 330 16:44 17.01.2020
639 Clouds 21 1012 78 16093 5.1 330 16:21 17.01.2020
640 Clouds 21 1012 83 16093 4.6 320 15:58 17.01.2020
641 Clouds 21 1012 83 16093 4.6 320 15:40 17.01.2020
642 Clouds 21 1012 83 16093 4.6 320 15:22 17.01.2020
643 Clouds 21 1011 78 16093 4.1 360 14:43 17.01.2020
644 Clouds 21 1011 78 16093 4.1 360 14:25 17.01.2020
645 Clouds 21 1012 83 16093 3.1 340 13:46 17.01.2020
646 Clouds 21 1012 83 16093 3.1 340 13:23 17.01.2020
647 Clouds 21 1012 94 16093 1.96 12 12:48 17.01.2020
648 Clouds 21 1012 88 16093 1.5 300 12:24 17.01.2020
649 Rain 21 1013 83 16093 2.1 330 11:56 17.01.2020
650 Rain 22 1013 83 16093 2.1 330 11:37 17.01.2020
651 Rain 22 1013 83 16093 2.1 330 11:18 17.01.2020
652 Clouds 22 1013 78 16093 2.1 330 10:42 17.01.2020
653 Clouds 22 1013 78 16093 2.1 330 10:42 17.01.2020
654 Clouds 22 1013 78 16093 2.1 330 10:22 17.01.2020
655 Clouds 22 1012 83 16093 4.1 30 09:56 17.01.2020
656 Clouds 22 1013 83 16093 2.1 330 09:37 17.01.2020
657 Clouds 22 1013 83 16093 2.1 330 09:18 17.01.2020
658 Clouds 22 1013 78 16093 1.46 13 08:42 17.01.2020
659 Clouds 22 1013 78 16093 1.64 33 08:23 17.01.2020
660 Clouds 22 1013 94 16093 1.1 57 07:51 17.01.2020
661 Clouds 22 1012 78 16093 2.6 10 07:31 17.01.2020
662 Clouds 23 1012 83 16093 1.5 50 06:56 17.01.2020
663 Clouds 23 1012 83 16093 1.5 50 06:37 17.01.2020
664 Rain 23 1011 78 16093 1.1 57 05:27 17.01.2020
665 Rain 24 1008 79 0 0.9 52 03:38 17.01.2020
666 Rain 24 1007 79 0 0.9 52 02:43 17.01.2020
667 Rain 25 1010 65 0 3.58 180 01:45 17.01.2020
668 Rain 25 1007 74 0 1.17 129 01:27 17.01.2020
669 Rain 25 1007 77 0 0.64 163 00:43 17.01.2020
670 Clouds 25 1012 94 16093 0.64 163 00:19 17.01.2020
671 Clouds 26 1012 65 16093 2.6 210 23:41 16.01.2020
672 Clouds 26 1012 65 16093 2.6 210 23:41 16.01.2020
673 Clouds 25 1012 94 16093 0.33 9 23:23 16.01.2020
674 Clouds 26 1012 74 16093 4.1 80 22:43 16.01.2020
675 Clouds 26 1012 74 16093 4.1 80 22:22 16.01.2020
676 Clouds 25 1012 69 16093 4.1 80 21:57 16.01.2020
677 Clouds 24 1013 69 16093 0.33 9 21:38 16.01.2020
678 Clouds 24 1013 69 16093 0.33 9 21:19 16.01.2020
679 Clouds 23 1013 94 16093 3.1 350 20:58 16.01.2020
680 Clouds 23 1013 94 16093 2.6 360 20:39 16.01.2020
681 Rain 23 1013 94 16093 2.6 360 20:19 16.01.2020
682 Rain 22 1012 78 16093 2.1 350 19:56 16.01.2020
683 Rain 22 1012 78 16093 2.1 350 19:38 16.01.2020
684 Rain 22 1012 78 16093 2.1 350 19:19 16.01.2020
685 Rain 21 1012 83 16093 1.5 360 18:55 16.01.2020
686 Rain 21 1012 83 16093 1.5 360 18:37 16.01.2020
687 Clouds 21 1012 83 16093 1.5 360 18:18 16.01.2020
688 Clouds 21 1012 83 16093 1.5 360 18:18 16.01.2020
689 Clouds 21 1012 83 16093 3.1 360 17:42 16.01.2020
690 Clouds 21 1012 83 16093 3.1 360 17:23 16.01.2020
691 Clouds 21 1011 78 16093 0.87 127 16:57 16.01.2020
692 Clouds 21 1011 78 16093 0.87 127 16:39 16.01.2020
693 Clouds 21 1011 78 16093 0.87 127 16:19 16.01.2020
694 Clouds 22 1011 78 16093 0.87 127 15:44 16.01.2020
695 Clouds 22 1011 78 16093 0.87 127 15:23 16.01.2020
696 Clouds 22 1011 73 16093 3.1 100 14:57 16.01.2020
697 Clouds 22 1011 73 16093 3.1 100 14:39 16.01.2020
698 Clouds 22 1011 73 16093 3.1 100 14:20 16.01.2020
699 Clouds 22 1011 100 16093 1.5 320 13:44 16.01.2020
700 Clouds 22 1011 73 16093 5.1 90 13:25 16.01.2020
701 Clouds 22 1013 73 16093 2.6 80 12:47 16.01.2020
702 Clouds 22 1013 73 16093 2.6 80 12:28 16.01.2020
703 Clouds 22 1013 73 16093 2.6 90 11:58 16.01.2020
704 Clouds 22 1013 73 16093 2.6 90 11:39 16.01.2020
705 Clouds 22 1013 73 16093 2.6 90 11:21 16.01.2020
706 Rain 22 1014 73 16093 3.1 90 10:40 16.01.2020
707 -273 0 0 0 0 0 10:22 16.01.2020
708 Rain 23 1014 69 16093 4.1 50 09:58 16.01.2020
709 Rain 23 1014 69 16093 4.1 50 09:40 16.01.2020
710 Rain 23 1014 69 16093 4.1 50 09:22 16.01.2020
711 Clouds 24 1014 69 16093 4.6 40 08:53 16.01.2020
712 Clouds 23 1014 69 16093 4.6 40 08:35 16.01.2020
713 Clouds 23 1014 69 16093 4.1 80 07:59 16.01.2020
714 Rain 23 1014 69 16093 4.1 80 07:39 16.01.2020
715 Rain 23 1014 69 16093 4.1 80 07:21 16.01.2020
716 Rain 23 1013 73 16093 4.1 70 06:43 16.01.2020
717 Clouds 23 1013 73 16093 4.1 70 06:22 16.01.2020
718 Clouds 23 1013 69 16093 4.6 80 05:46 16.01.2020
719 Clouds 24 1013 78 16093 2.6 150 04:40 16.01.2020
720 Clouds 25 1012 57 16093 3.6 70 03:28 16.01.2020
721 Clouds 25 1012 73 16093 4.1 60 02:43 16.01.2020
722 Clouds 25 1013 73 16093 4.6 70 01:24 16.01.2020
723 Rain 25 1014 61 16093 7.2 70 00:24 16.01.2020
724 Rain 24 1015 65 16093 7.2 80 23:51 15.01.2020
725 Rain 24 1015 65 16093 7.2 80 23:23 15.01.2020
726 Rain 24 1015 83 16093 5.1 80 22:59 15.01.2020
727 Rain 24 1015 69 16093 5.7 80 22:41 15.01.2020
728 Rain 24 1015 69 16093 5.7 80 22:20 15.01.2020
729 Rain 24 1015 69 16093 5.7 80 22:20 15.01.2020
730 Rain 23 1015 73 9656 6.7 70 21:58 15.01.2020
731 Mist 23 1015 73 9656 6.7 70 21:40 15.01.2020
732 Mist 23 1015 73 9656 6.7 70 21:21 15.01.2020
733 Rain 23 1015 69 16093 5.1 70 20:58 15.01.2020
734 Rain 23 1015 69 16093 5.1 70 20:58 15.01.2020
735 Rain 23 1015 69 16093 5.1 70 20:58 15.01.2020
736 Rain 23 1015 69 16093 5.1 70 20:40 15.01.2020
737 Rain 23 1015 69 16093 5.1 70 20:21 15.01.2020
738 Rain 23 1014 69 16093 6.2 40 19:55 15.01.2020
739 Rain 23 1014 69 16093 6.2 40 19:37 15.01.2020
740 Rain 23 1014 69 16093 6.2 40 19:19 15.01.2020
741 Clouds 22 1014 73 16093 4.6 70 18:57 15.01.2020
742 Clouds 22 1014 73 16093 4.6 70 18:57 15.01.2020
743 Rain 22 1014 73 16093 4.6 70 18:38 15.01.2020
744 Rain 22 1014 73 16093 4.6 70 18:20 15.01.2020
745 Rain 22 1014 94 16093 1.5 110 17:58 15.01.2020
746 Rain 22 1014 78 16093 6.7 80 17:38 15.01.2020
747 Clouds 22 1014 78 16093 6.7 80 17:20 15.01.2020
748 Clouds 22 1014 78 16093 2.6 70 16:41 15.01.2020
749 Clouds 22 1014 78 16093 2.6 70 16:41 15.01.2020
750 Rain 22 1014 78 16093 2.6 70 16:22 15.01.2020
751 Rain 22 1013 73 16093 6.2 80 15:59 15.01.2020
752 Rain 22 1014 78 16093 4.1 60 15:41 15.01.2020
753 Rain 22 1014 78 16093 4.1 60 15:20 15.01.2020
754 Clouds 22 1014 73 16093 7.7 80 14:44 15.01.2020
755 Clouds 22 1014 73 16093 6.2 80 14:21 15.01.2020
756 Clouds 23 1015 78 16093 2.6 60 13:55 15.01.2020
757 Clouds 23 1015 78 16093 2.6 60 13:37 15.01.2020
758 Clouds 23 1015 78 16093 2.6 60 13:18 15.01.2020
759 Clouds 23 1015 73 16093 6.2 90 12:41 15.01.2020
760 Clouds 23 1015 73 16093 5.7 100 12:20 15.01.2020
761 Drizzle 22 1016 100 14484 2.6 130 11:58 15.01.2020
762 Clouds 23 1016 100 16093 1.5 200 11:37 15.01.2020
763 Clouds 23 1016 100 16093 1.5 200 11:19 15.01.2020
764 Clouds 23 1016 78 16093 4.1 60 10:46 15.01.2020
765 Clouds 23 1016 78 16093 4.1 60 10:27 15.01.2020
766 Drizzle 23 1016 94 16093 2.6 110 09:46 15.01.2020
767 Rain 23 1016 94 14484 2.1 120 09:26 15.01.2020
768 Drizzle 23 1016 94 16093 2.6 130 08:59 15.01.2020
769 Drizzle 23 1016 94 16093 2.6 130 08:59 15.01.2020
770 Drizzle 23 1016 88 16093 2.6 120 08:41 15.01.2020
771 Drizzle 23 1016 88 16093 2.6 120 08:22 15.01.2020
772 Clouds 24 1015 69 16093 6.7 60 07:52 15.01.2020
773 Clouds 24 1015 69 16093 6.7 60 07:32 15.01.2020
774 Clouds 24 1016 83 16093 8.24 91 06:46 15.01.2020
775 Drizzle 24 1016 83 16093 2.1 100 06:20 15.01.2020
776 Clouds 25 1015 73 16093 6.2 90 04:44 15.01.2020
777 Clouds 25 1014 61 16093 8.2 50 02:38 15.01.2020
778 Clouds 25 1014 61 16093 8.7 80 01:28 15.01.2020
779 Clouds 26 1015 73 16093 5.1 90 00:46 15.01.2020
780 Clouds 25 1015 61 16093 9.3 60 00:27 15.01.2020
781 Clouds 25 1016 83 16093 3.6 120 23:56 14.01.2020
782 Clouds 25 1016 61 16093 7.7 60 23:38 14.01.2020
783 Clouds 26 1016 61 16093 7.7 60 23:19 14.01.2020
784 Clouds 25 1016 69 16093 5.7 90 22:41 14.01.2020
785 Clouds 25 1016 69 16093 5.7 90 22:19 14.01.2020
786 Drizzle 24 1018 88 16093 2.6 130 21:58 14.01.2020
787 Rain 24 1017 65 16093 5.1 80 21:40 14.01.2020
788 Rain 24 1017 65 16093 5.1 80 21:21 14.01.2020
789 Rain 24 1017 65 16093 5.1 80 21:21 14.01.2020
790 Clouds 24 1017 88 16093 3.6 160 20:59 14.01.2020
791 Clouds 24 1016 73 16093 5.1 90 20:40 14.01.2020
792 Clouds 24 1016 73 16093 5.1 90 20:20 14.01.2020
793 Clouds 24 1016 73 16093 5.1 90 19:56 14.01.2020
794 Clouds 24 1016 65 16093 5.7 60 19:37 14.01.2020
795 Clouds 24 1016 65 16093 5.7 60 19:18 14.01.2020
796 Mist 24 1016 73 9656 4.1 90 18:41 14.01.2020
797 Mist 24 1016 73 9656 4.1 90 18:21 14.01.2020
798 Mist 24 1016 73 9656 4.1 90 17:59 14.01.2020
799 Clouds 24 1015 69 16093 5.7 70 17:37 14.01.2020
800 Clouds 23 1015 69 16093 5.7 70 17:19 14.01.2020
801 Clouds 23 1016 78 16093 2.1 120 16:55 14.01.2020
802 Mist 23 1015 73 16093 3.6 80 16:37 14.01.2020
803 Mist 24 1015 73 16093 3.6 80 16:18 14.01.2020
804 Mist 24 1015 73 16093 4.6 80 15:42 14.01.2020
805 Clouds 24 1015 64 16093 8.7 80 15:19 14.01.2020
806 Clouds 24 1015 65 16093 7.2 60 14:46 14.01.2020
807 Clouds 24 1015 65 16093 7.2 60 14:23 14.01.2020
808 Clouds 24 1016 78 16093 5.1 120 13:58 14.01.2020
809 Clouds 24 1016 69 16093 7.2 70 13:39 14.01.2020
810 Clouds 24 1016 69 16093 7.2 70 13:19 14.01.2020
811 Clouds 24 1016 69 16093 4.6 50 12:42 14.01.2020
812 Clouds 24 1016 69 16093 4.6 50 12:22 14.01.2020
813 Clouds 24 1016 83 16093 3.1 130 11:56 14.01.2020
814 Clouds 24 1017 83 16093 4.1 110 11:37 14.01.2020
815 Clouds 24 1017 83 16093 4.1 110 11:37 14.01.2020
816 Clouds 24 1017 83 16093 4.1 110 11:19 14.01.2020
817 Mist 24 1017 69 16093 6.2 80 10:41 14.01.2020
818 Clouds 24 1017 65 16093 4.6 50 10:20 14.01.2020
819 Clouds 24 1019 78 16093 2.1 120 09:58 14.01.2020
820 Clouds 24 1019 78 16093 1.5 140 09:40 14.01.2020
821 Clouds 25 1019 78 16093 1.5 140 09:21 14.01.2020
822 Clouds 25 1016 57 16093 6.7 70 08:48 14.01.2020
823 Clouds 25 1016 57 16093 6.7 70 08:26 14.01.2020
824 Clouds 25 1017 73 16093 4.6 130 07:56 14.01.2020
825 Clouds 24 1016 65 16093 8.2 80 07:34 14.01.2020
826 Clouds 24 1015 65 16093 8.2 80 06:57 14.01.2020
827 Clouds 24 1015 65 16093 8.2 80 06:39 14.01.2020
828 Clouds 24 1015 65 16093 8.2 80 06:39 14.01.2020
829 Clouds 25 1015 65 16093 6.2 70 05:28 14.01.2020
830 Mist 25 1015 65 9656 7.7 70 03:57 14.01.2020
831 Clouds 25 1015 65 16093 6.7 60 03:35 14.01.2020
832 Clouds 25 1014 65 16093 7.7 50 01:58 14.01.2020
833 Mist 26 1014 69 16093 5.1 90 00:53 14.01.2020
834 Rain 26 1015 65 16093 5.1 60 00:35 14.01.2020
835 Clouds 26 1016 83 16093 6.2 100 23:55 13.01.2020
836 Clouds 26 1016 83 16093 6.7 100 23:37 13.01.2020
837 Clouds 26 1016 83 16093 6.7 100 23:18 13.01.2020
838 Mist 25 1016 69 9656 4.6 80 22:42 13.01.2020
839 Rain 25 1016 74 16093 7.2 50 22:21 13.01.2020
840 Clouds 25 1017 74 16093 4.6 40 21:57 13.01.2020
841 Clouds 25 1017 74 16093 4.6 40 21:38 13.01.2020
842 Clouds 25 1017 74 16093 4.6 40 21:38 13.01.2020
843 Clouds 25 1017 74 16093 4.6 40 21:38 13.01.2020
844 Clouds 25 1017 74 16093 4.6 40 21:19 13.01.2020
845 Clouds 25 1017 74 16093 4.6 40 21:19 13.01.2020
846 Rain 24 1016 73 14484 6.7 80 20:58 13.01.2020
847 Rain 24 1016 73 14484 6.7 80 20:40 13.01.2020
848 Rain 24 1016 73 14484 6.7 80 20:22 13.01.2020
849 Mist 24 1015 78 9656 5.7 90 19:58 13.01.2020
850 Mist 24 1015 78 9656 5.7 90 19:39 13.01.2020
851 Mist 24 1015 78 9656 5.7 90 19:20 13.01.2020
852 Rain 24 1015 78 16093 3.6 70 18:56 13.01.2020
853 Rain 24 1015 78 16093 3.6 70 18:37 13.01.2020
854 Rain 24 1015 78 16093 3.6 70 18:18 13.01.2020
855 Rain 24 1015 78 16093 3.6 70 18:18 13.01.2020
856 Clouds 24 1015 88 16093 7.83 93 17:40 13.01.2020
857 Clouds 24 1015 88 16093 7.83 93 17:22 13.01.2020
858 Clouds 24 1015 88 16093 8.29 96 17:22 13.01.2020
859 Clouds 24 1014 73 16093 4.1 60 16:56 13.01.2020
860 Rain 24 1013 73 0 2.68 80 16:38 13.01.2020
861 Rain 24 1013 73 0 2.68 80 16:19 13.01.2020
862 Rain 24 1013 82 0 0.45 266 15:44 13.01.2020
863 Rain 24 1013 83 0 1.79 90 15:23 13.01.2020
864 Rain 24 1013 83 0 1.79 90 14:58 13.01.2020
865 Rain 24 1013 83 0 1.79 90 14:38 13.01.2020
866 Clouds 24 1013 83 0 1.79 90 14:19 13.01.2020
867 Clouds 24 1013 73 0 5.36 80 13:41 13.01.2020
868 Rain 24 1013 73 0 5.36 80 13:23 13.01.2020
869 Rain 24 1013 73 0 5.36 80 12:58 13.01.2020
870 Rain 24 1014 81 0 0.89 47 12:40 13.01.2020
871 Clouds 24 1014 69 16093 9.8 50 12:22 13.01.2020
872 Clouds 24 1014 69 16093 9.8 50 11:56 13.01.2020
873 Clouds 24 1014 69 16093 9.8 50 11:37 13.01.2020
874 Clouds 24 1014 69 16093 9.8 50 11:18 13.01.2020
875 Clouds 24 1014 73 16093 9.3 50 10:55 13.01.2020
876 Clouds 23 1014 73 16093 9.3 50 10:36 13.01.2020
877 Clouds 23 1014 73 16093 9.3 50 10:18 13.01.2020
878 Clouds 23 1015 78 16093 9.3 40 09:40 13.01.2020
879 Clouds 23 1015 78 16093 9.3 40 09:22 13.01.2020
880 Clouds 23 1015 94 16093 7.3 94 08:42 13.01.2020
881 Clouds 23 1015 94 16093 6.68 97 08:21 13.01.2020
882 Clouds 24 1014 83 16093 5.1 70 07:54 13.01.2020
883 Clouds 24 1014 83 16093 5.1 70 07:35 13.01.2020
884 Drizzle 23 1014 100 16093 6.68 97 06:44 13.01.2020
885 Drizzle 23 1014 100 16093 6.68 97 06:22 13.01.2020
886 Rain 23 1013 83 14484 4.6 100 05:36 13.01.2020
887 Rain 23 1014 88 2414 5.7 110 03:57 13.01.2020
888 Rain 23 1013 83 12874 2.6 80 03:25 13.01.2020
889 Rain 23 1012 83 11265 5.7 100 02:47 13.01.2020
890 Rain 23 1013 100 16093 3.6 120 02:28 13.01.2020
891 Rain 23 1013 83 16093 5.7 70 01:22 13.01.2020
892 Rain 23 1013 83 16093 5.7 70 01:22 13.01.2020
893 Rain 23 1013 83 16093 6.2 90 00:41 13.01.2020
894 Rain 23 1013 100 16093 3.6 130 00:23 13.01.2020
895 Rain 23 1014 88 9656 7.7 90 23:54 12.01.2020
896 Rain 23 1014 88 9656 7.7 90 23:36 12.01.2020
897 Rain 23 1014 88 9656 7.7 90 23:18 12.01.2020
898 Rain 23 1016 83 16093 2.1 80 22:42 12.01.2020
899 Rain 23 1016 83 16093 2.1 80 22:23 12.01.2020
900 Rain 23 1015 88 14484 5.1 90 21:56 12.01.2020
901 Rain 23 1015 88 14484 5.1 90 21:38 12.01.2020
902 Rain 23 1015 88 14484 5.1 90 21:38 12.01.2020
903 Rain 23 1015 88 14484 5.1 90 21:19 12.01.2020
904 Rain 23 1015 88 16093 2.6 90 20:56 12.01.2020
905 Rain 23 1015 88 16093 2.6 90 20:56 12.01.2020
906 Rain 23 1015 88 16093 2.6 90 20:38 12.01.2020
907 Rain 23 1015 88 16093 2.6 90 20:20 12.01.2020
908 Rain 23 1015 100 14484 3.6 120 19:56 12.01.2020
909 Rain 23 1014 83 16093 5.1 60 19:37 12.01.2020
910 Rain 23 1014 83 16093 5.1 60 19:18 12.01.2020
911 Rain 23 1014 83 16093 7.2 90 18:57 12.01.2020
912 Rain 23 1013 88 16093 6.7 90 18:38 12.01.2020
913 Rain 23 1013 88 16093 6.7 90 18:20 12.01.2020
914 Rain 23 1014 100 16093 1.5 130 17:42 12.01.2020
915 Rain 23 1013 78 16093 3.1 70 17:23 12.01.2020
916 Clouds 23 1013 100 16093 5.7 110 16:59 12.01.2020
917 Rain 23 1012 78 16093 3.1 60 16:39 12.01.2020
918 Rain 23 1012 78 16093 3.1 60 16:20 12.01.2020
919 Rain 23 1013 100 9656 3.6 110 15:56 12.01.2020
920 Clouds 23 1012 83 16093 6.7 90 15:38 12.01.2020
921 Clouds 24 1012 83 16093 6.7 90 15:20 12.01.2020
922 Clouds 24 1013 94 16093 3.6 110 14:42 12.01.2020
923 Clouds 24 1012 78 16093 6.2 70 14:23 12.01.2020
924 Clouds 24 1013 73 16093 5.1 80 13:57 12.01.2020
925 Clouds 24 1013 73 16093 5.1 80 13:39 12.01.2020
926 Clouds 24 1013 73 16093 5.1 80 13:20 12.01.2020
927 Clouds 24 1013 73 16093 7.2 80 12:56 12.01.2020
928 Clouds 24 1013 73 16093 7.2 80 12:37 12.01.2020
929 Clouds 24 1013 73 16093 7.2 80 12:18 12.01.2020
930 Clouds 24 1013 78 16093 6.2 60 11:41 12.01.2020
931 Clouds 24 1013 78 16093 6.2 60 11:22 12.01.2020
932 Clouds 24 1013 83 16093 4.6 90 10:56 12.01.2020
933 Clouds 24 1013 83 16093 4.6 90 10:37 12.01.2020
934 Clouds 24 1013 83 16093 4.6 90 10:18 12.01.2020
935 Clouds 24 1013 73 16093 5.1 80 09:41 12.01.2020
936 Clouds 24 1013 73 16093 5.1 80 09:22 12.01.2020
937 Clouds 24 1014 94 16093 4.1 90 08:48 12.01.2020
938 Rain 24 1014 94 16093 4.1 90 08:22 12.01.2020
939 Rain 23 1013 83 16093 8.7 80 07:46 12.01.2020
940 Rain 24 1012 83 16093 4.6 50 07:25 12.01.2020
941 Rain 23 1013 94 8047 2.6 0 06:50 12.01.2020
942 Rain 23 1013 100 3219 2.1 160 06:32 12.01.2020
943 Rain 24 1013 94 3621 2.6 150 05:49 12.01.2020
944 Clouds 24 1012 94 16093 3.1 120 04:53 12.01.2020
945 Clouds 24 1011 83 16093 6.2 80 03:33 12.01.2020
946 Clouds 25 1011 69 16093 6.2 60 02:43 12.01.2020
947 Clouds 25 1011 69 16093 6.2 60 02:22 12.01.2020
948 Clouds 26 1011 73 16093 6.2 80 01:30 12.01.2020
949 Clouds 25 1012 88 16093 4.1 80 00:45 12.01.2020
950 Clouds 26 1012 65 16093 6.2 80 00:22 12.01.2020
951 Clouds 26 1013 65 16093 6.2 60 23:56 11.01.2020
952 Clouds 26 1013 65 16093 6.2 60 23:37 11.01.2020
953 Clouds 26 1013 65 16093 6.2 60 23:18 11.01.2020
954 Rain 25 1014 88 16093 7.2 80 22:56 11.01.2020
955 Clouds 25 1014 78 16093 6.2 110 22:37 11.01.2020
956 Clouds 25 1014 78 16093 6.2 110 22:18 11.01.2020
957 Rain 24 1014 69 16093 8.7 60 21:42 11.01.2020
958 Rain 24 1014 69 16093 8.7 60 21:18 11.01.2020
959 Clouds 25 1015 78 16093 7.2 90 20:55 11.01.2020
960 Clouds 25 1014 69 16093 8.7 70 20:36 11.01.2020
961 Clouds 25 1014 69 16093 8.7 70 20:18 11.01.2020
962 Clouds 25 1014 69 16093 8.7 70 20:18 11.01.2020
963 Clouds 24 1014 88 16093 5.1 90 19:54 11.01.2020
964 Drizzle 24 1014 88 16093 4.1 110 19:36 11.01.2020
965 Drizzle 24 1014 88 16093 4.1 110 19:18 11.01.2020
966 Clouds 24 1013 73 16093 8.2 60 18:39 11.01.2020
967 Clouds 24 1013 73 16093 8.2 60 18:20 11.01.2020
968 Clouds 24 1013 73 16093 8.2 60 18:20 11.01.2020
969 Rain 23 1014 88 16093 6.7 90 17:58 11.01.2020
970 Rain 23 1014 88 16093 6.7 90 17:58 11.01.2020
971 Rain 23 1013 88 16093 5.1 100 17:40 11.01.2020
972 Rain 23 1013 88 16093 5.1 100 17:20 11.01.2020
973 Rain 23 1013 88 16093 7.7 90 16:46 11.01.2020
974 Rain 23 1013 78 16093 4.1 80 16:28 11.01.2020
975 Rain 23 1013 94 12874 4.1 110 15:59 11.01.2020
976 Rain 23 1013 94 12874 4.1 110 15:41 11.01.2020
977 Clouds 23 1013 73 16093 6.2 90 15:22 11.01.2020
978 Rain 23 1013 94 12874 4.6 90 14:57 11.01.2020
979 Drizzle 23 1013 94 16093 5.7 90 14:38 11.01.2020
980 Rain 23 1013 78 16093 5.7 60 14:20 11.01.2020
981 Rain 23 1013 73 16093 9.8 50 13:41 11.01.2020
982 Rain 23 1013 73 16093 9.8 50 13:20 11.01.2020
983 Rain 23 1014 94 14484 3.6 110 12:58 11.01.2020
984 Rain 23 1013 83 16093 7.2 60 12:40 11.01.2020
985 Rain 23 1013 83 16093 7.2 60 12:21 11.01.2020
986 Drizzle 23 1014 94 12874 6.2 90 11:48 11.01.2020
987 Rain 23 1015 94 16093 9.8 90 11:26 11.01.2020
988 Rain 23 1014 78 16093 9.8 80 10:51 11.01.2020
989 Rain 23 1014 83 16093 9.3 80 10:30 11.01.2020
990 Clouds 23 1015 88 16093 5.7 100 09:57 11.01.2020
991 Clouds 23 1014 88 16093 6.7 80 09:37 11.01.2020
992 Clouds 24 1014 88 16093 6.7 80 09:19 11.01.2020
993 Rain 23 1014 78 16093 8.7 80 08:41 11.01.2020
994 Rain 24 1014 83 16093 9.8 70 08:21 11.01.2020
995 Rain 24 1014 88 16093 5.7 80 07:44 11.01.2020
996 Rain 24 1014 73 16093 10.8 70 07:25 11.01.2020
997 Rain 23 1014 100 11265 3.6 70 06:48 11.01.2020
998 Rain 24 1013 69 16093 7.2 60 05:34 11.01.2020
999 Rain 23 1013 83 16093 7.7 70 04:46 11.01.2020
1000 Rain 23 1013 73 16093 6.7 60 04:27 11.01.2020
1001 Rain 25 1013 94 16093 3.6 40 02:49 11.01.2020
1002 Rain 25 1013 88 4023 7.7 80 01:57 11.01.2020
1003 Rain 25 1013 61 16093 7.2 50 01:38 11.01.2020
1004 Rain 25 1013 61 16093 7.2 50 01:18 11.01.2020
1005 Rain 25 1014 65 16093 9.3 60 00:38 11.01.2020
1006 Rain 25 1015 94 14484 3.6 50 23:59 10.01.2020
1007 Clouds 25 1015 74 16093 8.7 60 23:39 10.01.2020
1008 Clouds 25 1015 74 16093 8.7 60 23:21 10.01.2020
1009 Drizzle 25 1016 94 16093 2.6 40 22:55 10.01.2020
1010 Rain 24 1016 94 16093 4.6 50 22:37 10.01.2020
1011 Rain 25 1016 94 16093 4.6 50 22:18 10.01.2020
1012 Clouds 24 1016 73 16093 7.7 80 21:41 10.01.2020
1013 Clouds 24 1016 73 16093 7.7 80 21:22 10.01.2020
1014 Clouds 24 1016 73 16093 6.7 80 21:00 10.01.2020
1015 Rain 23 1015 78 14484 8.2 60 20:41 10.01.2020
1016 Rain 23 1015 78 14484 8.2 60 20:23 10.01.2020
1017 Rain 23 1016 94 16093 1.5 20 19:42 10.01.2020
1018 Clouds 22 1015 73 16093 5.7 80 19:21 10.01.2020
1019 Rain 22 1015 100 14484 1.5 130 18:58 10.01.2020
1020 Rain 22 1015 100 4426 3.1 90 18:40 10.01.2020
1021 Rain 22 1015 100 4426 3.1 90 18:18 10.01.2020
1022 Rain 22 1014 83 16093 8.7 80 17:56 10.01.2020
1023 Rain 22 1015 94 14484 2.1 50 17:38 10.01.2020
1024 Rain 23 1014 78 11265 7.2 60 17:19 10.01.2020
1025 Clouds 22 1014 94 16093 2.1 310 16:43 10.01.2020
1026 Clouds 23 1014 94 16093 2.1 310 16:22 10.01.2020
1027 Rain 22 1014 100 16093 8.93 73 15:58 10.01.2020
1028 Drizzle 22 1014 94 14484 3.1 70 15:39 10.01.2020
1029 Drizzle 22 1014 94 14484 3.1 70 15:21 10.01.2020
1030 Drizzle 22 1014 94 11265 5.7 60 14:59 10.01.2020
1031 Mist 22 1014 94 9656 5.1 50 14:41 10.01.2020
1032 Mist 22 1014 94 9656 5.1 50 14:20 10.01.2020
1033 Drizzle 22 1015 94 16093 2.1 270 13:58 10.01.2020
1034 Rain 22 1015 94 16093 5.7 60 13:39 10.01.2020
1035 Rain 22 1015 94 16093 5.7 60 13:21 10.01.2020
1036 Rain 22 1016 94 3621 9.35 72 12:57 10.01.2020
1037 Rain 23 1015 78 16093 9.8 80 12:38 10.01.2020
1038 Rain 22 1015 78 16093 9.8 80 12:18 10.01.2020
1039 Rain 23 1015 78 8047 9.8 90 11:42 10.01.2020
1040 Rain 23 1015 78 8047 9.8 90 11:42 10.01.2020
1041 Clouds 23 1015 73 16093 6.7 60 11:22 10.01.2020
1042 Rain 23 1016 73 14484 7.7 50 10:59 10.01.2020
1043 Rain 23 1016 73 14484 7.7 50 10:39 10.01.2020
1044 Rain 23 1016 73 14484 7.7 50 10:21 10.01.2020
1045 Drizzle 23 1016 94 11265 4.6 70 09:55 10.01.2020
1046 Clouds 23 1016 78 16093 11.3 70 09:36 10.01.2020
1047 Clouds 23 1016 78 16093 11.3 70 09:18 10.01.2020
1048 Clouds 23 1016 73 16093 7.7 60 08:40 10.01.2020
1049 Clouds 23 1016 73 16093 7.7 60 08:21 10.01.2020
1050 Rain 23 1016 73 12874 8.2 50 07:44 10.01.2020
1051 Rain 24 1016 73 12874 8.2 50 07:22 10.01.2020
1052 Rain 23 1015 69 16093 8.7 50 06:43 10.01.2020
1053 Rain 24 1015 69 16093 8.7 50 06:24 10.01.2020
1054 Rain 24 1015 64 16093 10.8 60 05:33 10.01.2020
1055 Rain 24 1015 64 16093 10.8 60 05:33 10.01.2020
1056 Clouds 25 1014 65 14484 7.7 70 03:34 10.01.2020
1057 Clouds 25 1014 78 16093 9.8 70 02:54 10.01.2020
1058 Clouds 25 1014 78 16093 9.8 70 02:33 10.01.2020
1059 Rain 25 1015 83 16093 5.7 70 01:33 10.01.2020
1060 Rain 24 1015 83 4023 4.6 80 00:53 10.01.2020
1061 Rain 25 1015 78 16093 7.2 50 00:35 10.01.2020
1062 Clouds 25 1017 65 16093 6.7 70 23:57 09.01.2020
1063 Rain 25 1017 88 16093 5.1 70 23:37 09.01.2020
1064 Rain 25 1017 88 16093 5.1 70 23:19 09.01.2020
1065 Clouds 25 1017 83 16093 8.2 70 22:56 09.01.2020
1066 Rain 24 1017 61 16093 8.2 60 22:37 09.01.2020
1067 Rain 24 1017 61 16093 8.2 60 22:18 09.01.2020
1068 Clouds 23 1018 88 16093 5.1 70 21:55 09.01.2020
1069 Rain 23 1019 83 8047 6.7 90 21:37 09.01.2020
1070 Rain 23 1019 83 8047 6.7 90 21:18 09.01.2020
1071 Clouds 23 1018 78 16093 2.1 330 20:55 09.01.2020
1072 Clouds 23 1018 78 16093 2.1 330 20:36 09.01.2020
1073 Rain 23 1017 69 16093 9.3 70 20:18 09.01.2020
1074 Drizzle 22 1018 94 12874 3.6 40 19:39 09.01.2020
1075 Rain 22 1017 78 16093 5.1 100 19:20 09.01.2020
1076 Rain 21 1018 83 6437 5.7 80 18:57 09.01.2020
1077 Rain 21 1018 83 6437 5.7 80 18:39 09.01.2020
1078 Rain 22 1017 78 11265 6.7 70 18:20 09.01.2020
1079 Clouds 22 1017 88 16093 5.7 70 17:41 09.01.2020
1080 Clouds 22 1017 73 16093 8.7 80 17:19 09.01.2020
1081 Clouds 22 1017 88 16093 7.06 68 16:58 09.01.2020
1082 Clouds 22 1017 88 16093 7.06 68 16:40 09.01.2020
1083 Clouds 22 1017 88 16093 3.1 60 16:20 09.01.2020
1084 Drizzle 22 1017 94 16093 1.5 160 15:43 09.01.2020
1085 Rain 22 1017 94 16093 1.5 170 15:22 09.01.2020
1086 Drizzle 22 1017 88 16093 2.6 20 14:58 09.01.2020
1087 Drizzle 22 1017 88 16093 2.6 20 14:39 09.01.2020
1088 Rain 22 1017 78 12874 7.7 70 14:19 09.01.2020
1089 Rain 22 1017 78 16093 6.7 40 13:55 09.01.2020
1090 Rain 22 1017 78 16093 6.7 40 13:37 09.01.2020
1091 Rain 22 1017 78 16093 6.7 40 13:18 09.01.2020
1092 Drizzle 23 1018 88 16093 6.48 70 12:43 09.01.2020
1093 Rain 23 1017 69 16093 7.2 50 12:24 09.01.2020
1094 Clouds 23 1018 82 16093 3.1 50 11:59 09.01.2020
1095 Clouds 23 1018 82 16093 3.1 50 11:41 09.01.2020
1096 Clouds 23 1019 88 16093 3.6 50 11:23 09.01.2020
1097 Clouds 23 1019 83 16093 3.1 120 10:57 09.01.2020
1098 Clouds 23 1019 83 16093 3.1 120 10:39 09.01.2020
1099 Clouds 23 1019 83 16093 3.1 120 10:20 09.01.2020
1100 Rain 23 1019 77 16093 3.1 70 09:41 09.01.2020
1101 Rain 23 1019 77 16093 3.1 70 09:41 09.01.2020
1102 Clouds 23 1018 60 16093 4.6 360 09:23 09.01.2020
1103 Drizzle 23 1019 83 16093 5.7 30 08:57 09.01.2020
1104 Clouds 23 1018 64 16093 2.1 0 08:38 09.01.2020
1105 Clouds 23 1018 64 16093 2.1 0 08:19 09.01.2020
1106 Clouds 23 1019 83 16093 4.6 70 07:45 09.01.2020
1107 Clouds 23 1019 83 16093 2.6 70 07:27 09.01.2020
1108 Clouds 24 1019 83 16093 2.6 50 06:39 09.01.2020
1109 Clouds 24 1017 60 16093 2.6 0 06:21 09.01.2020
1110 Clouds 24 1018 73 16093 2.1 40 05:50 09.01.2020
1111 Clouds 25 1017 78 16093 3.1 70 04:46 09.01.2020
1112 Rain 25 1016 51 16093 8.7 50 03:55 09.01.2020
1113 Rain 25 1016 51 16093 8.7 50 03:26 09.01.2020
1114 Rain 26 1016 47 16093 11.3 70 02:31 09.01.2020
1115 Clouds 25 1016 54 16093 7.7 60 01:40 09.01.2020
1116 Drizzle 25 1017 73 16093 4.6 60 00:44 09.01.2020
1117 Drizzle 25 1017 78 16093 6.7 60 00:22 09.01.2020
1118 Rain 26 1018 73 16093 7.2 80 23:56 08.01.2020
1119 Rain 26 1018 73 16093 7.2 80 23:37 08.01.2020
1120 Rain 26 1018 54 16093 10.3 70 23:19 08.01.2020
1121 Drizzle 24 1019 88 16093 6.7 70 22:39 08.01.2020
1122 Rain 23 1019 73 16093 6.7 60 22:21 08.01.2020
1123 Drizzle 23 1019 94 16093 4.6 70 21:58 08.01.2020
1124 Drizzle 23 1019 94 16093 4.6 70 21:38 08.01.2020
1125 Clouds 23 1019 94 14484 5.1 60 21:20 08.01.2020
1126 Clouds 22 1019 94 16093 4.1 80 20:58 08.01.2020
1127 Clouds 22 1019 94 16093 4.1 80 20:39 08.01.2020
1128 Rain 22 1019 73 16093 8.2 70 20:20 08.01.2020
1129 Rain 22 1018 94 14484 6.2 60 19:56 08.01.2020
1130 Rain 22 1018 78 16093 8.2 50 19:37 08.01.2020
1131 Rain 22 1018 78 16093 8.2 50 19:19 08.01.2020
1132 Rain 22 1017 73 16093 8.2 90 18:55 08.01.2020
1133 Rain 22 1018 78 16093 7.2 50 18:37 08.01.2020
1134 Rain 22 1018 78 16093 7.2 50 18:18 08.01.2020
1135 Clouds 22 1017 78 16093 7.7 70 17:48 08.01.2020
1136 Rain 22 1018 78 14484 4.6 70 17:24 08.01.2020
1137 Drizzle 22 1018 94 16093 7.33 68 16:57 08.01.2020
1138 Drizzle 22 1018 94 16093 7.33 68 16:39 08.01.2020
1139 Drizzle 22 1018 94 16093 7.33 68 16:39 08.01.2020
1140 Drizzle 22 1018 94 16093 7.33 68 16:19 08.01.2020
1141 Clouds 22 1018 88 16093 4.1 40 15:58 08.01.2020
1142 Clouds 22 1018 88 16093 4.1 40 15:39 08.01.2020
1143 Clouds 22 1017 69 16093 7.7 70 15:19 08.01.2020
1144 Clouds 23 1018 77 16093 3.6 40 14:55 08.01.2020
1145 Clouds 23 1018 77 16093 3.6 40 14:37 08.01.2020
1146 Clouds 23 1017 60 16093 6.7 50 14:19 08.01.2020
1147 Clouds 23 1018 60 16093 8.7 50 13:39 08.01.2020
1148 Clouds 23 1018 60 16093 8.7 50 13:18 08.01.2020
1149 Clouds 23 1019 64 16093 9.3 50 12:41 08.01.2020
1150 Clouds 23 1019 64 16093 9.3 50 12:19 08.01.2020
1151 Clouds 23 1019 64 16093 9.3 50 12:19 08.01.2020
1152 Rain 23 1020 69 16093 10.3 50 11:55 08.01.2020
1153 Rain 23 1020 69 16093 10.3 50 11:55 08.01.2020
1154 Rain 23 1020 69 16093 10.3 50 11:37 08.01.2020
1155 Rain 23 1020 69 16093 10.3 50 11:18 08.01.2020
1156 Clouds 23 1020 83 16093 4.6 60 10:42 08.01.2020
1157 Drizzle 23 1020 83 16093 3.6 50 10:22 08.01.2020
1158 Clouds 23 1020 73 16093 9.3 60 09:59 08.01.2020
1159 Clouds 23 1020 73 16093 9.3 60 09:41 08.01.2020
1160 Clouds 23 1020 73 16093 9.3 60 09:19 08.01.2020
1161 Clouds 23 1021 83 16093 5.1 70 08:43 08.01.2020
1162 Rain 23 1020 73 16093 7.2 60 08:24 08.01.2020
1163 Clouds 23 1020 83 16093 4.6 50 07:59 08.01.2020
1164 Clouds 23 1020 83 16093 4.6 50 07:41 08.01.2020
1165 Rain 23 1020 64 16093 8.7 50 07:23 08.01.2020
1166 Rain 24 1019 64 16093 10.8 50 06:44 08.01.2020
1167 Clouds 24 1019 60 16093 12.3 50 05:59 08.01.2020
1168 Clouds 24 1019 60 16093 12.3 50 05:27 08.01.2020
1169 Clouds 24 1018 57 16093 13.9 40 04:39 08.01.2020
1170 Clouds 24 1017 54 16093 15.4 60 03:31 08.01.2020
1171 Clouds 25 1018 54 16093 13.4 60 02:36 08.01.2020
1172 Clouds 26 1018 54 16093 13.4 60 02:18 08.01.2020
1173 Clouds 26 1018 54 16093 13.4 60 02:18 08.01.2020
1174 Clouds 26 1018 51 16093 8.7 50 01:39 08.01.2020
1175 Clouds 26 1019 51 16093 10.3 60 00:52 08.01.2020
1176 Clouds 26 1019 51 16093 10.3 60 00:24 08.01.2020
1177 Clouds 26 1020 61 16093 8.2 70 23:46 07.01.2020
1178 Clouds 26 1020 51 16093 12.9 70 23:21 07.01.2020
1179 Clouds 26 1021 51 16093 9.8 70 22:56 07.01.2020
1180 Clouds 26 1021 51 16093 9.8 70 22:37 07.01.2020
1181 Clouds 26 1021 51 16093 9.8 70 22:18 07.01.2020
1182 Rain 26 1021 61 16093 12.3 60 21:42 07.01.2020
1183 Rain 26 1021 61 16093 12.3 60 21:22 07.01.2020
1184 Rain 25 1021 65 16093 7.7 60 20:58 07.01.2020
1185 Rain 25 1021 65 16093 7.7 60 20:39 07.01.2020
1186 Rain 25 1021 65 16093 7.7 60 20:21 07.01.2020
1187 Rain 24 1020 69 16093 7.7 50 19:57 07.01.2020
1188 Rain 24 1020 69 16093 7.7 50 19:37 07.01.2020
1189 Rain 24 1020 69 16093 7.7 50 19:19 07.01.2020
1190 Clouds 23 1020 64 16093 5.7 60 18:56 07.01.2020
1191 Clouds 23 1020 64 16093 5.7 60 18:37 07.01.2020
1192 Clouds 24 1020 64 16093 5.7 60 18:18 07.01.2020
1193 Clouds 24 1020 64 16093 5.7 70 17:41 07.01.2020
1194 Clouds 24 1020 69 16093 7.2 60 17:23 07.01.2020
1195 Clouds 24 1020 69 16093 7.7 50 16:58 07.01.2020
1196 Clouds 24 1020 69 16093 7.7 50 16:38 07.01.2020
1197 Clouds 24 1020 69 16093 7.7 50 16:19 07.01.2020
1198 Clouds 24 1020 73 16093 7.2 80 15:59 07.01.2020
1199 Clouds 24 1020 73 16093 7.2 80 15:41 07.01.2020
1200 Clouds 24 1020 73 16093 7.2 80 15:23 07.01.2020
1201 Clouds 24 1020 73 16093 7.2 90 14:56 07.01.2020
1202 Clouds 24 1020 69 16093 1.5 0 14:37 07.01.2020
1203 Clouds 24 1020 69 16093 1.5 0 14:19 07.01.2020
1204 Clouds 24 1020 69 16093 5.1 70 13:40 07.01.2020
1205 Rain 23 1020 69 16093 5.1 70 13:19 07.01.2020
1206 Clouds 24 1021 69 16093 5.7 70 12:42 07.01.2020
1207 Clouds 24 1021 69 16093 5.7 70 12:21 07.01.2020
1208 Clouds 24 1021 73 16093 6.2 80 11:59 07.01.2020
1209 Clouds 24 1021 73 16093 6.2 80 11:40 07.01.2020
1210 Clouds 24 1021 69 16093 4.6 60 11:21 07.01.2020
1211 Drizzle 23 1022 94 16093 2.6 50 10:42 07.01.2020
1212 Drizzle 23 1022 94 16093 2.6 50 10:42 07.01.2020
1213 Rain 24 1021 73 16093 7.2 50 10:24 07.01.2020
1214 Clouds 24 1021 69 16093 7.2 70 09:59 07.01.2020
1215 Clouds 24 1021 69 16093 7.2 70 09:38 07.01.2020
1216 Clouds 24 1021 69 16093 7.2 70 09:20 07.01.2020
1217 Clouds 25 1021 78 16093 4.1 80 08:46 07.01.2020
1218 Clouds 25 1021 65 16093 5.1 60 08:27 07.01.2020
1219 Clouds 24 1021 88 16093 3.6 80 07:54 07.01.2020
1220 Drizzle 24 1021 83 16093 6.7 70 07:29 07.01.2020
1221 Clouds 24 1020 65 16093 5.7 50 06:54 07.01.2020
1222 Clouds 24 1020 65 16093 5.7 50 06:54 07.01.2020
1223 Clouds 24 1020 65 16093 5.7 50 06:35 07.01.2020
1224 Clouds 25 1021 83 16093 3.1 60 05:57 07.01.2020
1225 Clouds 25 1021 83 16093 3.1 60 05:35 07.01.2020
1226 Clouds 26 1020 73 16093 6.2 80 03:29 07.01.2020
1227 Clouds 27 1019 51 16093 8.2 50 02:24 07.01.2020
1228 Clouds 26 1019 61 16093 6.7 70 01:57 07.01.2020
1229 Clouds 26 1019 61 16093 6.7 70 01:31 07.01.2020
1230 Clouds 27 1020 69 16093 8.2 80 00:37 07.01.2020
1231 Clouds 26 1019 57 16093 6.7 60 00:18 07.01.2020
1232 Clouds 26 1021 78 16093 8.2 90 23:55 06.01.2020
1233 Clouds 26 1021 78 16093 8.2 90 23:36 06.01.2020
1234 Clouds 26 1021 78 16093 8.2 90 23:18 06.01.2020
1235 Rain 25 1022 83 16093 5.1 60 22:42 06.01.2020
1236 Rain 25 1021 57 16093 6.2 60 22:22 06.01.2020
1237 Rain 25 1022 94 16093 2.1 50 21:56 06.01.2020
1238 Rain 25 1022 94 16093 2.1 50 21:38 06.01.2020
1239 Rain 25 1022 78 9656 6.2 70 21:19 06.01.2020
1240 Rain 24 1022 88 16093 4.1 60 20:56 06.01.2020
1241 Rain 24 1022 88 16093 4.1 60 20:37 06.01.2020
1242 Clouds 24 1021 73 16093 7.7 50 20:19 06.01.2020
1243 Clouds 24 1020 73 16093 6.7 70 19:55 06.01.2020
1244 Clouds 24 1020 73 16093 6.7 70 19:37 06.01.2020
1245 Clouds 24 1020 73 16093 6.7 70 19:18 06.01.2020
1246 Clouds 24 1020 73 16093 7.2 90 18:45 06.01.2020
1247 Clouds 24 1020 73 16093 7.2 90 18:21 06.01.2020
1248 Clouds 24 1020 78 16093 6.7 80 17:40 06.01.2020
1249 Clouds 24 1020 78 16093 6.7 80 17:40 06.01.2020
1250 Clouds 23 1020 78 16093 6.7 80 17:20 06.01.2020
1251 Clouds 24 1020 69 16093 2.1 70 16:58 06.01.2020
1252 Clouds 24 1020 69 16093 2.1 70 16:40 06.01.2020
1253 Clouds 24 1020 69 16093 2.1 70 16:22 06.01.2020
1254 Rain 24 1020 78 16093 2.1 140 15:59 06.01.2020
1255 Rain 23 1020 69 16093 4.1 60 15:37 06.01.2020
1256 Rain 23 1020 69 16093 4.1 60 15:18 06.01.2020
1257 Clouds 23 1020 78 16093 5.1 100 14:41 06.01.2020
1258 Clouds 23 1020 78 16093 5.1 100 14:41 06.01.2020
1259 Clouds 23 1020 69 16093 5.1 60 14:22 06.01.2020
1260 Clouds 23 1021 69 16093 5.1 60 13:59 06.01.2020
1261 Clouds 23 1021 69 16093 5.1 60 13:39 06.01.2020
1262 Clouds 23 1021 69 16093 5.1 60 13:20 06.01.2020
1263 Clouds 24 1021 64 16093 4.1 60 12:55 06.01.2020
1264 Clouds 24 1021 64 16093 4.1 60 12:37 06.01.2020
1265 Clouds 24 1021 64 16093 4.1 60 12:18 06.01.2020
1266 Clouds 24 1021 64 16093 4.1 60 11:41 06.01.2020
1267 Clouds 24 1021 64 16093 4.1 60 11:23 06.01.2020
1268 Clouds 24 1022 69 16093 4.1 60 10:59 06.01.2020
1269 Clouds 24 1022 69 16093 4.1 60 10:40 06.01.2020
1270 Clouds 24 1022 69 16093 4.1 60 10:20 06.01.2020
1271 Clear 24 1022 64 16093 6.7 60 09:39 06.01.2020
1272 Clouds 24 1021 69 16093 9.3 70 09:20 06.01.2020
1273 Clouds 24 1020 64 16093 5.1 60 08:51 06.01.2020
1274 Clouds 24 1020 64 16093 5.1 60 08:33 06.01.2020
1275 Clouds 24 1020 73 16093 2.6 70 07:56 06.01.2020
1276 Clouds 24 1020 73 16093 2.6 70 07:33 06.01.2020
1277 Clouds 24 1020 73 16093 6.7 80 06:46 06.01.2020
1278 Clouds 24 1020 69 16093 5.7 60 06:23 06.01.2020
1279 Clouds 24 1020 69 16093 4.6 60 05:45 06.01.2020
1280 Clouds 25 1020 69 16093 6.2 60 04:38 06.01.2020
1281 Clouds 25 1020 69 16093 6.2 60 04:19 06.01.2020
1282 Clouds 27 1020 69 16093 5.1 60 02:46 06.01.2020
1283 Clouds 27 1019 58 16093 7.2 60 02:24 06.01.2020
1284 Clouds 26 1020 57 16093 7.7 70 01:44 06.01.2020
1285 Clouds 26 1020 57 16093 7.7 70 01:26 06.01.2020
1286 Clouds 26 1021 61 16093 6.2 80 00:42 06.01.2020
1287 Clouds 27 1021 61 16093 5.7 60 00:23 06.01.2020
1288 Clouds 26 1022 73 16093 3.1 40 23:42 05.01.2020
1289 Clouds 26 1022 73 16093 3.1 40 23:42 05.01.2020
1290 Clouds 26 1022 61 16093 5.1 70 23:22 05.01.2020
1291 Clouds 26 1023 78 16093 3.1 40 22:56 05.01.2020
1292 Clouds 26 1024 83 16093 1.5 90 22:38 05.01.2020
1293 Clouds 25 1024 83 16093 1.5 90 22:19 05.01.2020
1294 Rain 25 1024 83 16093 6.92 77 21:54 05.01.2020
1295 Rain 25 1024 83 16093 6.92 77 21:36 05.01.2020
1296 Rain 25 1023 74 16093 6.7 60 21:18 05.01.2020
1297 Drizzle 24 1024 83 16093 2.1 90 20:55 05.01.2020
1298 Drizzle 24 1024 83 16093 2.1 90 20:55 05.01.2020
1299 Drizzle 24 1024 83 16093 2.1 90 20:36 05.01.2020
1300 Rain 24 1023 73 16093 4.6 60 20:18 05.01.2020
1301 Rain 23 1023 83 11265 6.7 70 19:54 05.01.2020
1302 Rain 23 1023 83 11265 6.7 70 19:54 05.01.2020
1303 Rain 23 1022 78 16093 4.1 60 19:36 05.01.2020
1304 Rain 23 1022 78 16093 4.1 60 19:18 05.01.2020
1305 Clouds 23 1023 94 16093 5.94 76 18:54 05.01.2020
1306 Clouds 23 1022 83 16093 6.7 60 18:36 05.01.2020
1307 Clouds 23 1022 83 16093 6.7 60 18:18 05.01.2020
1308 Clouds 23 1022 100 16093 5.94 76 17:39 05.01.2020
1309 Rain 23 1022 83 16093 4.1 90 17:20 05.01.2020
1310 Rain 23 1021 83 16093 4.1 90 16:57 05.01.2020
1311 Rain 23 1021 83 16093 4.1 90 16:39 05.01.2020
1312 Rain 23 1021 83 16093 4.1 90 16:20 05.01.2020
1313 Clouds 23 1021 83 16093 4.6 70 15:41 05.01.2020
1314 Rain 23 1021 83 16093 4.1 90 15:22 05.01.2020
1315 Rain 23 1021 83 16093 4.1 90 15:22 05.01.2020
1316 Rain 23 1021 83 16093 4.1 90 15:22 05.01.2020
1317 Rain 23 1022 94 16093 3.6 90 14:57 05.01.2020
1318 Rain 23 1022 94 16093 3.6 90 14:39 05.01.2020
1319 Rain 23 1021 83 16093 4.1 90 14:21 05.01.2020
1320 Rain 23 1022 100 16093 3.6 50 13:58 05.01.2020
1321 Rain 23 1022 100 16093 3.6 50 13:38 05.01.2020
1322 Rain 23 1022 83 16093 4.1 80 13:20 05.01.2020
1323 Rain 23 1022 88 4023 5.1 80 12:57 05.01.2020
1324 Rain 23 1022 88 4023 5.1 80 12:38 05.01.2020
1325 Rain 23 1022 78 16093 4.1 60 12:19 05.01.2020
1326 Rain 24 1022 83 16093 5.1 90 11:54 05.01.2020
1327 Rain 24 1022 83 16093 5.1 90 11:54 05.01.2020
1328 Rain 24 1022 83 16093 5.1 90 11:36 05.01.2020
1329 Rain 24 1022 78 16093 4.1 60 11:36 05.01.2020
1330 Rain 23 1023 100 8047 3.6 70 11:18 05.01.2020
1331 Rain 24 1023 78 16093 4.1 60 10:40 05.01.2020
1332 Rain 24 1023 78 16093 4.1 60 10:20 05.01.2020
1333 Rain 23 1023 94 16093 3.1 80 09:43 05.01.2020
1334 Rain 24 1023 78 16093 4.6 70 09:23 05.01.2020
1335 Rain 23 1023 94 14484 4.1 70 08:56 05.01.2020
1336 Rain 23 1023 94 14484 4.1 70 08:38 05.01.2020
1337 Rain 24 1022 83 16093 3.6 60 08:20 05.01.2020
1338 Rain 24 1022 83 16093 4.6 90 07:39 05.01.2020
1339 Clouds 24 1022 83 16093 3.1 60 07:21 05.01.2020
1340 Clouds 24 1022 83 16093 7.2 70 06:47 05.01.2020
1341 Drizzle 23 1022 100 12874 1.5 250 05:39 05.01.2020
1342 Clouds 25 1021 100 16093 2.6 20 04:56 05.01.2020
1343 Clouds 25 1021 83 16093 6.2 70 04:18 05.01.2020
1344 Clouds 25 1020 88 14484 6.7 70 03:27 05.01.2020
1345 Rain 25 1020 88 2816 8.2 70 02:32 05.01.2020
1346 Drizzle 25 1020 100 12874 4.6 40 01:49 05.01.2020
1347 Rain 25 1020 78 16093 5.1 60 01:20 05.01.2020
1348 Rain 25 1021 88 6437 7.2 70 00:57 05.01.2020
1349 Rain 25 1021 88 6437 7.2 70 00:57 05.01.2020
1350 Rain 25 1021 88 6437 7.2 70 00:57 05.01.2020
1351 Rain 25 1021 88 6437 7.2 70 00:39 05.01.2020
1352 Rain 25 1021 88 4828 6.7 70 00:19 05.01.2020
1353 Rain 24 1022 94 9656 7.2 70 23:41 04.01.2020
1354 Rain 24 1022 94 9656 7.2 70 23:41 04.01.2020
1355 Rain 24 1023 78 9656 8.2 60 23:20 04.01.2020
1356 Rain 24 1023 94 16093 6.7 70 22:55 04.01.2020
1357 Rain 24 1023 88 16093 7.2 60 22:37 04.01.2020
1358 Rain 24 1023 88 16093 7.2 60 22:19 04.01.2020
1359 Clouds 23 1024 88 16093 8.7 60 21:55 04.01.2020
1360 Clouds 23 1024 88 16093 8.7 60 21:36 04.01.2020
1361 Rain 23 1024 88 11265 5.7 60 21:18 04.01.2020
1362 Rain 23 1024 88 6437 10.3 70 20:41 04.01.2020
1363 Rain 23 1023 88 9656 6.2 60 20:22 04.01.2020
1364 Rain 22 1023 88 4023 7.7 70 19:57 04.01.2020
1365 Rain 22 1023 94 3219 6.7 80 19:38 04.01.2020
1366 Rain 23 1023 94 3219 6.7 80 19:20 04.01.2020
1367 Rain 23 1022 88 9656 9.3 60 18:56 04.01.2020
1368 Drizzle 23 1022 94 16093 2.6 350 18:37 04.01.2020
1369 Drizzle 23 1022 94 16093 2.6 350 18:19 04.01.2020
1370 Rain 23 1021 83 16093 4.1 50 17:41 04.01.2020
1371 Rain 23 1021 83 16093 4.1 50 17:23 04.01.2020
1372 Rain 23 1021 94 4828 7.2 70 16:59 04.01.2020
1373 Rain 23 1021 94 4828 7.2 70 16:40 04.01.2020
1374 Rain 23 1021 83 16093 3.1 50 16:21 04.01.2020
1375 Drizzle 22 1021 94 16093 2.1 360 15:56 04.01.2020
1376 Rain 22 1021 83 16093 3.1 50 15:38 04.01.2020
1377 Rain 22 1021 83 16093 3.1 50 15:18 04.01.2020
1378 Rain 22 1022 94 16093 1.5 50 14:42 04.01.2020
1379 Drizzle 23 1022 94 16093 6.29 67 14:20 04.01.2020
1380 Rain 22 1021 88 8047 6.7 70 13:59 04.01.2020
1381 Rain 22 1021 88 8047 6.7 70 13:38 04.01.2020
1382 Rain 22 1022 83 16093 4.1 60 13:19 04.01.2020
1383 Rain 22 1022 88 4023 7.2 80 12:57 04.01.2020
1384 Rain 23 1022 88 4023 7.2 80 12:39 04.01.2020
1385 Rain 23 1022 78 16093 5.7 80 12:18 04.01.2020
1386 Rain 23 1022 78 16093 5.7 80 12:18 04.01.2020
1387 Rain 23 1022 88 9656 7.2 70 11:56 04.01.2020
1388 Rain 23 1022 88 9656 7.2 70 11:37 04.01.2020
1389 Rain 23 1022 78 16093 10.3 60 11:18 04.01.2020
1390 Rain 23 1022 94 16093 7.12 66 10:40 04.01.2020
1391 Rain 24 1022 78 16093 6.2 60 10:21 04.01.2020
1392 Rain 23 1022 88 14484 7.7 70 09:47 04.01.2020
1393 Clouds 23 1022 78 16093 6.2 60 09:26 04.01.2020
1394 Clouds 23 1022 83 16093 7.7 60 08:49 04.01.2020
1395 Rain 23 1022 83 16093 10.3 70 08:29 04.01.2020
1396 Rain 23 1021 73 16093 6.2 30 07:57 04.01.2020
1397 Rain 23 1021 73 16093 6.2 30 07:39 04.01.2020
1398 Drizzle 24 1022 83 16093 3.6 10 06:44 04.01.2020
1399 Clouds 24 1020 78 16093 6.7 60 05:59 04.01.2020
1400 Clouds 24 1021 88 16093 6.22 65 04:52 04.01.2020
1401 Rain 24 1019 61 16093 8.2 80 04:31 04.01.2020
1402 Clouds 24 1019 57 16093 8.7 60 03:30 04.01.2020
1403 Clouds 25 1020 88 16093 6.22 65 02:52 04.01.2020
1404 Rain 25 1019 57 16093 6.2 50 02:18 04.01.2020
1405 Rain 25 1019 57 16093 7.2 50 01:51 04.01.2020
1406 Rain 25 1019 57 16093 7.2 50 01:30 04.01.2020
1407 Rain 25 1020 65 16093 7.2 70 00:29 04.01.2020
1408 Rain 25 1020 65 16093 7.2 70 00:29 04.01.2020
1409 Rain 24 1021 73 16093 6.7 60 23:59 03.01.2020
1410 Rain 24 1021 73 16093 6.7 60 23:59 03.01.2020
1411 Rain 24 1021 73 16093 6.7 60 23:37 03.01.2020
1412 Rain 25 1021 73 16093 6.7 60 23:18 03.01.2020
1413 Drizzle 25 1022 94 12874 1.5 20 22:40 03.01.2020
1414 Rain 25 1022 65 16093 5.1 50 22:19 03.01.2020
1415 Rain 24 1023 94 6437 1.5 40 21:57 03.01.2020
1416 Rain 24 1023 94 6437 1.5 40 21:38 03.01.2020
1417 Rain 24 1022 73 16093 6.7 60 21:19 03.01.2020
1418 Clouds 24 1022 83 16093 3.1 50 20:55 03.01.2020
1419 Clouds 24 1022 83 16093 3.1 50 20:37 03.01.2020
1420 Rain 23 1022 69 16093 6.2 60 20:18 03.01.2020
1421 Rain 22 1021 73 16093 4.1 50 19:54 03.01.2020
1422 Rain 22 1021 73 16093 4.1 50 19:36 03.01.2020
1423 Rain 22 1021 73 16093 4.1 50 19:18 03.01.2020
1424 Rain 22 1020 78 16093 1.5 100 18:39 03.01.2020
1425 Rain 22 1020 78 16093 1.5 100 18:39 03.01.2020
1426 Rain 22 1020 78 16093 1.5 100 18:20 03.01.2020
1427 Rain 22 1020 78 16093 2.1 60 17:42 03.01.2020
1428 Rain 22 1020 78 16093 2.1 60 17:22 03.01.2020
1429 Rain 22 1020 78 16093 4.6 70 16:59 03.01.2020
1430 Rain 22 1020 78 16093 4.6 70 16:40 03.01.2020
1431 Rain 22 1020 78 16093 4.6 70 16:21 03.01.2020
1432 Clouds 22 1019 78 16093 8.7 60 15:42 03.01.2020
1433 Rain 22 1019 73 16093 6.7 50 15:19 03.01.2020
1434 Drizzle 22 1020 100 16093 2.1 320 14:40 03.01.2020
1435 Rain 22 1019 78 16093 3.1 40 14:21 03.01.2020
1436 Drizzle 22 1019 100 16093 2.1 360 13:59 03.01.2020
1437 Drizzle 22 1019 100 16093 2.1 360 13:40 03.01.2020
1438 Rain 22 1019 83 16093 9.3 50 13:22 03.01.2020
1439 Rain 22 1019 83 16093 9.8 50 12:41 03.01.2020
1440 Rain 22 1019 83 9656 1.5 290 12:22 03.01.2020
1441 Rain 22 1019 88 9656 10.8 50 11:57 03.01.2020
1442 Rain 22 1019 88 9656 10.8 50 11:57 03.01.2020
1443 Rain 22 1019 88 9656 10.8 50 11:39 03.01.2020
1444 Rain 22 1019 88 9656 10.8 50 11:18 03.01.2020
1445 Rain 23 1019 88 12874 9.8 50 10:43 03.01.2020
1446 Rain 22 1020 73 16093 3.1 50 10:24 03.01.2020
1447 Rain 23 1020 73 16093 3.6 40 09:56 03.01.2020
1448 Rain 23 1020 73 16093 3.6 40 09:38 03.01.2020
1449 Clouds 23 1020 69 16093 3.6 40 09:20 03.01.2020
1450 Clouds 24 1019 69 16093 5.1 60 08:45 03.01.2020
1451 Clouds 24 1019 69 16093 5.1 60 08:23 03.01.2020
1452 Rain 24 1019 69 16093 2.6 20 07:57 03.01.2020
1453 Rain 24 1019 69 16093 2.6 20 07:38 03.01.2020
1454 Rain 24 1019 69 16093 2.6 20 07:18 03.01.2020
1455 Clouds 24 1018 69 16093 2.6 30 06:42 03.01.2020
1456 Clouds 24 1018 69 16093 2.6 30 06:23 03.01.2020
1457 Clouds 24 1017 65 16093 4.1 40 05:20 03.01.2020
1458 Rain 25 1016 61 16093 3.6 60 03:42 03.01.2020
1459 Rain 24 1016 88 16093 1.5 70 02:54 03.01.2020
1460 Clouds 24 1016 94 16093 3.6 360 01:51 03.01.2020
1461 Clouds 24 1016 57 16093 3.6 30 01:33 03.01.2020
1462 Clouds 24 1015 78 16093 4.6 40 00:43 03.01.2020
1463 Clouds 24 1016 88 16093 3.1 330 00:24 03.01.2020
1464 Rain 24 1016 88 12874 4.1 350 23:39 02.01.2020
1465 Rain 24 1017 57 16093 4.6 50 23:20 02.01.2020
1466 Rain 24 1017 94 6437 2.1 290 22:59 02.01.2020
1467 Rain 24 1017 94 6437 2.1 290 22:41 02.01.2020
1468 Rain 24 1018 57 16093 2.6 50 22:20 02.01.2020
1469 Clouds 24 1018 83 16093 2.1 220 21:56 02.01.2020
1470 Clouds 24 1018 83 16093 2.1 220 21:38 02.01.2020
1471 Rain 24 1018 73 16093 2.1 310 21:19 02.01.2020
1472 Rain 23 1018 88 3219 1.5 40 20:56 02.01.2020
1473 Rain 23 1018 88 3219 1.5 40 20:37 02.01.2020
1474 Rain 23 1018 88 3219 1.5 40 20:18 02.01.2020
1475 Rain 22 1017 88 4023 1.61 44 19:54 02.01.2020
1476 Rain 22 1017 88 4023 1.61 44 19:36 02.01.2020
1477 Clouds 21 1017 78 16093 2.1 350 19:18 02.01.2020
1478 Clouds 20 1017 94 16093 1.61 44 18:43 02.01.2020
1479 Clouds 21 1016 88 16093 3.6 20 18:24 02.01.2020
1480 Clouds 21 1017 94 16093 2.1 360 17:58 02.01.2020
1481 Clouds 21 1017 94 16093 2.1 360 17:39 02.01.2020
1482 Clouds 21 1017 94 16093 2.1 10 17:20 02.01.2020
1483 Clouds 21 1016 93 16093 3.1 310 16:58 02.01.2020
1484 Clouds 21 1016 93 16093 3.1 310 16:40 02.01.2020
1485 Clouds 20 1016 83 16093 2.1 310 16:20 02.01.2020
1486 Clouds 20 1016 83 16093 2.1 310 16:20 02.01.2020
1487 Clouds 21 1015 88 16093 1.63 25 15:57 02.01.2020
1488 Rain 21 1016 78 16093 2.6 330 15:39 02.01.2020
1489 Rain 21 1016 78 16093 2.6 330 15:20 02.01.2020
1490 Clouds 21 1016 78 16093 1.5 350 14:56 02.01.2020
1491 Clouds 21 1016 78 16093 1.5 350 14:36 02.01.2020
1492 Clouds 21 1016 78 16093 1.5 350 14:18 02.01.2020
1493 Clouds 22 1015 83 16093 2.6 70 13:47 02.01.2020
1494 Clouds 22 1016 78 16093 2.1 10 13:29 02.01.2020
1495 Clouds 21 1017 78 16093 2.1 280 12:45 02.01.2020
1496 Clouds 21 1018 78 16093 2.1 340 12:25 02.01.2020
1497 Clouds 21 1018 94 16093 2.1 330 12:25 02.01.2020
1498 Clouds 21 1018 78 16093 2.1 340 11:57 02.01.2020
1499 Clouds 21 1018 78 16093 2.1 340 11:37 02.01.2020
1500 Clouds 21 1018 78 16093 2.1 340 11:19 02.01.2020
1501 Clouds 22 1018 73 16093 2.1 330 10:43 02.01.2020
1502 Clouds 22 1018 73 16093 2.1 330 10:25 02.01.2020
1503 Clouds 21 1018 73 16093 1.5 330 09:46 02.01.2020
1504 Clouds 22 1018 73 16093 1.5 330 09:28 02.01.2020
1505 Clouds 23 1017 73 16093 2.6 70 08:45 02.01.2020
1506 Clouds 23 1017 73 16093 2.6 70 08:27 02.01.2020
1507 Clouds 23 1017 69 16093 3.6 90 07:51 02.01.2020
1508 Clouds 24 1017 69 16093 3.6 90 07:30 02.01.2020
1509 Clouds 23 1017 64 16093 3.6 60 06:45 02.01.2020
1510 Clouds 23 1017 64 16093 3.6 60 06:26 02.01.2020
1511 Clouds 25 1016 54 16093 3.1 120 04:53 02.01.2020
1512 Clouds 25 1016 54 16093 3.1 120 04:30 02.01.2020
1513 Clouds 26 1015 51 16093 2.1 0 02:32 02.01.2020
1514 Clouds 26 1016 54 16093 3.6 160 01:58 02.01.2020
1515 Clouds 26 1016 54 16093 3.6 160 01:33 02.01.2020
1516 Clouds 26 1017 57 16093 3.1 160 00:57 02.01.2020
1517 Clouds 26 1017 57 16093 3.1 160 00:33 02.01.2020
1518 Clouds 26 1017 57 16093 3.1 160 00:33 02.01.2020
1519 Clouds 26 1018 54 16093 3.1 210 23:49 01.01.2020
1520 Clouds 26 1018 54 16093 3.1 210 23:26 01.01.2020
1521 Clouds 26 1019 57 16093 2.1 0 22:56 01.01.2020
1522 Clouds 26 1019 57 16093 2.1 0 22:37 01.01.2020
1523 Clouds 26 1019 57 16093 2.1 0 22:19 01.01.2020
1524 Clouds 25 1019 57 16093 2.1 170 21:42 01.01.2020
1525 Clouds 25 1019 57 16093 2.1 170 21:21 01.01.2020
1526 Clouds 24 1019 69 16093 0.93 165 20:59 01.01.2020
1527 Clouds 24 1019 69 16093 0.93 165 20:39 01.01.2020
1528 Clouds 24 1019 69 16093 0.83 100 20:21 01.01.2020
1529 Clouds 22 1018 73 16093 3.1 350 19:58 01.01.2020
1530 Clouds 21 1018 73 16093 3.1 350 19:39 01.01.2020
1531 Clouds 21 1018 73 16093 3.1 350 19:20 01.01.2020
1532 Clouds 21 1018 73 16093 3.1 350 19:20 01.01.2020
1533 Clouds 20 1018 73 16093 3.6 20 18:57 01.01.2020
1534 Clouds 20 1018 73 16093 3.6 20 18:57 01.01.2020
1535 Clouds 20 1018 73 16093 3.6 20 18:39 01.01.2020
1536 Clouds 20 1018 73 16093 3.6 20 18:20 01.01.2020
1537 Clouds 21 1018 68 16093 2.6 350 17:59 01.01.2020
1538 Clouds 21 1018 68 16093 2.6 350 17:40 01.01.2020
1539 Clouds 21 1018 68 16093 2.6 350 17:40 01.01.2020
1540 Clouds 21 1018 68 16093 2.6 350 17:20 01.01.2020
1541 Clouds 21 1018 64 16093 2.6 30 16:58 01.01.2020
1542 Clouds 21 1018 64 16093 2.6 30 16:38 01.01.2020
1543 Clouds 21 1018 64 16093 2.6 30 16:38 01.01.2020
1544 Clouds 23 1018 64 16093 2.6 30 16:19 01.01.2020
1545 Clouds 23 1018 64 16093 2.1 10 15:57 01.01.2020
1546 Clouds 23 1018 64 16093 2.1 10 15:57 01.01.2020
1547 Clouds 23 1018 64 16093 2.1 10 15:37 01.01.2020
1548 Clouds 22 1018 64 16093 2.1 10 15:19 01.01.2020
1549 Clouds 22 1018 64 16093 4.1 50 14:55 01.01.2020
1550 Clouds 22 1018 64 16093 4.1 50 14:37 01.01.2020
1551 Clouds 23 1018 64 16093 4.1 50 14:19 01.01.2020
1552 Clouds 22 1018 64 16093 2.6 50 13:55 01.01.2020
1553 Clouds 22 1018 64 16093 2.6 50 13:55 01.01.2020
1554 Clouds 22 1018 64 16093 2.6 50 13:36 01.01.2020
1555 Clouds 23 1018 64 16093 2.6 50 13:18 01.01.2020
1556 Clouds 22 1019 64 16093 3.6 80 12:40 01.01.2020
1557 Clouds 22 1019 64 16093 3.6 80 12:19 01.01.2020
1558 Clouds 22 1019 64 16093 3.6 80 12:19 01.01.2020
1559 Clouds 23 1019 69 16093 3.1 60 11:56 01.01.2020
1560 Clouds 23 1019 69 16093 3.1 60 11:38 01.01.2020
1561 Clouds 23 1019 69 16093 3.1 60 11:19 01.01.2020
1562 Clouds 23 1019 64 16093 4.1 80 10:54 01.01.2020
1563 Clouds 24 1019 64 16093 4.1 80 10:36 01.01.2020
1564 Clouds 24 1019 64 16093 4.1 80 10:18 01.01.2020
1565 Clouds 24 1019 64 16093 5.1 60 09:40 01.01.2020
1566 Clouds 24 1019 64 16093 5.1 60 09:20 01.01.2020
1567 Clouds 24 1019 64 16093 5.1 60 08:57 01.01.2020
1568 Clouds 24 1019 64 16093 5.1 60 08:37 01.01.2020
1569 Clouds 24 1019 64 16093 5.1 60 08:37 01.01.2020
1570 Clouds 24 1019 64 16093 5.1 60 08:19 01.01.2020
1571 Clouds 24 1019 64 16093 7.7 60 07:55 01.01.2020
1572 Clouds 24 1019 64 16093 7.7 60 07:37 01.01.2020
1573 Clouds 24 1019 64 16093 7.7 60 07:37 01.01.2020
1574 Clouds 24 1019 61 16093 6.2 70 06:45 01.01.2020
1575 Clouds 24 1019 61 16093 6.2 70 06:22 01.01.2020
1576 Clouds 25 1019 54 16093 6.7 60 05:23 01.01.2020
1577 Clouds 26 1018 54 16093 8.7 70 03:47 01.01.2020
1578 Clouds 26 1018 54 16093 8.7 70 03:24 01.01.2020
1579 Clouds 26 1019 73 16093 5.1 80 02:57 01.01.2020
1580 Clouds 26 1019 73 16093 5.1 80 02:37 01.01.2020
1581 Clouds 26 1018 65 16093 6.7 80 01:59 01.01.2020
1582 Clouds 26 1018 65 16093 6.7 80 01:38 01.01.2020
1583 Clouds 27 1018 54 16093 6.7 70 01:20 01.01.2020
1584 Clouds 27 1019 65 16093 5.1 80 00:44 01.01.2020
1585 Clouds 27 1020 73 16093 5.7 110 00:25 01.01.2020
1586 Clouds 27 1021 54 16093 5.7 100 23:41 31.12.2019
1587 Clouds 27 1021 54 16093 5.7 100 23:22 31.12.2019
1588 Clouds 26 1022 69 16093 5.7 90 22:58 31.12.2019
1589 Clouds 26 1022 69 16093 5.7 90 22:39 31.12.2019
1590 Clouds 26 1022 69 16093 5.7 90 22:20 31.12.2019
1591 Clouds 26 1022 73 16093 3.1 110 21:58 31.12.2019
1592 Clouds 26 1022 73 16093 3.1 110 21:40 31.12.2019
1593 Clouds 26 1022 57 16093 5.7 70 21:21 31.12.2019
1594 Clouds 26 1022 69 16093 4.1 90 20:56 31.12.2019
1595 Clouds 26 1022 69 16093 4.1 90 20:37 31.12.2019
1596 Rain 25 1022 61 16093 5.7 60 20:18 31.12.2019
1597 Clouds 24 1022 78 16093 3.6 70 19:43 31.12.2019
1598 Clouds 24 1021 69 16093 5.1 60 19:24 31.12.2019
1599 Clouds 24 1021 69 16093 6.7 60 18:59 31.12.2019
1600 Clouds 24 1021 69 16093 6.7 60 18:40 31.12.2019
1601 Clouds 24 1021 69 16093 6.7 60 18:21 31.12.2019
1602 Clouds 24 1020 69 16093 3.6 80 17:57 31.12.2019
1603 Clouds 24 1020 69 16093 3.6 80 17:39 31.12.2019
1604 Clouds 23 1020 69 16093 3.6 80 17:19 31.12.2019
1605 Clouds 23 1020 69 16093 3.6 80 17:19 31.12.2019
1606 Clouds 22 1020 73 16093 4.6 70 16:57 31.12.2019
1607 Clouds 22 1020 73 16093 4.6 70 16:57 31.12.2019
1608 Clouds 22 1020 73 16093 4.6 70 16:39 31.12.2019
1609 Clouds 22 1020 73 16093 4.6 70 16:19 31.12.2019
1610 Clear 23 1020 69 16093 3.1 80 15:57 31.12.2019
1611 Clear 23 1020 69 16093 3.1 80 15:39 31.12.2019
1612 Clear 23 1020 69 16093 3.1 80 15:21 31.12.2019
1613 Clouds 24 1020 64 16093 3.99 95 14:58 31.12.2019
1614 Clouds 23 1020 64 16093 3.99 95 14:39 31.12.2019
1615 Clouds 23 1020 64 16093 4.01 90 14:19 31.12.2019
1616 Clouds 23 1021 64 16093 3.1 80 13:58 31.12.2019
1617 Clouds 23 1021 64 16093 3.1 80 13:40 31.12.2019
1618 Clouds 23 1021 64 16093 3.1 80 13:40 31.12.2019
1619 Clouds 23 1021 64 16093 3.1 80 13:21 31.12.2019
1620 Clouds 24 1021 64 16093 4.1 60 12:58 31.12.2019
1621 Clouds 24 1021 64 16093 4.1 60 12:40 31.12.2019
1622 Clouds 24 1021 64 16093 4.1 60 12:20 31.12.2019
1623 Clouds 24 1021 64 16093 8.2 90 11:56 31.12.2019
1624 Clouds 24 1021 64 16093 8.2 90 11:38 31.12.2019
1625 Clouds 24 1021 64 16093 8.2 90 11:20 31.12.2019
1626 Clouds 24 1021 64 16093 5.7 70 10:57 31.12.2019
1627 Clouds 24 1021 64 16093 5.7 70 10:38 31.12.2019
1628 Clouds 24 1021 64 16093 5.7 70 10:20 31.12.2019
1629 Clouds 24 1021 73 16093 4.6 100 09:58 31.12.2019
1630 Clouds 24 1021 73 16093 4.6 100 09:39 31.12.2019
1631 Clouds 24 1021 65 16093 6.7 60 09:20 31.12.2019
1632 Clouds 24 1021 78 16093 3.6 100 08:57 31.12.2019
1633 Clouds 24 1021 78 16093 3.6 100 08:37 31.12.2019
1634 Clouds 24 1020 61 16093 7.7 60 08:19 31.12.2019
1635 Clouds 24 1020 61 16093 6.7 60 07:42 31.12.2019
1636 Clouds 24 1020 61 16093 6.7 60 07:20 31.12.2019
1637 Clouds 24 1020 61 16093 6.2 60 06:49 31.12.2019
1638 Clouds 25 1020 57 16093 6.2 60 05:57 31.12.2019
1639 Clouds 26 1019 54 16093 6.7 50 04:28 31.12.2019
1640 Clouds 26 1019 69 16093 5.7 70 03:27 31.12.2019
1641 Clouds 27 1018 54 16093 8.2 50 02:54 31.12.2019
1642 Clouds 27 1019 65 16093 6.2 90 01:55 31.12.2019
1643 Clouds 27 1019 65 16093 6.2 90 01:35 31.12.2019
1644 Clouds 27 1019 54 16093 8.2 80 00:59 31.12.2019
1645 Clouds 27 1019 54 16093 8.2 80 00:41 31.12.2019
1646 Clouds 27 1019 54 16093 8.2 80 00:21 31.12.2019
1647 Clouds 28 1020 61 16093 5.1 70 23:56 30.12.2019
1648 Clouds 28 1020 51 16093 6.7 50 23:37 30.12.2019
1649 Clouds 27 1020 51 16093 6.7 50 23:19 30.12.2019
1650 Clouds 27 1021 54 16093 5.7 60 22:56 30.12.2019
1651 Clouds 27 1021 54 16093 5.7 60 22:37 30.12.2019
1652 Clouds 27 1021 54 16093 5.7 60 22:37 30.12.2019
1653 Clouds 27 1021 54 16093 5.7 60 22:18 30.12.2019
1654 Clouds 26 1021 57 16093 6.2 70 21:55 30.12.2019
1655 Clouds 27 1021 57 16093 6.2 70 21:37 30.12.2019
1656 Clouds 27 1021 57 16093 6.2 70 21:18 30.12.2019
1657 Clouds 26 1021 57 16093 6.2 70 20:55 30.12.2019
1658 Clouds 25 1021 57 16093 6.2 70 20:55 30.12.2019
1659 Clouds 26 1021 57 16093 6.2 70 20:37 30.12.2019
1660 Clouds 25 1021 57 16093 6.2 70 20:18 30.12.2019
1661 Clouds 24 1020 64 16093 4.1 50 19:55 30.12.2019
1662 Clouds 24 1020 64 16093 4.1 50 19:36 30.12.2019
1663 Clouds 24 1020 64 16093 4.1 50 19:18 30.12.2019
1664 Clouds 24 1020 69 16093 3.1 40 18:41 30.12.2019
1665 Clouds 24 1020 69 16093 3.1 40 18:21 30.12.2019
1666 Clouds 23 1019 73 16093 2.38 90 17:59 30.12.2019
1667 Clouds 22 1019 73 16093 2.38 90 17:41 30.12.2019
1668 Clouds 23 1019 73 16093 2.31 97 17:20 30.12.2019
1669 Clouds 22 1019 77 16093 2.31 97 16:59 30.12.2019
1670 Clouds 22 1019 77 16093 2.31 97 16:40 30.12.2019
1671 Clouds 22 1019 77 16093 2.31 97 16:20 30.12.2019
1672 Clouds 23 1019 73 16093 3.6 110 15:56 30.12.2019
1673 Clouds 23 1019 73 16093 2.31 97 15:38 30.12.2019
1674 Clouds 23 1019 73 16093 2.31 97 15:19 30.12.2019
1675 Clouds 23 1019 69 16093 3.1 40 14:54 30.12.2019
1676 Clouds 23 1019 69 16093 3.1 40 14:36 30.12.2019
1677 Clouds 23 1019 69 16093 3.1 40 14:18 30.12.2019
1678 Clouds 24 1019 73 16093 4.6 110 13:41 30.12.2019
1679 Clouds 24 1020 69 16093 3.1 90 13:23 30.12.2019
1680 Clouds 24 1020 69 16093 3.1 90 13:23 30.12.2019
1681 Clouds 24 1020 64 16093 2.6 70 12:58 30.12.2019
1682 Clouds 24 1020 64 16093 2.6 70 12:39 30.12.2019
1683 Clouds 24 1020 64 16093 2.6 70 12:19 30.12.2019
1684 Clouds 25 1019 69 16093 4.1 100 11:56 30.12.2019
1685 Clouds 25 1019 69 16093 4.1 100 11:37 30.12.2019
1686 Clouds 25 1020 61 16093 8.7 80 11:18 30.12.2019
1687 Clouds 24 1020 69 16093 3.6 80 10:42 30.12.2019
1688 Clouds 24 1020 69 16093 3.6 80 10:20 30.12.2019
1689 Clouds 25 1020 69 16093 5.1 100 09:44 30.12.2019
1690 Clouds 25 1020 65 16093 4.1 70 09:21 30.12.2019
1691 Clouds 25 1020 73 16093 5.7 90 08:57 30.12.2019
1692 Clouds 25 1020 73 16093 5.7 90 08:39 30.12.2019
1693 Clouds 25 1020 65 16093 4.6 50 08:20 30.12.2019
1694 Clouds 25 1020 69 16093 4.6 60 07:48 30.12.2019
1695 Clouds 25 1020 69 16093 4.6 60 07:23 30.12.2019
1696 Clouds 25 1019 65 16093 4.1 50 06:32 30.12.2019
1697 Clouds 26 1018 57 16093 5.7 60 04:31 30.12.2019
1698 Clouds 27 1018 58 16093 5.7 60 03:50 30.12.2019
1699 Clouds 27 1017 58 16093 5.7 50 02:47 30.12.2019
1700 Clouds 27 1017 58 16093 5.7 50 02:26 30.12.2019
1701 Clouds 28 1017 54 16093 6.7 70 01:29 30.12.2019
1702 Clouds 28 1018 65 16093 6.7 70 00:59 30.12.2019
1703 Clouds 28 1018 65 16093 6.7 70 00:39 30.12.2019
1704 Clouds 27 1019 54 16093 6.7 60 23:55 29.12.2019
1705 Clouds 27 1019 54 16093 6.7 60 23:36 29.12.2019
1706 Clouds 27 1019 54 16093 6.7 60 23:18 29.12.2019
1707 Clouds 27 1020 58 16093 5.1 70 22:40 29.12.2019
1708 Clouds 27 1020 58 16093 5.1 70 22:21 29.12.2019
1709 Clouds 27 1020 61 16093 5.1 70 21:56 29.12.2019
1710 Clouds 27 1020 61 16093 5.1 70 21:38 29.12.2019
1711 Clouds 27 1020 61 16093 5.1 70 21:19 29.12.2019
1712 Clouds 26 1020 74 16093 2.6 80 20:55 29.12.2019
1713 Clouds 26 1020 74 16093 2.6 80 20:37 29.12.2019
1714 Clouds 26 1020 74 16093 2.6 80 20:18 29.12.2019
1715 Clouds 24 1019 83 16093 2.1 350 19:55 29.12.2019
1716 Clouds 24 1019 83 16093 2.1 350 19:37 29.12.2019
1717 Clouds 23 1019 83 16093 2.1 350 19:18 29.12.2019
1718 Clouds 22 1019 78 16093 4.6 80 18:54 29.12.2019
1719 Clouds 22 1019 78 16093 4.6 80 18:54 29.12.2019
1720 Clouds 22 1019 83 16093 2.1 330 18:36 29.12.2019
1721 Clouds 22 1019 83 16093 2.1 330 18:18 29.12.2019
1722 Clouds 23 1018 83 16093 2.1 360 17:54 29.12.2019
1723 Clouds 23 1018 83 16093 2.1 360 17:36 29.12.2019
1724 Clouds 23 1018 83 16093 2.1 360 17:18 29.12.2019
1725 Clouds 22 1018 83 16093 2.1 350 16:54 29.12.2019
1726 Clouds 22 1018 83 16093 2.1 350 16:54 29.12.2019
1727 Clouds 22 1018 83 16093 2.1 350 16:36 29.12.2019
1728 Clouds 22 1018 83 16093 2.1 350 16:18 29.12.2019
1729 Rain 22 1018 78 16093 4.1 80 15:54 29.12.2019
1730 Clouds 22 1018 83 16093 1.57 76 15:36 29.12.2019
1731 Clouds 23 1018 83 16093 1.57 76 15:18 29.12.2019
1732 Clouds 23 1018 78 16093 2.1 110 14:46 29.12.2019
1733 Clouds 23 1018 78 16093 2.1 320 14:19 29.12.2019
1734 Clouds 23 1018 78 16093 2.1 300 13:59 29.12.2019
1735 Clouds 23 1018 78 16093 2.1 300 13:40 29.12.2019
1736 Clouds 23 1018 78 16093 2.1 300 13:22 29.12.2019
1737 Clouds 23 1018 78 16093 4.1 80 12:57 29.12.2019
1738 Clouds 22 1018 78 16093 4.1 80 12:38 29.12.2019
1739 Clouds 22 1018 83 16093 1.41 99 12:20 29.12.2019
1740 Clouds 23 1018 78 16093 4.1 90 11:41 29.12.2019
1741 Clouds 23 1019 83 16093 2.1 340 11:21 29.12.2019
1742 Clouds 23 1019 83 16093 1.5 340 10:57 29.12.2019
1743 Clouds 23 1019 83 16093 1.5 340 10:38 29.12.2019
1744 Clouds 23 1019 83 16093 1.5 340 10:18 29.12.2019
1745 Clear 24 1019 78 16093 1.84 77 09:45 29.12.2019
1746 Clear 24 1019 78 16093 1.84 77 09:27 29.12.2019
1747 Clouds 24 1018 78 16093 3.6 80 08:55 29.12.2019
1748 Clouds 24 1018 78 16093 3.6 80 08:37 29.12.2019
1749 Clouds 24 1018 78 16093 3.6 80 08:18 29.12.2019
1750 Clouds 24 1018 69 16093 3.1 60 07:33 29.12.2019
1751 Clouds 25 1017 69 16093 4.1 60 06:59 29.12.2019
1752 Clouds 25 1017 69 16093 4.1 60 06:27 29.12.2019
1753 Clouds 26 1016 78 16093 2.6 0 05:55 29.12.2019
1754 Clouds 27 1016 78 16093 4.1 80 04:47 29.12.2019
1755 Clouds 27 1016 58 16093 5.1 50 04:28 29.12.2019
1756 Clouds 27 1016 58 16093 4.6 50 03:28 29.12.2019
1757 Clouds 28 1016 54 16093 5.1 70 02:27 29.12.2019
1758 Clouds 28 1016 54 16093 6.7 70 01:42 29.12.2019
1759 Clouds 28 1016 54 16093 6.7 70 01:23 29.12.2019
1760 Clouds 27 1017 58 16093 6.2 50 00:44 29.12.2019
1761 Clouds 27 1017 58 16093 6.2 50 00:24 29.12.2019
1762 Clouds 27 1018 69 16093 5.7 80 23:45 28.12.2019
1763 Clouds 27 1018 78 16093 5.7 60 23:18 28.12.2019
1764 Rain 27 1019 58 16093 6.7 70 22:40 28.12.2019
1765 Rain 27 1019 58 16093 6.7 70 22:21 28.12.2019
1766 Clouds 26 1019 78 16093 5.1 70 21:59 28.12.2019
1767 Clouds 27 1019 78 16093 5.1 70 21:40 28.12.2019
1768 Clouds 27 1019 78 16093 5.1 70 21:40 28.12.2019
1769 Clouds 27 1019 61 16093 6.7 70 21:22 28.12.2019
1770 Clouds 26 1019 69 16093 6.2 70 20:59 28.12.2019
1771 Clouds 25 1019 69 16093 6.2 70 20:38 28.12.2019
1772 Clouds 25 1019 69 16093 6.2 70 20:20 28.12.2019
1773 Clouds 24 1018 88 16093 4.1 70 19:58 28.12.2019
1774 Clouds 24 1018 88 16093 4.1 70 19:58 28.12.2019
1775 Clouds 24 1018 88 16093 4.1 70 19:39 28.12.2019
1776 Clouds 24 1018 88 16093 4.1 70 19:21 28.12.2019
1777 Clouds 23 1019 94 16093 1.5 360 18:58 28.12.2019
1778 Clouds 23 1019 94 16093 1.5 360 18:40 28.12.2019
1779 Clouds 23 1018 78 16093 5.7 60 18:19 28.12.2019
1780 Rain 23 1018 88 16093 2.1 60 17:55 28.12.2019
1781 Rain 23 1018 78 16093 2.6 90 17:36 28.12.2019
1782 Rain 23 1018 78 16093 2.6 90 17:18 28.12.2019
1783 Clouds 23 1018 100 16093 1.5 270 16:46 28.12.2019
1784 Drizzle 23 1018 100 16093 2.1 330 16:26 28.12.2019
1785 Clouds 23 1017 90 16093 8.7 50 15:46 28.12.2019
1786 Clouds 23 1017 83 16093 2.1 10 15:24 28.12.2019
1787 Drizzle 23 1018 100 16093 3.1 310 14:59 28.12.2019
1788 Drizzle 23 1018 100 16093 3.1 310 14:39 28.12.2019
1789 Rain 23 1017 78 16093 5.9 66 14:20 28.12.2019
1790 Clouds 23 1018 100 16093 3.6 300 13:43 28.12.2019
1791 Clouds 23 1017 73 16093 5.7 10 13:24 28.12.2019
1792 Rain 23 1018 94 4828 6.7 50 12:59 28.12.2019
1793 Rain 23 1018 94 4828 6.7 50 12:41 28.12.2019
1794 Rain 23 1018 73 16093 3.1 20 12:23 28.12.2019
1795 Rain 23 1018 94 8047 3.1 90 11:55 28.12.2019
1796 Mist 23 1018 94 8047 5.7 60 11:37 28.12.2019
1797 Mist 23 1018 94 8047 5.7 60 11:18 28.12.2019
1798 Mist 23 1018 94 8047 5.7 60 11:18 28.12.2019
1799 Clouds 24 1018 88 16093 5.1 60 10:43 28.12.2019
1800 Clouds 24 1018 88 16093 5.1 60 10:20 28.12.2019
1801 Clouds 24 1018 88 16093 5.7 70 09:56 28.12.2019
1802 Clouds 24 1018 88 16093 5.7 70 09:38 28.12.2019
1803 Rain 24 1018 73 16093 3.1 30 09:18 28.12.2019
1804 Rain 24 1018 73 16093 3.1 30 09:18 28.12.2019
1805 Clouds 24 1018 73 16093 3.1 40 08:43 28.12.2019
1806 Clouds 24 1018 73 16093 2.6 20 08:25 28.12.2019
1807 Clouds 24 1017 69 16093 3.6 30 07:49 28.12.2019
1808 Clouds 24 1017 69 16093 3.6 30 07:25 28.12.2019
1809 Clouds 24 1016 88 16093 6.2 50 05:52 28.12.2019
1810 Rain 26 1015 88 14484 6.2 30 03:49 28.12.2019
1811 Clouds 26 1015 83 16093 4.6 20 02:52 28.12.2019
1812 Clouds 26 1015 74 16093 7.7 50 02:31 28.12.2019
1813 Clouds 26 1015 88 14484 4.6 30 01:56 28.12.2019
1814 Clouds 26 1015 88 14484 4.6 30 01:56 28.12.2019
1815 Rain 27 1015 78 8047 7.2 60 01:24 28.12.2019
1816 Clouds 27 1015 69 16093 6.7 50 00:51 28.12.2019
1817 Clouds 27 1015 69 16093 6.7 50 00:32 28.12.2019
1818 Clouds 26 1016 88 16093 3.1 350 23:59 27.12.2019
1819 Clouds 26 1016 88 16093 3.1 350 23:39 27.12.2019
1820 Rain 27 1016 65 16093 5.1 60 23:19 27.12.2019
1821 Clouds 26 1016 74 16093 7.2 50 22:57 27.12.2019
1822 Clouds 26 1016 74 16093 7.2 50 22:38 27.12.2019
1823 Clouds 26 1016 74 16093 7.2 50 22:38 27.12.2019
1824 Clouds 27 1017 74 16093 6.7 40 22:19 27.12.2019
1825 Clouds 26 1018 94 16093 3.6 360 21:43 27.12.2019
1826 Clouds 26 1018 94 16093 3.6 360 21:43 27.12.2019
1827 Clouds 26 1017 78 16093 8.2 50 21:25 27.12.2019
1828 Clouds 25 1018 94 16093 3.1 360 20:58 27.12.2019
1829 Clouds 24 1018 94 16093 3.1 360 20:40 27.12.2019
1830 Clouds 24 1018 94 16093 3.1 360 20:21 27.12.2019
1831 Clouds 23 1017 100 16093 2.6 340 19:41 27.12.2019
1832 Rain 24 1016 88 16093 3.1 70 19:20 27.12.2019
1833 Clouds 23 1017 100 16093 2.6 330 18:57 27.12.2019
1834 Clouds 23 1017 100 16093 2.6 330 18:37 27.12.2019
1835 Rain 23 1016 94 16093 1.5 10 18:19 27.12.2019
1836 Drizzle 23 1016 100 16093 3.6 330 17:55 27.12.2019
1837 Drizzle 23 1016 100 16093 3.6 330 17:37 27.12.2019
1838 Rain 22 1015 88 16093 1.5 320 17:18 27.12.2019
1839 Clouds 22 1015 100 16093 3.6 320 16:44 27.12.2019
1840 Clouds 22 1014 88 16093 3.6 40 16:26 27.12.2019
1841 Drizzle 22 1015 100 16093 2.1 320 15:58 27.12.2019
1842 Drizzle 22 1015 100 16093 2.1 320 15:40 27.12.2019
1843 Clear 22 1015 83 16093 2.86 42 15:19 27.12.2019
1844 Clouds 23 1014 83 16093 3.1 30 14:56 27.12.2019
1845 Clouds 23 1014 83 16093 3.1 30 14:38 27.12.2019
1846 Clouds 22 1015 78 16093 1.5 10 14:19 27.12.2019
1847 Clouds 23 1015 83 16093 2.1 360 13:47 27.12.2019
1848 Clouds 23 1015 78 16093 1.5 10 13:24 27.12.2019
1849 Clouds 23 1016 78 16093 2.6 330 12:49 27.12.2019
1850 Clouds 23 1016 78 16093 2.6 330 12:29 27.12.2019
1851 Clouds 23 1016 100 16093 3.1 360 11:59 27.12.2019
1852 Clouds 23 1016 100 16093 3.1 360 11:41 27.12.2019
1853 Clouds 23 1016 78 16093 2.1 330 11:20 27.12.2019
1854 Rain 23 1016 73 16093 2.1 10 10:47 27.12.2019
1855 Rain 23 1016 73 16093 2.1 10 10:24 27.12.2019
1856 Clouds 24 1015 78 16093 3.1 330 09:57 27.12.2019
1857 Clouds 24 1015 78 16093 3.1 330 09:38 27.12.2019
1858 Clouds 24 1016 73 16093 2.1 360 09:20 27.12.2019
1859 Clouds 24 1016 100 16093 2.1 330 08:46 27.12.2019
1860 Clouds 24 1015 69 16093 3.6 340 08:27 27.12.2019
1861 Clouds 25 1015 100 16093 1.5 340 07:41 27.12.2019
1862 Clouds 25 1014 65 16093 4.1 330 07:22 27.12.2019
1863 Clouds 25 1014 65 16093 3.6 340 06:27 27.12.2019
1864 Clouds 27 1012 58 16093 5.1 250 04:40 27.12.2019
1865 Rain 27 1011 69 16093 5.7 230 02:29 27.12.2019
1866 Clouds 28 1011 65 16093 5.1 220 01:48 27.12.2019
1867 Clouds 28 1011 65 16093 5.1 220 01:23 27.12.2019
1868 Clouds 28 1012 69 16093 5.7 230 00:51 27.12.2019
1869 Clouds 28 1012 69 16093 5.7 230 00:33 27.12.2019
1870 Clouds 27 1012 69 16093 5.7 240 23:56 26.12.2019
1871 Clouds 27 1012 69 16093 5.7 240 23:38 26.12.2019
1872 Clouds 27 1012 69 16093 5.7 240 23:20 26.12.2019
1873 Clouds 27 1013 74 16093 3.1 220 22:41 26.12.2019
1874 Clouds 27 1013 74 16093 3.1 220 22:19 26.12.2019
1875 Clouds 26 1013 78 16093 3.1 230 21:40 26.12.2019
1876 Clouds 26 1013 78 16093 3.1 230 21:21 26.12.2019
1877 Rain 25 1012 94 16093 2.1 310 20:58 26.12.2019
1878 Rain 25 1012 94 16093 2.1 310 20:39 26.12.2019
1879 Rain 25 1012 94 16093 2.1 310 20:39 26.12.2019
1880 Rain 25 1012 94 16093 2.1 310 20:21 26.12.2019
1881 Rain 23 1013 100 16093 1.14 207 19:56 26.12.2019
1882 -273 0 0 0 0 0 19:38 26.12.2019
1883 Clouds 23 1012 88 16093 1.5 20 19:19 26.12.2019
1884 Rain 22 1012 100 16093 2.1 310 18:57 26.12.2019
1885 Clouds 22 1011 83 16093 1.14 207 18:36 26.12.2019
1886 Clouds 22 1011 83 16093 1.14 207 18:18 26.12.2019
1887 Clouds 22 1011 83 16093 1.5 120 17:41 26.12.2019
1888 Clouds 22 1011 83 16093 1.5 120 17:41 26.12.2019
1889 Clouds 22 1011 83 16093 1.5 120 17:21 26.12.2019
1890 Clouds 22 1010 88 16093 1.56 217 16:50 26.12.2019
1891 Clouds 22 1010 88 16093 1.56 217 16:27 26.12.2019
1892 Clouds 22 1009 88 16093 1.5 350 15:57 26.12.2019
1893 Clouds 22 1009 88 16093 1.5 350 15:39 26.12.2019
1894 Clouds 22 1009 88 16093 1.5 350 15:19 26.12.2019
1895 Clouds 22 1009 88 16093 1.56 217 14:41 26.12.2019
1896 Clouds 22 1009 88 16093 1.59 206 14:23 26.12.2019
1897 Clouds 22 1009 88 16093 1.59 206 14:23 26.12.2019
1898 Mist 22 1010 100 9656 1.59 206 13:55 26.12.2019
1899 Clouds 22 1010 88 16093 1.26 219 13:36 26.12.2019
1900 Clouds 23 1010 88 16093 1.26 219 13:18 26.12.2019
1901 Clouds 23 1010 88 16093 1.26 219 12:45 26.12.2019
1902 Clouds 23 1010 88 16093 1.26 219 12:25 26.12.2019
1903 Mist 23 1011 100 6437 1.26 219 11:59 26.12.2019
1904 Mist 23 1011 100 6437 1.26 219 11:40 26.12.2019
1905 Clouds 23 1011 88 16093 1.64 210 11:21 26.12.2019
1906 Clouds 23 1011 94 16093 1.64 210 10:50 26.12.2019
1907 Clouds 23 1011 94 16093 2.1 80 10:26 26.12.2019
1908 Clouds 23 1011 94 16093 1.64 210 09:55 26.12.2019
1909 Clouds 24 1011 88 16093 2.6 80 09:33 26.12.2019
1910 Clouds 24 1010 88 16093 2.1 110 08:59 26.12.2019
1911 Clouds 24 1010 88 16093 2.1 110 08:39 26.12.2019
1912 Clouds 24 1010 88 16093 2.1 110 08:20 26.12.2019
1913 Mist 23 1010 94 9656 2.23 213 07:38 26.12.2019
1914 Clouds 23 1010 94 16093 2.23 213 07:19 26.12.2019
1915 Clouds 24 1009 83 16093 2.23 213 06:37 26.12.2019
1916 Clouds 24 1009 83 16093 2.23 213 06:19 26.12.2019
1917 Clouds 24 1009 88 16093 2.1 240 05:40 26.12.2019
1918 Rain 25 1008 88 16093 2.1 160 04:33 26.12.2019
1919 Rain 24 1007 94 16093 3.1 0 03:31 26.12.2019
1920 Rain 24 1007 94 4828 4.1 260 02:46 26.12.2019
1921 Rain 25 1007 83 14484 5.1 180 02:25 26.12.2019
1922 Rain 25 1007 83 14484 5.1 180 02:25 26.12.2019
1923 Rain 25 1006 83 16093 2.1 0 01:44 26.12.2019
1924 Rain 25 1006 83 16093 2.1 0 01:44 26.12.2019
1925 Rain 26 1007 78 8047 2.6 0 01:24 26.12.2019
1926 Rain 26 1008 83 8047 9.3 200 00:43 26.12.2019
1927 Rain 25 1008 94 6437 8.2 190 00:23 26.12.2019
1928 Rain 25 1007 78 3219 6.7 200 23:57 25.12.2019
1929 Rain 25 1006 78 4023 6.7 190 23:36 25.12.2019
1930 Rain 25 1006 78 4023 6.7 190 23:18 25.12.2019
1931 Rain 25 1006 78 9656 7.7 170 22:55 25.12.2019
1932 Rain 25 1006 78 9656 7.7 170 22:55 25.12.2019
1933 Rain 25 1009 88 11265 10.8 160 22:36 25.12.2019
1934 Rain 25 1009 88 11265 10.8 160 22:18 25.12.2019
1935 Rain 25 1010 78 6437 9.3 180 21:40 25.12.2019
1936 Rain 25 1009 69 16093 10.8 160 21:22 25.12.2019
1937 Rain 25 1007 88 4828 8.2 170 20:58 25.12.2019
1938 Rain 25 1007 88 4828 8.2 170 20:40 25.12.2019
1939 Rain 25 1009 74 16093 11.3 160 20:18 25.12.2019
1940 Rain 26 1008 74 16093 9.8 160 19:44 25.12.2019
1941 Rain 26 1008 74 16093 9.8 160 19:25 25.12.2019
1942 Rain 25 1008 94 16093 5.7 160 18:59 25.12.2019
1943 Rain 25 1008 94 16093 5.7 160 18:39 25.12.2019
1944 Rain 25 1007 94 16093 6.2 150 18:20 25.12.2019
1945 Rain 25 1007 69 16093 10.3 150 17:43 25.12.2019
1946 Rain 25 1007 69 16093 10.3 150 17:21 25.12.2019
1947 Clouds 26 1007 74 16093 9.3 150 16:59 25.12.2019
1948 Clouds 26 1007 74 16093 9.3 150 16:39 25.12.2019
1949 Clouds 26 1007 74 16093 9.3 150 16:19 25.12.2019
1950 Rain 25 1008 69 16093 8.2 150 15:57 25.12.2019
1951 Rain 25 1008 69 16093 8.2 150 15:39 25.12.2019
1952 Rain 25 1008 69 16093 8.2 150 15:20 25.12.2019
1953 Clouds 25 1008 94 16093 5.1 150 14:58 25.12.2019
1954 Clouds 25 1008 94 16093 5.1 150 14:39 25.12.2019
1955 Clouds 25 1008 94 16093 5.1 150 14:39 25.12.2019
1956 Clouds 25 1008 94 16093 5.1 150 14:39 25.12.2019
1957 Clouds 25 1008 94 16093 5.1 150 14:39 25.12.2019
1958 Clouds 25 1008 74 16093 8.2 150 14:20 25.12.2019
1959 Clouds 25 1009 88 16093 4.1 170 13:45 25.12.2019
1960 Rain 25 1009 74 16093 7.7 140 13:22 25.12.2019
1961 Rain 25 1010 65 16093 8.2 150 12:58 25.12.2019
1962 Rain 25 1010 65 16093 8.2 150 12:38 25.12.2019
1963 Rain 25 1010 65 16093 8.2 150 12:20 25.12.2019
1964 Rain 25 1010 69 16093 6.2 140 11:43 25.12.2019
1965 Rain 25 1010 69 16093 6.2 140 11:23 25.12.2019
1966 Rain 26 1011 74 16093 4.1 150 10:59 25.12.2019
1967 Rain 25 1011 74 16093 4.1 150 10:37 25.12.2019
1968 Rain 25 1011 74 16093 4.1 150 10:37 25.12.2019
1969 Rain 25 1011 74 16093 4.1 150 10:19 25.12.2019
1970 Clouds 26 1011 69 16093 5.1 140 09:45 25.12.2019
1971 Clouds 26 1011 69 16093 5.1 140 09:27 25.12.2019
1972 Clouds 26 1011 83 16093 4.6 180 08:47 25.12.2019
1973 Clouds 26 1011 69 16093 6.7 160 08:28 25.12.2019
1974 Clouds 26 1011 78 16093 3.6 160 07:48 25.12.2019
1975 Clouds 26 1010 65 16093 5.1 140 07:29 25.12.2019
1976 Clouds 26 1011 65 16093 5.1 140 06:49 25.12.2019
1977 Clouds 26 1011 65 16093 5.1 140 06:22 25.12.2019
1978 Clouds 26 1009 73 16093 4.6 170 04:50 25.12.2019
1979 Rain 27 1009 65 16093 6.2 150 04:26 25.12.2019
1980 Clouds 26 1009 69 16093 5.1 160 03:58 25.12.2019
1981 Clouds 26 1009 69 16093 5.1 160 03:39 25.12.2019
1982 Clouds 27 1009 58 16093 6.2 140 02:32 25.12.2019
1983 Clouds 27 1009 58 16093 5.7 170 01:55 25.12.2019
1984 Clouds 27 1009 58 16093 5.7 170 01:24 25.12.2019
1985 Clouds 28 1009 58 16093 5.7 150 00:48 25.12.2019
1986 Clouds 28 1009 58 16093 5.7 150 00:28 25.12.2019
1987 Clouds 28 1011 51 16093 3.6 150 23:55 24.12.2019
1988 Clouds 28 1011 51 16093 3.6 150 23:36 24.12.2019
1989 Clouds 27 1011 51 16093 3.6 150 23:18 24.12.2019
1990 Clouds 27 1012 54 16093 3.1 90 22:38 24.12.2019
1991 Clouds 27 1012 54 16093 3.1 90 22:20 24.12.2019
1992 Clouds 27 1012 54 16093 3.1 90 22:20 24.12.2019
1993 Clouds 28 1013 54 16093 5.1 110 21:42 24.12.2019
1994 Clouds 27 1013 54 16093 5.1 110 21:22 24.12.2019
1995 Clouds 26 1013 61 16093 3.6 70 20:45 24.12.2019
1996 Clouds 26 1013 61 16093 3.6 70 20:24 24.12.2019
1997 Clouds 26 1012 65 16093 2.6 80 19:57 24.12.2019
1998 Clouds 26 1012 65 16093 2.6 80 19:38 24.12.2019
1999 Clouds 24 1012 65 16093 2.6 80 19:18 24.12.2019
2000 Drizzle 24 1012 94 16093 2.1 180 18:42 24.12.2019
2001 Clouds 24 1012 88 16093 2.1 150 18:19 24.12.2019
2002 Clouds 23 1012 78 16093 3.1 80 17:45 24.12.2019
2003 Clouds 23 1012 78 16093 3.1 80 17:23 24.12.2019
2004 Clouds 22 1011 73 16093 1.33 82 16:59 24.12.2019
2005 Clouds 22 1011 73 16093 1.33 82 16:59 24.12.2019
2006 Clouds 22 1011 73 16093 1.33 82 16:40 24.12.2019
2007 Clouds 22 1011 78 16093 1.33 82 16:22 24.12.2019
2008 Clouds 23 1011 73 16093 2.6 40 15:58 24.12.2019
2009 Clouds 23 1011 73 16093 2.6 40 15:38 24.12.2019
2010 Clouds 23 1011 73 16093 2.6 40 15:20 24.12.2019
2011 Clouds 24 1011 73 16093 2.6 60 14:58 24.12.2019
2012 Clouds 24 1011 73 16093 2.6 60 14:40 24.12.2019
2013 Clouds 23 1011 73 16093 2.6 60 14:22 24.12.2019
2014 Clouds 24 1012 69 16093 2.6 70 13:56 24.12.2019
2015 Clouds 24 1012 69 16093 2.6 70 13:38 24.12.2019
2016 Clouds 24 1012 69 16093 2.6 70 13:20 24.12.2019
2017 Rain 24 1012 69 16093 2.6 30 12:57 24.12.2019
2018 Rain 24 1012 69 16093 2.6 30 12:38 24.12.2019
2019 Rain 24 1012 69 16093 2.6 30 12:19 24.12.2019
2020 Rain 25 1013 65 16093 3.1 70 11:57 24.12.2019
2021 Rain 25 1013 65 16093 3.1 70 11:37 24.12.2019
2022 Rain 25 1013 65 16093 3.1 70 11:19 24.12.2019
2023 Rain 24 1013 65 16093 3.6 80 10:56 24.12.2019
2024 Rain 24 1013 65 16093 3.6 80 10:38 24.12.2019
2025 Rain 24 1013 65 16093 3.6 80 10:19 24.12.2019
2026 Rain 24 1013 65 16093 3.6 80 10:19 24.12.2019
2027 Clouds 25 1013 65 16093 3.6 80 09:55 24.12.2019
2028 Clouds 25 1013 65 16093 3.6 80 09:37 24.12.2019
2029 Clouds 25 1013 65 16093 3.6 80 09:19 24.12.2019
2030 Clouds 25 1013 65 16093 2.6 90 08:46 24.12.2019
2031 Clouds 25 1013 65 16093 2.6 90 08:24 24.12.2019
2032 Clouds 25 1013 65 16093 2.1 80 07:46 24.12.2019
2033 Clouds 25 1013 65 16093 2.1 80 07:28 24.12.2019
2034 Clouds 25 1013 69 16093 4.1 90 06:59 24.12.2019
2035 Clouds 25 1013 69 16093 4.1 90 06:39 24.12.2019
2036 Clouds 25 1013 69 16093 4.1 90 06:19 24.12.2019
2037 Rain 26 1012 61 16093 4.1 70 05:46 24.12.2019
2038 Rain 26 1012 61 16093 4.1 70 05:18 24.12.2019
2039 Rain 26 1011 51 16093 5.1 30 03:55 24.12.2019
2040 Rain 26 1011 51 16093 5.1 30 03:25 24.12.2019
2041 Rain 27 1011 54 16093 2.6 150 02:25 24.12.2019
2042 Clouds 27 1012 51 16093 3.6 170 01:52 24.12.2019
2043 Clouds 27 1012 51 16093 3.6 170 01:23 24.12.2019
2044 Clouds 27 1012 51 16093 3.6 180 00:47 24.12.2019
2045 Clouds 27 1012 51 16093 3.6 180 00:26 24.12.2019
2046 Clouds 27 1013 54 16093 3.1 180 23:59 23.12.2019
2047 Clouds 27 1013 54 16093 3.1 180 23:59 23.12.2019
2048 Clouds 27 1013 54 16093 3.1 180 23:41 23.12.2019
2049 Clouds 27 1013 54 16093 3.1 180 23:23 23.12.2019
2050 Clouds 27 1014 73 16093 3.1 50 22:56 23.12.2019
2051 Clouds 27 1014 73 16093 3.1 50 22:56 23.12.2019
2052 Clouds 27 1014 73 16093 2.1 50 22:37 23.12.2019
2053 Clouds 27 1014 73 16093 3.1 50 22:37 23.12.2019
2054 Clouds 27 1014 73 16093 2.1 50 22:19 23.12.2019
2055 Clouds 26 1014 74 16093 5.1 90 21:55 23.12.2019
2056 Clouds 27 1014 74 16093 5.1 90 21:36 23.12.2019
2057 Clouds 26 1014 74 16093 5.1 90 21:18 23.12.2019
2058 Drizzle 25 1015 88 16093 1.5 109 20:57 23.12.2019
2059 Drizzle 25 1015 88 16093 1.5 109 20:39 23.12.2019
2060 Rain 24 1014 73 16093 2.1 300 20:18 23.12.2019
2061 Clouds 23 1014 78 16093 1.5 0 19:55 23.12.2019
2062 Clouds 23 1014 78 16093 1.5 0 19:37 23.12.2019
2063 Clouds 23 1014 78 16093 1.5 0 19:19 23.12.2019
2064 Clouds 22 1013 83 16093 1.16 62 18:55 23.12.2019
2065 Clouds 22 1013 83 16093 1.16 62 18:37 23.12.2019
2066 Clouds 22 1013 83 16093 1.16 62 18:19 23.12.2019
2067 Clouds 22 1013 83 16093 1.5 280 17:55 23.12.2019
2068 Clouds 21 1013 83 16093 1.5 280 17:37 23.12.2019
2069 Clouds 21 1013 83 16093 1.5 280 17:18 23.12.2019
2070 Clouds 22 1013 78 16093 2.1 340 16:42 23.12.2019
2071 Clouds 22 1013 78 16093 2.1 340 16:19 23.12.2019
2072 Clouds 22 1013 78 16093 1.5 320 15:59 23.12.2019
2073 Clouds 22 1013 78 16093 1.5 320 15:38 23.12.2019
2074 Clouds 22 1013 78 16093 1.5 320 15:20 23.12.2019
2075 Clouds 22 1013 78 16093 2.6 360 14:59 23.12.2019
2076 Clouds 22 1013 78 16093 2.6 360 14:39 23.12.2019
2077 Clouds 22 1013 78 16093 2.6 360 14:39 23.12.2019
2078 Clouds 22 1013 78 16093 2.6 360 14:21 23.12.2019
2079 Clouds 22 1014 78 16093 0.73 234 13:58 23.12.2019
2080 Clouds 22 1014 78 16093 0.73 234 13:40 23.12.2019
2081 Clouds 22 1014 78 16093 0.57 25 13:22 23.12.2019
2082 Clouds 23 1014 73 16093 1.5 100 12:56 23.12.2019
2083 Clouds 23 1014 73 16093 1.5 100 12:37 23.12.2019
2084 Clouds 23 1014 73 16093 1.5 100 12:19 23.12.2019
2085 Clouds 23 1014 69 16093 5.1 60 11:44 23.12.2019
2086 Clouds 23 1014 69 16093 5.1 60 11:25 23.12.2019
2087 Clouds 24 1015 88 16093 2.1 130 10:57 23.12.2019
2088 Clouds 24 1015 88 16093 2.1 130 10:39 23.12.2019
2089 Clouds 24 1015 69 16093 3.1 90 10:20 23.12.2019
2090 Clouds 24 1014 69 16093 4.6 70 09:59 23.12.2019
2091 Clouds 24 1014 69 16093 4.6 70 09:39 23.12.2019
2092 Clouds 24 1014 69 16093 4.6 70 09:20 23.12.2019
2093 Clouds 24 1015 73 16093 5.1 90 08:55 23.12.2019
2094 Clouds 24 1015 73 16093 5.1 90 08:37 23.12.2019
2095 Clear 24 1015 69 16093 5.1 70 08:18 23.12.2019
2096 Clouds 24 1015 69 16093 2.6 40 07:43 23.12.2019
2097 Clouds 24 1015 69 16093 2.6 40 07:20 23.12.2019
2098 Clouds 24 1015 69 16093 5.1 80 06:50 23.12.2019
2099 Clouds 24 1015 69 16093 5.1 80 06:23 23.12.2019
2100 Clouds 24 1014 61 16093 3.6 90 05:49 23.12.2019
2101 Clouds 24 1014 61 16093 3.6 90 05:19 23.12.2019
2102 Clouds 24 1013 61 16093 7.7 80 04:19 23.12.2019
2103 Clouds 25 1014 57 16093 7.2 60 02:49 23.12.2019
2104 Clouds 24 1014 57 16093 7.2 60 02:25 23.12.2019
2105 Clouds 25 1015 73 16093 2.6 130 01:53 23.12.2019
2106 Clouds 25 1015 57 16093 7.7 90 01:32 23.12.2019
2107 Clouds 25 1015 69 16093 3.6 100 00:55 23.12.2019
2108 Clouds 26 1015 57 16093 8.7 60 00:35 23.12.2019
2109 Clouds 25 1017 57 16093 8.7 70 23:57 22.12.2019
2110 Clouds 25 1017 57 16093 8.7 70 23:57 22.12.2019
2111 Clouds 25 1017 57 16093 8.7 70 23:39 22.12.2019
2112 Clouds 25 1017 57 16093 8.7 70 23:20 22.12.2019
2113 Clouds 25 1017 73 16093 6.7 90 22:57 22.12.2019
2114 Clouds 25 1017 73 16093 6.7 90 22:38 22.12.2019
2115 Clouds 25 1017 73 16093 6.7 90 22:38 22.12.2019
2116 Clouds 25 1017 61 16093 6.7 60 22:19 22.12.2019
2117 Clouds 25 1018 61 16093 5.1 60 21:56 22.12.2019
2118 Clouds 24 1018 73 16093 2.6 100 21:38 22.12.2019
2119 Clouds 24 1018 73 16093 2.6 100 21:38 22.12.2019
2120 Clouds 25 1018 61 16093 5.1 60 21:20 22.12.2019
2121 Clouds 24 1018 64 16093 7.7 70 20:43 22.12.2019
2122 Clouds 24 1018 64 16093 7.7 70 20:20 22.12.2019
2123 Clouds 24 1018 64 16093 7.7 70 20:20 22.12.2019
2124 Clouds 24 1017 60 16093 8.7 80 19:58 22.12.2019
2125 Clouds 24 1017 60 16093 8.7 80 19:40 22.12.2019
2126 Clouds 24 1017 60 16093 8.7 80 19:20 22.12.2019
2127 Clouds 24 1016 64 16093 6.7 70 18:58 22.12.2019
2128 Clouds 24 1016 64 16093 6.7 70 18:38 22.12.2019
2129 Clouds 24 1016 64 16093 6.7 70 18:19 22.12.2019
2130 Clouds 24 1016 64 16093 7.2 70 17:55 22.12.2019
2131 Clouds 24 1016 64 16093 7.2 70 17:36 22.12.2019
2132 Clouds 24 1016 64 16093 7.2 70 17:18 22.12.2019
2133 Clouds 24 1016 64 16093 7.7 60 16:42 22.12.2019
2134 Clouds 24 1016 64 16093 7.7 60 16:42 22.12.2019
2135 Clouds 24 1016 64 16093 7.7 60 16:23 22.12.2019
2136 Clouds 24 1017 64 16093 8.2 50 15:57 22.12.2019
2137 Clouds 24 1017 64 16093 8.2 50 15:39 22.12.2019
2138 Clouds 24 1017 64 16093 8.2 50 15:21 22.12.2019
2139 Clouds 24 1016 64 16093 7.2 60 14:56 22.12.2019
2140 Clouds 24 1016 64 16093 7.2 60 14:38 22.12.2019
2141 Clouds 24 1016 64 16093 7.2 60 14:19 22.12.2019
2142 Clouds 24 1016 64 16093 7.2 60 14:19 22.12.2019
2143 Clouds 24 1016 60 16093 8.7 60 13:56 22.12.2019
2144 Clouds 24 1016 60 16093 8.7 60 13:38 22.12.2019
2145 Clouds 23 1016 60 16093 8.7 60 13:19 22.12.2019
2146 Clouds 23 1016 60 16093 8.7 60 13:19 22.12.2019
2147 Clouds 23 1017 60 16093 7.2 70 12:56 22.12.2019
2148 Clouds 24 1017 60 16093 7.2 70 12:38 22.12.2019
2149 Clouds 24 1017 60 16093 7.2 70 12:19 22.12.2019
2150 Clouds 23 1018 60 16093 8.7 50 11:56 22.12.2019
2151 Clouds 23 1018 60 16093 8.7 50 11:56 22.12.2019
2152 Clouds 23 1018 60 16093 8.7 50 11:38 22.12.2019
2153 Clouds 24 1018 60 16093 8.7 50 11:19 22.12.2019
2154 Clouds 24 1018 60 16093 9.3 50 10:55 22.12.2019
2155 Clouds 24 1018 60 16093 9.3 50 10:37 22.12.2019
2156 Clouds 24 1018 60 16093 9.3 50 10:18 22.12.2019
2157 Clouds 24 1018 60 16093 9.8 70 09:57 22.12.2019
2158 Clouds 24 1018 60 16093 9.8 70 09:38 22.12.2019
2159 Clouds 24 1018 60 16093 9.8 70 09:20 22.12.2019
2160 Clouds 24 1018 60 16093 8.7 60 08:42 22.12.2019
2161 Clouds 24 1018 60 16093 8.7 60 08:22 22.12.2019
2162 Clouds 24 1018 60 16093 8.2 60 07:42 22.12.2019
2163 Clouds 24 1018 60 16093 8.2 60 07:21 22.12.2019
2164 Clouds 24 1017 64 16093 7.2 70 06:52 22.12.2019
2165 Clouds 24 1017 64 16093 7.2 70 06:22 22.12.2019
2166 Clouds 23 1017 69 16093 10.8 70 05:29 22.12.2019
2167 Clouds 24 1017 83 16093 3.6 150 04:45 22.12.2019
2168 Rain 24 1017 78 11265 6.2 70 04:22 22.12.2019
2169 Rain 25 1016 57 16093 8.2 60 02:43 22.12.2019
2170 Rain 25 1016 57 16093 8.2 60 02:43 22.12.2019
2171 Rain 25 1016 57 16093 8.2 60 02:43 22.12.2019
2172 Rain 25 1016 54 16093 7.7 60 01:57 22.12.2019
2173 Rain 25 1016 54 16093 7.7 60 01:31 22.12.2019
2174 Clouds 25 1017 83 16093 3.1 80 00:48 22.12.2019
2175 Rain 25 1017 57 16093 9.8 70 00:26 22.12.2019
2176 Rain 25 1018 65 16093 10.3 70 23:57 21.12.2019
2177 Rain 24 1018 65 16093 10.3 70 23:38 21.12.2019
2178 Rain 24 1018 65 16093 10.3 70 23:19 21.12.2019
2179 Rain 24 1019 65 16093 10.8 60 22:45 21.12.2019
2180 Rain 24 1019 65 16093 10.8 60 22:20 21.12.2019
2181 Clouds 24 1019 73 16093 9.8 70 21:57 21.12.2019
2182 Clouds 24 1019 73 16093 9.8 70 21:38 21.12.2019
2183 Rain 23 1019 69 11265 9.3 70 21:20 21.12.2019
2184 Clouds 23 1019 69 16093 9.3 60 20:59 21.12.2019
2185 Clouds 22 1019 69 16093 9.3 60 20:39 21.12.2019
2186 Rain 23 1019 73 11265 8.2 60 20:21 21.12.2019
2187 Drizzle 22 1019 94 16093 9.38 72 19:58 21.12.2019
2188 Drizzle 22 1019 94 16093 9.38 72 19:40 21.12.2019
2189 Drizzle 22 1019 94 16093 9.38 72 19:40 21.12.2019
2190 Rain 23 1018 73 11265 5.7 50 19:19 21.12.2019
2191 Rain 23 1018 73 11265 5.7 50 19:19 21.12.2019
2192 Rain 22 1017 78 16093 8.2 60 18:45 21.12.2019
2193 Rain 23 1017 78 16093 8.2 60 18:24 21.12.2019
2194 Clouds 23 1017 73 16093 8.2 70 17:58 21.12.2019
2195 Clouds 23 1017 73 16093 8.2 70 17:39 21.12.2019
2196 Clouds 23 1017 78 16093 8.2 60 17:21 21.12.2019
2197 Clouds 22 1017 78 16093 8.7 70 16:59 21.12.2019
2198 Clouds 22 1017 78 16093 8.7 70 16:41 21.12.2019
2199 Clouds 22 1016 78 16093 9.3 60 16:19 21.12.2019
2200 Rain 22 1017 94 16093 6.7 90 15:57 21.12.2019
2201 Rain 22 1017 94 16093 6.7 90 15:38 21.12.2019
2202 Rain 22 1017 78 16093 8.7 60 15:19 21.12.2019
2203 Clouds 22 1018 94 16093 3.6 100 14:56 21.12.2019
2204 Clouds 22 1018 94 16093 3.6 100 14:56 21.12.2019
2205 Clouds 22 1018 94 16093 3.6 100 14:37 21.12.2019
2206 Clouds 23 1017 78 16093 5.7 40 14:18 21.12.2019
2207 Clouds 22 1017 78 16093 8.7 60 13:55 21.12.2019
2208 Clouds 22 1017 78 16093 8.7 60 13:37 21.12.2019
2209 Clouds 22 1017 83 16093 7.2 60 13:18 21.12.2019
2210 Rain 23 1018 78 16093 9.8 70 12:54 21.12.2019
2211 Rain 23 1018 78 16093 9.3 60 12:36 21.12.2019
2212 Rain 23 1018 78 16093 9.3 60 12:18 21.12.2019
2213 Clouds 23 1018 78 16093 8.2 70 11:41 21.12.2019
2214 Drizzle 22 1018 100 16093 2.1 60 11:23 21.12.2019
2215 Drizzle 22 1019 100 16093 8.77 76 10:54 21.12.2019
2216 Rain 22 1018 83 14484 9.8 60 10:36 21.12.2019
2217 Rain 22 1018 83 14484 9.8 60 10:18 21.12.2019
2218 Drizzle 22 1019 100 14484 8.77 76 09:42 21.12.2019
2219 Rain 22 1018 83 16093 7.7 60 09:20 21.12.2019
2220 Rain 22 1019 88 9656 7.2 80 08:56 21.12.2019
2221 Rain 23 1018 88 11265 8.2 60 08:37 21.12.2019
2222 Rain 23 1018 88 11265 8.2 60 08:18 21.12.2019
2223 Rain 22 1018 100 6437 6.2 80 07:41 21.12.2019
2224 Rain 22 1018 83 12874 10.8 60 07:21 21.12.2019
2225 Rain 23 1018 94 6437 4.1 70 06:43 21.12.2019
2226 Clouds 24 1017 69 16093 7.7 50 06:25 21.12.2019
2227 Haze 24 1017 78 8047 8.2 60 05:47 21.12.2019
2228 Rain 24 1016 94 4828 4.1 50 04:57 21.12.2019
2229 Drizzle 26 1015 69 16093 5.1 90 03:56 21.12.2019
2230 Clouds 26 1014 48 16093 9.8 80 02:40 21.12.2019
2231 Clouds 26 1015 61 16093 6.2 120 01:55 21.12.2019
2232 Clouds 26 1015 51 16093 8.7 50 01:27 21.12.2019
2233 Clouds 26 1016 51 16093 8.7 70 00:51 21.12.2019
2234 Clouds 26 1016 51 16093 8.7 70 00:31 21.12.2019
2235 Clouds 26 1017 78 16093 5.7 90 23:55 20.12.2019
2236 Clouds 26 1017 48 16093 8.7 60 23:37 20.12.2019
2237 Clouds 27 1017 48 16093 8.7 60 23:18 20.12.2019
2238 Clouds 26 1017 78 16093 3.6 70 22:40 20.12.2019
2239 Clouds 27 1017 65 16093 7.7 80 22:21 20.12.2019
2240 Clouds 25 1017 65 16093 5.7 80 21:57 20.12.2019
2241 Clouds 25 1017 65 16093 5.7 80 21:39 20.12.2019
2242 Clouds 25 1017 65 16093 5.7 80 21:39 20.12.2019
2243 Clouds 25 1017 65 16093 6.2 70 21:18 20.12.2019
2244 Clouds 25 1018 78 16093 4.6 90 20:39 20.12.2019
2245 Clouds 25 1017 61 16093 7.2 100 20:19 20.12.2019
2246 Clouds 24 1017 83 16093 3.1 90 19:57 20.12.2019
2247 Clouds 24 1017 83 16093 3.1 90 19:39 20.12.2019
2248 Rain 24 1016 65 16093 4.1 90 19:19 20.12.2019
2249 Clouds 23 1016 69 16093 5.1 100 18:42 20.12.2019
2250 Clouds 23 1016 69 16093 5.1 100 18:42 20.12.2019
2251 Clouds 23 1016 69 16093 5.1 100 18:23 20.12.2019
2252 Clouds 23 1015 69 16093 2.6 70 17:58 20.12.2019
2253 Clouds 23 1015 69 16093 2.6 70 17:40 20.12.2019
2254 Clouds 23 1015 69 16093 2.6 70 17:20 20.12.2019
2255 Clouds 23 1015 69 16093 3.1 60 16:57 20.12.2019
2256 Clouds 23 1015 69 16093 3.1 60 16:38 20.12.2019
2257 Clouds 24 1015 69 16093 3.1 60 16:19 20.12.2019
2258 Rain 23 1015 73 16093 5.1 60 15:55 20.12.2019
2259 Rain 23 1015 73 16093 5.1 60 15:37 20.12.2019
2260 Rain 23 1015 73 16093 5.1 60 15:37 20.12.2019
2261 Rain 23 1015 73 16093 5.1 60 15:19 20.12.2019
2262 Clouds 23 1016 69 16093 5.1 60 14:42 20.12.2019
2263 Drizzle 23 1016 100 16093 1.5 250 14:24 20.12.2019
2264 Rain 22 1016 88 16093 1.5 330 13:57 20.12.2019
2265 Rain 22 1016 88 16093 1.5 330 13:37 20.12.2019
2266 Rain 23 1016 88 16093 1.5 330 13:19 20.12.2019
2267 Rain 23 1016 88 16093 4.1 80 12:55 20.12.2019
2268 Rain 23 1016 88 4828 4.6 120 12:36 20.12.2019
2269 Rain 23 1016 88 4828 4.6 120 12:36 20.12.2019
2270 Rain 23 1016 88 4828 4.6 120 12:18 20.12.2019
2271 Clouds 23 1017 88 16093 3.6 360 11:57 20.12.2019
2272 Clouds 23 1016 69 16093 5.7 50 11:38 20.12.2019
2273 Clouds 23 1016 69 16093 5.7 50 11:18 20.12.2019
2274 Clouds 24 1016 64 16093 5.7 40 10:55 20.12.2019
2275 Clouds 24 1016 64 16093 5.7 40 10:37 20.12.2019
2276 Clouds 24 1016 64 16093 5.7 40 10:19 20.12.2019
2277 Clouds 24 1016 65 16093 6.2 60 09:42 20.12.2019
2278 Clouds 24 1016 65 16093 6.2 60 09:21 20.12.2019
2279 Clouds 25 1016 65 16093 3.6 20 08:54 20.12.2019
2280 Clouds 25 1016 65 16093 3.6 20 08:54 20.12.2019
2281 Clouds 25 1016 65 16093 3.6 20 08:36 20.12.2019
2282 Clouds 25 1016 65 16093 3.6 20 08:18 20.12.2019
2283 Clouds 25 1016 61 16093 3.6 70 07:42 20.12.2019
2284 Clouds 25 1016 61 16093 3.6 70 07:23 20.12.2019
2285 Clouds 25 1015 61 16093 3.6 50 06:55 20.12.2019
2286 Clouds 25 1015 61 16093 3.6 50 06:36 20.12.2019
2287 Clouds 25 1015 61 16093 3.6 50 06:18 20.12.2019
2288 Clouds 25 1015 57 16093 4.1 20 05:45 20.12.2019
2289 Clouds 26 1014 51 16093 6.2 40 04:57 20.12.2019
2290 Clouds 27 1014 51 16093 7.2 40 03:48 20.12.2019
2291 Clouds 27 1013 48 16093 7.7 50 02:45 20.12.2019
2292 Clouds 27 1014 48 16093 7.7 30 01:55 20.12.2019
2293 Clouds 27 1014 48 16093 7.7 30 01:35 20.12.2019
2294 Clear 28 1014 57 16093 8.2 90 00:53 20.12.2019
2295 Clouds 28 1014 42 16093 8.2 30 00:34 20.12.2019
2296 Clouds 28 1016 42 16093 6.7 40 23:57 19.12.2019
2297 Clouds 28 1016 42 16093 6.7 40 23:38 19.12.2019
2298 Clouds 28 1016 42 16093 6.7 40 23:19 19.12.2019
2299 Clouds 27 1016 48 16093 6.7 80 22:38 19.12.2019
2300 Clouds 27 1016 48 16093 6.7 80 22:20 19.12.2019
2301 Clouds 26 1017 65 16093 4.52 73 21:56 19.12.2019
2302 Clouds 27 1017 54 16093 6.2 80 21:38 19.12.2019
2303 Clouds 27 1017 54 16093 6.2 80 21:19 19.12.2019
2304 Clouds 25 1017 61 16093 2.1 20 20:56 19.12.2019
2305 Clouds 25 1017 61 16093 2.1 20 20:37 19.12.2019
2306 Clouds 25 1017 61 16093 2.1 20 20:18 19.12.2019
2307 Clouds 23 1016 73 16093 1.5 340 19:57 19.12.2019
2308 Clouds 23 1016 73 16093 1.5 340 19:57 19.12.2019
2309 Clouds 23 1016 73 16093 1.5 340 19:39 19.12.2019
2310 Clouds 23 1016 73 16093 1.5 340 19:39 19.12.2019
2311 Clouds 22 1016 73 16093 1.5 340 19:19 19.12.2019
2312 Clouds 21 1016 77 16093 3.27 62 18:41 19.12.2019
2313 Clouds 21 1016 77 16093 3.27 62 18:23 19.12.2019
2314 Clouds 21 1016 73 16093 1.5 290 17:58 19.12.2019
2315 Clouds 22 1016 73 16093 1.5 290 17:39 19.12.2019
2316 Clouds 22 1016 73 16093 1.5 290 17:19 19.12.2019
2317 Clouds 22 1015 78 16093 1.5 330 16:58 19.12.2019
2318 Clouds 22 1015 78 16093 1.5 330 16:40 19.12.2019
2319 Clouds 23 1015 78 16093 1.5 330 16:22 19.12.2019
2320 Clouds 23 1015 73 16093 3.1 60 15:59 19.12.2019
2321 Clouds 23 1015 73 16093 3.1 60 15:39 19.12.2019
2322 Clouds 23 1015 73 16093 3.1 60 15:20 19.12.2019
2323 Clouds 23 1015 73 16093 3.1 60 15:20 19.12.2019
2324 Clear 23 1015 69 16093 3.6 50 14:59 19.12.2019
2325 Clear 23 1015 69 16093 3.6 50 14:40 19.12.2019
2326 Clear 23 1015 69 16093 3.6 50 14:19 19.12.2019
2327 Clouds 23 1015 73 16093 4.1 80 13:56 19.12.2019
2328 Clouds 23 1015 73 16093 4.1 80 13:37 19.12.2019
2329 Clouds 23 1015 73 16093 4.1 80 13:18 19.12.2019
2330 Clouds 23 1016 64 16093 2.1 20 12:54 19.12.2019
2331 Clouds 23 1016 64 16093 2.1 20 12:36 19.12.2019
2332 Clouds 23 1016 64 16093 2.1 20 12:18 19.12.2019
2333 Clouds 23 1016 64 16093 2.1 20 12:18 19.12.2019
2334 Clouds 23 1016 88 16093 1.5 310 11:42 19.12.2019
2335 Clouds 23 1016 88 16093 1.5 310 11:20 19.12.2019
2336 Clouds 23 1016 88 16093 1.5 310 11:20 19.12.2019
2337 Clouds 24 1016 65 16093 4.1 50 10:59 19.12.2019
2338 Clouds 24 1016 65 16093 4.1 50 10:39 19.12.2019
2339 Clouds 24 1016 65 16093 4.1 50 10:20 19.12.2019
2340 Clouds 24 1017 83 16093 1.5 310 09:57 19.12.2019
2341 Clouds 24 1016 65 16093 6.7 70 09:38 19.12.2019
2342 Clouds 24 1016 65 16093 6.7 70 09:20 19.12.2019
2343 Rain 24 1016 88 16093 1.5 190 08:55 19.12.2019
2344 Rain 24 1016 69 16093 3.6 60 08:37 19.12.2019
2345 Rain 25 1016 69 16093 3.6 60 08:18 19.12.2019
2346 Clouds 25 1016 65 16093 6.2 50 07:54 19.12.2019
2347 Clouds 25 1016 65 16093 6.2 50 07:36 19.12.2019
2348 Clouds 25 1016 65 16093 6.2 50 07:18 19.12.2019
2349 Clouds 25 1015 65 16093 5.7 50 06:42 19.12.2019
2350 Clouds 25 1015 65 16093 5.7 50 06:23 19.12.2019
2351 Rain 25 1015 65 16093 6.7 70 05:45 19.12.2019
2352 Rain 25 1015 65 16093 6.7 70 05:20 19.12.2019
2353 Clouds 27 1015 78 16093 1.5 90 03:54 19.12.2019
2354 Clouds 27 1014 54 16093 6.7 70 02:29 19.12.2019
2355 Clouds 28 1015 51 16093 7.2 60 01:26 19.12.2019
2356 Clouds 27 1015 51 16093 8.2 50 00:58 19.12.2019
2357 Clouds 28 1015 51 16093 8.2 50 00:39 19.12.2019
2358 Clouds 28 1015 51 16093 8.2 50 00:19 19.12.2019
2359 Clouds 27 1016 54 16093 7.7 50 23:44 18.12.2019
2360 Clouds 27 1016 54 16093 7.7 50 23:19 18.12.2019
2361 Clouds 27 1017 54 16093 7.7 60 22:57 18.12.2019
2362 Clouds 27 1017 54 16093 7.7 60 22:38 18.12.2019
2363 Clouds 27 1018 57 16093 6.7 60 22:20 18.12.2019
2364 Clouds 27 1018 57 16093 6.7 60 21:58 18.12.2019
2365 Clouds 27 1018 57 16093 6.7 60 21:39 18.12.2019
2366 Clouds 27 1018 57 16093 6.7 60 21:20 18.12.2019
2367 Clouds 27 1018 57 16093 8.2 80 20:57 18.12.2019
2368 Clouds 27 1018 57 16093 8.2 80 20:38 18.12.2019
2369 Clouds 27 1018 57 16093 8.2 80 20:19 18.12.2019
2370 Clouds 26 1017 61 16093 5.7 80 19:56 18.12.2019
2371 Clouds 25 1017 61 16093 5.7 80 19:38 18.12.2019
2372 Clouds 25 1017 61 16093 5.7 80 19:18 18.12.2019
2373 Clouds 25 1017 69 16093 8.2 60 18:45 18.12.2019
2374 Clouds 25 1017 69 16093 8.2 60 18:45 18.12.2019
2375 Clouds 25 1017 69 16093 8.2 60 18:26 18.12.2019
2376 Clouds 25 1017 69 16093 5.7 80 17:58 18.12.2019
2377 Clouds 24 1017 65 16093 5.7 60 17:40 18.12.2019
2378 Clouds 25 1017 65 16093 5.7 60 17:20 18.12.2019
2379 Clouds 25 1016 65 16093 3.6 90 16:58 18.12.2019
2380 Clouds 25 1016 65 16093 3.6 90 16:40 18.12.2019
2381 Clouds 25 1016 65 16093 3.6 90 16:40 18.12.2019
2382 Clouds 25 1016 65 16093 3.6 90 16:21 18.12.2019
2383 Clouds 25 1017 65 16093 5.1 70 15:56 18.12.2019
2384 Clouds 25 1017 65 16093 5.1 70 15:38 18.12.2019
2385 Clouds 25 1017 65 16093 5.1 70 15:20 18.12.2019
2386 Clouds 25 1016 65 16093 5.1 80 14:43 18.12.2019
2387 Clouds 25 1018 88 16093 1.5 170 14:22 18.12.2019
2388 Clouds 25 1017 78 16093 3.6 90 13:58 18.12.2019
2389 Rain 25 1017 69 16093 3.6 70 13:39 18.12.2019
2390 Rain 25 1017 69 16093 3.6 70 13:21 18.12.2019
2391 Clouds 25 1018 88 16093 2.6 90 12:59 18.12.2019
2392 Clouds 25 1018 88 16093 2.6 90 12:39 18.12.2019
2393 Rain 25 1018 69 16093 5.1 60 12:20 18.12.2019
2394 Clouds 26 1017 65 16093 5.7 70 11:56 18.12.2019
2395 Rain 26 1018 65 16093 5.1 60 11:38 18.12.2019
2396 Rain 26 1018 65 16093 5.1 60 11:38 18.12.2019
2397 Rain 26 1018 65 16093 5.1 60 11:19 18.12.2019
2398 Clouds 26 1018 65 16093 5.1 60 10:57 18.12.2019
2399 Clouds 26 1018 65 16093 5.1 60 10:39 18.12.2019
2400 Clouds 26 1018 65 16093 5.1 60 10:20 18.12.2019
2401 Clouds 26 1018 69 16093 5.7 80 09:52 18.12.2019
2402 Clouds 26 1018 61 16093 5.7 80 09:19 18.12.2019
2403 Clouds 26 1018 65 16093 6.7 60 08:41 18.12.2019
2404 Clouds 26 1018 65 16093 6.7 60 08:41 18.12.2019
2405 Clouds 26 1018 65 16093 6.7 60 08:23 18.12.2019
2406 Clouds 26 1018 65 16093 8.2 60 07:55 18.12.2019
2407 Clouds 26 1018 65 16093 8.2 60 07:36 18.12.2019
2408 Clouds 26 1018 65 16093 8.2 60 07:18 18.12.2019
2409 Rain 26 1017 65 16093 6.2 50 06:49 18.12.2019
2410 Rain 25 1017 65 16093 6.2 50 06:22 18.12.2019
2411 Clouds 26 1017 65 16093 8.7 50 05:22 18.12.2019
2412 Rain 26 1016 61 16093 6.2 70 03:31 18.12.2019
2413 Rain 27 1016 61 16093 8.2 50 02:38 18.12.2019
2414 Rain 27 1016 61 16093 8.2 50 02:20 18.12.2019
2415 Clouds 27 1017 74 16093 4.6 60 01:42 18.12.2019
2416 Clouds 27 1016 58 16093 7.2 70 01:22 18.12.2019
2417 Clouds 27 1016 58 16093 7.2 70 01:22 18.12.2019
2418 Clouds 28 1017 69 16093 6.7 70 00:41 18.12.2019
2419 Clouds 28 1017 74 16093 6.2 80 00:23 18.12.2019
2420 Clouds 27 1018 69 16093 5.1 70 23:57 17.12.2019
2421 Clouds 27 1018 51 16093 7.2 80 23:38 17.12.2019
2422 Clouds 27 1018 51 16093 7.2 80 23:19 17.12.2019
2423 Clouds 27 1019 54 16093 9.3 50 22:56 17.12.2019
2424 Clouds 27 1019 54 16093 9.3 50 22:38 17.12.2019
2425 Clouds 27 1019 54 16093 9.3 50 22:19 17.12.2019
2426 Clouds 26 1019 57 16093 6.7 50 21:55 17.12.2019
2427 Clouds 26 1019 57 16093 6.7 50 21:37 17.12.2019
2428 Clouds 26 1019 57 16093 6.7 50 21:37 17.12.2019
2429 Clouds 27 1019 57 16093 6.7 50 21:19 17.12.2019
2430 Clouds 27 1019 57 16093 9.3 70 20:56 17.12.2019
2431 Clouds 27 1019 57 16093 9.3 70 20:38 17.12.2019
2432 Clouds 26 1019 57 16093 9.3 70 20:18 17.12.2019
2433 Clouds 26 1019 61 16093 7.7 50 19:55 17.12.2019
2434 Clouds 26 1019 61 16093 7.7 50 19:37 17.12.2019
2435 Clouds 25 1019 61 16093 7.7 50 19:18 17.12.2019
2436 Clouds 25 1018 69 16093 6.2 50 18:42 17.12.2019
2437 Clouds 25 1018 69 16093 6.2 50 18:42 17.12.2019
2438 Clouds 25 1018 69 16093 6.2 50 18:22 17.12.2019
2439 Clouds 25 1018 69 16093 8.2 80 17:59 17.12.2019
2440 Clouds 25 1018 69 16093 8.2 80 17:59 17.12.2019
2441 Rain 25 1017 69 16093 5.7 50 17:41 17.12.2019
2442 Rain 25 1017 69 16093 5.7 50 17:19 17.12.2019
2443 Clouds 24 1018 88 16093 5.7 80 16:56 17.12.2019
2444 Rain 24 1017 69 16093 5.1 70 16:37 17.12.2019
2445 Rain 24 1017 69 16093 5.1 70 16:37 17.12.2019
2446 Rain 25 1017 69 16093 5.1 70 16:19 17.12.2019
2447 Clouds 25 1017 65 16093 7.2 70 15:56 17.12.2019
2448 Clouds 25 1017 65 16093 7.2 70 15:37 17.12.2019
2449 Clouds 25 1017 65 16093 7.2 70 15:37 17.12.2019
2450 Clouds 25 1017 65 16093 7.2 70 15:19 17.12.2019
2451 Clouds 25 1017 65 16093 7.2 70 15:19 17.12.2019
2452 Clouds 25 1017 73 16093 8.2 80 14:55 17.12.2019
2453 Clouds 25 1017 73 16093 8.2 80 14:36 17.12.2019
2454 Clouds 25 1017 73 16093 6.7 70 14:18 17.12.2019
2455 Clouds 25 1017 73 16093 5.7 80 13:55 17.12.2019
2456 Clouds 25 1017 73 16093 5.7 80 13:55 17.12.2019
2457 Clouds 25 1017 73 16093 5.7 80 13:37 17.12.2019
2458 Clouds 25 1017 73 16093 5.7 80 13:18 17.12.2019
2459 Clouds 25 1018 69 16093 7.7 90 12:41 17.12.2019
2460 Clouds 25 1018 61 16093 7.7 70 12:19 17.12.2019
2461 Clouds 25 1018 61 16093 7.7 70 12:19 17.12.2019
2462 Clouds 25 1018 61 16093 6.2 90 11:59 17.12.2019
2463 Clouds 25 1018 61 16093 6.2 90 11:37 17.12.2019
2464 Clouds 25 1018 61 16093 6.2 90 11:19 17.12.2019
2465 Clouds 25 1019 73 16093 2.1 70 10:59 17.12.2019
2466 Clouds 25 1019 73 16093 2.1 70 10:40 17.12.2019
2467 Clouds 26 1018 61 16093 3.1 0 10:21 17.12.2019
2468 Clouds 26 1019 69 16093 6.2 80 09:59 17.12.2019
2469 Clouds 25 1018 61 16093 6.2 60 09:40 17.12.2019
2470 Clouds 25 1018 61 16093 6.2 60 09:19 17.12.2019
2471 Clouds 25 1019 73 16093 8.2 70 08:55 17.12.2019
2472 Clouds 25 1019 73 16093 8.2 70 08:37 17.12.2019
2473 Clouds 25 1018 61 16093 6.2 60 08:19 17.12.2019
2474 Clouds 26 1018 61 16093 7.2 70 07:45 17.12.2019
2475 Clouds 26 1018 61 16093 7.2 70 07:24 17.12.2019
2476 Clouds 25 1017 61 16093 8.7 60 06:55 17.12.2019
2477 Clouds 25 1017 61 16093 8.7 60 06:32 17.12.2019
2478 Clouds 25 1016 61 16093 8.2 60 05:52 17.12.2019
2479 Clouds 25 1016 61 16093 8.2 60 05:32 17.12.2019
2480 Clouds 26 1016 57 16093 6.2 60 04:19 17.12.2019
2481 Rain 26 1016 65 16093 6.7 70 02:27 17.12.2019
2482 Clouds 26 1016 65 16093 5.7 40 01:34 17.12.2019
2483 Rain 26 1016 78 14484 7.2 60 00:48 17.12.2019
2484 Rain 25 1016 78 14484 7.2 60 00:22 17.12.2019
2485 Rain 25 1017 78 16093 5.7 50 23:58 16.12.2019
2486 Rain 25 1017 78 16093 5.7 50 23:40 16.12.2019
2487 Rain 25 1017 78 16093 5.7 50 23:18 16.12.2019
2488 Rain 26 1017 88 6437 5.1 60 22:54 16.12.2019
2489 Rain 26 1018 65 16093 5.7 40 22:36 16.12.2019
2490 Rain 26 1018 65 16093 5.7 40 22:18 16.12.2019
2491 Clouds 26 1018 83 16093 5.1 30 21:54 16.12.2019
2492 Rain 26 1018 65 16093 1.5 0 21:36 16.12.2019
2493 Rain 26 1018 65 16093 1.5 0 21:18 16.12.2019
2494 Clouds 25 1018 88 16093 2.6 40 20:54 16.12.2019
2495 Rain 25 1018 74 16093 5.7 20 20:36 16.12.2019
2496 Rain 25 1018 74 16093 5.7 20 20:18 16.12.2019
2497 Clouds 24 1018 88 16093 3.6 340 19:54 16.12.2019
2498 Clouds 24 1016 83 16093 6.2 70 19:36 16.12.2019
2499 Clouds 24 1016 83 16093 6.2 70 19:18 16.12.2019
2500 Clouds 24 1016 83 16093 6.2 70 19:18 16.12.2019
2501 Rain 24 1016 73 16093 5.18 65 18:42 16.12.2019
2502 Rain 23 1016 73 16093 5.18 65 18:20 16.12.2019
2503 Rain 23 1016 73 16093 5.18 65 18:20 16.12.2019
2504 Clouds 23 1016 78 16093 5.18 65 17:59 16.12.2019
2505 Clouds 23 1016 78 16093 5.18 65 17:40 16.12.2019
2506 Clouds 23 1016 78 16093 5.18 65 17:40 16.12.2019
2507 Clouds 23 1016 78 16093 3.55 55 17:21 16.12.2019
2508 Rain 23 1015 83 16093 1.5 80 16:57 16.12.2019
2509 Rain 23 1015 83 16093 1.5 80 16:39 16.12.2019
2510 Rain 23 1015 83 16093 1.5 80 16:20 16.12.2019
2511 Rain 23 1016 83 16093 3.1 80 15:59 16.12.2019
2512 Rain 23 1016 83 16093 3.1 80 15:59 16.12.2019
2513 Rain 23 1015 78 16093 2.1 0 15:39 16.12.2019
2514 Rain 23 1015 78 16093 2.1 0 15:20 16.12.2019
2515 Drizzle 23 1016 88 16093 3.1 360 14:57 16.12.2019
2516 Drizzle 23 1016 88 16093 3.1 360 14:37 16.12.2019
2517 Drizzle 23 1016 88 16093 3.1 360 14:37 16.12.2019
2518 Rain 23 1016 78 16093 2.6 50 14:19 16.12.2019
2519 Rain 23 1016 78 16093 2.6 50 14:19 16.12.2019
2520 Rain 23 1016 78 16093 2.6 50 14:19 16.12.2019
2521 Clouds 23 1016 94 16093 1.5 10 13:56 16.12.2019
2522 Clouds 23 1016 94 16093 1.5 10 13:37 16.12.2019
2523 Rain 24 1016 65 16093 3.6 70 13:19 16.12.2019
2524 Clouds 25 1016 65 16093 5.7 60 12:57 16.12.2019
2525 Clouds 25 1016 65 16093 5.7 60 12:39 16.12.2019
2526 Clouds 25 1016 65 16093 5.7 60 12:18 16.12.2019
2527 Clouds 25 1016 73 16093 6.2 60 11:58 16.12.2019
2528 Clouds 25 1016 73 16093 6.2 60 11:40 16.12.2019
2529 Clouds 24 1016 73 16093 6.2 60 11:20 16.12.2019
2530 Clouds 24 1016 73 16093 6.2 60 11:20 16.12.2019
2531 Clouds 24 1016 65 16093 4.6 60 10:56 16.12.2019
2532 Clouds 24 1016 65 16093 4.6 60 10:36 16.12.2019
2533 Clouds 24 1016 65 16093 4.6 60 10:18 16.12.2019
2534 Clouds 24 1017 65 16093 7.7 50 09:44 16.12.2019
2535 Clouds 24 1017 65 16093 7.7 50 09:44 16.12.2019
2536 Clouds 25 1017 65 16093 7.7 50 09:26 16.12.2019
2537 Clouds 25 1016 65 16093 6.7 40 08:41 16.12.2019
2538 Clouds 25 1016 65 16093 6.7 40 08:21 16.12.2019
2539 Clouds 25 1015 69 16093 4.6 40 07:53 16.12.2019
2540 Clouds 25 1015 69 16093 4.6 40 07:33 16.12.2019
2541 Clouds 25 1015 61 16093 2.1 10 06:59 16.12.2019
2542 Clouds 25 1015 61 16093 2.1 10 06:40 16.12.2019
2543 Clouds 25 1015 61 16093 2.1 10 06:21 16.12.2019
2544 Clouds 25 1014 61 16093 2.6 40 05:41 16.12.2019
2545 Clouds 25 1014 61 16093 2.6 40 05:23 16.12.2019
2546 Clouds 26 1013 58 16093 5.1 70 03:29 16.12.2019
2547 Rain 27 1013 58 16093 6.2 70 01:51 16.12.2019
2548 Rain 27 1013 58 16093 6.2 70 01:33 16.12.2019
2549 Clouds 27 1014 58 16093 5.7 70 00:39 16.12.2019
2550 Clouds 27 1014 58 16093 5.7 70 00:20 16.12.2019
2551 Rain 27 1015 65 16093 5.7 80 23:44 15.12.2019
2552 Rain 27 1015 65 16093 5.7 80 23:25 15.12.2019
2553 Clouds 27 1015 74 14484 5.7 70 22:57 15.12.2019
2554 Clouds 27 1015 74 14484 5.7 70 22:39 15.12.2019
2555 Rain 27 1016 58 16093 5.7 80 22:20 15.12.2019
2556 Clouds 27 1016 61 16093 3.6 30 21:59 15.12.2019
2557 Clouds 27 1016 61 16093 3.6 30 21:39 15.12.2019
2558 Clouds 27 1016 61 16093 3.6 30 21:39 15.12.2019
2559 Clouds 26 1016 61 16093 3.6 30 21:20 15.12.2019
2560 Clouds 26 1016 61 16093 5.7 40 20:58 15.12.2019
2561 Clouds 26 1016 61 16093 5.7 40 20:40 15.12.2019
2562 Clouds 26 1016 61 16093 5.7 40 20:22 15.12.2019
2563 Clouds 24 1016 73 16093 3.6 40 19:58 15.12.2019
2564 Clouds 24 1016 73 16093 3.6 40 19:40 15.12.2019
2565 Clouds 24 1016 73 16093 3.6 40 19:20 15.12.2019
2566 Rain 23 1015 73 16093 5.1 40 18:58 15.12.2019
2567 Rain 23 1015 73 16093 5.1 40 18:58 15.12.2019
2568 Rain 24 1015 73 16093 5.1 40 18:39 15.12.2019
2569 Rain 24 1015 73 16093 5.1 40 18:19 15.12.2019
2570 Clouds 23 1016 100 16093 3.84 78 17:57 15.12.2019
2571 Rain 23 1015 78 16093 2.6 10 17:38 15.12.2019
2572 Rain 24 1015 78 16093 2.6 10 17:19 15.12.2019
2573 Rain 24 1015 73 16093 2.6 20 16:58 15.12.2019
2574 Rain 24 1015 73 16093 2.6 20 16:39 15.12.2019
2575 Rain 24 1015 73 16093 2.6 20 16:21 15.12.2019
2576 Clouds 24 1015 73 16093 3.1 70 15:56 15.12.2019
2577 Clouds 24 1015 73 16093 3.1 70 15:38 15.12.2019
2578 Clouds 24 1015 73 16093 3.1 70 15:19 15.12.2019
2579 Rain 24 1014 83 16093 4.6 70 14:56 15.12.2019
2580 Clouds 24 1015 69 16093 4.1 70 14:37 15.12.2019
2581 Clouds 24 1015 69 16093 4.1 70 14:18 15.12.2019
2582 Clouds 24 1015 78 16093 3.6 70 13:58 15.12.2019
2583 Clouds 24 1015 73 16093 3.1 60 13:37 15.12.2019
2584 Clouds 24 1015 73 16093 3.1 60 13:37 15.12.2019
2585 Clouds 25 1015 73 16093 3.1 60 13:19 15.12.2019
2586 Clouds 25 1015 73 16093 3.1 60 13:19 15.12.2019
2587 Clouds 25 1015 73 16093 4.1 70 12:56 15.12.2019
2588 Clouds 24 1015 73 16093 4.1 70 12:38 15.12.2019
2589 Clouds 25 1015 73 16093 4.1 70 12:20 15.12.2019
2590 Clouds 25 1015 83 16093 3.1 80 11:39 15.12.2019
2591 Clouds 25 1015 83 16093 3.1 80 11:20 15.12.2019
2592 Clouds 25 1015 83 16093 4.6 80 10:59 15.12.2019
2593 Clouds 25 1015 83 16093 4.6 80 10:41 15.12.2019
2594 Clouds 24 1015 78 16093 4.1 80 10:20 15.12.2019
2595 Clouds 25 1016 69 16093 4.1 50 09:59 15.12.2019
2596 Clouds 25 1016 69 16093 4.1 50 09:39 15.12.2019
2597 Clouds 24 1016 69 16093 4.1 50 09:20 15.12.2019
2598 Clouds 24 1016 88 16093 1.5 360 08:56 15.12.2019
2599 Clouds 24 1016 88 16093 1.5 360 08:38 15.12.2019
2600 Rain 24 1015 69 16093 5.1 50 08:20 15.12.2019
2601 Clouds 24 1015 83 16093 4.6 70 07:55 15.12.2019
2602 Clouds 24 1015 83 16093 4.6 70 07:33 15.12.2019
2603 Clouds 24 1015 83 16093 4.1 70 06:31 15.12.2019
2604 Clouds 25 1015 88 16093 4.6 50 05:51 15.12.2019
2605 Clouds 25 1014 65 16093 5.7 30 05:25 15.12.2019
2606 Clouds 25 1014 65 16093 4.6 40 04:24 15.12.2019
2607 Clouds 26 1014 61 16093 6.2 60 03:22 15.12.2019
2608 Rain 26 1014 58 16093 6.7 60 02:32 15.12.2019
2609 Rain 26 1015 94 9656 5.7 80 01:43 15.12.2019
2610 Rain 26 1014 61 16093 7.2 60 01:20 15.12.2019
2611 Clouds 25 1014 78 16093 5.7 70 00:53 15.12.2019
2612 Clouds 25 1015 94 16093 4.1 70 00:34 15.12.2019
2613 Clouds 25 1017 100 12874 5.1 80 23:56 14.12.2019
2614 Rain 25 1017 94 6437 3.6 80 23:38 14.12.2019
2615 Rain 25 1017 94 6437 3.6 80 23:18 14.12.2019
2616 Drizzle 24 1017 94 14484 2.1 110 22:56 14.12.2019
2617 Rain 24 1017 74 14484 7.7 80 22:37 14.12.2019
2618 Rain 24 1017 74 14484 7.7 80 22:18 14.12.2019
2619 Drizzle 24 1017 100 14484 3.1 120 21:55 14.12.2019
2620 Drizzle 24 1017 100 14484 3.1 120 21:37 14.12.2019
2621 Rain 24 1017 73 16093 7.2 50 21:18 14.12.2019
2622 Rain 23 1017 94 8047 6.61 81 20:42 14.12.2019
2623 Rain 23 1017 88 12874 5.7 80 20:20 14.12.2019
2624 Rain 23 1016 88 14484 7.2 90 19:59 14.12.2019
2625 Drizzle 23 1017 94 16093 5.66 81 19:39 14.12.2019
2626 Drizzle 23 1017 94 16093 5.66 81 19:21 14.12.2019
2627 Rain 23 1017 94 9656 5.66 81 18:57 14.12.2019
2628 Clouds 24 1016 83 16093 5.1 80 18:38 14.12.2019
2629 Clouds 24 1016 83 16093 5.1 80 18:20 14.12.2019
2630 Clouds 24 1016 94 16093 3.6 60 17:54 14.12.2019
2631 Clouds 24 1015 74 16093 6.2 70 17:36 14.12.2019
2632 Clouds 24 1015 74 16093 6.2 70 17:18 14.12.2019
2633 Clouds 24 1016 65 16093 5.1 50 16:40 14.12.2019
2634 Clouds 24 1016 65 16093 5.1 50 16:19 14.12.2019
2635 Clouds 24 1015 69 16093 6.2 80 15:54 14.12.2019
2636 Clouds 24 1015 69 16093 6.2 80 15:36 14.12.2019
2637 Clouds 24 1015 69 16093 6.2 80 15:36 14.12.2019
2638 Clouds 24 1015 69 16093 6.2 80 15:36 14.12.2019
2639 Clouds 24 1015 69 16093 6.2 80 15:18 14.12.2019
2640 Clouds 25 1016 65 16093 6.2 60 14:40 14.12.2019
2641 Clouds 25 1016 65 16093 6.2 60 14:21 14.12.2019
2642 Clouds 25 1017 65 16093 5.7 50 13:59 14.12.2019
2643 Clouds 25 1017 65 16093 5.7 50 13:41 14.12.2019
2644 Clouds 25 1017 65 16093 5.7 50 13:19 14.12.2019
2645 Clouds 25 1017 65 16093 5.7 50 13:19 14.12.2019
2646 Clouds 25 1017 65 16093 6.7 50 12:56 14.12.2019
2647 Clouds 25 1017 65 16093 6.7 50 12:37 14.12.2019
2648 Clouds 25 1017 65 16093 6.7 50 12:19 14.12.2019
2649 Clouds 25 1017 61 16093 7.7 60 11:56 14.12.2019
2650 Clouds 26 1017 61 16093 7.7 60 11:37 14.12.2019
2651 Clouds 26 1017 61 16093 7.7 60 11:18 14.12.2019
2652 Clouds 26 1017 57 16093 8.7 70 10:55 14.12.2019
2653 Clouds 26 1017 57 16093 8.7 70 10:55 14.12.2019
2654 Clouds 26 1017 57 16093 8.7 70 10:37 14.12.2019
2655 Clouds 25 1017 57 16093 8.7 70 10:19 14.12.2019
2656 Clouds 25 1018 65 16093 4.1 80 09:41 14.12.2019
2657 Clouds 26 1017 65 16093 5.7 50 09:21 14.12.2019
2658 Clouds 26 1017 61 16093 7.7 70 08:45 14.12.2019
2659 Clouds 26 1017 61 16093 7.7 70 08:21 14.12.2019
2660 Clouds 25 1018 78 16093 3.6 110 07:58 14.12.2019
2661 Clouds 25 1018 78 16093 3.6 110 07:38 14.12.2019
2662 Clouds 25 1019 78 16093 6.7 100 07:19 14.12.2019
2663 Rain 25 1017 78 9656 4.6 100 06:41 14.12.2019
2664 Rain 25 1017 69 16093 7.2 40 06:22 14.12.2019
2665 Rain 25 1017 88 16093 5.1 100 05:22 14.12.2019
2666 Drizzle 27 1016 83 16093 3.6 50 02:49 14.12.2019
2667 Rain 27 1016 61 16093 6.2 60 02:22 14.12.2019
2668 Clouds 27 1015 74 16093 6.7 60 01:43 14.12.2019
2669 Clouds 27 1016 74 16093 6.2 60 00:55 14.12.2019
2670 Clouds 27 1016 74 16093 5.7 70 00:37 14.12.2019
2671 Clouds 27 1016 74 16093 5.7 70 00:18 14.12.2019
2672 Rain 27 1017 61 16093 8.7 50 23:39 13.12.2019
2673 Rain 27 1017 61 16093 8.7 50 23:19 13.12.2019
2674 Rain 27 1018 83 16093 4.6 70 22:55 13.12.2019
2675 Rain 27 1018 83 16093 4.6 70 22:36 13.12.2019
2676 Clouds 28 1018 61 16093 8.7 70 22:18 13.12.2019
2677 Clouds 27 1018 65 16093 8.7 60 21:40 13.12.2019
2678 Clouds 27 1018 65 16093 8.7 60 21:21 13.12.2019
2679 Clouds 26 1018 65 16093 6.7 60 20:57 13.12.2019
2680 Clouds 26 1018 65 16093 6.7 60 20:38 13.12.2019
2681 Clouds 25 1017 73 16093 6.7 70 20:19 13.12.2019
2682 Clouds 25 1017 73 16093 6.7 70 19:56 13.12.2019
2683 Clouds 25 1017 73 16093 6.7 70 19:36 13.12.2019
2684 Clouds 24 1017 73 16093 6.7 70 19:18 13.12.2019
2685 Clouds 24 1017 69 16093 6.2 70 18:41 13.12.2019
2686 Clouds 24 1017 69 16093 6.2 70 18:19 13.12.2019
2687 Clouds 23 1017 78 16093 4.1 80 17:57 13.12.2019
2688 Clouds 24 1016 73 16093 3.6 80 17:39 13.12.2019
2689 Clouds 23 1016 73 16093 3.6 80 17:18 13.12.2019
2690 Clouds 23 1016 88 16093 5.7 50 16:54 13.12.2019
2691 Clouds 23 1016 88 16093 5.7 50 16:54 13.12.2019
2692 Clouds 23 1016 88 16093 5.7 50 16:36 13.12.2019
2693 Clouds 23 1016 88 16093 5.7 50 16:18 13.12.2019
2694 Clear 23 1016 94 16093 5.21 72 15:40 13.12.2019
2695 Clear 23 1016 94 16093 5.21 72 15:20 13.12.2019
2696 Rain 23 1016 88 16093 4.1 60 14:55 13.12.2019
2697 Rain 23 1016 88 16093 5.1 50 14:36 13.12.2019
2698 Rain 23 1016 88 16093 5.1 50 14:18 13.12.2019
2699 Rain 23 1016 88 16093 8.7 50 13:41 13.12.2019
2700 Rain 23 1016 88 16093 8.7 50 13:21 13.12.2019
2701 Rain 23 1017 88 4828 5.1 60 12:44 13.12.2019
2702 Rain 23 1017 88 4828 5.1 60 12:24 13.12.2019
2703 Rain 23 1018 94 16093 3.01 69 11:59 13.12.2019
2704 Rain 23 1018 100 12874 2.1 300 11:41 13.12.2019
2705 Rain 23 1018 100 12874 2.1 300 11:23 13.12.2019
2706 Rain 23 1019 100 16093 4.1 320 10:56 13.12.2019
2707 Drizzle 23 1019 100 16093 3.1 330 10:38 13.12.2019
2708 Drizzle 23 1019 100 16093 3.1 330 10:19 13.12.2019
2709 Rain 22 1019 88 16093 3.6 330 09:41 13.12.2019
2710 Rain 23 1019 88 16093 3.6 330 09:20 13.12.2019
2711 Rain 23 1019 88 16093 3.6 330 09:20 13.12.2019
2712 Rain 23 1019 100 16093 1.5 270 08:42 13.12.2019
2713 Rain 23 1019 100 16093 1.5 270 08:24 13.12.2019
2714 Rain 24 1017 94 8047 9.3 40 07:47 13.12.2019
2715 Rain 24 1017 94 8047 9.3 40 07:24 13.12.2019
2716 Drizzle 25 1018 88 16093 2.6 320 06:55 13.12.2019
2717 Rain 25 1017 65 16093 4.1 60 06:29 13.12.2019
2718 Drizzle 25 1018 83 16093 3.1 350 05:47 13.12.2019
2719 Clouds 26 1016 78 16093 5.1 40 05:28 13.12.2019
2720 Rain 26 1016 61 16093 3.6 220 04:46 13.12.2019
2721 Clouds 27 1016 65 16093 4.1 230 03:47 13.12.2019
2722 Clouds 27 1016 73 16093 2.6 290 02:34 13.12.2019
2723 Clouds 28 1016 54 16093 4.1 180 01:47 13.12.2019
2724 Clouds 27 1016 61 16093 4.1 160 00:57 13.12.2019
2725 Clouds 27 1016 61 16093 4.1 160 00:37 13.12.2019
2726 Clouds 27 1018 58 16093 4.1 170 23:59 12.12.2019
2727 Clouds 27 1018 58 16093 4.1 170 23:59 12.12.2019
2728 Clouds 28 1018 58 16093 4.1 170 23:39 12.12.2019
2729 Clouds 28 1018 58 16093 4.1 170 23:21 12.12.2019
2730 Clouds 27 1018 61 16093 3.6 210 22:56 12.12.2019
2731 Clouds 27 1018 61 16093 3.6 210 22:37 12.12.2019
2732 Clouds 27 1018 61 16093 3.6 210 22:18 12.12.2019
2733 Clouds 27 1019 58 16093 1.5 320 21:54 12.12.2019
2734 Clouds 27 1019 58 16093 1.5 320 21:36 12.12.2019
2735 Clouds 27 1019 58 16093 1.5 320 21:18 12.12.2019
2736 Clouds 26 1018 69 16093 1.5 330 20:55 12.12.2019
2737 Clouds 26 1018 69 16093 1.5 330 20:55 12.12.2019
2738 Clouds 26 1018 69 16093 1.5 330 20:55 12.12.2019
2739 Clouds 25 1018 69 16093 1.5 330 20:37 12.12.2019
2740 Clouds 25 1018 69 16093 1.5 330 20:19 12.12.2019
2741 Clouds 23 1018 78 16093 1.5 30 19:42 12.12.2019
2742 Clouds 23 1018 78 16093 1.5 30 19:22 12.12.2019
2743 Clouds 22 1018 88 16093 0.77 89 18:58 12.12.2019
2744 Drizzle 22 1018 88 16093 0.77 89 18:39 12.12.2019
2745 Drizzle 22 1018 88 16093 0.77 89 18:20 12.12.2019
2746 Clouds 22 1017 78 16093 0.77 89 17:57 12.12.2019
2747 Clouds 22 1017 78 16093 0.77 89 17:39 12.12.2019
2748 Clouds 21 1017 78 16093 0.81 92 17:20 12.12.2019
2749 Clouds 21 1017 94 16093 2.6 330 16:57 12.12.2019
2750 Clouds 21 1017 94 16093 1.5 340 16:39 12.12.2019
2751 Clouds 21 1017 94 16093 1.5 340 16:20 12.12.2019
2752 Clouds 22 1016 94 16093 0.81 92 15:56 12.12.2019
2753 Clouds 22 1016 88 16093 0.81 92 15:37 12.12.2019
2754 Clouds 22 1016 88 16093 0.81 92 15:18 12.12.2019
2755 Clouds 22 1016 88 16093 0.81 92 14:38 12.12.2019
2756 Clouds 22 1016 88 16093 0.98 84 14:20 12.12.2019
2757 Clouds 22 1017 78 16093 2.6 330 13:58 12.12.2019
2758 Clouds 23 1017 78 16093 2.6 330 13:39 12.12.2019
2759 Clouds 23 1017 78 16093 2.6 330 13:21 12.12.2019
2760 Clouds 23 1017 88 16093 1.5 220 12:58 12.12.2019
2761 Clouds 23 1018 78 16093 1.04 94 12:40 12.12.2019
2762 Clouds 23 1018 78 16093 1.04 94 12:21 12.12.2019
2763 Clouds 23 1018 73 16093 2.1 310 11:56 12.12.2019
2764 Clouds 23 1018 73 16093 2.1 310 11:37 12.12.2019
2765 Clouds 23 1018 73 16093 2.1 310 11:19 12.12.2019
2766 Clouds 23 1018 69 16093 1.5 280 10:55 12.12.2019
2767 Clouds 23 1018 69 16093 1.5 280 10:37 12.12.2019
2768 Clouds 23 1018 69 16093 1.5 280 10:19 12.12.2019
2769 Clouds 23 1018 65 16093 1.13 98 09:42 12.12.2019
2770 Clouds 23 1018 65 16093 1.13 98 09:23 12.12.2019
2771 Clouds 24 1018 65 16093 1.13 98 08:56 12.12.2019
2772 Clouds 24 1018 65 16093 1.13 98 08:38 12.12.2019
2773 Clouds 24 1019 88 16093 1.5 10 08:20 12.12.2019
2774 Clouds 24 1018 69 16093 1.5 0 07:43 12.12.2019
2775 Clouds 24 1018 69 16093 1.5 0 07:24 12.12.2019
2776 Clouds 24 1017 88 16093 0.75 61 06:50 12.12.2019
2777 Clouds 25 1017 88 16093 0.75 61 06:32 12.12.2019
2778 Clouds 25 1017 83 16093 1.5 180 05:39 12.12.2019
2779 Clouds 26 1016 74 16093 2.6 90 04:51 12.12.2019
2780 Clouds 26 1016 61 16093 4.1 160 03:24 12.12.2019
2781 Clouds 27 1016 69 16093 3.6 100 02:38 12.12.2019
2782 Clouds 27 1016 69 16093 3.6 100 02:19 12.12.2019
2783 Clouds 27 1016 61 16093 6.2 140 01:37 12.12.2019
2784 Clouds 27 1016 61 16093 6.2 140 01:18 12.12.2019
2785 Clouds 28 1017 62 16093 5.7 140 00:40 12.12.2019
2786 Clouds 28 1017 62 16093 5.7 140 00:19 12.12.2019
2787 Clouds 28 1018 61 16093 6.2 140 23:44 11.12.2019
2788 Clouds 28 1018 61 16093 6.2 140 23:20 11.12.2019
2789 Clouds 28 1018 58 16093 2.6 100 22:57 11.12.2019
2790 Clouds 28 1018 58 16093 2.6 100 22:38 11.12.2019
2791 Clouds 28 1018 58 16093 2.6 100 22:19 11.12.2019
2792 Clouds 27 1019 65 16093 2.6 180 21:57 11.12.2019
2793 Clouds 27 1019 65 16093 2.6 180 21:37 11.12.2019
2794 Clouds 27 1019 65 16093 2.6 180 21:19 11.12.2019
2795 Clouds 26 1019 73 16093 1.5 310 20:56 11.12.2019
2796 Clouds 25 1019 73 16093 1.5 310 20:37 11.12.2019
2797 Clouds 25 1019 73 16093 1.5 310 20:19 11.12.2019
2798 Clouds 23 1018 78 16093 3.1 350 19:57 11.12.2019
2799 Clouds 23 1018 78 16093 3.1 350 19:38 11.12.2019
2800 Clouds 22 1018 78 16093 3.1 350 19:18 11.12.2019
2801 Clear 22 1018 83 16093 1.7 90 18:40 11.12.2019
2802 Clear 21 1018 83 16093 1.7 90 18:21 11.12.2019
2803 Clouds 21 1017 83 16093 2.6 350 17:57 11.12.2019
2804 Clouds 21 1017 83 16093 2.6 350 17:38 11.12.2019
2805 Clouds 21 1017 83 16093 2.6 350 17:18 11.12.2019
2806 Clouds 21 1016 88 16093 2.6 250 16:56 11.12.2019
2807 Clouds 21 1016 88 16093 2.6 250 16:56 11.12.2019
2808 Clouds 21 1016 88 16093 2.6 250 16:37 11.12.2019
2809 Clouds 21 1016 88 16093 2.6 250 16:19 11.12.2019
2810 Clear 21 1017 83 16093 1.42 88 15:57 11.12.2019
2811 Clear 21 1017 83 16093 1.42 88 15:57 11.12.2019
2812 Clear 21 1017 83 16093 1.42 88 15:37 11.12.2019
2813 Clear 22 1017 83 16093 1.42 88 15:19 11.12.2019
2814 Clouds 22 1017 83 16093 1.42 88 14:55 11.12.2019
2815 Clouds 22 1017 83 16093 1.42 88 14:37 11.12.2019
2816 Clouds 22 1017 83 16093 1.23 80 14:18 11.12.2019
2817 Clouds 22 1018 83 16093 2.1 340 13:44 11.12.2019
2818 Clouds 22 1018 83 16093 2.1 340 13:23 11.12.2019
2819 Clouds 23 1018 83 16093 1.5 0 12:59 11.12.2019
2820 Clouds 23 1018 83 16093 1.5 0 12:39 11.12.2019
2821 Clouds 23 1018 83 16093 1.5 0 12:21 11.12.2019
2822 Clouds 23 1017 78 16093 2.1 90 11:58 11.12.2019
2823 Clouds 23 1017 78 16093 2.1 90 11:39 11.12.2019
2824 Clouds 23 1017 78 16093 2.1 90 11:19 11.12.2019
2825 Clouds 23 1018 78 16093 1.38 80 10:59 11.12.2019
2826 Clouds 23 1018 78 16093 1.38 80 10:39 11.12.2019
2827 Clouds 23 1018 78 16093 1.38 80 10:21 11.12.2019
2828 Clouds 24 1018 69 16093 1.5 20 09:56 11.12.2019
2829 Clouds 24 1018 69 16093 1.5 20 09:38 11.12.2019
2830 Clouds 24 1018 69 16093 1.5 20 09:19 11.12.2019
2831 Clouds 24 1017 65 16093 1.38 80 08:55 11.12.2019
2832 Clouds 24 1017 65 16093 1.38 80 08:36 11.12.2019
2833 Clouds 24 1017 69 16093 2.1 20 08:18 11.12.2019
2834 Clouds 24 1017 69 16093 2.1 20 07:42 11.12.2019
2835 Clouds 25 1017 69 16093 2.1 20 07:22 11.12.2019
2836 Clouds 25 1017 88 16093 1.46 103 06:46 11.12.2019
2837 Clouds 25 1016 69 16093 2.1 270 06:24 11.12.2019
2838 Clouds 26 1016 69 16093 1.5 280 05:53 11.12.2019
2839 Clouds 26 1016 69 16093 1.5 280 05:28 11.12.2019
2840 Clouds 26 1015 69 16093 2.6 210 04:48 11.12.2019
2841 Clouds 27 1015 74 16093 1.33 75 03:18 11.12.2019
2842 Clouds 28 1015 65 16093 3.6 170 01:56 11.12.2019
2843 Clouds 28 1015 65 16093 3.6 170 01:21 11.12.2019
2844 Clouds 28 1016 65 16093 3.6 170 00:36 11.12.2019
2845 Clouds 28 1016 65 16093 3.6 170 00:18 11.12.2019
2846 Clouds 28 1017 65 16093 3.6 170 23:41 10.12.2019
2847 Clouds 28 1017 65 16093 3.6 170 23:21 10.12.2019
2848 Clouds 27 1017 69 16093 3.6 150 22:41 10.12.2019
2849 Clouds 27 1017 69 16093 3.6 150 22:22 10.12.2019
2850 Clouds 27 1018 65 16093 1.5 100 21:57 10.12.2019
2851 Clouds 27 1018 65 16093 1.5 100 21:39 10.12.2019
2852 Clouds 27 1018 65 16093 1.5 100 21:21 10.12.2019
2853 Clear 25 1018 65 16093 2.1 330 20:57 10.12.2019
2854 Clear 25 1018 65 16093 2.1 330 20:38 10.12.2019
2855 Clear 25 1018 65 16093 2.1 330 20:19 10.12.2019
2856 Clear 23 1017 69 16093 1.5 0 20:19 10.12.2019
2857 Clear 23 1017 69 16093 1.5 0 20:19 10.12.2019
2858 Clear 23 1017 69 16093 1.5 0 19:56 10.12.2019
2859 Clear 22 1017 69 16093 1.5 0 19:37 10.12.2019
2860 Clear 23 1017 69 16093 1.5 0 19:19 10.12.2019
2861 Clear 20 1017 82 16093 2.6 360 18:42 10.12.2019
2862 Clear 20 1017 82 16093 2.6 360 18:21 10.12.2019
2863 Clear 20 1016 77 16093 2.6 360 17:58 10.12.2019
2864 Clear 20 1016 77 16093 2.6 360 17:40 10.12.2019
2865 Clear 20 1016 77 16093 2.6 360 17:22 10.12.2019
2866 Clear 20 1016 77 16093 1.5 320 16:55 10.12.2019
2867 Clear 21 1016 77 16093 1.5 320 16:36 10.12.2019
2868 Clear 21 1016 77 16093 1.5 320 16:18 10.12.2019
2869 Clear 21 1016 77 16093 2.6 350 15:38 10.12.2019
2870 Clear 21 1016 77 16093 2.6 350 15:38 10.12.2019
2871 Clear 20 1016 77 16093 2.6 350 15:18 10.12.2019
2872 Clear 20 1016 83 16093 2.6 360 14:56 10.12.2019
2873 Clear 20 1016 83 16093 2.6 360 14:56 10.12.2019
2874 Clear 20 1016 83 16093 2.6 360 14:37 10.12.2019
2875 Clear 20 1016 83 16093 2.6 360 14:19 10.12.2019
2876 Clear 20 1016 83 16093 0.98 74 13:57 10.12.2019
2877 Clear 20 1016 83 16093 0.98 74 13:57 10.12.2019
2878 Clear 20 1016 83 16093 0.98 74 13:38 10.12.2019
2879 Clear 21 1016 83 16093 0.86 72 13:19 10.12.2019
2880 Clear 21 1016 83 16093 2.1 330 12:47 10.12.2019
2881 Clear 21 1016 83 16093 2.1 330 12:27 10.12.2019
2882 Clear 21 1016 83 16093 2.1 330 11:55 10.12.2019
2883 Clear 21 1016 83 16093 2.1 330 11:36 10.12.2019
2884 Clear 21 1016 83 16093 2.1 330 11:18 10.12.2019
2885 Clouds 22 1015 83 16093 1.5 200 10:42 10.12.2019
2886 Clouds 22 1015 83 16093 1.5 200 10:23 10.12.2019
2887 Clouds 22 1016 73 16093 1.5 340 09:57 10.12.2019
2888 Clouds 22 1016 73 16093 1.5 340 09:38 10.12.2019
2889 Clouds 22 1016 73 16093 1.5 340 09:38 10.12.2019
2890 Clouds 22 1016 73 16093 1.5 340 09:20 10.12.2019
2891 Clouds 22 1016 73 16093 2.6 50 08:58 10.12.2019
2892 Clouds 22 1016 73 16093 2.6 50 08:39 10.12.2019
2893 Clouds 22 1016 73 16093 2.6 50 08:39 10.12.2019
2894 Clouds 23 1016 73 16093 2.6 50 08:19 10.12.2019
2895 Clouds 23 1016 73 16093 2.6 50 08:19 10.12.2019
2896 Clouds 23 1015 69 16093 2.6 30 07:44 10.12.2019
2897 Clouds 23 1015 69 16093 2.6 30 07:26 10.12.2019
2898 Clouds 23 1015 69 16093 2.6 30 07:26 10.12.2019
2899 Clouds 24 1015 88 16093 1.65 83 06:49 10.12.2019
2900 Clouds 24 1015 65 16093 3.1 30 06:24 10.12.2019
2901 Clouds 25 1015 78 16093 1.65 83 05:55 10.12.2019
2902 Clouds 25 1014 65 16093 3.1 130 05:19 10.12.2019
2903 Clouds 27 1013 61 16093 5.1 130 03:47 10.12.2019
2904 Clouds 28 1012 58 16093 6.2 130 02:48 10.12.2019
2905 Clouds 28 1012 58 16093 6.2 130 02:48 10.12.2019
2906 Clouds 28 1013 58 16093 6.2 140 01:51 10.12.2019
2907 Clouds 28 1013 58 16093 6.2 140 01:26 10.12.2019
2908 Clouds 28 1013 58 16093 6.2 140 01:26 10.12.2019
2909 Clouds 28 1013 54 16093 6.2 140 00:49 10.12.2019
2910 Clouds 28 1013 54 16093 6.2 140 00:24 10.12.2019
2911 Clouds 27 1014 54 16093 2.6 170 23:43 09.12.2019
2912 Clouds 27 1014 54 16093 2.6 170 23:24 09.12.2019
2913 Clouds 27 1015 61 16093 3.1 160 22:58 09.12.2019
2914 Clouds 27 1015 61 16093 3.1 160 22:40 09.12.2019
2915 Clouds 27 1015 61 16093 3.1 160 22:21 09.12.2019
2916 Clouds 27 1016 61 16093 3.1 0 21:58 09.12.2019
2917 Clouds 27 1016 61 16093 3.1 0 21:39 09.12.2019
2918 Clouds 27 1016 61 16093 3.1 0 21:19 09.12.2019
2919 Clouds 25 1016 69 16093 1.5 340 20:57 09.12.2019
2920 Clouds 25 1016 69 16093 1.5 340 20:57 09.12.2019
2921 Clouds 25 1016 69 16093 1.5 340 20:39 09.12.2019
2922 Clouds 25 1016 69 16093 1.5 340 20:20 09.12.2019
2923 Clouds 24 1015 83 16093 2.6 0 19:56 09.12.2019
2924 Clouds 22 1015 83 16093 2.6 0 19:38 09.12.2019
2925 Clouds 21 1015 83 16093 2.6 0 19:19 09.12.2019
2926 Clouds 21 1015 83 16093 2.1 340 18:58 09.12.2019
2927 Clouds 21 1015 83 16093 2.1 340 18:39 09.12.2019
2928 Clouds 20 1015 83 16093 2.1 340 18:20 09.12.2019
2929 Clouds 20 1014 83 16093 1.5 340 17:58 09.12.2019
2930 Clouds 20 1014 83 16093 1.5 340 17:39 09.12.2019
2931 Clouds 20 1014 83 16093 1.5 340 17:20 09.12.2019
2932 Clouds 20 1014 88 16093 1.31 65 16:56 09.12.2019
2933 Clouds 20 1014 88 16093 1.31 65 16:37 09.12.2019
2934 Clouds 20 1014 88 16093 1.31 65 16:19 09.12.2019
2935 -273 0 0 0 0 0 15:55 09.12.2019
2936 Clouds 20 1014 83 16093 1.31 65 15:37 09.12.2019
2937 Clouds 20 1014 83 16093 1.31 65 15:19 09.12.2019
2938 Clouds 21 1014 78 16093 1.5 0 14:55 09.12.2019
2939 Clouds 21 1014 78 16093 1.5 0 14:37 09.12.2019
2940 Clouds 21 1014 78 16093 1.5 0 14:18 09.12.2019
2941 Clouds 21 1014 78 16093 2.6 340 13:40 09.12.2019
2942 Clouds 21 1014 78 16093 2.6 340 13:40 09.12.2019
2943 Clouds 21 1014 78 16093 2.6 340 13:20 09.12.2019
2944 Clouds 21 1015 78 16093 1.5 310 12:58 09.12.2019
2945 Clouds 21 1015 78 16093 1.5 310 12:39 09.12.2019
2946 Clouds 22 1015 78 16093 1.5 310 12:21 09.12.2019
2947 Clouds 21 1015 73 16093 2.1 330 11:59 09.12.2019
2948 Clouds 22 1015 73 16093 2.1 330 11:39 09.12.2019
2949 Clouds 22 1015 73 16093 2.1 330 11:39 09.12.2019
2950 Clouds 21 1015 73 16093 2.1 330 11:21 09.12.2019
2951 Clouds 21 1015 73 16093 2.1 340 10:56 09.12.2019
2952 Clouds 22 1015 73 16093 2.1 340 10:38 09.12.2019
2953 Clouds 22 1015 73 16093 2.1 340 10:18 09.12.2019
2954 Clouds 22 1015 73 16093 1.26 49 09:41 09.12.2019
2955 Clouds 22 1015 73 16093 1.26 49 09:23 09.12.2019
2956 Clouds 23 1015 73 16093 1.5 10 08:55 09.12.2019
2957 Clouds 23 1015 73 16093 1.5 10 08:37 09.12.2019
2958 Clouds 23 1015 73 16093 1.5 10 08:19 09.12.2019
2959 Clouds 23 1014 65 16093 2.1 40 07:42 09.12.2019
2960 Clouds 24 1014 65 16093 2.1 40 07:24 09.12.2019
2961 Clouds 24 1014 65 16093 2.6 90 06:54 09.12.2019
2962 Clouds 24 1014 65 16093 2.6 90 06:27 09.12.2019
2963 Clouds 25 1013 61 16093 2.1 160 05:30 09.12.2019
2964 Clouds 26 1013 61 16093 2.6 200 04:51 09.12.2019
2965 Clouds 26 1013 61 16093 2.6 200 04:20 09.12.2019
2966 Clouds 27 1013 69 16093 1.21 69 02:27 09.12.2019
2967 Clouds 27 1013 58 16093 4.1 220 01:44 09.12.2019
2968 Clouds 27 1013 58 16093 3.6 180 00:53 09.12.2019
2969 Clouds 27 1013 58 16093 3.6 180 00:32 09.12.2019
2970 Clouds 27 1014 65 16093 4.1 190 23:44 08.12.2019
2971 Clouds 27 1014 65 16093 4.1 190 23:25 08.12.2019
2972 Clouds 27 1015 61 16093 3.1 190 22:58 08.12.2019
2973 Clouds 27 1015 61 16093 3.1 190 22:39 08.12.2019
2974 Clouds 27 1015 61 16093 3.1 190 22:20 08.12.2019
2975 Clouds 26 1016 61 16093 1.43 319 21:59 08.12.2019
2976 Clouds 26 1016 61 16093 1.43 319 21:40 08.12.2019
2977 Clouds 26 1016 61 16093 1.43 319 21:22 08.12.2019
2978 Haze 24 1015 78 8047 1.43 319 20:57 08.12.2019
2979 Haze 24 1015 78 8047 1.43 319 20:39 08.12.2019
2980 Haze 24 1015 78 8047 0.13 237 20:21 08.12.2019
2981 Clouds 23 1015 78 16093 2.6 330 19:59 08.12.2019
2982 Clouds 22 1015 78 16093 2.6 330 19:41 08.12.2019
2983 Clouds 21 1015 78 16093 2.6 330 19:23 08.12.2019
2984 Clouds 20 1014 83 16093 1.5 340 18:55 08.12.2019
2985 Clouds 20 1014 83 16093 1.5 340 18:55 08.12.2019
2986 Clouds 20 1014 83 16093 1.5 340 18:37 08.12.2019
2987 Clouds 20 1014 83 16093 1.5 340 18:19 08.12.2019
2988 Clouds 20 1014 83 16093 1.5 330 17:57 08.12.2019
2989 Clouds 20 1014 83 16093 1.5 330 17:38 08.12.2019
2990 Clouds 20 1014 83 16093 1.5 330 17:20 08.12.2019
2991 Clouds 20 1014 83 16093 1.5 330 17:20 08.12.2019
2992 Clouds 20 1014 83 16093 1.5 330 17:20 08.12.2019
2993 Clouds 20 1014 88 16093 2.1 350 16:57 08.12.2019
2994 Clouds 20 1014 88 16093 2.1 350 16:39 08.12.2019
2995 Clouds 20 1014 88 16093 2.1 350 16:20 08.12.2019
2996 Clouds 20 1014 93 16093 2.1 40 15:56 08.12.2019
2997 Clear 20 1014 77 16093 2.1 330 15:36 08.12.2019
2998 Clear 20 1014 77 16093 2.1 330 15:18 08.12.2019
2999 Clear 20 1014 77 16093 1.5 350 14:44 08.12.2019
3000 Clear 20 1014 77 16093 1.5 350 14:24 08.12.2019
3001 Clouds 20 1014 83 16093 2.6 350 13:59 08.12.2019
3002 Clouds 20 1014 83 16093 2.6 350 13:40 08.12.2019
3003 Clouds 20 1014 83 16093 2.6 350 13:21 08.12.2019
3004 Clouds 20 1014 83 16093 2.6 350 13:21 08.12.2019
3005 Clouds 20 1014 83 16093 1.5 340 12:57 08.12.2019
3006 Clouds 20 1014 83 16093 1.5 340 12:38 08.12.2019
3007 Clouds 20 1014 83 16093 1.5 340 12:18 08.12.2019
3008 Clouds 21 1013 83 16093 0.84 194 11:57 08.12.2019
3009 Clouds 21 1015 83 16093 3.1 350 11:37 08.12.2019
3010 Clouds 21 1015 83 16093 3.1 350 11:19 08.12.2019
3011 Clouds 21 1015 83 16093 3.1 350 11:19 08.12.2019
3012 Clouds 21 1015 78 16093 1.17 162 10:40 08.12.2019
3013 Clouds 21 1015 78 16093 1.17 162 10:21 08.12.2019
3014 Clouds 22 1015 73 16093 1.5 340 09:58 08.12.2019
3015 Clouds 22 1015 73 16093 1.5 340 09:39 08.12.2019
3016 Clouds 22 1015 73 16093 1.5 340 09:20 08.12.2019
3017 Clouds 22 1015 73 16093 1.5 100 08:59 08.12.2019
3018 Clouds 21 1015 73 16093 1.5 100 08:39 08.12.2019
3019 Clouds 22 1015 73 16093 1.5 100 08:21 08.12.2019
3020 Clouds 23 1015 69 16093 1.5 40 07:44 08.12.2019
3021 Clouds 23 1015 69 16093 1.5 40 07:20 08.12.2019
3022 Clouds 23 1014 73 16093 1.1 136 06:51 08.12.2019
3023 Clouds 23 1014 78 16093 1.1 136 06:23 08.12.2019
3024 Clouds 24 1014 61 16093 4.1 40 05:51 08.12.2019
3025 Clouds 25 1014 61 16093 4.1 40 05:18 08.12.2019
3026 Clouds 26 1013 57 16093 2.6 150 03:51 08.12.2019
3027 Clouds 26 1013 57 16093 2.6 150 03:26 08.12.2019
3028 Clouds 27 1013 51 16093 4.1 140 02:40 08.12.2019
3029 Rain 26 1012 61 16093 3.6 70 01:56 08.12.2019
3030 Rain 27 1013 57 16093 5.7 150 01:27 08.12.2019
3031 Clouds 27 1013 57 16093 6.2 130 00:42 08.12.2019
3032 Clouds 27 1013 57 16093 6.2 130 00:21 08.12.2019
3033 Clouds 27 1014 54 16093 5.7 130 23:42 07.12.2019
3034 Clouds 27 1014 54 16093 5.7 130 23:21 07.12.2019
3035 Clouds 27 1014 65 16093 3.6 120 22:58 07.12.2019
3036 Clouds 27 1015 69 16093 2.1 140 22:40 07.12.2019
3037 Clouds 26 1015 69 16093 2.1 140 22:22 07.12.2019
3038 Clouds 26 1015 61 16093 2.6 110 21:56 07.12.2019
3039 Clouds 26 1015 61 16093 2.6 110 21:38 07.12.2019
3040 Clouds 26 1015 61 16093 2.6 110 21:20 07.12.2019
3041 Clouds 24 1016 65 16093 2.6 0 20:59 07.12.2019
3042 Clouds 24 1015 69 16093 1.5 360 20:37 07.12.2019
3043 Clouds 24 1015 69 16093 1.5 360 20:18 07.12.2019
3044 Clouds 22 1014 78 16093 1.5 0 19:56 07.12.2019
3045 Clouds 22 1014 78 16093 1.5 0 19:38 07.12.2019
3046 Clouds 21 1014 78 16093 1.5 0 19:20 07.12.2019
3047 Clouds 21 1013 83 16093 1.5 180 18:44 07.12.2019
3048 Clouds 21 1014 83 16093 1.5 300 18:20 07.12.2019
3049 Clouds 21 1013 83 16093 2.6 340 17:58 07.12.2019
3050 Clouds 21 1013 83 16093 2.6 340 17:40 07.12.2019
3051 Clouds 21 1013 83 16093 2.6 340 17:21 07.12.2019
3052 Clouds 21 1012 73 16093 1.5 110 16:56 07.12.2019
3053 Clouds 21 1012 73 16093 1.5 110 16:38 07.12.2019
3054 Clouds 21 1012 73 16093 1.5 110 16:19 07.12.2019
3055 Clear 22 1012 83 16093 2.1 20 15:56 07.12.2019
3056 Clear 22 1012 83 16093 2.1 20 15:38 07.12.2019
3057 Clear 21 1012 83 16093 2.1 20 15:18 07.12.2019
3058 Clear 21 1012 83 16093 2.1 20 15:18 07.12.2019
3059 Clouds 22 1012 73 16093 3.6 50 14:42 07.12.2019
3060 Clouds 21 1012 73 16093 3.6 50 14:19 07.12.2019
3061 Clouds 22 1013 69 16093 3.1 70 13:41 07.12.2019
3062 Clouds 22 1013 69 16093 3.1 70 13:21 07.12.2019
3063 Clouds 22 1013 73 16093 3.1 70 12:59 07.12.2019
3064 Clouds 23 1013 73 16093 3.1 70 12:40 07.12.2019
3065 Clouds 22 1013 73 16093 3.1 70 12:22 07.12.2019
3066 Clouds 23 1013 73 16093 4.6 80 11:58 07.12.2019
3067 Clouds 23 1014 73 16093 3.1 70 11:40 07.12.2019
3068 Clouds 23 1014 73 16093 3.1 70 11:21 07.12.2019
3069 Clouds 22 1016 93 16093 2.28 73 10:38 07.12.2019
3070 Clouds 22 1016 93 16093 2.28 73 10:19 07.12.2019
3071 Clouds 23 1015 88 16093 2.28 73 09:56 07.12.2019
3072 Clouds 23 1015 100 16093 1.5 290 09:36 07.12.2019
3073 Clouds 23 1015 100 16093 1.5 290 09:18 07.12.2019
3074 Clouds 23 1015 69 16093 4.6 60 08:40 07.12.2019
3075 Clouds 23 1015 69 16093 4.6 60 08:21 07.12.2019
3076 Drizzle 23 1015 94 16093 1.5 330 07:45 07.12.2019
3077 Clear 23 1014 69 16093 5.1 60 07:26 07.12.2019
3078 Clouds 23 1013 69 16093 3.1 60 06:50 07.12.2019
3079 Clouds 24 1013 69 16093 3.1 60 06:25 07.12.2019
3080 Clouds 24 1013 65 16093 6.2 60 05:34 07.12.2019
3081 Clouds 25 1012 65 16093 4.6 80 03:59 07.12.2019
3082 Clouds 25 1012 65 16093 4.6 80 03:40 07.12.2019
3083 Clouds 25 1011 65 16093 3.6 90 02:21 07.12.2019
3084 Rain 26 1012 57 16093 5.1 60 01:34 07.12.2019
3085 Rain 26 1012 57 16093 5.1 60 01:34 07.12.2019
3086 Rain 25 1013 83 16093 2.6 70 00:53 07.12.2019
3087 Rain 26 1012 57 16093 4.1 40 00:20 07.12.2019
3088 Clouds 25 1013 78 16093 3.6 50 23:56 06.12.2019
3089 Clouds 25 1013 61 16093 5.1 70 23:36 06.12.2019
3090 Clouds 25 1013 61 16093 5.1 70 23:18 06.12.2019
3091 Clouds 25 1014 65 16093 5.1 50 22:38 06.12.2019
3092 Clouds 25 1014 65 16093 5.1 50 22:20 06.12.2019
3093 Clouds 24 1014 83 16093 2.1 40 21:57 06.12.2019
3094 Clouds 24 1014 83 16093 2.46 99 21:39 06.12.2019
3095 Clouds 23 1014 83 16093 2.46 99 21:19 06.12.2019
3096 Clouds 23 1013 73 16093 3.1 90 20:42 06.12.2019
3097 Clouds 23 1014 83 16093 2.46 99 20:42 06.12.2019
3098 Rain 23 1014 83 16093 2.05 116 20:24 06.12.2019
3099 Rain 23 1014 83 16093 2.09 76 20:24 06.12.2019
3100 Rain 22 1014 100 16093 2.05 116 19:59 06.12.2019
3101 Rain 21 1013 78 16093 2.6 130 19:40 06.12.2019
3102 Rain 21 1013 78 16093 2.6 130 19:22 06.12.2019
3103 Rain 21 1013 88 16093 2.05 116 18:56 06.12.2019
3104 Rain 21 1012 94 16093 1.5 270 18:38 06.12.2019
3105 Rain 21 1012 94 16093 1.5 270 18:19 06.12.2019
3106 Drizzle 21 1013 100 16093 2.05 116 17:55 06.12.2019
3107 Rain 21 1012 94 16093 2.05 116 17:37 06.12.2019
3108 Rain 21 1012 94 16093 1.22 84 17:19 06.12.2019
3109 Drizzle 21 1014 100 16093 1.22 84 16:42 06.12.2019
3110 Rain 21 1013 88 8047 1.5 60 16:24 06.12.2019
3111 Rain 21 1013 100 16093 1.22 84 15:57 06.12.2019
3112 Rain 21 1013 88 11265 2.1 10 15:39 06.12.2019
3113 Rain 21 1013 88 11265 2.1 10 15:18 06.12.2019
3114 Rain 21 1013 88 9656 1.22 84 14:55 06.12.2019
3115 Rain 21 1013 88 9656 1.22 84 14:37 06.12.2019
3116 Rain 21 1013 88 9656 1.49 73 14:18 06.12.2019
3117 Rain 22 1013 88 16093 1.5 30 13:42 06.12.2019
3118 Rain 23 1013 88 16093 1.5 30 13:23 06.12.2019
3119 Rain 23 1014 100 16093 1.5 300 12:41 06.12.2019
3120 Rain 23 1014 100 16093 1.5 300 12:22 06.12.2019
3121 Rain 23 1013 73 16093 2.6 30 11:55 06.12.2019
3122 Rain 23 1013 73 16093 2.6 30 11:37 06.12.2019
3123 Rain 24 1013 73 16093 2.6 30 11:19 06.12.2019
3124 Clouds 24 1013 69 16093 4.6 80 10:42 06.12.2019
3125 Clouds 24 1013 69 16093 4.6 80 10:21 06.12.2019
3126 Clouds 24 1014 83 16093 2.1 180 09:57 06.12.2019
3127 Rain 24 1014 65 16093 6.2 80 09:37 06.12.2019
3128 Rain 24 1014 65 16093 6.2 80 09:19 06.12.2019
3129 Clouds 24 1015 83 16093 1.93 69 08:45 06.12.2019
3130 Clouds 24 1015 83 16093 1.99 62 08:26 06.12.2019
3131 Clouds 24 1014 83 16093 2.85 49 07:44 06.12.2019
3132 Clouds 24 1014 61 16093 4.6 80 07:23 06.12.2019
3133 Clouds 25 1014 61 16093 5.7 70 06:57 06.12.2019
3134 Clouds 24 1014 61 16093 5.7 70 06:26 06.12.2019
3135 Clouds 25 1013 61 16093 6.2 80 05:52 06.12.2019
3136 Clouds 25 1013 61 16093 6.2 60 04:34 06.12.2019
3137 Clouds 27 1013 57 16093 8.7 70 01:48 06.12.2019
3138 Clouds 26 1014 69 16093 4.1 80 00:57 06.12.2019
3139 Clouds 27 1014 57 16093 6.7 60 00:37 06.12.2019
3140 Clouds 26 1014 57 16093 6.7 60 00:19 06.12.2019
3141 Clouds 27 1015 54 16093 5.7 70 23:21 05.12.2019
3142 Clouds 27 1015 69 16093 4.6 70 22:59 05.12.2019
3143 Clouds 26 1016 69 16093 4.6 100 22:39 05.12.2019
3144 Clouds 26 1016 69 16093 4.6 100 22:20 05.12.2019
3145 Clouds 26 1016 69 16093 4.6 100 22:20 05.12.2019
3146 Clouds 26 1016 69 16093 4.6 100 22:20 05.12.2019
3147 Clouds 26 1016 57 16093 5.7 70 21:58 05.12.2019
3148 Clouds 26 1016 57 16093 5.7 70 21:40 05.12.2019
3149 Clouds 26 1016 57 16093 5.7 70 21:22 05.12.2019
3150 Clouds 26 1016 61 16093 6.7 80 20:58 05.12.2019
3151 Clouds 25 1016 61 16093 6.7 80 20:39 05.12.2019
3152 Clouds 25 1016 61 16093 6.7 80 20:19 05.12.2019
3153 Clouds 24 1016 65 16093 2.6 0 19:43 05.12.2019
3154 Clouds 24 1016 65 16093 2.6 0 19:25 05.12.2019
3155 Clouds 23 1015 64 16093 2.1 40 18:59 05.12.2019
3156 Clouds 23 1015 64 16093 2.1 40 18:39 05.12.2019
3157 Clouds 23 1015 64 16093 2.1 40 18:21 05.12.2019
3158 Clouds 23 1015 64 16093 4.6 80 17:57 05.12.2019
3159 Clouds 23 1015 64 16093 4.6 80 17:38 05.12.2019
3160 Clouds 23 1015 64 16093 4.6 80 17:18 05.12.2019
3161 Clouds 23 1015 69 16093 4.6 60 16:54 05.12.2019
3162 Clouds 23 1015 69 16093 4.6 60 16:54 05.12.2019
3163 Clouds 23 1015 69 16093 4.6 60 16:36 05.12.2019
3164 Clouds 23 1015 69 16093 4.6 60 16:18 05.12.2019
3165 Clouds 24 1014 69 16093 5.7 70 15:40 05.12.2019
3166 Clouds 24 1014 69 16093 5.7 70 15:21 05.12.2019
3167 Clouds 23 1015 69 16093 2.1 350 14:57 05.12.2019
3168 Clouds 23 1015 69 16093 2.1 350 14:38 05.12.2019
3169 Clouds 23 1015 69 16093 2.1 350 14:20 05.12.2019
3170 Clouds 24 1015 73 16093 2.1 30 13:58 05.12.2019
3171 Clouds 23 1015 73 16093 2.1 30 13:40 05.12.2019
3172 Rain 24 1015 73 16093 2.1 30 13:21 05.12.2019
3173 Rain 24 1016 73 16093 4.6 30 12:59 05.12.2019
3174 Clouds 24 1016 73 16093 4.6 30 12:40 05.12.2019
3175 Clouds 24 1016 73 16093 4.6 30 12:21 05.12.2019
3176 Rain 24 1016 83 16093 2.6 350 11:41 05.12.2019
3177 Rain 24 1016 83 16093 2.6 350 11:22 05.12.2019
3178 Clouds 24 1016 83 16093 2.1 310 10:59 05.12.2019
3179 Clouds 24 1016 83 16093 2.1 310 10:40 05.12.2019
3180 Rain 23 1016 73 16093 3.1 70 10:19 05.12.2019
3181 Rain 23 1017 83 16093 2.85 80 09:57 05.12.2019
3182 Rain 23 1017 83 16093 2.85 80 09:38 05.12.2019
3183 Rain 24 1017 83 16093 2.85 80 09:19 05.12.2019
3184 Rain 24 1017 83 16093 2.85 80 08:54 05.12.2019
3185 Rain 24 1017 69 16093 5.1 70 08:36 05.12.2019
3186 Rain 24 1017 69 16093 5.1 70 08:18 05.12.2019
3187 Rain 24 1017 83 16093 1.5 350 07:40 05.12.2019
3188 Rain 24 1017 65 16093 2.6 30 07:21 05.12.2019
3189 Rain 24 1017 83 16093 1.5 330 06:47 05.12.2019
3190 Clouds 25 1016 61 16093 3.1 10 06:23 05.12.2019
3191 Clouds 25 1017 78 16093 1.5 340 05:53 05.12.2019
3192 Clouds 25 1016 78 16093 1.5 30 05:24 05.12.2019
3193 Rain 25 1015 57 16093 3.6 60 04:33 05.12.2019
3194 Clouds 26 1014 57 16093 4.1 20 03:33 05.12.2019
3195 Clouds 25 1014 57 16093 6.2 70 02:41 05.12.2019
3196 Clouds 26 1014 57 16093 6.2 70 02:21 05.12.2019
3197 Clouds 26 1014 54 16093 6.2 60 01:49 05.12.2019
3198 Clouds 26 1014 54 16093 6.2 60 01:22 05.12.2019
3199 Clouds 26 1015 78 16093 3.6 30 00:38 05.12.2019
3200 Clouds 27 1015 54 16093 5.7 80 00:20 05.12.2019
3201 Clouds 27 1015 54 16093 5.7 80 00:20 05.12.2019
3202 Clouds 27 1015 69 16093 4.1 70 23:45 04.12.2019
3203 Rain 27 1015 69 16093 4.1 70 23:22 04.12.2019
3204 Rain 26 1016 69 16093 4.6 70 22:57 04.12.2019
3205 Rain 25 1016 61 16093 5.1 50 22:38 04.12.2019
3206 Rain 25 1016 61 16093 5.1 50 22:19 04.12.2019
3207 Clouds 25 1017 94 16093 3.1 78 21:56 04.12.2019
3208 Clouds 25 1016 69 16093 5.1 80 21:37 04.12.2019
3209 Clouds 25 1016 69 16093 5.1 80 21:18 04.12.2019
3210 Rain 24 1017 94 16093 3.1 78 20:56 04.12.2019
3211 Rain 24 1017 94 16093 3.1 78 20:38 04.12.2019
3212 Rain 24 1016 69 16093 4.1 50 20:19 04.12.2019
3213 Rain 23 1017 88 16093 2.4 75 19:41 04.12.2019
3214 Drizzle 22 1016 94 16093 2.4 75 19:22 04.12.2019
3215 Clouds 22 1015 73 16093 2.1 10 18:59 04.12.2019
3216 Clouds 22 1015 73 16093 2.1 10 18:41 04.12.2019
3217 Clouds 22 1015 73 16093 2.1 10 18:22 04.12.2019
3218 Clouds 23 1015 78 16093 3.1 60 17:58 04.12.2019
3219 Clouds 23 1015 78 16093 3.1 60 17:38 04.12.2019
3220 Clouds 23 1015 78 16093 3.1 60 17:18 04.12.2019
3221 Clouds 22 1015 78 16093 1.5 330 16:41 04.12.2019
3222 Clouds 22 1015 78 16093 1.5 330 16:20 04.12.2019
3223 Clouds 23 1015 83 16093 2.1 350 15:58 04.12.2019
3224 Clouds 23 1015 83 16093 2.1 350 15:40 04.12.2019
3225 Clouds 23 1015 83 16093 2.1 350 15:20 04.12.2019
3226 Clouds 23 1015 83 16093 2.6 360 14:59 04.12.2019
3227 Clouds 23 1015 83 16093 2.6 360 14:40 04.12.2019
3228 Clouds 22 1015 83 16093 2.6 360 14:21 04.12.2019
3229 Clear 23 1016 73 16093 1.5 330 13:55 04.12.2019
3230 Clear 23 1016 73 16093 1.5 330 13:36 04.12.2019
3231 Clear 23 1016 73 16093 1.5 330 13:18 04.12.2019
3232 Clouds 24 1016 73 16093 1.5 300 12:41 04.12.2019
3233 Clouds 24 1016 73 16093 1.5 300 12:41 04.12.2019
3234 Clouds 23 1016 73 16093 1.5 300 12:23 04.12.2019
3235 Clouds 23 1016 73 16093 1.51 76 11:43 04.12.2019
3236 Clouds 23 1016 73 16093 1.51 76 11:24 04.12.2019
3237 Clouds 23 1016 73 16093 1.89 75 10:58 04.12.2019
3238 Clouds 23 1016 73 16093 1.89 75 10:39 04.12.2019
3239 Clouds 23 1016 73 16093 1.89 75 10:21 04.12.2019
3240 Clouds 23 1017 73 16093 2.6 80 09:43 04.12.2019
3241 Clouds 23 1017 73 16093 2.6 80 09:23 04.12.2019
3242 Clouds 24 1017 73 16093 1.5 0 08:44 04.12.2019
3243 Clouds 24 1017 73 16093 1.5 0 08:44 04.12.2019
3244 Clouds 24 1017 73 16093 1.5 0 08:25 04.12.2019
3245 Clouds 24 1016 69 16093 5.1 80 07:51 04.12.2019
3246 Clouds 24 1016 69 16093 5.1 80 07:31 04.12.2019
3247 Clouds 24 1016 83 16093 2.26 78 06:59 04.12.2019
3248 Clouds 25 1016 83 16093 2.26 78 06:31 04.12.2019
3249 Clouds 25 1015 65 16093 5.7 60 05:46 04.12.2019
3250 Clouds 26 1014 57 16093 5.7 60 04:34 04.12.2019
3251 Clouds 26 1014 58 16093 6.7 50 03:47 04.12.2019
3252 Clouds 27 1014 69 16093 3.1 110 01:49 04.12.2019
3253 Clouds 27 1015 54 16093 5.7 70 00:48 04.12.2019
3254 Clouds 27 1015 54 16093 5.7 70 00:22 04.12.2019
3255 Clouds 27 1016 61 16093 5.7 80 23:43 03.12.2019
3256 Clouds 27 1016 61 16093 5.7 80 23:43 03.12.2019
3257 Clouds 26 1016 78 16093 5.1 100 23:20 03.12.2019
3258 Clouds 25 1016 65 16093 3.1 70 22:59 03.12.2019
3259 Rain 25 1017 69 16093 5.7 70 22:38 03.12.2019
3260 Clouds 26 1016 65 16093 3.1 70 22:38 03.12.2019
3261 Rain 26 1017 69 16093 5.7 70 22:18 03.12.2019
3262 Clouds 25 1016 69 16093 4.6 80 21:56 03.12.2019
3263 Clouds 25 1016 69 16093 6.2 90 21:37 03.12.2019
3264 Clouds 25 1016 69 16093 6.2 90 21:18 03.12.2019
3265 Rain 24 1017 94 14484 4.37 83 20:41 03.12.2019
3266 Rain 23 1017 83 16093 5.1 70 20:20 03.12.2019
3267 Rain 24 1016 73 9656 4.6 90 19:57 03.12.2019
3268 Rain 24 1016 73 9656 4.6 90 19:38 03.12.2019
3269 Rain 24 1016 83 9656 4.1 90 19:20 03.12.2019
3270 Rain 23 1016 94 9656 4.1 50 18:58 03.12.2019
3271 Rain 22 1016 83 16093 4.1 100 18:40 03.12.2019
3272 Rain 22 1016 83 16093 4.1 100 18:21 03.12.2019
3273 Rain 22 1016 94 16093 1.5 290 17:57 03.12.2019
3274 Rain 22 1016 94 16093 1.5 290 17:57 03.12.2019
3275 Rain 22 1016 94 16093 1.5 290 17:38 03.12.2019
3276 Rain 22 1016 94 16093 1.5 290 17:38 03.12.2019
3277 Rain 22 1016 94 16093 1.5 290 17:38 03.12.2019
3278 Rain 22 1016 83 16093 2.3 78 17:18 03.12.2019
3279 Drizzle 22 1016 100 16093 2.3 78 16:57 03.12.2019
3280 Drizzle 22 1016 100 16093 2.3 78 16:57 03.12.2019
3281 Drizzle 22 1016 100 16093 2.3 78 16:38 03.12.2019
3282 Rain 22 1015 78 16093 2.6 40 16:20 03.12.2019
3283 Rain 22 1015 78 16093 2.6 50 15:56 03.12.2019
3284 Rain 22 1015 78 16093 2.6 50 15:56 03.12.2019
3285 Rain 22 1015 78 16093 2.6 50 15:38 03.12.2019
3286 Rain 23 1015 78 16093 2.6 50 15:18 03.12.2019
3287 Clouds 23 1015 78 16093 5.1 80 14:42 03.12.2019
3288 Rain 23 1015 78 16093 2.6 50 14:20 03.12.2019
3289 Rain 23 1016 100 16093 1.5 320 13:56 03.12.2019
3290 Rain 23 1016 100 16093 1.5 320 13:37 03.12.2019
3291 Clouds 23 1016 100 16093 1.5 320 13:18 03.12.2019
3292 Rain 23 1016 78 16093 2.6 40 12:41 03.12.2019
3293 Rain 23 1016 78 16093 2.6 40 12:18 03.12.2019
3294 Rain 23 1016 78 8047 4.6 90 11:58 03.12.2019
3295 Rain 23 1016 78 8047 4.6 90 11:39 03.12.2019
3296 Rain 23 1016 78 8047 4.6 90 11:20 03.12.2019
3297 Clouds 23 1016 69 16093 5.7 70 10:57 03.12.2019
3298 Clouds 23 1016 69 16093 5.7 70 10:39 03.12.2019
3299 Rain 23 1017 78 16093 2.1 10 10:19 03.12.2019
3300 Rain 23 1017 73 16093 4.1 50 09:46 03.12.2019
3301 Rain 23 1017 73 16093 4.1 50 09:25 03.12.2019
3302 Rain 23 1017 73 16093 3.1 20 08:59 03.12.2019
3303 Clouds 23 1017 73 16093 3.1 20 08:40 03.12.2019
3304 Clouds 23 1017 73 16093 3.1 20 08:21 03.12.2019
3305 Rain 23 1017 94 16093 2.1 300 07:53 03.12.2019
3306 Rain 23 1017 69 16093 2.6 30 07:29 03.12.2019
3307 Rain 24 1016 83 16093 2.65 82 06:58 03.12.2019
3308 Rain 24 1016 69 16093 5.7 60 06:21 03.12.2019
3309 Clouds 24 1016 83 16093 2.65 82 05:55 03.12.2019
3310 Clouds 26 1015 73 16093 2.6 70 03:44 03.12.2019
3311 Clouds 26 1015 73 16093 2.6 70 03:23 03.12.2019
3312 Drizzle 27 1015 69 16093 5.1 60 02:54 03.12.2019
3313 Clouds 26 1014 54 16093 7.2 60 02:32 03.12.2019
3314 Rain 26 1014 54 16093 6.7 80 01:59 03.12.2019
3315 Rain 26 1014 54 16093 6.7 80 01:39 03.12.2019
3316 Rain 26 1014 54 16093 6.7 80 01:20 03.12.2019
3317 Clouds 26 1015 69 16093 5.1 70 00:42 03.12.2019
3318 Clouds 26 1015 69 16093 3.1 20 00:23 03.12.2019
3319 Clouds 26 1015 69 16093 3.1 20 00:23 03.12.2019
3320 Clouds 26 1015 73 16093 3.1 70 23:44 02.12.2019
3321 Clouds 26 1016 54 16093 5.1 50 23:22 02.12.2019
3322 Clouds 25 1016 57 16093 6.7 50 22:57 02.12.2019
3323 Clouds 25 1016 57 16093 6.7 50 22:38 02.12.2019
3324 Clouds 25 1016 57 16093 6.7 50 22:20 02.12.2019
3325 Clouds 25 1017 88 16093 2.1 350 21:40 02.12.2019
3326 Clouds 24 1017 83 16093 5.58 72 21:20 02.12.2019
3327 Drizzle 24 1018 88 16093 2.6 110 20:58 02.12.2019
3328 Drizzle 24 1018 94 11265 2.1 60 20:39 02.12.2019
3329 Drizzle 23 1018 94 11265 2.1 60 20:20 02.12.2019
3330 Rain 23 1017 83 16093 2.6 60 19:59 02.12.2019
3331 Clouds 23 1017 83 16093 2.6 60 19:41 02.12.2019
3332 Clouds 23 1016 88 16093 5.29 70 19:21 02.12.2019
3333 Rain 23 1016 88 16093 1.5 230 18:48 02.12.2019
3334 Rain 23 1015 69 16093 3.6 90 18:25 02.12.2019
3335 Rain 23 1015 94 16093 5.29 70 17:59 02.12.2019
3336 Rain 23 1015 94 16093 5.29 70 17:41 02.12.2019
3337 Rain 23 1015 69 16093 3.6 60 17:21 02.12.2019
3338 Rain 23 1015 69 16093 3.6 60 17:21 02.12.2019
3339 Rain 23 1015 69 16093 3.6 60 17:21 02.12.2019
3340 Clouds 23 1015 69 16093 4.6 60 16:57 02.12.2019
3341 Clouds 23 1015 69 16093 4.6 60 16:39 02.12.2019
3342 Rain 23 1015 69 16093 4.6 60 16:18 02.12.2019
3343 Rain 23 1016 94 16093 2.1 300 15:56 02.12.2019
3344 Rain 23 1016 94 16093 1.5 330 15:38 02.12.2019
3345 Rain 22 1016 94 16093 1.5 330 15:20 02.12.2019
3346 Rain 23 1016 69 16093 4.6 30 14:41 02.12.2019
3347 Clouds 23 1016 69 16093 4.6 30 14:20 02.12.2019
3348 Clear 24 1016 64 16093 4.1 70 14:00 02.12.2019
3349 Clear 23 1016 64 16093 4.1 70 13:41 02.12.2019
3350 Clear 23 1016 64 16093 4.1 70 13:20 02.12.2019
3351 Clouds 23 1016 64 16093 3.6 40 12:59 02.12.2019
3352 Clouds 23 1016 64 16093 3.6 40 12:40 02.12.2019
3353 Clouds 23 1016 64 16093 3.6 40 12:20 02.12.2019
3354 Clouds 23 1017 78 16093 4.33 58 11:56 02.12.2019
3355 Clouds 23 1017 78 16093 4.33 58 11:37 02.12.2019
3356 Clouds 23 1016 64 16093 3.1 50 11:18 02.12.2019
3357 Clouds 23 1017 64 16093 3.6 60 10:55 02.12.2019
3358 Clouds 23 1017 64 16093 3.6 60 10:37 02.12.2019
3359 Clouds 23 1017 64 16093 3.6 60 10:19 02.12.2019
3360 Clouds 24 1017 78 16093 2.1 360 09:41 02.12.2019
3361 Clouds 24 1017 64 16093 3.6 50 09:19 02.12.2019
3362 Clouds 24 1017 61 16093 5.1 60 08:57 02.12.2019
3363 Clouds 24 1017 61 16093 5.1 60 08:38 02.12.2019
3364 Clouds 24 1017 61 16093 5.1 60 08:20 02.12.2019
3365 Clouds 24 1016 57 16093 5.1 70 07:44 02.12.2019
3366 Clouds 24 1016 57 16093 5.1 70 07:21 02.12.2019
3367 Clouds 23 1016 64 16093 4.1 30 06:56 02.12.2019
3368 Clouds 23 1016 64 16093 4.1 30 06:37 02.12.2019
3369 Rain 23 1015 64 16093 7.2 40 05:32 02.12.2019
3370 Clouds 24 1015 54 16093 5.1 40 04:21 02.12.2019
3371 Rain 24 1014 57 16093 7.2 50 02:53 02.12.2019
3372 Rain 24 1014 57 16093 7.2 50 02:26 02.12.2019
3373 Rain 25 1014 54 16093 6.7 30 01:25 02.12.2019
3374 Rain 25 1015 57 16093 8.2 60 00:55 02.12.2019
3375 Rain 25 1015 57 16093 8.2 60 00:24 02.12.2019
3376 Rain 25 1016 57 16093 7.2 40 23:45 01.12.2019
3377 Rain 25 1016 57 16093 7.2 40 23:23 01.12.2019
3378 Clouds 25 1017 78 16093 6.2 60 22:58 01.12.2019
3379 Clouds 25 1017 78 16093 6.2 60 22:39 01.12.2019
3380 Rain 25 1017 65 16093 7.2 60 22:20 01.12.2019
3381 Rain 24 1017 65 16093 8.2 70 21:58 01.12.2019
3382 Rain 24 1017 65 16093 8.2 70 21:40 01.12.2019
3383 Rain 24 1018 69 16093 6.7 40 21:22 01.12.2019
3384 Clouds 24 1018 88 16093 3.1 40 20:59 01.12.2019
3385 Clouds 24 1018 88 16093 3.1 40 20:59 01.12.2019
3386 Clouds 24 1018 88 16093 3.1 40 20:41 01.12.2019
3387 Rain 23 1017 69 16093 5.1 60 20:23 01.12.2019
3388 Rain 23 1017 73 16093 7.7 60 19:59 01.12.2019
3389 Rain 23 1017 73 16093 7.7 60 19:40 01.12.2019
3390 Rain 23 1017 73 16093 7.7 60 19:21 01.12.2019
3391 Rain 23 1017 78 16093 6.7 40 18:57 01.12.2019
3392 Rain 23 1017 78 16093 6.7 40 18:39 01.12.2019
3393 Rain 23 1017 78 16093 6.7 40 18:20 01.12.2019
3394 Rain 23 1017 78 16093 6.2 40 17:59 01.12.2019
3395 Rain 23 1017 78 16093 6.2 40 17:41 01.12.2019
3396 Rain 23 1017 78 16093 6.2 40 17:23 01.12.2019
3397 Rain 23 1017 78 16093 6.2 40 17:23 01.12.2019
3398 Rain 23 1017 100 16093 2.6 20 16:56 01.12.2019
3399 Rain 23 1017 100 16093 2.6 20 16:38 01.12.2019
3400 Rain 23 1016 78 16093 5.1 40 16:20 01.12.2019
3401 Rain 23 1017 94 6437 5.1 40 15:46 01.12.2019
3402 Drizzle 23 1017 100 6437 4.1 40 15:28 01.12.2019
3403 Rain 22 1017 83 16093 5.1 60 14:42 01.12.2019
3404 Rain 22 1017 83 16093 5.1 60 14:20 01.12.2019
3405 Drizzle 22 1017 100 8047 2.6 60 13:56 01.12.2019
3406 Drizzle 22 1017 100 8047 2.6 60 13:38 01.12.2019
3407 Rain 22 1017 83 16093 6.2 70 13:19 01.12.2019
3408 Rain 23 1018 94 4023 1.5 350 12:42 01.12.2019
3409 Rain 24 1018 94 8047 7.67 70 11:55 01.12.2019
3410 Rain 24 1018 94 8047 7.67 70 11:37 01.12.2019
3411 Rain 24 1018 83 3219 6.2 70 11:37 01.12.2019
3412 Rain 24 1018 83 3219 6.2 70 11:18 01.12.2019
3413 Drizzle 24 1018 88 16093 3.1 40 10:43 01.12.2019
3414 Clouds 25 1018 65 16093 6.2 60 10:20 01.12.2019
3415 Clouds 25 1019 78 16093 4.1 100 09:42 01.12.2019
3416 Rain 25 1018 78 16093 6.7 70 09:23 01.12.2019
3417 Clouds 25 1019 83 14484 4.1 70 08:57 01.12.2019
3418 Clouds 25 1019 83 14484 4.1 70 08:37 01.12.2019
3419 Rain 25 1018 61 16093 8.2 50 08:19 01.12.2019
3420 Rain 25 1018 61 16093 8.2 50 08:19 01.12.2019
3421 Rain 25 1018 73 14484 5.7 90 07:48 01.12.2019
3422 Clouds 25 1018 74 16093 6.7 70 07:28 01.12.2019
3423 Clouds 25 1017 57 16093 6.7 70 06:52 01.12.2019
3424 Clouds 25 1017 64 16093 5.7 80 05:58 01.12.2019
3425 Clouds 25 1017 54 16093 9.3 70 05:34 01.12.2019
3426 Clouds 25 1016 54 16093 8.7 70 04:29 01.12.2019
3427 Clouds 27 1016 51 16093 10.3 50 02:46 01.12.2019
3428 Clouds 27 1016 51 16093 10.3 50 02:27 01.12.2019
3429 Clouds 27 1016 45 16093 8.7 60 01:54 01.12.2019
3430 Clouds 27 1016 45 16093 8.7 60 01:31 01.12.2019
3431 Rain 27 1017 45 16093 10.8 60 00:50 01.12.2019
3432 Rain 27 1017 45 16093 10.8 60 00:27 01.12.2019
3433 Rain 27 1018 48 16093 11.3 60 23:57 30.11.2019
3434 Rain 27 1018 48 16093 11.3 60 23:37 30.11.2019
3435 Rain 27 1018 48 16093 11.3 60 23:19 30.11.2019
3436 Rain 27 1018 54 16093 11.8 60 22:42 30.11.2019
3437 Rain 27 1018 54 16093 11.8 60 22:23 30.11.2019
3438 Rain 26 1018 54 16093 10.8 60 21:48 30.11.2019
3439 Rain 26 1018 54 16093 10.8 60 21:29 30.11.2019
3440 Rain 26 1018 57 16093 8.7 70 20:58 30.11.2019
3441 Rain 26 1018 57 16093 8.7 70 20:40 30.11.2019
3442 Rain 26 1018 57 16093 8.7 70 20:20 30.11.2019
3443 Rain 25 1017 61 16093 6.7 50 19:57 30.11.2019
3444 Rain 25 1017 61 16093 6.7 50 19:39 30.11.2019
3445 Rain 25 1017 61 16093 6.7 50 19:39 30.11.2019
3446 Rain 25 1017 61 16093 6.7 50 19:20 30.11.2019
3447 Clouds 25 1017 61 16093 5.1 60 18:59 30.11.2019
3448 Clouds 25 1017 61 16093 5.1 60 18:39 30.11.2019
3449 Clouds 25 1017 61 16093 5.1 60 18:20 30.11.2019
3450 Clouds 25 1017 78 16093 3.6 110 17:58 30.11.2019
3451 Clouds 25 1017 78 16093 3.6 110 17:39 30.11.2019
3452 Rain 25 1016 61 16093 7.7 60 17:21 30.11.2019
3453 Clouds 25 1016 61 16093 8.7 60 16:58 30.11.2019
3454 Clouds 25 1016 61 16093 8.7 60 16:40 30.11.2019
3455 Clouds 25 1016 61 16093 8.7 60 16:20 30.11.2019
3456 Clouds 25 1016 78 16093 1.5 70 15:42 30.11.2019
3457 Clouds 25 1016 78 16093 2.1 100 15:20 30.11.2019
3458 Clouds 25 1016 61 16093 6.2 60 14:58 30.11.2019
3459 Clouds 25 1016 61 16093 6.2 60 14:38 30.11.2019
3460 Clouds 25 1016 61 16093 6.2 60 14:19 30.11.2019
3461 Clouds 25 1017 83 16093 5.1 80 13:58 30.11.2019
3462 Clouds 25 1017 83 16093 5.1 80 13:38 30.11.2019
3463 Clouds 25 1016 61 16093 8.2 70 13:19 30.11.2019
3464 Rain 25 1017 61 16093 6.7 60 12:47 30.11.2019
3465 Rain 25 1017 61 16093 6.7 60 12:29 30.11.2019
3466 Rain 25 1018 83 16093 4.1 70 11:58 30.11.2019
3467 Clouds 25 1017 61 16093 7.2 60 11:39 30.11.2019
3468 Clouds 25 1017 61 16093 7.2 60 11:18 30.11.2019
3469 Clouds 25 1019 78 16093 5.1 90 10:45 30.11.2019
3470 Clouds 25 1018 57 16093 8.2 60 10:21 30.11.2019
3471 Rain 25 1018 78 16093 5.1 100 09:50 30.11.2019
3472 Rain 25 1018 61 16093 6.2 60 09:30 30.11.2019
3473 Drizzle 25 1018 78 16093 1.5 70 08:57 30.11.2019
3474 Drizzle 25 1018 78 16093 1.5 70 08:38 30.11.2019
3475 Clouds 26 1018 61 16093 5.7 70 08:18 30.11.2019
3476 Clouds 26 1017 57 16093 6.2 60 07:42 30.11.2019
3477 Clouds 25 1017 57 16093 6.2 60 07:23 30.11.2019
3478 Clouds 25 1017 57 16093 6.2 60 07:23 30.11.2019
3479 Clouds 25 1017 57 16093 4.6 50 06:45 30.11.2019
3480 Clouds 25 1017 57 16093 4.6 50 06:27 30.11.2019
3481 Clouds 26 1016 61 16093 4.6 50 05:23 30.11.2019
3482 Rain 27 1014 51 16093 7.2 80 03:38 30.11.2019
3483 Rain 27 1014 51 16093 7.2 60 02:25 30.11.2019
3484 Clouds 28 1014 61 16093 5.1 80 01:50 30.11.2019
3485 Rain 28 1014 48 16093 7.7 60 01:24 30.11.2019
3486 Clouds 28 1015 43 16093 7.7 80 00:45 30.11.2019
3487 Clouds 28 1015 58 16093 5.7 70 00:21 30.11.2019
3488 Clouds 28 1016 45 16093 8.2 60 23:44 29.11.2019
3489 Clouds 28 1016 45 16093 8.2 60 23:25 29.11.2019
3490 Clouds 28 1016 45 16093 8.2 60 23:25 29.11.2019
3491 Clouds 28 1017 73 16093 7.7 90 22:48 29.11.2019
3492 Clouds 28 1016 48 16093 9.3 90 22:27 29.11.2019
3493 Drizzle 27 1017 69 16093 5.7 100 21:56 29.11.2019
3494 Drizzle 27 1017 69 16093 5.7 100 21:38 29.11.2019
3495 Clouds 27 1016 54 16093 5.7 70 21:19 29.11.2019
3496 Clouds 27 1016 54 16093 5.7 70 20:54 29.11.2019
3497 Clouds 27 1016 54 16093 5.7 70 20:36 29.11.2019
3498 Clouds 26 1016 54 16093 5.7 70 20:18 29.11.2019
3499 Clouds 26 1016 54 16093 4.1 60 19:41 29.11.2019
3500 Clouds 25 1016 54 16093 4.1 60 19:21 29.11.2019
3501 Clouds 25 1015 61 16093 5.7 70 18:59 29.11.2019
3502 Clouds 24 1015 61 16093 5.7 70 18:40 29.11.2019
3503 Clouds 24 1015 61 16093 5.7 70 18:22 29.11.2019
3504 Clouds 24 1014 61 16093 5.7 60 17:47 29.11.2019
3505 Clouds 24 1014 61 16093 5.7 60 17:28 29.11.2019
3506 Clouds 24 1014 61 16093 4.6 50 16:59 29.11.2019
3507 Clouds 24 1014 61 16093 4.6 50 16:59 29.11.2019
3508 Clouds 24 1014 61 16093 4.6 50 16:41 29.11.2019
3509 Clouds 24 1014 61 16093 4.6 50 16:20 29.11.2019
3510 Clouds 25 1014 65 16093 4.6 60 15:43 29.11.2019
3511 Clouds 24 1014 65 16093 4.6 60 15:24 29.11.2019
3512 Clouds 24 1013 65 16093 4.1 90 14:58 29.11.2019
3513 Clouds 24 1013 65 16093 4.1 90 14:40 29.11.2019
3514 Clouds 24 1014 83 16093 2.99 98 14:21 29.11.2019
3515 Drizzle 24 1014 94 16093 2.99 98 13:55 29.11.2019
3516 Clouds 24 1014 69 16093 4.1 60 13:37 29.11.2019
3517 Clouds 24 1014 69 16093 4.1 60 13:19 29.11.2019
3518 Clouds 24 1015 88 16093 2.69 89 12:40 29.11.2019
3519 Clouds 24 1015 65 16093 3.6 50 12:22 29.11.2019
3520 Clouds 24 1015 69 16093 4.1 60 11:55 29.11.2019
3521 Clouds 24 1015 69 16093 4.1 60 11:36 29.11.2019
3522 Clouds 24 1015 69 16093 4.1 60 11:18 29.11.2019
3523 Clouds 25 1014 69 16093 5.1 80 10:56 29.11.2019
3524 Clouds 25 1015 65 16093 3.6 80 10:37 29.11.2019
3525 Clouds 25 1015 65 16093 3.6 80 10:37 29.11.2019
3526 Clouds 24 1015 65 16093 3.6 80 10:19 29.11.2019
3527 Clouds 25 1015 65 16093 2.6 40 09:55 29.11.2019
3528 Clouds 25 1015 65 16093 2.6 40 09:55 29.11.2019
3529 Clouds 25 1015 65 16093 2.6 40 09:36 29.11.2019
3530 Clouds 25 1015 65 16093 2.6 40 09:18 29.11.2019
3531 Clouds 25 1015 65 16093 3.6 70 08:39 29.11.2019
3532 Clouds 25 1015 65 16093 3.6 70 08:20 29.11.2019
3533 Clouds 25 1015 61 16093 1.76 68 07:56 29.11.2019
3534 Clouds 25 1015 61 16093 1.76 68 07:38 29.11.2019
3535 Clouds 25 1015 61 16093 1.76 68 07:19 29.11.2019
3536 Clouds 26 1014 61 16093 3.6 80 06:42 29.11.2019
3537 Clouds 26 1013 61 16093 3.6 90 05:48 29.11.2019
3538 Clouds 26 1013 61 16093 3.6 90 05:24 29.11.2019
3539 Clouds 26 1013 54 16093 6.2 80 04:31 29.11.2019
3540 Clouds 28 1012 48 16093 3.6 90 03:21 29.11.2019
3541 Clouds 28 1012 43 16093 4.6 40 02:29 29.11.2019
3542 Clouds 29 1012 45 16093 5.1 60 01:51 29.11.2019
3543 Clouds 29 1012 45 16093 5.1 60 01:25 29.11.2019
3544 Clouds 29 1013 48 16093 5.7 40 00:42 29.11.2019
3545 Clouds 29 1013 48 16093 5.7 40 00:20 29.11.2019
3546 Clouds 28 1014 48 16093 5.7 70 23:45 28.11.2019
3547 Clouds 28 1014 48 16093 5.7 70 23:22 28.11.2019
3548 Clouds 28 1015 54 16093 6.7 70 22:58 28.11.2019
3549 Clouds 28 1015 54 16093 6.7 70 22:38 28.11.2019
3550 Clouds 28 1015 54 16093 6.7 70 22:20 28.11.2019
3551 Clouds 27 1016 54 16093 4.6 80 21:56 28.11.2019
3552 Clouds 27 1016 54 16093 4.6 80 21:38 28.11.2019
3553 Clouds 27 1016 54 16093 4.6 80 21:19 28.11.2019
3554 Clouds 27 1015 58 16093 6.2 90 20:54 28.11.2019
3555 Clouds 27 1015 58 16093 6.2 90 20:36 28.11.2019
3556 Clouds 26 1015 58 16093 6.2 90 20:18 28.11.2019
3557 Clouds 26 1015 69 16093 4.6 50 19:41 28.11.2019
3558 Clouds 25 1015 69 16093 4.6 50 19:22 28.11.2019
3559 Clouds 24 1014 78 16093 2.49 94 18:59 28.11.2019
3560 Clouds 24 1014 78 16093 2.49 94 18:40 28.11.2019
3561 Clouds 24 1014 78 16093 2.49 94 18:18 28.11.2019
3562 Clouds 24 1014 83 16093 2.1 80 17:59 28.11.2019
3563 Clouds 24 1014 83 16093 2.1 80 17:59 28.11.2019
3564 Clouds 24 1014 83 16093 2.1 80 17:41 28.11.2019
3565 Clouds 24 1014 83 16093 2.1 80 17:41 28.11.2019
3566 Clouds 24 1014 83 16093 2.1 80 17:21 28.11.2019
3567 Clouds 24 1014 83 16093 1.5 30 16:57 28.11.2019
3568 Clouds 24 1014 83 16093 1.5 30 16:56 28.11.2019
3569 Clouds 24 1014 83 16093 1.5 30 16:38 28.11.2019
3570 Clouds 24 1014 83 16093 1.5 30 16:18 28.11.2019
3571 Clouds 24 1014 83 16093 1.5 30 16:18 28.11.2019
3572 Clouds 24 1014 83 16093 1.5 360 15:41 28.11.2019
3573 Clouds 24 1014 83 16093 1.5 360 15:20 28.11.2019
3574 Rain 24 1014 83 16093 2.1 310 14:59 28.11.2019
3575 Rain 24 1014 83 16093 2.1 310 14:40 28.11.2019
3576 Rain 24 1014 83 16093 2.1 310 14:21 28.11.2019
3577 Clouds 24 1014 83 16093 1.5 320 13:56 28.11.2019
3578 Clouds 24 1014 83 16093 1.5 320 13:38 28.11.2019
3579 Clouds 24 1014 83 16093 1.5 320 13:19 28.11.2019
3580 Clouds 24 1015 83 16093 1.5 350 12:42 28.11.2019
3581 Clouds 25 1015 83 16093 1.5 350 12:23 28.11.2019
3582 Rain 25 1015 83 16093 2.1 70 11:57 28.11.2019
3583 Rain 25 1015 83 16093 2.1 70 11:57 28.11.2019
3584 -273 0 0 0 0 0 11:39 28.11.2019
3585 Rain 24 1015 83 16093 2.1 70 11:20 28.11.2019
3586 Clouds 24 1015 78 16093 2.6 100 10:43 28.11.2019
3587 Clouds 24 1015 83 16093 2.1 270 10:22 28.11.2019
3588 Clouds 24 1016 78 16093 1.2 51 09:59 28.11.2019
3589 Clouds 24 1016 78 16093 1.2 51 09:40 28.11.2019
3590 Clouds 24 1016 78 16093 1.2 51 09:20 28.11.2019
3591 Clouds 24 1016 78 16093 1.2 51 09:20 28.11.2019
3592 Clouds 24 1016 74 16093 1.2 51 08:44 28.11.2019
3593 Clouds 25 1016 74 16093 1.27 72 08:23 28.11.2019
3594 Clouds 25 1016 74 16093 1.27 72 08:23 28.11.2019
3595 Clouds 25 1015 74 16093 1.5 10 07:58 28.11.2019
3596 Clouds 25 1015 74 16093 1.5 10 07:58 28.11.2019
3597 Clouds 25 1015 74 16093 1.5 10 07:58 28.11.2019
3598 Clouds 25 1015 74 16093 1.5 10 07:40 28.11.2019
3599 Clouds 25 1015 74 16093 1.5 10 07:22 28.11.2019
3600 Clouds 26 1015 69 16093 3.1 80 06:43 28.11.2019
3601 Rain 26 1015 74 16093 1.5 0 05:58 28.11.2019
3602 Rain 26 1014 78 14484 2.1 130 05:40 28.11.2019
3603 Clouds 26 1014 65 16093 2.1 200 04:51 28.11.2019
3604 Clouds 29 1013 62 16093 3.1 220 02:32 28.11.2019
3605 Clouds 29 1013 62 16093 3.6 200 01:25 28.11.2019
3606 Clouds 29 1013 62 16093 3.1 210 00:42 28.11.2019
3607 Clouds 29 1013 62 16093 3.1 210 00:19 28.11.2019
3608 Clouds 28 1014 65 16093 3.6 160 23:39 27.11.2019
3609 Clouds 28 1014 65 16093 3.6 160 23:21 27.11.2019
3610 Clouds 29 1015 58 16093 3.1 160 22:56 27.11.2019
3611 Clouds 29 1015 58 16093 3.1 160 22:38 27.11.2019
3612 Clouds 28 1015 58 16093 3.1 160 22:19 27.11.2019
3613 Clouds 28 1015 61 16093 3.6 170 21:56 27.11.2019
3614 Clouds 28 1015 61 16093 3.6 170 21:56 27.11.2019
3615 Clouds 28 1015 61 16093 3.6 170 21:37 27.11.2019
3616 Clouds 28 1015 61 16093 3.6 170 21:18 27.11.2019
3617 Clouds 27 1015 69 16093 3.6 170 20:56 27.11.2019
3618 Clouds 27 1015 69 16093 3.6 170 20:37 27.11.2019
3619 Clouds 27 1015 69 16093 3.6 170 20:37 27.11.2019
3620 Clouds 27 1015 69 16093 3.6 170 20:19 27.11.2019
3621 Clouds 26 1015 74 16093 2.1 160 19:55 27.11.2019
3622 Clouds 25 1015 74 16093 2.1 160 19:37 27.11.2019
3623 Clouds 25 1015 74 16093 2.1 160 19:18 27.11.2019
3624 Clouds 25 1015 94 16093 1.5 170 18:55 27.11.2019
3625 Clouds 24 1015 78 16093 5.1 180 18:36 27.11.2019
3626 Clouds 24 1015 78 16093 5.1 180 18:18 27.11.2019
3627 Clouds 25 1015 78 16093 4.1 190 17:41 27.11.2019
3628 Clouds 24 1014 74 16093 2.6 170 17:23 27.11.2019
3629 Clouds 24 1014 74 16093 2.6 170 17:23 27.11.2019
3630 -273 0 0 0 0 0 17:23 27.11.2019
3631 Clouds 24 1015 100 16093 2.54 157 16:59 27.11.2019
3632 Clouds 24 1015 100 16093 2.54 157 16:40 27.11.2019
3633 Clouds 24 1014 74 16093 3.1 160 16:21 27.11.2019
3634 Rain 24 1015 100 16093 2.54 157 15:59 27.11.2019
3635 Rain 24 1015 100 16093 2.54 157 15:41 27.11.2019
3636 Rain 24 1015 100 16093 2.54 157 15:40 27.11.2019
3637 Rain 24 1014 78 16093 3.1 160 15:21 27.11.2019
3638 Rain 25 1015 94 16093 2.54 157 14:59 27.11.2019
3639 Rain 25 1015 94 16093 2.54 157 14:41 27.11.2019
3640 Rain 25 1014 83 16093 3.1 130 14:23 27.11.2019
3641 Clouds 25 1015 94 16093 1.26 208 13:58 27.11.2019
3642 Clouds 24 1015 74 16093 3.6 140 13:39 27.11.2019
3643 Clouds 24 1015 74 16093 3.6 140 13:19 27.11.2019
3644 Clouds 24 1015 94 16093 1.29 183 12:59 27.11.2019
3645 Rain 24 1015 78 16093 1.5 40 12:40 27.11.2019
3646 Rain 24 1015 78 16093 1.5 40 12:19 27.11.2019
3647 Clouds 24 1015 78 16093 2.1 240 11:39 27.11.2019
3648 Clouds 24 1015 78 16093 2.1 240 11:39 27.11.2019
3649 Clouds 24 1015 73 16093 2.1 360 11:19 27.11.2019
3650 Clouds 25 1015 73 16093 2.1 360 10:59 27.11.2019
3651 Clouds 25 1015 73 16093 2.1 360 10:41 27.11.2019
3652 Clouds 25 1015 73 16093 2.1 360 10:23 27.11.2019
3653 Clouds 25 1016 69 16093 2.1 310 09:45 27.11.2019
3654 Clouds 26 1016 69 16093 2.1 310 09:26 27.11.2019
3655 Clouds 25 1015 69 16093 4.6 120 08:58 27.11.2019
3656 Clouds 25 1015 69 16093 4.6 120 08:40 27.11.2019
3657 Clouds 25 1015 69 16093 4.6 120 08:40 27.11.2019
3658 Clouds 25 1015 69 16093 4.6 120 08:21 27.11.2019
3659 Clouds 25 1015 65 16093 1.5 360 07:46 27.11.2019
3660 Clouds 25 1015 65 16093 1.5 360 07:28 27.11.2019
3661 Clouds 26 1014 65 16093 2.6 20 06:48 27.11.2019
3662 Clouds 26 1014 65 16093 2.6 20 06:29 27.11.2019
3663 Clouds 26 1014 58 16093 4.1 40 05:43 27.11.2019
3664 Clouds 27 1014 58 16093 4.1 40 05:19 27.11.2019
3665 Clouds 27 1012 61 16093 4.1 30 04:41 27.11.2019
3666 Clouds 27 1012 69 16093 2.1 230 03:55 27.11.2019
3667 Clouds 28 1012 69 16093 2.1 230 03:23 27.11.2019
3668 Clouds 28 1012 66 16093 4.1 180 02:54 27.11.2019
3669 Clouds 28 1012 62 16093 5.1 190 01:39 27.11.2019
3670 Clouds 29 1013 62 16093 4.1 150 00:45 27.11.2019
3671 Clouds 28 1013 62 16093 4.1 150 00:26 27.11.2019
3672 Clouds 29 1014 51 16093 2.6 40 23:49 26.11.2019
3673 Clouds 29 1014 51 16093 2.6 40 23:27 26.11.2019
3674 Clouds 29 1015 52 16093 6.7 70 22:58 26.11.2019
3675 Clouds 29 1015 52 16093 6.7 70 22:38 26.11.2019
3676 Clouds 29 1015 52 16093 6.7 70 22:19 26.11.2019
3677 Clouds 28 1016 62 16093 6.7 60 21:58 26.11.2019
3678 Clouds 28 1016 62 16093 6.7 60 21:58 26.11.2019
3679 Clouds 28 1016 62 16093 6.7 60 21:37 26.11.2019
3680 Clouds 28 1016 62 16093 6.7 60 21:19 26.11.2019
3681 Clouds 26 1016 74 16093 3.1 50 20:54 26.11.2019
3682 Clouds 27 1016 74 16093 3.1 50 20:36 26.11.2019
3683 Clouds 26 1016 74 16093 3.1 50 20:18 26.11.2019
3684 Clouds 25 1015 74 16093 1.64 107 19:54 26.11.2019
3685 Clouds 24 1015 78 16093 1.5 170 19:36 26.11.2019
3686 Clouds 24 1015 78 16093 1.5 170 19:18 26.11.2019
3687 Clouds 24 1015 78 16093 1.5 170 19:18 26.11.2019
3688 Clouds 24 1014 78 16093 1.5 340 18:56 26.11.2019
3689 Clouds 23 1014 78 16093 1.5 340 18:37 26.11.2019
3690 Clouds 24 1013 83 16093 1.5 210 18:19 26.11.2019
3691 Clouds 24 1014 78 16093 1.5 350 17:43 26.11.2019
3692 Clouds 23 1014 78 16093 1.5 350 17:24 26.11.2019
3693 Clouds 23 1013 78 16093 1.5 130 16:58 26.11.2019
3694 Clouds 23 1013 78 16093 1.5 130 16:38 26.11.2019
3695 Clouds 23 1013 78 16093 1.5 130 16:20 26.11.2019
3696 Clouds 23 1013 78 16093 2.1 20 16:00 26.11.2019
3697 Clouds 23 1013 78 16093 2.1 20 16:00 26.11.2019
3698 Clouds 24 1013 78 16093 2.1 20 15:39 26.11.2019
3699 Clouds 24 1013 78 16093 2.1 20 15:21 26.11.2019
3700 Clouds 24 1014 78 16093 1.5 360 14:59 26.11.2019
3701 Clouds 24 1014 78 16093 1.5 360 14:41 26.11.2019
3702 Clouds 24 1014 78 16093 1.5 360 14:22 26.11.2019
3703 Clouds 25 1014 73 16093 2.1 50 13:43 26.11.2019
3704 Clouds 24 1014 73 16093 2.1 50 13:23 26.11.2019
3705 Clouds 24 1015 73 16093 2.1 80 12:54 26.11.2019
3706 Clouds 24 1015 73 16093 2.1 80 12:36 26.11.2019
3707 Clouds 25 1015 73 16093 2.1 80 12:18 26.11.2019
3708 Clouds 25 1015 73 16093 2.1 70 11:54 26.11.2019
3709 Clouds 25 1015 73 16093 2.1 70 11:36 26.11.2019
3710 Clouds 25 1015 73 16093 2.6 60 11:18 26.11.2019
3711 Clouds 25 1015 73 16093 2.6 60 10:41 26.11.2019
3712 Clouds 24 1015 73 16093 2.6 60 10:21 26.11.2019
3713 Clouds 25 1015 78 16093 3.1 50 09:58 26.11.2019
3714 Clouds 25 1015 78 16093 3.1 50 09:39 26.11.2019
3715 Clouds 25 1015 78 16093 3.1 50 09:21 26.11.2019
3716 Clouds 25 1015 69 16093 3.1 40 08:46 26.11.2019
3717 Clouds 25 1015 69 16093 3.1 40 08:25 26.11.2019
3718 Rain 25 1014 69 16093 2.1 70 07:47 26.11.2019
3719 Rain 25 1014 69 16093 2.1 70 07:29 26.11.2019
3720 Clouds 25 1014 69 16093 3.1 30 06:56 26.11.2019
3721 Clouds 25 1014 69 16093 3.1 30 06:35 26.11.2019
3722 Clouds 26 1014 83 16093 1.5 100 05:53 26.11.2019
3723 Clouds 27 1013 78 16093 3.1 120 04:47 26.11.2019
3724 Clouds 29 1012 62 16093 6.2 120 02:52 26.11.2019
3725 Clouds 28 1012 54 16093 5.7 140 01:33 26.11.2019
3726 Clouds 29 1013 58 16093 5.7 140 00:53 26.11.2019
3727 Clouds 29 1013 58 16093 5.7 140 00:30 26.11.2019
3728 Rain 29 1014 51 16093 3.1 100 23:41 25.11.2019
3729 Rain 29 1014 51 16093 3.1 100 23:21 25.11.2019
3730 Rain 29 1015 62 16093 5.7 120 22:59 25.11.2019
3731 Rain 29 1015 62 16093 5.7 120 22:39 25.11.2019
3732 Rain 29 1015 62 16093 5.7 120 22:19 25.11.2019
3733 Rain 29 1015 58 16093 4.1 100 21:59 25.11.2019
3734 Rain 29 1015 58 16093 4.1 100 21:40 25.11.2019
3735 Rain 28 1015 58 16093 4.1 100 21:21 25.11.2019
3736 Clouds 28 1014 65 16093 6.2 110 20:57 25.11.2019
3737 Clouds 28 1014 65 16093 6.2 110 20:39 25.11.2019
3738 Rain 28 1014 65 16093 2.6 0 20:39 25.11.2019
3739 Rain 27 1014 65 16093 2.6 0 20:19 25.11.2019
3740 Clouds 25 1014 78 16093 1.5 350 19:56 25.11.2019
3741 Clouds 25 1014 78 16093 1.5 350 19:37 25.11.2019
3742 Clouds 25 1014 78 16093 1.5 350 19:37 25.11.2019
3743 Clouds 25 1014 78 16093 1.5 350 19:18 25.11.2019
3744 Clouds 24 1014 83 16093 1.99 92 18:57 25.11.2019
3745 Clouds 23 1014 83 16093 1.99 92 18:38 25.11.2019
3746 Clouds 23 1014 83 16093 1.99 92 18:38 25.11.2019
3747 Clouds 23 1014 83 16093 1.99 92 18:20 25.11.2019
3748 Clouds 24 1013 74 16093 4.1 110 17:57 25.11.2019
3749 Clouds 24 1013 74 16093 4.1 110 17:38 25.11.2019
3750 Clouds 23 1013 83 16093 2.1 350 17:19 25.11.2019
3751 Clouds 23 1013 83 16093 2.1 350 16:56 25.11.2019
3752 Clouds 23 1013 83 16093 2.1 350 16:37 25.11.2019
3753 Clouds 23 1013 83 16093 2.1 350 16:19 25.11.2019
3754 Clouds 24 1014 78 16093 2.43 110 15:42 25.11.2019
3755 Clouds 24 1014 78 16093 2.43 110 15:21 25.11.2019
3756 Clouds 23 1014 78 16093 2.43 110 14:59 25.11.2019
3757 Clouds 23 1014 78 16093 2.43 110 14:40 25.11.2019
3758 Clouds 23 1014 78 16093 3.45 93 14:22 25.11.2019
3759 Clouds 24 1014 78 16093 1.5 30 13:54 25.11.2019
3760 Clouds 24 1014 78 16093 1.5 30 13:36 25.11.2019
3761 Clouds 24 1014 78 16093 1.5 30 13:18 25.11.2019
3762 Clouds 24 1015 88 16093 4.73 98 12:41 25.11.2019
3763 Clouds 24 1015 88 16093 4.73 98 12:21 25.11.2019
3764 Clouds 25 1015 65 16093 2.6 70 11:58 25.11.2019
3765 Clouds 25 1015 65 16093 2.6 70 11:39 25.11.2019
3766 Clouds 24 1015 65 16093 2.6 70 11:20 25.11.2019
3767 Clouds 25 1015 74 16093 5.1 70 10:46 25.11.2019
3768 Clouds 25 1015 74 16093 5.1 70 10:27 25.11.2019
3769 Clouds 25 1015 65 16093 5.1 70 09:58 25.11.2019
3770 Clouds 25 1015 65 16093 5.1 70 09:40 25.11.2019
3771 Clouds 25 1015 65 16093 5.1 70 09:22 25.11.2019
3772 Clouds 25 1015 65 16093 4.6 70 08:41 25.11.2019
3773 Clouds 25 1015 65 16093 4.6 70 08:22 25.11.2019
3774 Clouds 26 1015 65 16093 6.7 80 07:44 25.11.2019
3775 Clouds 26 1015 65 16093 6.7 80 07:24 25.11.2019
3776 Clouds 26 1014 65 16093 5.1 80 06:50 25.11.2019
3777 Clouds 26 1014 65 16093 5.1 80 06:22 25.11.2019
3778 Clouds 26 1013 65 16093 7.2 80 05:40 25.11.2019
3779 Clouds 26 1013 54 16093 6.7 50 04:52 25.11.2019
3780 Clouds 27 1013 54 16093 6.7 40 03:24 25.11.2019
3781 Clouds 28 1013 51 16093 8.2 70 02:28 25.11.2019
3782 Rain 28 1013 48 16093 6.7 40 01:41 25.11.2019
3783 Rain 28 1013 48 16093 6.7 40 01:22 25.11.2019
3784 Clouds 29 1014 48 16093 7.2 60 00:24 25.11.2019
3785 Clouds 28 1015 48 16093 6.7 90 23:59 24.11.2019
3786 Clouds 28 1015 48 16093 6.7 90 23:59 24.11.2019
3787 Clouds 28 1015 48 16093 6.7 90 23:41 24.11.2019
3788 Clouds 28 1015 48 16093 6.7 90 23:19 24.11.2019
3789 Clouds 28 1016 48 16093 8.7 70 22:56 24.11.2019
3790 Clouds 28 1016 48 16093 8.7 70 22:37 24.11.2019
3791 Clouds 28 1016 48 16093 8.7 70 22:18 24.11.2019
3792 Clouds 27 1016 51 16093 6.7 70 21:42 24.11.2019
3793 Clouds 27 1016 51 16093 6.7 70 21:21 24.11.2019
3794 Clouds 27 1016 61 16093 7.7 60 20:59 24.11.2019
3795 Clouds 27 1016 61 16093 7.7 60 20:59 24.11.2019
3796 Clouds 26 1016 61 16093 7.7 60 20:40 24.11.2019
3797 Clouds 27 1016 61 16093 7.7 60 20:20 24.11.2019
3798 Rain 25 1015 65 16093 5.7 80 19:57 24.11.2019
3799 Rain 25 1015 65 16093 5.7 80 19:39 24.11.2019
3800 Rain 25 1015 65 16093 5.7 80 19:21 24.11.2019
3801 Rain 24 1015 69 16093 5.7 70 18:59 24.11.2019
3802 Rain 24 1015 69 16093 5.7 70 18:59 24.11.2019
3803 Rain 24 1015 69 16093 5.7 70 18:38 24.11.2019
3804 Clouds 24 1014 73 16093 4.1 70 18:20 24.11.2019
3805 Clouds 24 1014 73 16093 4.1 70 17:57 24.11.2019
3806 Clouds 24 1014 73 16093 4.1 70 17:39 24.11.2019
3807 Clouds 24 1014 73 16093 4.1 70 17:20 24.11.2019
3808 Clouds 24 1015 88 16093 5.65 89 16:57 24.11.2019
3809 Clouds 24 1015 88 16093 5.65 89 16:39 24.11.2019
3810 Clouds 24 1015 88 16093 5.65 89 16:39 24.11.2019
3811 Clouds 24 1014 73 16093 3.6 70 16:20 24.11.2019
3812 Clouds 24 1014 73 16093 4.6 70 15:45 24.11.2019
3813 Clouds 24 1014 73 16093 4.6 70 15:26 24.11.2019
3814 Clouds 24 1014 69 16093 5.1 70 14:58 24.11.2019
3815 Clouds 24 1014 69 16093 5.1 70 14:39 24.11.2019
3816 Clouds 24 1014 69 16093 5.1 70 14:19 24.11.2019
3817 Clouds 24 1014 65 16093 4.1 60 13:55 24.11.2019
3818 Clouds 24 1014 65 16093 4.1 60 13:36 24.11.2019
3819 Clouds 24 1014 65 16093 4.1 60 13:36 24.11.2019
3820 Clouds 24 1014 65 16093 4.1 60 13:18 24.11.2019
3821 Clouds 25 1015 65 16093 3.1 60 12:42 24.11.2019
3822 Clouds 25 1015 65 16093 3.1 60 12:19 24.11.2019
3823 Clouds 25 1015 57 16093 4.6 60 11:58 24.11.2019
3824 Clouds 25 1015 57 16093 4.6 60 11:37 24.11.2019
3825 Clouds 25 1015 57 16093 4.6 60 11:18 24.11.2019
3826 Clouds 25 1015 61 16093 6.7 80 10:47 24.11.2019
3827 Clouds 25 1015 61 16093 6.7 80 10:29 24.11.2019
3828 Clouds 25 1015 57 16093 8.2 60 09:58 24.11.2019
3829 Clouds 25 1015 57 16093 8.2 60 09:37 24.11.2019
3830 Clouds 25 1015 57 16093 8.2 60 09:19 24.11.2019
3831 Clouds 25 1015 78 16093 5.1 40 08:45 24.11.2019
3832 Clouds 26 1015 61 16093 7.2 60 08:22 24.11.2019
3833 Clouds 25 1015 61 16093 6.2 70 07:58 24.11.2019
3834 Clouds 25 1015 61 16093 6.2 70 07:38 24.11.2019
3835 Clouds 25 1015 61 16093 6.2 70 07:19 24.11.2019
3836 Rain 26 1013 61 16093 8.2 60 06:20 24.11.2019
3837 Rain 26 1013 61 16093 8.2 60 06:20 24.11.2019
3838 Clouds 25 1014 65 16093 7.2 50 06:20 24.11.2019
3839 Rain 26 1013 61 16093 8.2 60 06:20 24.11.2019
3840 Rain 26 1013 65 16093 8.7 50 04:49 24.11.2019
3841 Clouds 26 1014 78 16093 2.6 50 03:38 24.11.2019
3842 Rain 27 1013 65 16093 7.2 60 02:26 24.11.2019
3843 Rain 26 1014 78 16093 7.2 90 01:40 24.11.2019
3844 Drizzle 27 1014 83 16093 5.7 60 01:21 24.11.2019
3845 Rain 26 1014 88 14484 5.7 90 00:47 24.11.2019
3846 Rain 26 1014 83 12874 9.8 70 00:24 24.11.2019
3847 Rain 26 1015 78 16093 7.7 60 23:46 23.11.2019
3848 Rain 26 1015 78 16093 7.7 60 23:23 23.11.2019
3849 Rain 26 1015 78 8047 5.1 80 22:59 23.11.2019
3850 Rain 27 1015 78 8047 5.1 80 22:40 23.11.2019
3851 Rain 27 1016 69 16093 7.7 70 22:22 23.11.2019
3852 Rain 26 1016 78 16093 6.7 70 21:59 23.11.2019
3853 Rain 26 1016 78 16093 6.7 70 21:41 23.11.2019
3854 Rain 26 1016 78 11265 7.7 90 21:22 23.11.2019
3855 Clouds 26 1016 83 16093 5.7 80 20:57 23.11.2019
3856 Rain 26 1015 61 16093 7.2 60 20:36 23.11.2019
3857 Rain 26 1015 61 16093 7.2 60 20:18 23.11.2019
3858 Clouds 25 1016 88 14484 7.2 90 19:54 23.11.2019
3859 Clouds 25 1015 74 16093 5.1 70 19:36 23.11.2019
3860 Clouds 25 1016 88 14484 7.2 90 19:18 23.11.2019
3861 Rain 24 1015 78 16093 6.7 60 18:40 23.11.2019
3862 Rain 24 1015 78 16093 6.7 60 18:20 23.11.2019
3863 Rain 24 1015 78 16093 6.7 60 18:20 23.11.2019
3864 Rain 24 1015 78 16093 6.7 60 18:20 23.11.2019
3865 Rain 24 1015 94 16093 1.5 230 17:54 23.11.2019
3866 Drizzle 24 1015 94 16093 7.89 81 17:36 23.11.2019
3867 Drizzle 24 1015 94 16093 7.89 81 17:36 23.11.2019
3868 Drizzle 24 1015 94 16093 6.8 81 17:18 23.11.2019
3869 Rain 24 1014 74 16093 6.7 80 16:55 23.11.2019
3870 Rain 24 1014 78 16093 6.2 50 16:36 23.11.2019
3871 Rain 24 1014 78 16093 6.2 50 16:18 23.11.2019
3872 Rain 24 1014 100 14484 1.5 220 15:54 23.11.2019
3873 Rain 24 1014 100 14484 1.5 220 15:54 23.11.2019
3874 Rain 24 1014 88 16093 6.2 80 15:36 23.11.2019
3875 Rain 24 1014 88 16093 6.2 80 15:18 23.11.2019
3876 Clouds 25 1014 74 16093 6.2 70 14:42 23.11.2019
3877 Clouds 25 1014 74 16093 6.2 70 14:21 23.11.2019
3878 Clouds 25 1014 74 16093 6.2 70 14:21 23.11.2019
3879 Clouds 25 1014 69 16093 6.7 80 13:57 23.11.2019
3880 Clouds 25 1014 69 16093 6.7 80 13:38 23.11.2019
3881 Clouds 25 1015 83 16093 4.6 100 13:18 23.11.2019
3882 Clouds 25 1015 83 16093 3.1 90 12:43 23.11.2019
3883 Rain 25 1015 83 16093 2.6 120 12:24 23.11.2019
3884 Rain 25 1015 69 16093 7.2 60 11:45 23.11.2019
3885 Rain 25 1015 69 16093 7.2 60 11:24 23.11.2019
3886 Drizzle 25 1016 83 16093 2.1 40 10:56 23.11.2019
3887 Clouds 25 1016 65 16093 6.2 50 10:37 23.11.2019
3888 Clouds 25 1016 65 16093 6.2 50 10:18 23.11.2019
3889 Drizzle 24 1016 88 16093 6.84 80 09:40 23.11.2019
3890 Clouds 25 1016 65 16093 6.2 50 09:18 23.11.2019
3891 Rain 25 1016 83 16093 2.1 10 08:41 23.11.2019
3892 Clouds 25 1016 74 16093 7.2 70 08:19 23.11.2019
3893 Clouds 25 1016 83 16093 5.77 82 07:42 23.11.2019
3894 Drizzle 26 1016 78 16093 3.6 80 06:58 23.11.2019
3895 Clouds 25 1015 57 16093 7.2 60 06:38 23.11.2019
3896 Clouds 25 1015 57 16093 7.2 60 06:19 23.11.2019
3897 Clouds 26 1015 57 16093 8.2 60 05:32 23.11.2019
3898 Clouds 26 1015 73 16093 1.5 30 04:58 23.11.2019
3899 Clouds 26 1015 73 16093 1.5 30 04:34 23.11.2019
3900 Rain 26 1014 61 16093 8.2 50 03:27 23.11.2019
3901 Drizzle 26 1014 83 14484 4.6 110 02:38 23.11.2019
3902 Rain 27 1014 83 16093 8.19 82 01:40 23.11.2019
3903 Clouds 28 1014 48 16093 9.8 50 00:48 23.11.2019
3904 Clouds 28 1014 48 16093 9.8 50 00:20 23.11.2019
3905 Clouds 28 1015 65 16093 4.6 60 23:55 22.11.2019
3906 Clouds 28 1016 65 16093 6.7 50 23:36 22.11.2019
3907 Clouds 28 1016 65 16093 6.7 50 23:36 22.11.2019
3908 Clouds 28 1016 65 16093 6.7 50 23:18 22.11.2019
3909 Clouds 27 1017 78 11265 6.7 70 22:55 22.11.2019
3910 Clouds 28 1016 54 16093 10.3 60 22:36 22.11.2019
3911 Clouds 28 1016 54 16093 10.3 60 22:18 22.11.2019
3912 Clouds 28 1016 54 16093 10.3 60 22:18 22.11.2019
3913 Clouds 28 1016 54 16093 10.3 60 22:18 22.11.2019
3914 Clouds 27 1017 58 16093 8.7 70 21:40 22.11.2019
3915 Rain 27 1017 58 16093 8.7 70 21:21 22.11.2019
3916 Rain 26 1017 83 14484 5.7 90 20:55 22.11.2019
3917 Rain 26 1017 61 16093 7.2 60 20:37 22.11.2019
3918 Clouds 26 1017 61 16093 7.2 60 20:19 22.11.2019
3919 Rain 25 1017 83 16093 8.43 83 19:39 22.11.2019
3920 Rain 25 1016 61 16093 6.2 70 19:20 22.11.2019
3921 Rain 25 1016 61 16093 6.7 60 18:59 22.11.2019
3922 Clouds 25 1016 61 16093 6.7 60 18:37 22.11.2019
3923 Clouds 25 1016 61 16093 6.7 60 18:19 22.11.2019
3924 Rain 25 1016 61 16093 5.1 60 17:41 22.11.2019
3925 Clouds 26 1016 61 16093 5.1 60 17:22 22.11.2019
3926 Drizzle 25 1016 88 16093 2.6 80 16:48 22.11.2019
3927 Rain 25 1015 65 16093 8.7 60 16:30 22.11.2019
3928 Clouds 25 1015 88 16093 3.6 50 15:56 22.11.2019
3929 Clouds 25 1015 88 16093 3.6 50 15:37 22.11.2019
3930 Clouds 24 1015 69 16093 6.7 60 15:37 22.11.2019
3931 Clouds 25 1015 69 16093 6.7 60 15:19 22.11.2019
3932 Clouds 25 1015 83 16093 5.1 50 14:54 22.11.2019
3933 Rain 24 1016 100 12874 7.85 83 14:36 22.11.2019
3934 Rain 24 1016 100 9656 2.6 280 14:18 22.11.2019
3935 Rain 24 1016 83 14484 5.1 50 13:38 22.11.2019
3936 Rain 24 1016 83 14484 5.1 50 13:19 22.11.2019
3937 Rain 25 1016 78 16093 6.47 75 12:58 22.11.2019
3938 Rain 25 1016 78 16093 6.47 75 12:40 22.11.2019
3939 Rain 25 1016 65 16093 6.2 80 12:19 22.11.2019
3940 Drizzle 25 1016 88 16093 1.5 270 11:56 22.11.2019
3941 Clouds 25 1016 65 16093 7.2 40 11:36 22.11.2019
3942 Clouds 25 1016 65 16093 7.2 40 11:36 22.11.2019
3943 Clouds 25 1016 65 16093 7.2 40 11:18 22.11.2019
3944 Clouds 25 1017 94 16093 2.1 240 10:42 22.11.2019
3945 Rain 25 1017 73 16093 5.1 50 10:22 22.11.2019
3946 Clouds 25 1016 69 16093 8.7 80 09:59 22.11.2019
3947 Clouds 25 1016 69 16093 8.7 80 09:40 22.11.2019
3948 Rain 25 1016 69 16093 8.7 70 09:21 22.11.2019
3949 Clouds 25 1017 88 16093 2.1 20 08:48 22.11.2019
3950 Clouds 25 1017 88 16093 2.1 20 08:48 22.11.2019
3951 Rain 26 1016 65 16093 7.2 50 08:28 22.11.2019
3952 Clouds 26 1016 61 16093 8.2 60 07:58 22.11.2019
3953 Clouds 26 1016 61 16093 8.2 60 07:40 22.11.2019
3954 Clouds 26 1016 61 16093 8.2 60 07:19 22.11.2019
3955 Clouds 25 1016 83 16093 2.1 120 06:41 22.11.2019
3956 Clouds 26 1015 61 16093 5.7 60 05:57 22.11.2019
3957 Clouds 26 1015 61 16093 4.6 50 04:53 22.11.2019
3958 Clouds 27 1015 83 14484 2.6 70 02:57 22.11.2019
3959 Rain 27 1014 69 16093 6.2 80 02:33 22.11.2019
3960 Rain 26 1015 88 11265 5.1 70 01:46 22.11.2019
3961 Rain 26 1015 69 16093 7.7 70 01:20 22.11.2019
3962 Drizzle 26 1016 88 14484 5.1 80 00:54 22.11.2019
3963 Drizzle 26 1016 88 14484 2.6 90 00:25 22.11.2019
3964 Clouds 26 1016 88 12874 3.6 80 23:57 21.11.2019
3965 Clouds 26 1016 74 16093 5.7 80 23:38 21.11.2019
3966 Clouds 26 1016 74 16093 5.7 80 23:20 21.11.2019
3967 Clouds 26 1017 88 14484 4.1 60 22:41 21.11.2019
3968 Rain 26 1017 69 16093 7.7 60 22:22 21.11.2019
3969 Rain 26 1018 94 16093 3.6 70 21:58 21.11.2019
3970 Rain 26 1018 94 16093 3.6 70 21:39 21.11.2019
3971 Rain 26 1017 69 16093 6.2 80 21:20 21.11.2019
3972 Rain 26 1017 74 16093 5.7 50 20:59 21.11.2019
3973 Rain 25 1017 74 16093 5.7 50 20:39 21.11.2019
3974 Rain 25 1017 74 16093 5.7 50 20:39 21.11.2019
3975 Rain 25 1017 74 16093 5.7 50 20:19 21.11.2019
3976 Rain 25 1017 74 16093 5.7 50 20:19 21.11.2019
3977 Rain 25 1018 88 16093 2.6 60 19:59 21.11.2019
3978 Rain 25 1018 88 16093 2.6 60 19:59 21.11.2019
3979 Clouds 25 1018 88 16093 2.6 60 19:41 21.11.2019
3980 Rain 25 1017 78 14484 4.1 70 19:23 21.11.2019
3981 Clouds 25 1016 74 16093 5.7 80 18:58 21.11.2019
3982 Clouds 25 1017 94 16093 2.1 70 18:40 21.11.2019
3983 Rain 24 1017 78 16093 5.1 60 18:19 21.11.2019
3984 Drizzle 24 1017 94 16093 2.1 360 17:57 21.11.2019
3985 Drizzle 24 1017 94 16093 2.1 360 17:57 21.11.2019
3986 Clouds 24 1016 83 16093 3.6 50 17:38 21.11.2019
3987 Clouds 24 1016 83 16093 3.6 50 17:19 21.11.2019
3988 Clouds 24 1016 83 16093 3.6 50 17:19 21.11.2019
3989 Rain 24 1016 100 16093 1.5 310 16:42 21.11.2019
3990 Rain 24 1016 100 16093 1.5 310 16:42 21.11.2019
3991 Rain 24 1015 78 16093 3.24 67 16:22 21.11.2019
3992 Rain 24 1016 78 16093 1.5 350 15:58 21.11.2019
3993 Rain 24 1016 78 16093 1.5 350 15:39 21.11.2019
3994 Rain 24 1016 78 16093 1.5 350 15:19 21.11.2019
3995 Clouds 24 1016 94 16093 2.1 310 14:56 21.11.2019
3996 Clouds 24 1016 94 16093 2.1 310 14:36 21.11.2019
3997 Clouds 24 1016 73 16093 2.1 10 14:18 21.11.2019
3998 Clouds 24 1016 73 16093 1.5 70 13:40 21.11.2019
3999 Clouds 24 1016 73 16093 1.5 70 13:20 21.11.2019
4000 Clear 25 1017 69 16093 2.1 20 12:59 21.11.2019
4001 Clear 25 1017 69 16093 2.1 20 12:38 21.11.2019
4002 Clear 25 1017 69 16093 2.1 20 12:20 21.11.2019
4003 Clear 25 1017 65 16093 4.1 60 11:41 21.11.2019
4004 Clear 25 1017 65 16093 4.1 60 11:22 21.11.2019
4005 Clouds 25 1017 65 16093 6.7 60 10:59 21.11.2019
4006 Clouds 25 1017 65 16093 6.7 60 10:41 21.11.2019
4007 Clouds 25 1017 65 16093 6.7 60 10:22 21.11.2019
4008 Clouds 25 1018 83 16093 2.6 60 09:57 21.11.2019
4009 Clouds 25 1018 83 16093 2.6 60 09:38 21.11.2019
4010 Clouds 25 1017 65 16093 7.2 60 09:19 21.11.2019
4011 Rain 25 1017 83 16093 4.79 67 08:41 21.11.2019
4012 Rain 25 1017 65 16093 5.7 60 08:20 21.11.2019
4013 Clouds 25 1016 61 16093 5.7 50 07:42 21.11.2019
4014 Clouds 25 1016 61 16093 5.7 50 07:18 21.11.2019
4015 Clouds 26 1016 61 16093 4.6 50 06:57 21.11.2019
4016 Clouds 26 1016 61 16093 4.6 50 06:33 21.11.2019
4017 Clouds 26 1016 65 16093 4.6 40 05:37 21.11.2019
4018 Rain 28 1015 58 16093 6.2 50 03:34 21.11.2019
4019 Rain 27 1016 69 16093 6.7 60 02:42 21.11.2019
4020 Clouds 28 1015 69 16093 3.1 70 01:55 21.11.2019
4021 Clouds 28 1015 69 16093 3.1 70 01:55 21.11.2019
4022 Clouds 28 1015 58 16093 6.7 50 01:37 21.11.2019
4023 Clouds 28 1016 69 16093 4.6 80 00:55 21.11.2019
4024 Clouds 28 1015 58 16093 6.2 70 00:21 21.11.2019
4025 Clouds 28 1016 69 16093 5.1 60 23:58 20.11.2019
4026 Clouds 28 1016 69 16093 5.1 60 23:40 20.11.2019
4027 Clouds 28 1016 69 16093 5.1 60 23:20 20.11.2019
4028 Rain 27 1017 69 16093 7.2 60 22:55 20.11.2019
4029 Rain 27 1017 69 16093 7.2 60 22:37 20.11.2019
4030 Rain 27 1017 69 16093 7.2 60 22:18 20.11.2019
4031 Rain 27 1017 69 16093 7.2 60 22:18 20.11.2019
4032 Clouds 27 1017 66 16093 6.2 50 21:55 20.11.2019
4033 Rain 27 1017 66 16093 6.2 50 21:36 20.11.2019
4034 Rain 27 1017 66 16093 6.2 50 21:18 20.11.2019
4035 Rain 26 1018 83 16093 2.1 30 20:54 20.11.2019
4036 Rain 26 1017 74 16093 6.2 70 20:36 20.11.2019
4037 Rain 26 1017 74 16093 6.2 70 20:18 20.11.2019
4038 Rain 26 1017 74 16093 6.2 70 20:18 20.11.2019
4039 Drizzle 26 1017 83 16093 2.1 360 19:54 20.11.2019
4040 Drizzle 26 1017 83 16093 2.1 360 19:36 20.11.2019
4041 Clouds 25 1017 88 16093 3.12 68 19:18 20.11.2019
4042 Clouds 24 1017 94 16093 3.12 68 18:41 20.11.2019
4043 Clouds 24 1016 65 16093 2.6 360 18:23 20.11.2019
4044 Drizzle 24 1016 94 16093 3.12 68 17:59 20.11.2019
4045 Drizzle 24 1016 94 16093 3.12 68 17:59 20.11.2019
4046 Clouds 24 1015 73 16093 3.12 68 17:39 20.11.2019
4047 Drizzle 24 1016 94 16093 3.12 68 17:39 20.11.2019
4048 Clouds 24 1015 73 16093 2.03 67 17:21 20.11.2019
4049 Clouds 24 1015 73 16093 2.03 67 17:21 20.11.2019
4050 Clouds 24 1015 78 16093 2.6 10 16:58 20.11.2019
4051 Clouds 24 1015 78 16093 2.6 10 16:39 20.11.2019
4052 Clouds 24 1015 78 16093 2.6 10 16:20 20.11.2019
4053 Clouds 24 1014 73 16093 2.6 40 15:57 20.11.2019
4054 Clouds 24 1014 73 16093 2.6 40 15:38 20.11.2019
4055 Clouds 24 1014 73 16093 2.6 40 15:19 20.11.2019
4056 Clear 24 1015 78 16093 1.5 310 14:41 20.11.2019
4057 Clear 24 1015 78 16093 1.5 310 14:22 20.11.2019
4058 Clouds 24 1015 73 16093 3.1 40 13:59 20.11.2019
4059 Clouds 24 1015 73 16093 3.1 40 13:40 20.11.2019
4060 Clouds 24 1015 73 16093 3.1 40 13:21 20.11.2019
4061 Clouds 23 1016 94 16093 1.54 78 12:59 20.11.2019
4062 Clouds 24 1015 83 16093 3.6 30 12:38 20.11.2019
4063 Clouds 24 1015 83 16093 3.6 30 12:19 20.11.2019
4064 Clouds 24 1016 78 16093 2.6 30 11:45 20.11.2019
4065 Clouds 24 1016 78 16093 2.6 30 11:23 20.11.2019
4066 Clouds 24 1016 74 16093 4.1 60 10:57 20.11.2019
4067 Clouds 24 1016 74 16093 4.1 60 10:57 20.11.2019
4068 Clouds 25 1016 74 16093 4.1 60 10:39 20.11.2019
4069 Clouds 25 1016 74 16093 4.1 60 10:20 20.11.2019
4070 Clouds 25 1016 74 16093 1.87 80 09:56 20.11.2019
4071 Clouds 25 1016 74 16093 1.87 80 09:37 20.11.2019
4072 Clouds 25 1016 74 16093 1.87 80 09:19 20.11.2019
4073 Clouds 26 1016 74 16093 2.1 50 08:41 20.11.2019
4074 Clouds 26 1016 74 16093 2.1 50 08:23 20.11.2019
4075 Clouds 25 1015 74 16093 2.6 40 07:48 20.11.2019
4076 Clouds 25 1015 74 16093 2.6 40 07:30 20.11.2019
4077 Thunderstorm 26 1015 74 16093 4.1 80 06:55 20.11.2019
4078 Rain 26 1014 74 16093 4.6 70 06:36 20.11.2019
4079 Rain 25 1014 74 16093 4.6 70 06:18 20.11.2019
4080 Rain 26 1013 78 16093 2.1 60 03:55 20.11.2019
4081 Rain 26 1013 78 16093 8.2 340 02:22 20.11.2019
4082 Rain 28 1012 62 16093 3.1 170 01:34 20.11.2019
4083 Clouds 28 1013 74 16093 2.6 20 00:44 20.11.2019
4084 Clouds 28 1013 74 16093 2.6 20 00:18 20.11.2019
4085 Clouds 29 1013 74 16093 3.1 330 23:39 19.11.2019
4086 Clouds 29 1013 55 16093 4.1 70 23:20 19.11.2019
4087 Clouds 27 1014 74 16093 1.5 320 22:42 19.11.2019
4088 Clouds 27 1014 58 16093 3.1 0 22:19 19.11.2019
4089 Clouds 27 1015 69 16093 1.5 300 21:58 19.11.2019
4090 Clouds 27 1015 69 16093 1.5 300 21:38 19.11.2019
4091 Clouds 27 1015 69 16093 1.5 300 21:20 19.11.2019
4092 Clouds 24 1014 83 16093 2.1 230 20:57 19.11.2019
4093 Clouds 24 1014 83 16093 2.1 230 20:39 19.11.2019
4094 Clouds 23 1014 83 16093 2.1 230 20:21 19.11.2019
4095 Thunderstorm 22 1014 88 16093 3.1 240 19:59 19.11.2019
4096 Thunderstorm 22 1014 88 16093 3.1 240 19:41 19.11.2019
4097 Rain 22 1015 88 16093 2.6 20 19:19 19.11.2019
4098 Rain 22 1015 88 16093 2.6 20 19:19 19.11.2019
4099 Rain 22 1015 83 16093 4.6 90 18:56 19.11.2019
4100 Rain 22 1015 83 16093 4.6 90 18:38 19.11.2019
4101 Thunderstorm 22 1014 83 16093 3.6 320 18:18 19.11.2019
4102 Thunderstorm 23 1013 94 6437 4.1 80 17:56 19.11.2019
4103 Thunderstorm 23 1013 94 6437 4.1 80 17:37 19.11.2019
4104 Clouds 23 1013 83 16093 2.6 300 17:18 19.11.2019
4105 Rain 23 1011 88 16093 2.6 310 16:45 19.11.2019
4106 Rain 23 1011 88 16093 2.6 310 16:24 19.11.2019
4107 Drizzle 22 1012 94 16093 3.1 120 15:59 19.11.2019
4108 Drizzle 22 1012 94 16093 3.1 120 15:39 19.11.2019
4109 Drizzle 22 1012 94 16093 3.1 120 15:39 19.11.2019
4110 Rain 23 1012 78 16093 2.6 320 15:21 19.11.2019
4111 Thunderstorm 23 1011 83 16093 2.1 220 14:56 19.11.2019
4112 Thunderstorm 23 1011 83 16093 2.1 220 14:56 19.11.2019
4113 Thunderstorm 23 1011 83 16093 2.1 220 14:37 19.11.2019
4114 Rain 23 1013 88 16093 1.47 121 14:19 19.11.2019
4115 Thunderstorm 23 1012 83 16093 4.6 290 13:40 19.11.2019
4116 Rain 23 1012 88 16093 4.6 280 13:19 19.11.2019
4117 Drizzle 23 1012 94 16093 2.1 280 12:41 19.11.2019
4118 Rain 23 1012 83 16093 2.1 60 12:22 19.11.2019
4119 Thunderstorm 23 1012 83 9656 5.7 20 11:58 19.11.2019
4120 Thunderstorm 22 1012 78 16093 2.6 320 11:38 19.11.2019
4121 Thunderstorm 24 1012 78 16093 2.6 320 11:19 19.11.2019
4122 Thunderstorm 23 1014 88 4023 6.2 300 10:48 19.11.2019
4123 Rain 24 1014 83 4023 4.6 30 10:23 19.11.2019
4124 Thunderstorm 24 1013 83 16093 2.6 300 09:58 19.11.2019
4125 Clouds 25 1013 69 16093 2.1 340 09:40 19.11.2019
4126 Clouds 25 1013 69 16093 2.1 340 09:19 19.11.2019
4127 Clouds 25 1013 78 16093 1.5 280 08:41 19.11.2019
4128 Clouds 25 1014 69 16093 3.6 60 08:23 19.11.2019
4129 Clouds 25 1013 74 16093 3.6 60 07:57 19.11.2019
4130 Clouds 25 1013 65 16093 2.1 0 07:38 19.11.2019
4131 Clouds 25 1013 65 16093 2.1 0 07:20 19.11.2019
4132 Clouds 25 1012 73 16093 1.61 87 06:49 19.11.2019
4133 Clouds 25 1012 73 16093 1.61 87 06:29 19.11.2019
4134 Rain 26 1011 61 16093 3.1 50 05:24 19.11.2019
4135 Clouds 27 1011 54 16093 4.6 50 03:47 19.11.2019
4136 Clouds 27 1011 54 16093 4.6 50 03:29 19.11.2019
4137 Clouds 28 1011 45 16093 5.7 50 02:53 19.11.2019
4138 Clouds 28 1011 43 16093 7.2 70 01:58 19.11.2019
4139 Clouds 29 1012 43 16093 4.6 50 00:59 19.11.2019
4140 Clouds 29 1012 43 16093 4.6 50 00:21 19.11.2019
4141 Clouds 29 1013 45 16093 5.7 20 23:56 18.11.2019
4142 Clouds 29 1013 45 16093 5.7 20 23:37 18.11.2019
4143 Clouds 29 1013 45 16093 5.7 20 23:18 18.11.2019
4144 Clouds 28 1013 51 16093 4.6 50 22:41 18.11.2019
4145 Clouds 28 1013 51 16093 4.6 50 22:23 18.11.2019
4146 Clouds 28 1015 69 16093 3.1 80 21:54 18.11.2019
4147 Clouds 28 1015 69 16093 3.1 80 21:54 18.11.2019
4148 Clouds 28 1015 69 16093 3.1 80 21:36 18.11.2019
4149 Clouds 28 1015 69 16093 3.1 80 21:18 18.11.2019
4150 Clouds 27 1015 69 16093 3.34 76 20:41 18.11.2019
4151 Clouds 27 1014 61 16093 2.1 0 20:20 18.11.2019
4152 Clouds 26 1014 69 16093 2.1 330 19:58 18.11.2019
4153 Clouds 25 1014 88 16093 2.1 290 19:38 18.11.2019
4154 Clouds 25 1014 88 16093 2.1 290 19:20 18.11.2019
4155 Clouds 23 1013 78 16093 2.6 350 18:56 18.11.2019
4156 Clouds 23 1013 78 16093 2.6 350 18:38 18.11.2019
4157 Clouds 23 1013 78 16093 2.6 350 18:19 18.11.2019
4158 Clouds 23 1013 73 16093 2.1 330 17:56 18.11.2019
4159 Clouds 23 1013 73 16093 2.1 330 17:37 18.11.2019
4160 Clouds 23 1013 73 16093 2.1 330 17:19 18.11.2019
4161 Clouds 22 1013 73 16093 2.1 310 16:43 18.11.2019
4162 Clouds 22 1013 73 16093 2.1 310 16:43 18.11.2019
4163 Clouds 22 1013 73 16093 2.1 310 16:24 18.11.2019
4164 Clouds 22 1013 73 16093 2.6 330 15:59 18.11.2019
4165 Clouds 22 1013 73 16093 2.6 330 15:40 18.11.2019
4166 Clouds 23 1013 73 16093 2.6 330 15:21 18.11.2019
4167 Clear 23 1013 73 16093 2.66 63 14:58 18.11.2019
4168 Clear 23 1013 73 16093 2.66 63 14:38 18.11.2019
4169 Clear 23 1013 73 16093 2.71 64 14:18 18.11.2019
4170 Clouds 23 1014 69 16093 2.71 64 13:42 18.11.2019
4171 Clouds 23 1014 69 16093 3.01 77 13:24 18.11.2019
4172 Clouds 24 1014 73 16093 2.1 340 12:43 18.11.2019
4173 Clouds 23 1014 73 16093 2.1 340 12:20 18.11.2019
4174 Clouds 22 1014 73 16093 3.01 77 11:57 18.11.2019
4175 Clouds 22 1014 73 16093 3.01 77 11:38 18.11.2019
4176 Clouds 22 1014 73 16093 2.81 71 11:20 18.11.2019
4177 Clouds 23 1014 78 16093 2.81 71 10:43 18.11.2019
4178 Clouds 23 1015 73 16093 2.1 270 10:25 18.11.2019
4179 Clouds 23 1015 69 16093 4.1 60 09:57 18.11.2019
4180 Clouds 24 1015 69 16093 4.1 60 09:38 18.11.2019
4181 Clouds 24 1015 69 16093 4.1 60 09:20 18.11.2019
4182 Clouds 24 1015 65 16093 6.7 80 08:47 18.11.2019
4183 Clouds 24 1015 65 16093 6.7 80 08:24 18.11.2019
4184 Clouds 24 1015 65 16093 5.7 70 07:58 18.11.2019
4185 Clouds 24 1015 65 16093 5.7 70 07:38 18.11.2019
4186 Clouds 24 1015 65 16093 5.7 70 07:20 18.11.2019
4187 Clouds 24 1014 88 16093 2.1 70 06:43 18.11.2019
4188 Rain 24 1014 69 16093 5.7 70 06:25 18.11.2019
4189 Clouds 24 1014 94 16093 2.6 40 05:41 18.11.2019
4190 Clouds 27 1013 69 16093 4.6 60 03:53 18.11.2019
4191 Clouds 28 1013 74 16093 4.1 360 01:40 18.11.2019
4192 Clouds 27 1013 78 16093 2.6 340 00:53 18.11.2019
4193 Clouds 27 1013 78 16093 2.6 340 00:18 18.11.2019
4194 Rain 26 1015 61 16093 6.7 60 23:40 17.11.2019
4195 Rain 26 1015 61 16093 6.7 60 23:21 17.11.2019
4196 Rain 27 1015 78 4828 3.1 350 22:57 17.11.2019
4197 Rain 28 1015 78 4828 3.1 350 22:38 17.11.2019
4198 Clouds 28 1014 58 16093 3.6 190 22:20 17.11.2019
4199 Clouds 28 1014 66 16093 5.1 50 21:42 17.11.2019
4200 Clouds 28 1015 54 16093 3.93 39 21:20 17.11.2019
4201 Clouds 28 1015 61 16093 3.6 90 20:59 17.11.2019
4202 Clouds 28 1015 61 16093 3.6 90 20:39 17.11.2019
4203 Clouds 27 1015 61 16093 3.6 90 20:20 17.11.2019
4204 Clouds 26 1015 74 16093 3.6 60 19:57 17.11.2019
4205 Clouds 25 1014 83 16093 2.31 53 19:39 17.11.2019
4206 Clouds 25 1014 83 16093 2.31 53 19:20 17.11.2019
4207 Clouds 24 1014 78 16093 2.1 320 18:56 17.11.2019
4208 Clouds 23 1014 78 16093 2.1 320 18:38 17.11.2019
4209 Clouds 23 1014 78 16093 2.1 320 18:19 17.11.2019
4210 Clouds 23 1014 78 16093 2.1 320 18:19 17.11.2019
4211 Clouds 24 1014 73 16093 3.6 350 17:58 17.11.2019
4212 Clouds 24 1014 73 16093 3.6 350 17:40 17.11.2019
4213 Clouds 24 1014 73 16093 3.6 350 17:20 17.11.2019
4214 Clear 24 1013 69 16093 1.5 0 16:59 17.11.2019
4215 Clear 24 1013 69 16093 1.5 0 16:41 17.11.2019
4216 Clear 25 1013 69 16093 1.5 0 16:21 17.11.2019
4217 Clouds 25 1014 69 16093 3.6 30 15:56 17.11.2019
4218 Clouds 25 1014 69 16093 3.6 30 15:38 17.11.2019
4219 Clouds 25 1014 69 16093 3.6 30 15:18 17.11.2019
4220 Rain 24 1014 69 16093 1.64 59 14:56 17.11.2019
4221 Rain 24 1014 69 16093 1.64 59 14:37 17.11.2019
4222 Rain 24 1014 69 16093 1.88 44 14:19 17.11.2019
4223 Clouds 24 1014 78 16093 4.6 10 13:56 17.11.2019
4224 Clouds 24 1014 78 16093 4.6 10 13:56 17.11.2019
4225 Clouds 24 1014 78 16093 4.6 10 13:38 17.11.2019
4226 Clouds 24 1014 78 16093 4.6 10 13:19 17.11.2019
4227 Clouds 24 1015 73 16093 2.08 40 12:44 17.11.2019
4228 Clouds 24 1015 73 16093 2.08 40 12:22 17.11.2019
4229 Clouds 23 1016 73 16093 2.6 360 11:57 17.11.2019
4230 Clouds 23 1016 73 16093 2.6 360 11:39 17.11.2019
4231 Clouds 23 1016 73 16093 2.6 360 11:20 17.11.2019
4232 Clouds 24 1016 83 16093 1.76 58 10:44 17.11.2019
4233 Clouds 24 1016 78 16093 1.5 340 10:23 17.11.2019
4234 Clouds 24 1016 88 16093 1.76 58 09:57 17.11.2019
4235 Clouds 24 1016 88 16093 1.76 58 09:39 17.11.2019
4236 Clouds 24 1016 69 16093 1.5 350 09:21 17.11.2019
4237 Clouds 24 1016 74 16093 1.5 360 08:40 17.11.2019
4238 Clouds 24 1016 74 16093 1.5 360 08:21 17.11.2019
4239 Clouds 25 1016 69 16093 1.5 30 07:48 17.11.2019
4240 Clouds 25 1016 69 16093 1.5 30 07:28 17.11.2019
4241 Clouds 25 1015 69 16093 1.71 54 06:59 17.11.2019
4242 Clouds 25 1015 69 16093 1.71 54 06:40 17.11.2019
4243 Clouds 25 1015 69 16093 1.71 54 06:21 17.11.2019
4244 Clouds 27 1013 58 16093 4.1 50 04:24 17.11.2019
4245 Clouds 28 1014 62 16093 5.1 40 03:47 17.11.2019
4246 Clouds 28 1014 62 16093 5.1 40 03:29 17.11.2019
4247 Clouds 28 1014 58 16093 2.6 40 02:28 17.11.2019
4248 Drizzle 28 1015 78 16093 5.1 60 01:37 17.11.2019
4249 Clouds 28 1014 74 16093 2.81 64 00:54 17.11.2019
4250 Clouds 28 1015 69 16093 2.1 160 00:22 17.11.2019
4251 Clouds 27 1016 65 16093 2.1 0 23:46 16.11.2019
4252 Clouds 27 1016 65 16093 2.1 0 23:20 16.11.2019
4253 Clouds 27 1017 65 16093 2.1 350 22:59 16.11.2019
4254 Clouds 27 1017 65 16093 2.1 350 22:40 16.11.2019
4255 Clouds 27 1017 65 16093 2.1 350 22:19 16.11.2019
4256 Clouds 27 1017 65 16093 3.6 320 21:42 16.11.2019
4257 Clouds 27 1017 65 16093 3.6 320 21:24 16.11.2019
4258 Clouds 26 1018 74 16093 1.85 66 20:59 16.11.2019
4259 Clouds 26 1018 74 16093 1.85 66 20:41 16.11.2019
4260 Clouds 26 1016 69 16093 1.34 47 20:20 16.11.2019
4261 Clouds 26 1016 88 16093 2.6 350 19:57 16.11.2019
4262 Clouds 26 1016 88 16093 2.6 350 19:39 16.11.2019
4263 Clouds 25 1016 78 16093 3.6 330 19:20 16.11.2019
4264 Clouds 25 1016 74 16093 1.5 120 18:45 16.11.2019
4265 Clouds 25 1016 74 16093 1.5 120 18:27 16.11.2019
4266 Clouds 24 1015 78 16093 1.8 48 17:56 16.11.2019
4267 Clouds 25 1015 78 16093 1.8 48 17:38 16.11.2019
4268 Clouds 24 1015 74 16093 2.1 280 17:19 16.11.2019
4269 Clear 24 1015 78 16093 1.19 37 16:47 16.11.2019
4270 Clear 24 1015 78 16093 1.19 37 16:29 16.11.2019
4271 Clouds 24 1015 78 16093 2.1 300 15:58 16.11.2019
4272 Clouds 24 1015 78 16093 2.1 300 15:39 16.11.2019
4273 Clouds 24 1015 78 16093 2.1 300 15:20 16.11.2019
4274 Clear 24 1015 74 16093 1.19 37 14:42 16.11.2019
4275 Clear 24 1015 74 16093 1.16 39 14:22 16.11.2019
4276 Clouds 24 1016 78 16093 1.16 39 13:58 16.11.2019
4277 Clouds 24 1016 78 16093 1.16 39 13:39 16.11.2019
4278 Clouds 24 1016 78 16093 1.16 39 13:39 16.11.2019
4279 Clouds 24 1016 78 16093 0.61 59 13:19 16.11.2019
4280 Clouds 24 1017 78 16093 1.5 320 12:59 16.11.2019
4281 Clouds 24 1017 78 16093 1.5 320 12:40 16.11.2019
4282 Clouds 24 1017 78 16093 1.5 320 12:20 16.11.2019
4283 Clouds 24 1017 78 16093 2.1 330 11:46 16.11.2019
4284 Clouds 24 1017 78 16093 2.1 330 11:28 16.11.2019
4285 Clouds 24 1017 78 16093 0.55 68 10:58 16.11.2019
4286 Clouds 24 1017 78 16093 0.55 68 10:39 16.11.2019
4287 Clouds 24 1017 78 16093 0.55 68 10:21 16.11.2019
4288 Clouds 25 1016 74 16093 0.55 68 09:45 16.11.2019
4289 Clouds 25 1016 74 16093 0.55 68 09:22 16.11.2019
4290 Clouds 25 1017 74 16093 2.6 280 08:59 16.11.2019
4291 Clouds 25 1017 74 16093 2.6 280 08:39 16.11.2019
4292 Clouds 26 1017 74 16093 2.6 280 08:19 16.11.2019
4293 Clouds 26 1016 74 16093 1.5 240 07:43 16.11.2019
4294 Clouds 26 1016 74 16093 1.5 240 07:21 16.11.2019
4295 Clouds 26 1016 88 16093 1.5 100 06:55 16.11.2019
4296 Clouds 26 1015 74 16093 2.1 0 06:34 16.11.2019
4297 Clouds 27 1014 74 16093 0.94 69 05:40 16.11.2019
4298 Clouds 28 1014 69 16093 2.1 260 03:50 16.11.2019
4299 Clouds 28 1014 66 16093 4.6 220 03:25 16.11.2019
4300 Clouds 28 1014 66 16093 4.6 220 03:25 16.11.2019
4301 Clouds 29 1014 66 16093 3.6 230 01:55 16.11.2019
4302 Clouds 29 1014 66 16093 3.6 230 01:21 16.11.2019
4303 Clouds 29 1015 66 16093 4.1 220 00:46 16.11.2019
4304 Clouds 28 1015 66 16093 4.1 220 00:27 16.11.2019
4305 Clouds 28 1016 74 16093 3.1 240 23:40 15.11.2019
4306 Clouds 28 1016 69 16093 2.6 0 23:21 15.11.2019
4307 Clouds 29 1016 66 16093 3.1 190 22:57 15.11.2019
4308 Clouds 29 1016 66 16093 3.1 190 22:38 15.11.2019
4309 Clouds 29 1016 66 16093 3.1 190 22:18 15.11.2019
4310 Clouds 28 1016 69 16093 3.1 190 21:42 15.11.2019
4311 Clouds 27 1016 69 16093 3.1 190 21:21 15.11.2019
4312 Clouds 27 1016 74 16093 1.5 0 20:59 15.11.2019
4313 Clouds 27 1016 74 16093 1.5 0 20:40 15.11.2019
4314 Clouds 26 1016 74 16093 1.5 0 20:22 15.11.2019
4315 Clouds 26 1016 74 16093 1.5 0 20:22 15.11.2019
4316 Clouds 25 1015 74 16093 0.97 184 19:59 15.11.2019
4317 Clouds 25 1015 74 16093 0.97 184 19:59 15.11.2019
4318 Clouds 25 1015 74 16093 0.97 184 19:41 15.11.2019
4319 Clouds 25 1015 74 16093 0.97 184 19:21 15.11.2019
4320 Clouds 23 1015 83 16093 2.1 340 18:59 15.11.2019
4321 Clouds 23 1015 83 16093 2.1 340 18:41 15.11.2019
4322 Clouds 23 1015 83 16093 2.1 340 18:41 15.11.2019
4323 Clouds 22 1015 83 16093 2.1 340 18:22 15.11.2019
4324 Clouds 22 1015 83 16093 1.5 350 17:54 15.11.2019
4325 Clouds 21 1015 83 16093 1.5 350 17:36 15.11.2019
4326 Clouds 22 1015 83 16093 1.5 350 17:18 15.11.2019
4327 Clear 22 1014 83 16093 0.68 185 16:39 15.11.2019
4328 Clear 22 1014 83 16093 0.68 185 16:20 15.11.2019
4329 Clear 22 1014 83 16093 0.68 185 15:39 15.11.2019
4330 Clear 22 1014 83 16093 0.68 185 15:39 15.11.2019
4331 Clear 22 1014 83 16093 0.68 185 15:21 15.11.2019
4332 Clear 22 1014 88 16093 1.5 340 14:58 15.11.2019
4333 Clear 23 1014 88 16093 1.5 340 14:40 15.11.2019
4334 Clear 22 1014 88 16093 1.5 340 14:21 15.11.2019
4335 Clouds 23 1015 78 16093 2.1 340 13:59 15.11.2019
4336 Clouds 23 1015 78 16093 2.1 340 13:40 15.11.2019
4337 Clouds 23 1015 78 16093 2.1 340 13:21 15.11.2019
4338 Clouds 22 1015 83 16093 1.01 197 12:59 15.11.2019
4339 Clouds 22 1015 83 16093 1.01 197 12:41 15.11.2019
4340 Clouds 22 1015 83 16093 1.01 197 12:41 15.11.2019
4341 Clouds 22 1015 83 16093 1.01 197 12:21 15.11.2019
4342 Clouds 24 1015 78 16093 1.01 197 11:59 15.11.2019
4343 Clouds 24 1015 78 16093 1.01 197 11:39 15.11.2019
4344 Clouds 24 1015 78 16093 1.24 195 11:21 15.11.2019
4345 Clouds 23 1015 78 16093 1.5 340 10:57 15.11.2019
4346 Clouds 23 1015 78 16093 1.5 340 10:39 15.11.2019
4347 Clouds 23 1015 78 16093 1.5 340 10:18 15.11.2019
4348 Clouds 23 1015 78 16093 2.1 40 09:41 15.11.2019
4349 Clouds 23 1015 78 16093 2.1 40 09:20 15.11.2019
4350 Clouds 24 1015 69 16093 1.24 195 08:45 15.11.2019
4351 Clouds 24 1015 69 16093 1 220 08:23 15.11.2019
4352 Clouds 25 1015 69 16093 1.5 130 07:49 15.11.2019
4353 Clouds 25 1015 69 16093 1.5 130 07:28 15.11.2019
4354 Clouds 26 1014 69 16093 2.1 140 06:52 15.11.2019
4355 Clouds 26 1014 69 16093 2.1 140 06:32 15.11.2019
4356 Clouds 25 1013 69 16093 3.1 150 05:49 15.11.2019
4357 Clouds 26 1013 69 16093 3.1 150 05:27 15.11.2019
4358 Clouds 27 1012 62 16093 5.1 150 03:58 15.11.2019
4359 Clouds 27 1012 62 16093 5.1 150 03:25 15.11.2019
4360 Clouds 28 1012 62 16093 5.7 150 02:21 15.11.2019
4361 Clouds 28 1012 58 16093 6.2 140 01:33 15.11.2019
4362 Clouds 28 1012 58 16093 6.2 140 01:33 15.11.2019
4363 Clouds 28 1013 69 16093 3.6 140 00:54 15.11.2019
4364 Clouds 29 1013 69 16093 3.1 120 00:33 15.11.2019
4365 Clouds 29 1014 62 16093 6.7 150 23:55 14.11.2019
4366 Clouds 29 1014 62 16093 6.7 150 23:29 14.11.2019
4367 Clouds 29 1015 62 16093 5.7 150 22:59 14.11.2019
4368 Clouds 29 1015 62 16093 5.7 150 22:39 14.11.2019
4369 Clouds 29 1015 62 16093 5.7 150 22:21 14.11.2019
4370 Clouds 28 1016 58 16093 3.1 120 21:55 14.11.2019
4371 Clouds 28 1016 58 16093 3.1 120 21:55 14.11.2019
4372 Clouds 28 1016 58 16093 3.1 120 21:37 14.11.2019
4373 Clouds 28 1016 58 16093 3.1 120 21:19 14.11.2019
4374 Clouds 27 1016 69 16093 1.7 104 20:42 14.11.2019
4375 Clouds 26 1016 69 16093 1.03 97 20:23 14.11.2019
4376 Clouds 25 1015 78 16093 2.1 330 19:59 14.11.2019
4377 Clouds 24 1015 78 16093 2.1 330 19:40 14.11.2019
4378 Clouds 24 1015 78 16093 2.1 330 19:18 14.11.2019
4379 Clouds 24 1015 78 16093 2.1 330 19:18 14.11.2019
4380 Clouds 24 1015 78 16093 2.1 330 19:18 14.11.2019
4381 Clouds 22 1015 83 16093 1.5 350 18:55 14.11.2019
4382 Clouds 22 1015 83 16093 1.5 350 18:37 14.11.2019
4383 Clouds 21 1015 83 16093 1.5 350 18:18 14.11.2019
4384 Clouds 22 1015 83 16093 1.5 350 17:39 14.11.2019
4385 Clouds 22 1015 83 16093 1.5 310 17:20 14.11.2019
4386 Clouds 22 1015 83 16093 1.5 310 16:58 14.11.2019
4387 Clouds 22 1015 83 16093 1.5 310 16:39 14.11.2019
4388 Clouds 22 1015 83 16093 1.5 310 16:21 14.11.2019
4389 Clouds 22 1015 78 16093 0.9 89 15:59 14.11.2019
4390 Clouds 22 1015 78 16093 0.9 89 15:41 14.11.2019
4391 Clouds 23 1015 78 16093 0.9 89 15:22 14.11.2019
4392 Clouds 22 1015 83 16093 1.5 350 14:58 14.11.2019
4393 Clouds 22 1015 83 16093 1.5 350 14:58 14.11.2019
4394 Clouds 22 1015 83 16093 1.5 350 14:40 14.11.2019
4395 Clouds 22 1015 83 16093 1.5 350 14:40 14.11.2019
4396 Clouds 22 1015 83 16093 1.5 350 14:40 14.11.2019
4397 Clouds 22 1015 83 16093 1.5 350 14:22 14.11.2019
4398 Clouds 23 1016 78 16093 0.89 108 13:55 14.11.2019
4399 Clouds 23 1016 78 16093 0.89 108 13:36 14.11.2019
4400 Clouds 23 1016 78 16093 0.51 106 13:18 14.11.2019
4401 Clouds 23 1016 78 16093 2.6 320 12:44 14.11.2019
4402 Clouds 23 1016 78 16093 2.6 320 12:24 14.11.2019
4403 Clouds 23 1016 78 16093 2.1 0 11:56 14.11.2019
4404 Clouds 23 1016 78 16093 2.1 0 11:38 14.11.2019
4405 Clouds 23 1016 78 16093 2.1 0 11:19 14.11.2019
4406 Clouds 24 1017 73 16093 1.5 340 10:57 14.11.2019
4407 Clouds 24 1017 73 16093 1.5 340 10:37 14.11.2019
4408 Clouds 24 1017 73 16093 1.5 340 10:19 14.11.2019
4409 Clear 24 1014 77 0 0.98 90 09:42 14.11.2019
4410 Clear 24 1014 77 0 0.98 90 09:42 14.11.2019
4411 Clouds 24 1016 69 16093 2.6 60 09:24 14.11.2019
4412 Clouds 24 1016 69 16093 2.6 60 08:59 14.11.2019
4413 -273 0 0 0 0 0 08:40 14.11.2019
4414 Clouds 24 1016 69 16093 2.6 60 08:22 14.11.2019
4415 Clouds 25 1015 65 16093 2.1 90 07:42 14.11.2019
4416 Clouds 25 1015 65 16093 2.1 90 07:24 14.11.2019
4417 Clouds 25 1015 65 16093 2.1 90 07:23 14.11.2019
4418 Clouds 26 1015 65 16093 2.6 40 06:46 14.11.2019
4419 Clouds 26 1015 65 16093 2.6 40 06:20 14.11.2019
4420 Clouds 27 1014 58 16093 3.6 40 05:27 14.11.2019
4421 Clouds 25 1014 65 0 1.17 126 04:35 14.11.2019
4422 Clouds 29 1012 45 16093 4.1 60 02:51 14.11.2019
4423 Clouds 29 1012 45 16093 4.1 60 02:29 14.11.2019
4424 Clouds 30 1013 45 16093 5.7 150 01:40 14.11.2019
4425 Clouds 29 1014 48 16093 4.6 150 00:56 14.11.2019
4426 Clouds 29 1014 48 16093 4.6 150 00:36 14.11.2019
4427 Clouds 29 1014 48 16093 4.6 150 00:18 14.11.2019
4428 Clouds 29 1015 51 16093 4.6 160 23:38 13.11.2019
4429 Clouds 29 1015 51 16093 4.6 160 23:38 13.11.2019
4430 Clouds 29 1015 51 16093 4.6 160 23:19 13.11.2019
4431 Clouds 28 1016 54 16093 4.6 160 22:42 13.11.2019
4432 Clouds 28 1016 54 16093 4.6 160 22:23 13.11.2019
4433 Clouds 27 1016 58 16093 2.6 170 21:57 13.11.2019
4434 Clouds 27 1016 58 16093 2.6 170 21:39 13.11.2019
4435 Clouds 27 1016 58 16093 2.6 170 21:20 13.11.2019
4436 Clouds 27 1016 61 16093 1.59 81 20:58 13.11.2019
4437 Clouds 27 1016 61 16093 1.59 81 20:38 13.11.2019
4438 Clouds 26 1016 61 16093 1.42 63 20:19 13.11.2019
4439 Clouds 25 1016 73 16093 1.5 330 19:59 13.11.2019
4440 Clouds 24 1016 73 16093 1.5 330 19:40 13.11.2019
4441 Clouds 24 1016 73 16093 1.5 330 19:18 13.11.2019
4442 Clouds 23 1016 83 16093 1.5 330 18:55 13.11.2019
4443 Clouds 22 1016 83 16093 1.5 330 18:37 13.11.2019
4444 Clouds 22 1016 83 16093 1.5 330 18:37 13.11.2019
4445 Clouds 22 1016 83 16093 1.5 330 18:18 13.11.2019
4446 Clouds 22 1015 83 16093 1.5 330 17:56 13.11.2019
4447 Clouds 22 1015 83 16093 1.5 330 17:36 13.11.2019
4448 Clouds 22 1015 83 16093 1.5 330 17:18 13.11.2019
4449 Clear 21 1015 83 16093 2.1 0 16:56 13.11.2019
4450 Clear 21 1015 83 16093 2.1 0 16:37 13.11.2019
4451 Clear 22 1015 83 16093 2.1 0 16:18 13.11.2019
4452 Clouds 22 1015 78 16093 1.5 340 15:55 13.11.2019
4453 Clouds 22 1015 78 16093 1.5 340 15:36 13.11.2019
4454 Clouds 22 1015 78 16093 1.5 340 15:18 13.11.2019
4455 Clouds 22 1015 83 16093 1.5 340 14:39 13.11.2019
4456 Clouds 22 1015 83 16093 1.5 340 14:20 13.11.2019
4457 Clouds 22 1015 78 16093 1.44 81 13:38 13.11.2019
4458 Clouds 23 1015 78 16093 1.27 86 13:19 13.11.2019
4459 Clouds 23 1016 78 16093 2.6 310 12:58 13.11.2019
4460 Clouds 23 1016 78 16093 2.6 310 12:40 13.11.2019
4461 Clouds 24 1016 78 16093 2.6 310 12:21 13.11.2019
4462 Clouds 24 1016 73 16093 1.5 330 11:55 13.11.2019
4463 Clouds 23 1016 73 16093 1.5 330 11:36 13.11.2019
4464 Clouds 24 1016 73 16093 1.5 330 11:18 13.11.2019
4465 Clouds 24 1016 69 16093 2.1 330 10:54 13.11.2019
4466 Clouds 24 1016 69 16093 2.1 330 10:36 13.11.2019
4467 Clouds 24 1016 69 16093 2.1 330 10:18 13.11.2019
4468 Clouds 25 1016 69 16093 3.1 90 09:40 13.11.2019
4469 Clouds 24 1016 69 16093 3.1 90 09:40 13.11.2019
4470 Clouds 25 1016 69 16093 3.1 90 09:20 13.11.2019
4471 Clouds 24 1016 69 16093 3.6 100 08:41 13.11.2019
4472 Clouds 24 1016 69 16093 3.6 100 08:21 13.11.2019
4473 Clouds 25 1016 61 16093 2.6 40 07:43 13.11.2019
4474 Clouds 25 1016 61 16093 2.6 40 07:22 13.11.2019
4475 Clouds 26 1016 78 16093 3.1 80 06:58 13.11.2019
4476 Clouds 26 1015 65 16093 3.6 30 06:36 13.11.2019
4477 Clouds 26 1015 65 16093 3.6 30 06:18 13.11.2019
4478 Clouds 26 1015 78 16093 3.1 70 05:45 13.11.2019
4479 Rain 27 1014 54 16093 4.1 40 04:56 13.11.2019
4480 Clouds 28 1013 48 16093 6.2 130 03:36 13.11.2019
4481 Clouds 29 1013 52 16093 5.7 130 01:48 13.11.2019
4482 Clouds 29 1013 52 16093 5.7 130 01:23 13.11.2019
4483 Clouds 29 1014 55 16093 4.1 160 00:37 13.11.2019
4484 Clouds 29 1015 48 16093 1.5 0 23:54 12.11.2019
4485 Clouds 29 1015 48 16093 1.5 0 23:36 12.11.2019
4486 Clouds 28 1015 65 16093 3.1 50 23:18 12.11.2019
4487 Clouds 28 1016 58 16093 3.1 230 22:40 12.11.2019
4488 Clouds 28 1016 58 16093 3.1 230 22:18 12.11.2019
4489 Clouds 29 1016 54 16093 2.6 60 21:45 12.11.2019
4490 Clouds 28 1016 54 16093 2.6 60 21:26 12.11.2019
4491 Clouds 28 1016 65 16093 1.5 0 20:59 12.11.2019
4492 Clouds 26 1016 65 16093 1.5 0 20:39 12.11.2019
4493 Clouds 26 1016 65 16093 1.5 0 20:19 12.11.2019
4494 Rain 25 1016 74 9656 1.79 66 19:58 12.11.2019
4495 Rain 25 1016 74 9656 1.79 66 19:40 12.11.2019
4496 Clouds 24 1016 73 16093 2.6 340 19:20 12.11.2019
4497 Clouds 23 1016 83 16093 1.5 0 18:59 12.11.2019
4498 Clouds 22 1016 83 16093 1.5 0 18:41 12.11.2019
4499 Clouds 22 1016 83 16093 1.5 0 18:23 12.11.2019
4500 Clouds 22 1015 83 16093 2.6 340 17:58 12.11.2019
4501 Clouds 22 1015 83 16093 2.6 340 17:58 12.11.2019
4502 Clouds 22 1015 83 16093 2.6 340 17:40 12.11.2019
4503 Clouds 22 1015 83 16093 2.6 340 17:21 12.11.2019
4504 Clouds 22 1015 83 16093 1.27 76 16:59 12.11.2019
4505 Clouds 22 1015 83 16093 1.27 76 16:39 12.11.2019
4506 Clouds 22 1015 83 16093 1.27 76 16:21 12.11.2019
4507 Clouds 22 1015 83 16093 1.5 320 15:42 12.11.2019
4508 Clouds 22 1015 83 16093 1.5 320 15:42 12.11.2019
4509 Clouds 22 1015 83 16093 1.5 320 15:22 12.11.2019
4510 Clouds 23 1015 83 16093 2.6 340 14:57 12.11.2019
4511 Clouds 22 1015 83 16093 2.6 340 14:38 12.11.2019
4512 Clouds 23 1015 83 16093 2.6 340 14:19 12.11.2019
4513 Clouds 23 1016 83 16093 2.1 340 13:56 12.11.2019
4514 Clouds 22 1016 83 16093 2.1 340 13:37 12.11.2019
4515 Clouds 22 1016 83 16093 2.1 340 13:19 12.11.2019
4516 Clouds 22 1016 83 16093 2.1 330 12:43 12.11.2019
4517 Clouds 23 1016 83 16093 2.1 330 12:20 12.11.2019
4518 Clouds 23 1016 88 16093 1.13 90 11:59 12.11.2019
4519 Clouds 23 1016 88 16093 1.13 90 11:40 12.11.2019
4520 Clouds 23 1016 88 16093 1.44 62 11:22 12.11.2019
4521 Clouds 23 1016 88 16093 1.42 65 11:22 12.11.2019
4522 Clouds 23 1016 74 16093 1.5 120 10:56 12.11.2019
4523 Clouds 23 1016 74 16093 1.5 120 10:37 12.11.2019
4524 Clouds 23 1016 74 16093 1.5 120 10:19 12.11.2019
4525 Clouds 24 1017 83 16093 2.1 10 09:42 12.11.2019
4526 Clouds 24 1017 83 16093 2.1 10 09:21 12.11.2019
4527 Clear 24 1016 69 16093 2.1 70 08:52 12.11.2019
4528 Clouds 24 1016 65 16093 2.6 70 08:30 12.11.2019
4529 Clouds 24 1016 65 16093 2.6 70 07:55 12.11.2019
4530 Clouds 24 1016 74 16093 1.62 75 07:36 12.11.2019
4531 Clouds 25 1016 74 16093 1.62 75 07:18 12.11.2019
4532 Clouds 25 1016 78 16093 1.5 350 06:39 12.11.2019
4533 Clouds 25 1016 78 16093 1.5 350 06:21 12.11.2019
4534 Clouds 25 1015 83 16093 2.1 0 05:45 12.11.2019
4535 Rain 25 1015 78 16093 4.6 330 04:42 12.11.2019
4536 Clouds 28 1014 62 16093 5.7 280 03:30 12.11.2019
4537 Drizzle 28 1014 69 16093 3.6 130 01:42 12.11.2019
4538 Rain 28 1014 51 16093 3.1 40 01:20 12.11.2019
4539 Clouds 28 1015 65 16093 4.1 50 00:46 12.11.2019
4540 Clouds 28 1015 65 16093 4.1 50 00:22 12.11.2019
4541 Clouds 28 1015 69 16093 3.6 50 23:43 11.11.2019
4542 Clouds 29 1015 48 16093 2.6 60 23:21 11.11.2019
4543 Clouds 29 1016 54 16093 4.1 20 22:40 11.11.2019
4544 Clouds 29 1016 54 16093 4.1 20 22:20 11.11.2019
4545 Clouds 29 1017 58 16093 3.1 50 21:59 11.11.2019
4546 Clouds 28 1017 58 16093 3.1 50 21:59 11.11.2019
4547 Clouds 28 1017 58 16093 3.1 50 21:40 11.11.2019
4548 Clouds 28 1017 58 16093 3.1 50 21:21 11.11.2019
4549 Clouds 27 1017 69 16093 3.6 70 20:59 11.11.2019
4550 Clouds 26 1017 69 16093 3.6 70 20:41 11.11.2019
4551 Clouds 26 1017 65 16093 1.5 0 20:20 11.11.2019
4552 Clouds 24 1016 78 16093 2.1 320 19:56 11.11.2019
4553 Clouds 24 1016 78 16093 2.1 320 19:37 11.11.2019
4554 Clouds 24 1016 78 16093 2.1 320 19:18 11.11.2019
4555 Clouds 23 1016 83 16093 2.1 330 18:41 11.11.2019
4556 Clouds 23 1016 83 16093 2.1 330 18:21 11.11.2019
4557 Clouds 23 1016 83 16093 1.79 73 17:46 11.11.2019
4558 Clouds 23 1016 83 16093 1.79 73 17:28 11.11.2019
4559 Clouds 23 1015 83 16093 2.1 330 16:59 11.11.2019
4560 Clouds 23 1015 83 16093 2.1 330 16:39 11.11.2019
4561 Clouds 23 1015 83 16093 2.1 330 16:20 11.11.2019
4562 Clouds 23 1015 88 16093 1.34 62 15:42 11.11.2019
4563 Clouds 22 1015 78 16093 2.1 330 15:20 11.11.2019
4564 Clouds 22 1015 88 16093 1.34 62 14:57 11.11.2019
4565 Clouds 22 1015 88 16093 1.34 62 14:39 11.11.2019
4566 Clouds 22 1015 78 16093 1.25 78 14:21 11.11.2019
4567 Clouds 23 1015 78 16093 2.1 240 13:56 11.11.2019
4568 Clouds 23 1015 78 16093 2.1 240 13:56 11.11.2019
4569 Clouds 23 1015 78 16093 2.1 240 13:36 11.11.2019
4570 Clouds 23 1015 78 16093 2.1 240 13:36 11.11.2019
4571 Clouds 23 1016 78 16093 2.1 320 13:18 11.11.2019
4572 Clouds 22 1015 78 16093 2.6 340 12:55 11.11.2019
4573 Clouds 22 1015 78 16093 2.6 340 12:37 11.11.2019
4574 Clouds 22 1015 78 16093 2.6 340 12:19 11.11.2019
4575 Clouds 23 1016 73 16093 1.5 320 11:41 11.11.2019
4576 Clouds 23 1016 73 16093 1.5 320 11:21 11.11.2019
4577 Clouds 23 1017 69 16093 1.5 330 10:44 11.11.2019
4578 Clouds 23 1017 69 16093 1.5 330 10:19 11.11.2019
4579 Clouds 24 1016 65 16093 2.1 0 09:58 11.11.2019
4580 Clouds 24 1016 65 16093 2.1 0 09:40 11.11.2019
4581 Clouds 24 1016 65 16093 2.1 0 09:19 11.11.2019
4582 Clouds 24 1016 83 16093 1.44 89 08:41 11.11.2019
4583 Clouds 24 1016 61 16093 1.18 33 08:22 11.11.2019
4584 Clouds 25 1015 78 16093 1.18 33 07:57 11.11.2019
4585 Clouds 25 1015 78 16093 1.18 33 07:37 11.11.2019
4586 Clouds 25 1015 78 16093 1.18 33 07:37 11.11.2019
4587 Clouds 24 1015 65 16093 2.6 20 07:19 11.11.2019
4588 Clouds 25 1015 61 16093 2.6 10 06:49 11.11.2019
4589 Clouds 26 1015 61 16093 2.6 10 06:24 11.11.2019
4590 Clouds 26 1014 58 16093 3.1 30 05:51 11.11.2019
4591 Clouds 27 1014 54 16093 3.1 40 04:43 11.11.2019
4592 Clouds 28 1014 58 16093 3.6 30 03:25 11.11.2019
4593 Rain 28 1013 62 16093 4.6 150 02:30 11.11.2019
4594 Clouds 29 1014 48 16093 5.7 130 01:56 11.11.2019
4595 Clouds 28 1014 48 16093 5.7 130 01:35 11.11.2019
4596 Drizzle 28 1015 65 16093 5.1 310 00:50 11.11.2019
4597 Clouds 29 1014 55 16093 5.1 140 00:26 11.11.2019
4598 Clouds 29 1015 58 16093 5.1 160 23:40 10.11.2019
4599 Clouds 29 1015 58 16093 5.1 160 23:20 10.11.2019
4600 Clouds 29 1016 62 16093 2.6 170 22:58 10.11.2019
4601 Clouds 28 1016 62 16093 2.6 170 22:39 10.11.2019
4602 Clouds 29 1016 62 16093 2.6 170 22:21 10.11.2019
4603 Clouds 28 1016 58 16093 2.6 160 21:59 10.11.2019
4604 Clouds 28 1016 58 16093 2.6 160 21:40 10.11.2019
4605 Clouds 28 1016 58 16093 2.6 160 21:21 10.11.2019
4606 Clouds 27 1016 61 16093 1.5 0 20:58 10.11.2019
4607 Clouds 27 1016 61 16093 1.5 0 20:38 10.11.2019
4608 Clouds 27 1016 61 16093 1.5 0 20:20 10.11.2019
4609 Clouds 27 1016 61 16093 1.5 0 20:20 10.11.2019
4610 Clouds 25 1015 73 16093 2.6 330 19:55 10.11.2019
4611 Clouds 25 1015 73 16093 2.6 330 19:37 10.11.2019
4612 Clouds 24 1015 73 16093 2.6 330 19:18 10.11.2019
4613 Clouds 23 1015 83 16093 1.5 320 18:54 10.11.2019
4614 Clouds 22 1015 83 16093 1.5 320 18:36 10.11.2019
4615 Clouds 22 1015 83 16093 1.5 320 18:36 10.11.2019
4616 Clouds 22 1015 83 16093 1.5 320 18:18 10.11.2019
4617 Clouds 22 1015 83 16093 1.5 320 18:18 10.11.2019
4618 Clouds 21 1014 78 16093 3.1 330 17:55 10.11.2019
4619 Clouds 21 1014 78 16093 3.1 330 17:36 10.11.2019
4620 Clouds 22 1014 78 16093 3.1 330 17:18 10.11.2019
4621 Clouds 21 1014 83 16093 2.1 340 16:43 10.11.2019
4622 Clouds 22 1014 83 16093 2.1 340 16:25 10.11.2019
4623 Clouds 22 1014 83 16093 2.1 330 15:56 10.11.2019
4624 Clouds 22 1014 83 16093 2.1 330 15:37 10.11.2019
4625 Clouds 22 1014 83 16093 2.1 330 15:37 10.11.2019
4626 Clouds 22 1014 83 16093 2.1 330 15:18 10.11.2019
4627 Clouds 22 1013 94 16093 1.38 83 14:56 10.11.2019
4628 Clouds 22 1013 94 16093 1.38 83 14:38 10.11.2019
4629 Clouds 22 1014 78 16093 1.5 340 14:20 10.11.2019
4630 Clouds 22 1014 78 16093 2.1 320 13:45 10.11.2019
4631 Clouds 22 1014 78 16093 2.1 320 13:22 10.11.2019
4632 Clouds 22 1015 78 16093 2.1 330 13:00 10.11.2019
4633 Clouds 22 1015 78 16093 2.1 330 12:41 10.11.2019
4634 Clouds 22 1015 78 16093 2.1 330 12:19 10.11.2019
4635 Clouds 22 1015 73 16093 1.27 81 11:55 10.11.2019
4636 Clouds 22 1015 73 16093 1.27 81 11:37 10.11.2019
4637 Clouds 23 1015 73 16093 1.51 79 11:18 10.11.2019
4638 Clouds 24 1015 69 16093 1.5 360 10:42 10.11.2019
4639 Clouds 24 1015 69 16093 1.5 360 10:21 10.11.2019
4640 Clouds 23 1015 69 16093 1.51 79 09:55 10.11.2019
4641 Clouds 23 1015 69 16093 1.51 79 09:37 10.11.2019
4642 Clouds 24 1015 69 16093 1.51 79 09:18 10.11.2019
4643 Clouds 24 1014 65 16093 1.5 20 08:39 10.11.2019
4644 Clouds 24 1014 65 16093 1.5 20 08:39 10.11.2019
4645 Clouds 24 1014 65 16093 1.5 20 08:20 10.11.2019
4646 Clouds 25 1014 65 16093 2.1 10 07:44 10.11.2019
4647 Clouds 25 1014 65 16093 2.1 10 07:25 10.11.2019
4648 Clouds 24 1013 61 16093 0.55 151 06:38 10.11.2019
4649 Clouds 24 1013 61 16093 0.55 151 06:38 10.11.2019
4650 Clouds 25 1012 54 16093 2.1 140 05:44 10.11.2019
4651 Clouds 26 1012 48 16093 3.6 200 03:26 10.11.2019
4652 Clouds 27 1012 45 16093 3.6 200 02:18 10.11.2019
4653 Clouds 28 1011 48 16093 3.1 180 01:19 10.11.2019
4654 Clouds 28 1011 48 16093 4.6 150 00:42 10.11.2019
4655 Clouds 28 1012 48 16093 2.6 210 23:58 09.11.2019
4656 Clouds 28 1012 48 16093 2.6 210 23:38 09.11.2019
4657 Clouds 28 1012 48 16093 2.6 210 23:18 09.11.2019
4658 Clouds 27 1013 54 16093 0.34 41 22:41 09.11.2019
4659 Clouds 27 1013 54 16093 0.34 41 22:21 09.11.2019
4660 Clouds 27 1014 57 16093 4.1 350 21:56 09.11.2019
4661 Clouds 26 1014 57 16093 4.1 350 21:38 09.11.2019
4662 Clouds 25 1014 57 16093 4.1 350 21:20 09.11.2019
4663 Clouds 25 1013 65 16093 0.34 41 20:43 09.11.2019
4664 Clouds 25 1013 65 16093 0.47 14 20:22 09.11.2019
4665 Clouds 24 1013 73 16093 2.6 320 19:58 09.11.2019
4666 Clouds 23 1013 73 16093 2.6 320 19:40 09.11.2019
4667 Clouds 24 1013 73 16093 2.6 320 19:21 09.11.2019
4668 Clouds 23 1012 73 16093 1.5 320 18:56 09.11.2019
4669 Clouds 22 1012 73 16093 1.5 320 18:38 09.11.2019
4670 Clouds 21 1012 73 16093 1.5 320 18:18 09.11.2019
4671 Clouds 20 1011 73 16093 1.5 290 17:41 09.11.2019
4672 Clouds 21 1011 73 16093 1.5 290 17:22 09.11.2019
4673 Clouds 20 1011 68 16093 2.6 290 16:55 09.11.2019
4674 Clouds 20 1011 68 16093 2.6 290 16:36 09.11.2019
4675 Clouds 20 1011 68 16093 2.6 290 16:18 09.11.2019
4676 Clouds 20 1011 68 16093 0.28 24 15:41 09.11.2019
4677 Clouds 20 1011 68 16093 0.28 24 15:23 09.11.2019
4678 Clouds 20 1011 77 16093 1.5 320 14:45 09.11.2019
4679 Clouds 20 1011 77 16093 1.5 320 14:22 09.11.2019
4680 Clouds 21 1011 77 16093 2.1 320 13:58 09.11.2019
4681 Clouds 21 1011 77 16093 2.1 320 13:39 09.11.2019
4682 Clouds 21 1011 77 16093 2.1 320 13:21 09.11.2019
4683 Clouds 20 1011 78 16093 1.5 320 12:56 09.11.2019
4684 Clouds 20 1011 78 16093 1.5 320 12:56 09.11.2019
4685 Clouds 20 1011 78 16093 1.5 320 12:38 09.11.2019
4686 Clouds 21 1011 78 16093 1.5 320 12:20 09.11.2019
4687 Clouds 21 1011 94 16093 0.26 31 11:47 09.11.2019
4688 Clouds 22 1011 94 16093 1.06 325 11:21 09.11.2019
4689 Clouds 22 1012 73 16093 1.5 340 10:56 09.11.2019
4690 Clouds 22 1012 73 16093 1.5 340 10:38 09.11.2019
4691 Clouds 22 1012 73 16093 1.5 340 10:18 09.11.2019
4692 Clouds 22 1012 78 16093 2.1 330 09:42 09.11.2019
4693 Clouds 22 1012 78 16093 2.1 330 09:20 09.11.2019
4694 Clouds 22 1012 78 16093 2.6 310 08:52 09.11.2019
4695 Clouds 22 1012 78 16093 2.6 310 08:25 09.11.2019
4696 Clouds 23 1011 69 16093 2.6 250 07:57 09.11.2019
4697 Clouds 23 1011 69 16093 2.6 250 07:38 09.11.2019
4698 Clouds 23 1011 69 16093 2.6 250 07:19 09.11.2019
4699 Clouds 24 1010 83 16093 0.86 8 06:45 09.11.2019
4700 Clouds 24 1010 88 16093 0.86 8 06:27 09.11.2019
4701 Clouds 25 1009 74 16093 1.5 360 05:40 09.11.2019
4702 Clouds 27 1009 51 16093 3.6 230 04:30 09.11.2019
4703 Clouds 27 1009 61 16093 5.1 190 02:52 09.11.2019
4704 Clouds 27 1009 61 16093 5.1 190 02:34 09.11.2019
4705 Clouds 28 1009 62 16093 4.6 220 01:18 09.11.2019
4706 Clouds 28 1010 58 16093 5.1 220 00:40 09.11.2019
4707 Clouds 28 1010 58 16093 5.1 220 00:22 09.11.2019
4708 Clouds 28 1010 74 16093 4.6 20 23:40 08.11.2019
4709 Clouds 27 1011 61 16093 5.1 210 23:22 08.11.2019
4710 Clouds 27 1012 54 16093 3.6 220 22:58 08.11.2019
4711 Clouds 27 1012 54 16093 3.6 220 22:38 08.11.2019
4712 Clouds 28 1012 54 16093 3.6 220 22:20 08.11.2019
4713 Clouds 28 1013 74 16093 1.29 70 21:42 08.11.2019
4714 Clouds 27 1012 58 16093 2.1 160 21:23 08.11.2019
4715 Clouds 27 1012 58 16093 2.1 160 21:23 08.11.2019
4716 Clouds 26 1012 78 16093 1.5 360 20:57 08.11.2019
4717 Clouds 26 1012 78 16093 1.5 360 20:39 08.11.2019
4718 Clouds 26 1012 61 16093 1.07 62 20:19 08.11.2019
4719 Clouds 24 1012 69 16093 1.5 320 19:40 08.11.2019
4720 Clouds 24 1012 69 16093 1.5 320 19:19 08.11.2019
4721 Clouds 23 1011 83 16093 0.94 78 18:57 08.11.2019
4722 Clouds 23 1011 83 16093 0.94 78 18:57 08.11.2019
4723 Clouds 23 1011 73 16093 2.1 10 18:39 08.11.2019
4724 Clouds 23 1011 73 16093 2.1 10 18:39 08.11.2019
4725 Clouds 23 1011 73 16093 2.1 10 18:39 08.11.2019
4726 Clouds 23 1011 73 16093 2.1 10 18:21 08.11.2019
4727 Clouds 22 1011 73 16093 1.5 30 17:57 08.11.2019
4728 Clouds 22 1011 73 16093 1.5 30 17:39 08.11.2019
4729 Clouds 22 1011 73 16093 1.5 30 17:39 08.11.2019
4730 Clouds 22 1011 73 16093 1.5 30 17:20 08.11.2019
4731 Clouds 22 1011 78 16093 1.45 57 16:59 08.11.2019
4732 Clouds 22 1011 78 16093 1.45 57 16:40 08.11.2019
4733 Clouds 22 1011 78 16093 1.45 57 16:21 08.11.2019
4734 Clouds 22 1011 73 16093 1.5 360 15:59 08.11.2019
4735 Clouds 23 1011 73 16093 1.5 360 15:40 08.11.2019
4736 Clouds 23 1011 73 16093 1.5 360 15:22 08.11.2019
4737 Clouds 23 1011 73 16093 1.5 360 15:22 08.11.2019
4738 Clouds 23 1011 73 16093 2.1 320 14:56 08.11.2019
4739 Clouds 23 1011 73 16093 2.1 320 14:37 08.11.2019
4740 Clouds 23 1011 73 16093 2.1 320 14:19 08.11.2019
4741 Clouds 23 1011 73 16093 2.6 310 13:58 08.11.2019
4742 Clouds 23 1011 73 16093 2.6 310 13:39 08.11.2019
4743 Clouds 23 1011 73 16093 2.6 310 13:20 08.11.2019
4744 Clouds 23 1012 73 16093 2.6 350 12:44 08.11.2019
4745 Clouds 23 1012 73 16093 2.6 350 12:26 08.11.2019
4746 Clouds 23 1013 69 16093 2.6 320 11:57 08.11.2019
4747 Clouds 23 1013 69 16093 2.6 320 11:39 08.11.2019
4748 Clouds 24 1013 69 16093 2.6 320 11:20 08.11.2019
4749 Clouds 24 1013 69 16093 2.6 320 11:20 08.11.2019
4750 Clouds 24 1013 69 16093 2.6 320 11:20 08.11.2019
4751 Clouds 23 1013 83 16093 3.1 150 10:57 08.11.2019
4752 Clouds 23 1013 83 16093 3.1 150 10:39 08.11.2019
4753 Clouds 23 1013 69 16093 2.1 340 10:20 08.11.2019
4754 Clouds 23 1013 78 16093 1.67 57 09:42 08.11.2019
4755 Clouds 23 1013 69 16093 1.5 350 09:24 08.11.2019
4756 Rain 23 1014 69 16093 2.6 340 08:59 08.11.2019
4757 Rain 23 1014 69 16093 2.6 340 08:38 08.11.2019
4758 Rain 23 1014 69 16093 2.6 340 08:19 08.11.2019
4759 Rain 23 1013 69 16093 2.1 10 07:41 08.11.2019
4760 Rain 24 1013 69 16093 2.1 10 07:22 08.11.2019
4761 Rain 24 1013 65 16093 3.1 350 06:41 08.11.2019
4762 Rain 24 1013 65 16093 3.1 350 06:23 08.11.2019
4763 Rain 24 1012 83 4828 3.6 310 05:55 08.11.2019
4764 Rain 24 1012 83 4828 3.6 310 05:55 08.11.2019
4765 Rain 24 1012 83 4023 5.1 300 05:22 08.11.2019
4766 Clouds 26 1012 74 16093 5.1 340 03:46 08.11.2019
4767 Rain 27 1012 61 16093 5.1 20 03:24 08.11.2019
4768 Clouds 28 1012 74 16093 4.6 20 02:47 08.11.2019
4769 Clouds 27 1012 61 16093 5.7 50 01:48 08.11.2019
4770 Clouds 27 1012 61 16093 5.7 50 01:30 08.11.2019
4771 Clouds 28 1013 58 16093 5.7 60 00:24 08.11.2019
4772 Mist 27 1013 78 6437 3.6 50 23:59 07.11.2019
4773 Mist 27 1013 78 6437 3.6 50 23:59 07.11.2019
4774 Mist 27 1013 78 6437 3.6 50 23:41 07.11.2019
4775 Mist 27 1013 78 6437 3.6 50 23:22 07.11.2019
4776 Clouds 26 1015 58 16093 4.1 10 22:42 07.11.2019
4777 Clouds 27 1015 58 16093 4.1 10 22:22 07.11.2019
4778 Clouds 27 1015 74 16093 5.7 70 21:56 07.11.2019
4779 Clouds 27 1015 74 16093 5.7 70 21:37 07.11.2019
4780 Clouds 27 1015 74 16093 5.7 70 21:19 07.11.2019
4781 Clouds 26 1016 83 12874 4.1 340 20:58 07.11.2019
4782 Clouds 26 1016 83 12874 4.1 340 20:39 07.11.2019
4783 Clouds 26 1015 74 16093 3.6 30 20:21 07.11.2019
4784 Mist 25 1014 74 16093 4.1 50 19:55 07.11.2019
4785 Mist 25 1014 74 16093 4.1 50 19:36 07.11.2019
4786 Mist 25 1014 74 16093 4.1 50 19:18 07.11.2019
4787 Mist 24 1014 74 9656 5.1 40 18:55 07.11.2019
4788 Clouds 24 1014 73 16093 1.5 360 18:37 07.11.2019
4789 Clouds 24 1014 73 16093 1.5 360 18:37 07.11.2019
4790 Clouds 23 1014 73 16093 1.5 360 18:19 07.11.2019
4791 Rain 23 1014 78 16093 5.1 50 17:40 07.11.2019
4792 Clouds 23 1014 83 16093 2.1 360 17:21 07.11.2019
4793 Clouds 23 1014 83 16093 2.1 360 16:58 07.11.2019
4794 Clouds 23 1014 83 16093 2.1 360 16:40 07.11.2019
4795 Clouds 23 1014 83 16093 2.1 360 16:20 07.11.2019
4796 Clouds 24 1014 78 16093 2.6 330 15:58 07.11.2019
4797 Clouds 23 1014 78 16093 2.6 330 15:39 07.11.2019
4798 Clouds 23 1014 78 16093 2.6 330 15:19 07.11.2019
4799 Clouds 23 1014 83 16093 1.5 300 14:45 07.11.2019
4800 Clouds 23 1014 83 16093 1.5 300 14:27 07.11.2019
4801 Clouds 23 1014 83 16093 1.5 300 14:27 07.11.2019
4802 Clouds 24 1015 83 16093 2.1 330 13:57 07.11.2019
4803 Clouds 24 1015 83 16093 2.1 330 13:38 07.11.2019
4804 Clouds 24 1015 83 16093 2.1 330 13:20 07.11.2019
4805 Rain 24 1016 83 16093 2.6 330 12:58 07.11.2019
4806 Rain 24 1016 83 16093 2.6 330 12:40 07.11.2019
4807 Rain 24 1016 83 16093 2.6 330 12:21 07.11.2019
4808 Rain 24 1016 78 16093 4.6 100 11:45 07.11.2019
4809 Rain 24 1016 78 16093 4.6 100 11:24 07.11.2019
4810 Rain 24 1017 100 16093 3.6 310 10:59 07.11.2019
4811 Clouds 24 1016 73 16093 2.6 320 10:40 07.11.2019
4812 Clouds 25 1016 73 16093 2.6 320 10:19 07.11.2019
4813 Clouds 25 1016 69 16093 3.1 320 09:43 07.11.2019
4814 Clouds 25 1016 69 16093 3.1 320 09:22 07.11.2019
4815 Clouds 25 1016 69 16093 5.1 50 08:57 07.11.2019
4816 -273 0 0 0 0 0 08:56 07.11.2019
4817 -273 0 0 0 0 0 08:55 07.11.2019
4818 Clouds 25 1016 69 16093 5.1 50 08:55 07.11.2019
4819 Clouds 25 1016 69 16093 2.46 42 08:37 07.11.2019
4820 Clouds 25 1016 69 16093 2.72 55 08:18 07.11.2019
4821 Clouds 25 1015 69 16093 2.6 40 07:41 07.11.2019
4822 Clouds 25 1015 69 16093 2.6 40 07:21 07.11.2019
4823 Clouds 25 1015 61 16093 3.6 360 06:48 07.11.2019
4824 Clouds 25 1015 61 16093 3.6 360 06:48 07.11.2019
4825 Clouds 25 1015 61 16093 3.6 360 06:28 07.11.2019
4826 Clouds 26 1014 61 16093 5.1 20 05:53 07.11.2019
4827 Clouds 26 1014 61 16093 5.1 20 05:34 07.11.2019
4828 -273 0 0 0 0 0 04:57 07.11.2019
4829 Clouds 27 1014 54 16093 4.6 20 04:38 07.11.2019
4830 Clouds 29 1014 69 16093 6.7 30 01:54 07.11.2019
4831 Clouds 29 1014 69 16093 5.7 30 00:47 07.11.2019
4832 -273 0 0 0 0 0 00:19 07.11.2019
4833 Clouds 28 1015 58 16093 5.7 30 23:47 06.11.2019
4834 Clouds 28 1015 58 16093 5.7 30 23:21 06.11.2019
4835 Rain 27 1016 69 16093 7.2 30 22:56 06.11.2019
4836 Rain 27 1016 69 16093 7.2 30 22:37 06.11.2019
4837 Rain 27 1016 69 16093 7.2 30 22:37 06.11.2019
4838 Clouds 27 1016 69 16093 7.2 30 22:18 06.11.2019
4839 Clouds 27 1017 65 16093 5.1 20 21:42 06.11.2019
4840 Clouds 27 1017 65 16093 5.1 20 21:20 06.11.2019
4841 Clouds 27 1016 65 16093 3.6 10 20:58 06.11.2019
4842 Clouds 26 1016 65 16093 3.6 10 20:40 06.11.2019
4843 Clouds 26 1016 65 16093 3.6 10 20:20 06.11.2019
4844 Clouds 26 1016 74 16093 3.6 10 19:58 06.11.2019
4845 Clouds 26 1016 74 16093 3.6 10 19:38 06.11.2019
4846 Clouds 25 1016 74 16093 3.6 10 19:19 06.11.2019
4847 Clouds 26 1016 74 16093 3.6 10 18:57 06.11.2019
4848 Clouds 25 1015 73 16093 3.6 340 18:38 06.11.2019
4849 Clouds 25 1015 73 16093 3.6 340 18:18 06.11.2019
4850 Clouds 24 1015 73 16093 2.6 340 17:42 06.11.2019
4851 Clouds 24 1015 73 16093 2.6 340 17:24 06.11.2019
4852 Clouds 24 1014 74 16093 4.1 10 16:58 06.11.2019
4853 Clouds 24 1014 74 16093 4.1 10 16:40 06.11.2019
4854 Clouds 24 1014 74 16093 4.1 10 16:21 06.11.2019
4855 Clouds 24 1014 74 16093 4.1 10 16:21 06.11.2019
4856 Clouds 24 1015 78 16093 2.1 340 15:59 06.11.2019
4857 Clouds 24 1015 78 16093 2.1 340 15:38 06.11.2019
4858 Clouds 24 1015 78 16093 2.1 340 15:19 06.11.2019
4859 Clouds 24 1015 78 16093 3.1 320 14:59 06.11.2019
4860 Clouds 24 1015 78 16093 3.1 320 14:41 06.11.2019
4861 Clouds 24 1015 78 16093 3.1 320 14:23 06.11.2019
4862 Clouds 24 1016 83 16093 2.6 360 13:59 06.11.2019
4863 Clouds 24 1016 83 16093 2.6 360 13:38 06.11.2019
4864 Clouds 24 1016 83 16093 2.6 360 13:19 06.11.2019
4865 Clouds 24 1016 73 16093 2.6 320 12:55 06.11.2019
4866 Clouds 24 1016 73 16093 2.6 320 12:37 06.11.2019
4867 Clouds 24 1016 73 16093 2.6 320 12:18 06.11.2019
4868 Clouds 24 1016 73 16093 2.6 320 12:18 06.11.2019
4869 Clouds 24 1016 78 16093 2.6 310 11:57 06.11.2019
4870 Clouds 24 1017 69 16093 2.6 340 11:36 06.11.2019
4871 Clouds 24 1017 69 16093 2.6 340 11:18 06.11.2019
4872 Clouds 24 1017 73 16093 1.5 320 10:55 06.11.2019
4873 Clouds 24 1017 73 16093 1.5 320 10:55 06.11.2019
4874 Clouds 25 1017 73 16093 1.5 320 10:37 06.11.2019
4875 Clouds 25 1017 73 16093 1.5 320 10:18 06.11.2019
4876 Clouds 24 1017 78 16093 1.5 10 09:41 06.11.2019
4877 Clouds 24 1017 78 16093 1.5 10 09:21 06.11.2019
4878 Clouds 25 1016 74 16093 2.1 10 08:56 06.11.2019
4879 Clouds 25 1016 74 16093 2.1 10 08:37 06.11.2019
4880 Clouds 25 1016 74 16093 2.1 10 08:18 06.11.2019
4881 Clouds 25 1015 69 16093 2.6 360 07:45 06.11.2019
4882 Clouds 25 1015 69 16093 2.6 360 07:27 06.11.2019
4883 Clouds 25 1015 65 16093 3.1 340 06:52 06.11.2019
4884 Clouds 25 1015 65 16093 3.1 340 06:34 06.11.2019
4885 Clouds 26 1015 65 16093 4.1 320 05:50 06.11.2019
4886 Clouds 27 1014 74 16093 3.6 240 03:35 06.11.2019
4887 Clouds 28 1014 54 16093 2.6 280 01:42 06.11.2019
4888 Clouds 28 1015 58 16093 2.1 250 00:47 06.11.2019
4889 Clouds 27 1015 65 16093 2.1 350 00:00 06.11.2019
4890 Clouds 27 1015 65 16093 2.1 350 23:40 05.11.2019
4891 Clouds 27 1015 65 16093 2.1 350 23:22 05.11.2019
4892 Clouds 27 1016 74 16093 0.53 76 22:58 05.11.2019
4893 Clouds 26 1016 74 16093 0.53 76 22:40 05.11.2019
4894 Clouds 26 1016 74 16093 0.53 76 22:18 05.11.2019
4895 Clouds 25 1016 74 16093 0.53 76 21:43 05.11.2019
4896 Clouds 25 1016 74 16093 0.53 76 21:22 05.11.2019
4897 Clouds 25 1015 78 16093 1.5 310 20:59 05.11.2019
4898 Clouds 25 1015 78 16093 1.5 310 20:39 05.11.2019
4899 Clouds 24 1015 78 16093 1.5 310 20:21 05.11.2019
4900 Clouds 24 1015 78 16093 1.5 310 19:58 05.11.2019
4901 Clouds 24 1015 78 16093 1.5 310 19:58 05.11.2019
4902 Clouds 24 1015 78 16093 1.5 310 19:38 05.11.2019
4903 Clouds 24 1015 78 16093 1.5 310 19:20 05.11.2019
4904 Clouds 23 1014 78 16093 1.5 310 18:58 05.11.2019
4905 Clouds 23 1014 78 16093 1.5 310 18:39 05.11.2019
4906 Clouds 23 1014 78 16093 1.5 310 18:39 05.11.2019
4907 Clouds 23 1014 78 16093 1.5 310 18:20 05.11.2019
4908 Clouds 23 1013 78 16093 1.01 91 17:58 05.11.2019
4909 Clouds 23 1013 78 16093 1.01 91 17:39 05.11.2019
4910 Clouds 23 1013 78 16093 0.79 62 17:19 05.11.2019
4911 Clear 23 1013 78 16093 2.6 340 16:55 05.11.2019
4912 Clear 23 1013 78 16093 2.6 340 16:37 05.11.2019
4913 Clear 23 1013 78 16093 2.6 340 16:18 05.11.2019
4914 Clear 23 1013 78 16093 2.1 320 15:38 05.11.2019
4915 Clear 23 1013 78 16093 2.1 320 15:19 05.11.2019
4916 Clear 22 1012 78 16093 2.1 330 14:58 05.11.2019
4917 Clear 23 1012 78 16093 2.1 330 14:39 05.11.2019
4918 Clear 23 1012 78 16093 2.1 330 14:21 05.11.2019
4919 Clear 23 1013 78 16093 1.5 340 13:44 05.11.2019
4920 Clear 22 1013 78 16093 1.5 340 13:25 05.11.2019
4921 Clouds 22 1013 73 16093 0.74 76 12:59 05.11.2019
4922 Clouds 23 1013 73 16093 0.74 76 12:39 05.11.2019
4923 Clouds 23 1013 73 16093 0.74 76 12:39 05.11.2019
4924 Clouds 23 1013 73 16093 0.74 76 12:20 05.11.2019
4925 Clouds 23 1014 73 16093 0.74 76 11:55 05.11.2019
4926 Clouds 23 1014 73 16093 0.74 76 11:36 05.11.2019
4927 Clouds 23 1014 73 16093 0.73 107 11:18 05.11.2019
4928 Clouds 23 1014 73 16093 1.5 350 10:42 05.11.2019
4929 Clouds 23 1014 73 16093 1.5 350 10:23 05.11.2019
4930 Clouds 22 1014 73 16093 1.5 350 09:57 05.11.2019
4931 Clouds 22 1014 73 16093 1.5 350 09:38 05.11.2019
4932 Clouds 23 1014 73 16093 1.5 350 09:19 05.11.2019
4933 Clear 23 1014 69 16093 0.73 107 08:40 05.11.2019
4934 Clear 24 1014 69 16093 0.65 168 08:20 05.11.2019
4935 Clear 24 1013 65 16093 2.6 20 07:59 05.11.2019
4936 Clear 24 1013 65 16093 2.6 20 07:59 05.11.2019
4937 Clear 24 1013 65 16093 2.6 20 07:40 05.11.2019
4938 Clear 24 1013 65 16093 2.6 20 07:22 05.11.2019
4939 Clouds 25 1013 61 16093 0.65 168 06:51 05.11.2019
4940 Clouds 26 1012 61 16093 1.5 170 05:51 05.11.2019
4941 Clouds 26 1012 61 16093 1.5 170 05:24 05.11.2019
4942 Clouds 28 1011 54 16093 3.6 160 04:38 05.11.2019
4943 Clouds 29 1011 51 16093 2.6 170 03:56 05.11.2019
4944 Clouds 28 1011 58 16093 3.6 150 02:51 05.11.2019
4945 Clouds 28 1011 58 16093 3.6 150 02:22 05.11.2019
4946 Clouds 29 1012 62 16093 3.1 0 01:25 05.11.2019
4947 Clouds 28 1012 65 16093 5.1 160 00:37 05.11.2019
4948 Clouds 28 1013 74 16093 3.1 180 23:56 04.11.2019
4949 Clouds 28 1013 74 16093 3.1 180 23:37 04.11.2019
4950 Clouds 28 1013 65 16093 4.6 160 23:18 04.11.2019
4951 Clouds 28 1013 65 16093 4.6 160 23:18 04.11.2019
4952 Clouds 28 1014 65 16093 4.6 150 22:42 04.11.2019
4953 Clouds 28 1014 65 16093 4.6 150 22:23 04.11.2019
4954 Clouds 28 1014 65 16093 3.1 140 21:56 04.11.2019
4955 Clouds 28 1014 65 16093 3.1 140 21:56 04.11.2019
4956 Clouds 28 1014 65 16093 3.1 140 21:56 04.11.2019
4957 Clouds 28 1014 65 16093 3.1 140 21:56 04.11.2019
4958 Clouds 28 1014 78 16093 2.1 150 21:38 04.11.2019
4959 Clouds 28 1014 65 16093 3.1 140 21:19 04.11.2019
4960 Clouds 27 1014 74 16093 2.1 100 20:58 04.11.2019
4961 Clouds 27 1014 74 16093 2.1 100 20:39 04.11.2019
4962 Clouds 26 1014 74 16093 2.1 100 20:21 04.11.2019
4963 Clouds 26 1013 83 16093 1.82 167 19:59 04.11.2019
4964 Clouds 25 1013 83 16093 1.82 167 19:40 04.11.2019
4965 Clouds 25 1013 83 16093 1.82 167 19:21 04.11.2019
4966 Clouds 23 1012 94 16093 1.5 330 18:57 04.11.2019
4967 Clouds 23 1012 94 16093 1.5 330 18:38 04.11.2019
4968 Clouds 23 1012 94 16093 1.5 330 18:19 04.11.2019
4969 Clouds 22 1012 94 16093 1.82 167 17:39 04.11.2019
4970 Clouds 22 1012 94 16093 1.82 167 17:39 04.11.2019
4971 Clouds 22 1012 94 16093 0.96 151 17:21 04.11.2019
4972 Rain 22 1011 88 16093 2.1 20 16:57 04.11.2019
4973 Rain 22 1011 88 16093 2.1 20 16:57 04.11.2019
4974 Rain 22 1011 88 16093 2.1 20 16:39 04.11.2019
4975 Rain 22 1011 88 16093 2.1 20 16:20 04.11.2019
4976 Rain 22 1011 88 16093 2.1 20 16:20 04.11.2019
4977 Rain 23 1010 94 16093 2.1 210 15:54 04.11.2019
4978 Rain 23 1012 94 16093 2.1 50 15:36 04.11.2019
4979 Clouds 23 1012 94 16093 2.1 50 15:18 04.11.2019
4980 Rain 23 1010 88 16093 1.5 270 14:41 04.11.2019
4981 Rain 23 1012 94 16093 2.1 0 14:21 04.11.2019
4982 Rain 23 1011 88 16093 2.1 40 13:58 04.11.2019
4983 Rain 23 1011 88 16093 2.1 40 13:40 04.11.2019
4984 Rain 23 1012 88 14484 2.1 300 13:21 04.11.2019
4985 Rain 23 1012 88 14484 2.1 300 13:21 04.11.2019
4986 Rain 23 1012 100 16093 0.76 115 12:58 04.11.2019
4987 Rain 24 1012 88 11265 1.5 30 12:39 04.11.2019
4988 Rain 24 1012 88 11265 1.5 30 12:21 04.11.2019
4989 Rain 24 1011 88 16093 2.1 290 11:55 04.11.2019
4990 Rain 24 1011 88 16093 2.1 290 11:37 04.11.2019
4991 Rain 24 1011 88 16093 2.1 290 11:19 04.11.2019
4992 Rain 24 1012 83 12874 1.09 97 10:42 04.11.2019
4993 Rain 24 1012 83 12874 1.09 97 10:24 04.11.2019
4994 Clouds 24 1013 100 16093 1.09 97 09:46 04.11.2019
4995 Rain 24 1012 83 16093 4.1 290 09:28 04.11.2019
4996 Drizzle 24 1013 100 16093 1.09 97 08:59 04.11.2019
4997 Drizzle 24 1013 100 16093 1.09 97 08:38 04.11.2019
4998 Clouds 24 1012 74 16093 2.1 30 08:20 04.11.2019
4999 Clouds 24 1012 69 16093 0.57 97 07:44 04.11.2019
5000 Clouds 24 1012 69 16093 0.57 97 07:24 04.11.2019
5001 Clouds 25 1012 100 16093 2.1 320 06:57 04.11.2019
5002 Clouds 25 1011 69 16093 2.1 210 06:33 04.11.2019
5003 Clouds 26 1011 69 16093 2.1 180 05:48 04.11.2019
5004 Clouds 26 1011 88 16093 2.1 280 04:43 04.11.2019
5005 Rain 26 1010 65 16093 3.1 210 04:21 04.11.2019
5006 Clouds 26 1010 69 16093 5.1 180 02:32 04.11.2019
5007 Clouds 28 1010 62 16093 5.1 170 01:21 04.11.2019
5008 Clouds 28 1011 74 16093 4.1 340 00:40 04.11.2019
5009 Clouds 28 1011 62 16093 4.1 190 00:20 04.11.2019
5010 Clouds 28 1012 58 16093 4.1 190 23:41 03.11.2019
5011 Clouds 28 1012 58 16093 4.1 190 23:21 03.11.2019
5012 Clouds 28 1013 65 16093 3.6 200 22:58 03.11.2019
5013 Clouds 28 1013 65 16093 3.6 200 22:40 03.11.2019
5014 Clouds 28 1013 65 16093 3.6 200 22:20 03.11.2019
5015 Clouds 28 1013 65 16093 3.6 200 22:20 03.11.2019
5016 Clouds 27 1013 69 16093 4.1 230 21:56 03.11.2019
5017 Clouds 27 1013 69 16093 4.1 230 21:38 03.11.2019
5018 Clouds 27 1013 69 16093 4.1 230 21:19 03.11.2019
5019 Clouds 27 1013 65 16093 3 215 20:54 03.11.2019
5020 Clouds 27 1013 65 16093 3 215 20:36 03.11.2019
5021 Clouds 26 1013 65 16093 1.38 213 20:18 03.11.2019
5022 Clouds 25 1012 73 16093 1.5 330 19:54 03.11.2019
5023 Rain 25 1012 73 16093 1.5 330 19:36 03.11.2019
5024 Rain 24 1012 73 16093 1.5 330 19:18 03.11.2019
5025 Rain 23 1011 78 16093 1.38 213 18:38 03.11.2019
5026 Rain 23 1011 78 16093 1.38 213 18:18 03.11.2019
5027 Rain 23 1011 78 16093 1.38 213 18:18 03.11.2019
5028 Clouds 23 1012 88 16093 1.38 213 17:57 03.11.2019
5029 Clouds 23 1012 88 16093 1.38 213 17:39 03.11.2019
5030 Clouds 23 1011 78 16093 2.1 100 17:18 03.11.2019
5031 Clouds 23 1011 78 16093 1.54 190 16:54 03.11.2019
5032 Clouds 23 1011 78 16093 1.54 190 16:36 03.11.2019
5033 Clouds 23 1011 78 16093 1.54 190 16:36 03.11.2019
5034 Clouds 23 1011 78 16093 1.54 190 16:18 03.11.2019
5035 Clouds 22 1011 78 16093 1.54 190 15:43 03.11.2019
5036 Clouds 23 1011 78 16093 1.54 190 15:24 03.11.2019
5037 Clouds 23 1011 83 16093 1.54 190 14:56 03.11.2019
5038 Clouds 24 1011 83 16093 1.54 190 14:38 03.11.2019
5039 Clouds 24 1011 83 16093 1.33 239 14:18 03.11.2019
5040 Clouds 24 1011 83 16093 1.33 239 14:18 03.11.2019
5041 Clear 24 1012 78 16093 1.33 239 13:43 03.11.2019
5042 Clear 24 1012 78 16093 1.32 230 13:20 03.11.2019
5043 Clouds 24 1012 78 16093 1.32 230 12:58 03.11.2019
5044 Clouds 24 1012 78 16093 1.32 230 12:37 03.11.2019
5045 Clouds 24 1012 78 16093 1.32 230 12:37 03.11.2019
5046 Clouds 23 1012 78 16093 1.32 230 12:18 03.11.2019
5047 Clouds 24 1012 73 16093 1.32 230 11:42 03.11.2019
5048 Clouds 25 1012 73 16093 1.39 209 11:22 03.11.2019
5049 Clouds 25 1012 69 16093 1.39 209 10:56 03.11.2019
5050 Clouds 25 1012 69 16093 1.39 209 10:37 03.11.2019
5051 Clouds 25 1012 69 16093 1.39 209 10:19 03.11.2019
5052 Clouds 25 1012 69 16093 1.39 209 09:44 03.11.2019
5053 Clouds 25 1012 69 16093 1.39 209 09:25 03.11.2019
5054 Clouds 25 1012 65 16093 2.6 280 08:57 03.11.2019
5055 Clouds 26 1012 65 16093 2.6 280 08:38 03.11.2019
5056 Clouds 26 1012 65 16093 2.6 280 08:19 03.11.2019
5057 Clouds 26 1012 65 16093 4.1 250 07:45 03.11.2019
5058 Clouds 26 1012 65 16093 4.1 250 07:22 03.11.2019
5059 Clouds 26 1012 65 16093 3.6 250 06:39 03.11.2019
5060 Clouds 26 1011 58 16093 3.6 240 05:55 03.11.2019
5061 Clouds 26 1011 58 16093 3.6 240 05:37 03.11.2019
5062 Clouds 27 1011 58 16093 4.6 230 04:55 03.11.2019
5063 Clouds 28 1011 58 16093 4.6 230 04:26 03.11.2019
5064 Clouds 28 1011 54 16093 4.1 210 03:23 03.11.2019
5065 Clouds 29 1011 58 16093 5.1 240 02:29 03.11.2019
5066 Clouds 29 1011 58 16093 5.7 220 01:55 03.11.2019
5067 Clouds 29 1011 58 16093 5.7 220 01:36 03.11.2019
5068 Clouds 29 1011 58 16093 5.7 220 01:18 03.11.2019
5069 Clouds 29 1012 58 16093 5.1 210 00:38 03.11.2019
5070 Clouds 29 1012 58 16093 5.1 210 00:20 03.11.2019
5071 Clouds 29 1012 58 16093 4.6 220 23:55 02.11.2019
5072 Clouds 29 1012 58 16093 4.6 220 23:36 02.11.2019
5073 Clouds 29 1012 58 16093 4.6 220 23:18 02.11.2019
5074 Clouds 29 1012 58 16093 4.6 220 23:18 02.11.2019
5075 Clouds 29 1013 58 16093 4.1 220 22:54 02.11.2019
5076 Clouds 29 1013 58 16093 4.1 220 22:36 02.11.2019
5077 Clouds 28 1013 58 16093 4.1 220 22:18 02.11.2019
5078 Clouds 28 1013 65 16093 3.1 210 21:55 02.11.2019
5079 Clouds 28 1013 65 16093 3.1 210 21:36 02.11.2019
5080 Clouds 27 1013 65 16093 3.1 210 21:18 02.11.2019
5081 Clouds 27 1013 65 16093 3.1 210 21:18 02.11.2019
5082 Clouds 27 1013 65 16093 3.1 210 21:18 02.11.2019
5083 Clouds 27 1013 78 16093 3.1 170 20:41 02.11.2019
5084 Rain 27 1012 69 16093 1.5 0 20:22 02.11.2019
5085 Rain 25 1012 74 16093 1.47 204 19:59 02.11.2019
5086 Rain 25 1012 74 16093 1.47 204 19:38 02.11.2019
5087 Rain 25 1012 74 16093 1.47 204 19:19 02.11.2019
5088 Clouds 24 1012 78 16093 1.5 20 18:54 02.11.2019
5089 Clouds 23 1012 78 16093 1.5 20 18:36 02.11.2019
5090 Clouds 23 1012 78 16093 1.5 20 18:18 02.11.2019
5091 Clouds 22 1012 78 16093 1.47 204 17:55 02.11.2019
5092 Clouds 22 1012 78 16093 1.47 204 17:36 02.11.2019
5093 Clouds 22 1012 78 16093 0.94 191 17:18 02.11.2019
5094 Clear 22 1011 78 16093 0.94 191 16:39 02.11.2019
5095 Clear 22 1011 78 16093 0.94 191 16:39 02.11.2019
5096 Clear 22 1011 78 16093 0.94 191 16:20 02.11.2019
5097 Clouds 22 1012 100 16093 0.94 191 15:43 02.11.2019
5098 Clouds 22 1011 78 16093 1.5 20 15:21 02.11.2019
5099 Clouds 22 1012 78 16093 0.94 191 14:57 02.11.2019
5100 Clouds 22 1012 78 16093 0.94 191 14:39 02.11.2019
5101 Clouds 22 1012 78 16093 0.43 258 14:21 02.11.2019
5102 Clouds 22 1012 78 16093 0.43 258 13:40 02.11.2019
5103 Clouds 22 1012 78 16093 0.51 212 13:20 02.11.2019
5104 Clouds 22 1012 78 16093 0.51 212 12:58 02.11.2019
5105 Clouds 22 1012 78 16093 0.51 212 12:38 02.11.2019
5106 Clouds 22 1012 78 16093 0.51 212 12:20 02.11.2019
5107 Clouds 22 1012 78 16093 0.51 212 12:20 02.11.2019
5108 Clouds 23 1012 73 16093 1.5 340 11:43 02.11.2019
5109 Clouds 23 1012 73 16093 1.5 340 11:24 02.11.2019
5110 Clouds 23 1013 69 16093 2.6 340 10:57 02.11.2019
5111 Clouds 23 1013 69 16093 2.6 340 10:39 02.11.2019
5112 Clouds 23 1013 69 16093 2.6 340 10:20 02.11.2019
5113 Clouds 23 1013 69 16093 0.71 201 09:43 02.11.2019
5114 Clouds 24 1013 69 16093 0.71 201 09:22 02.11.2019
5115 Clouds 24 1013 69 16093 0.71 201 09:22 02.11.2019
5116 Clouds 24 1013 69 16093 1.5 280 08:55 02.11.2019
5117 Clouds 24 1013 69 16093 1.5 280 08:37 02.11.2019
5118 Clouds 24 1013 69 16093 1.5 280 08:18 02.11.2019
5119 Clouds 24 1013 69 16093 1.5 280 08:18 02.11.2019
5120 Clouds 25 1013 61 16093 1.5 260 07:43 02.11.2019
5121 Clouds 25 1013 61 16093 1.5 260 07:25 02.11.2019
5122 Clouds 26 1012 65 16093 2.1 240 06:52 02.11.2019
5123 Clouds 26 1012 65 16093 2.1 240 06:52 02.11.2019
5124 Clouds 26 1012 65 16093 2.1 240 06:23 02.11.2019
5125 Clouds 26 1011 61 16093 3.6 230 05:44 02.11.2019
5126 Clouds 27 1011 58 16093 5.1 220 04:24 02.11.2019
5127 Clouds 28 1010 58 16093 4.6 210 03:51 02.11.2019
5128 Clouds 28 1010 58 16093 4.6 210 03:30 02.11.2019
5129 Clouds 28 1010 58 16093 4.6 210 03:30 02.11.2019
5130 Clouds 29 1010 58 16093 5.1 230 02:19 02.11.2019
5131 Clouds 29 1010 58 16093 5.1 230 01:29 02.11.2019
5132 Clouds 28 1011 62 16093 4.6 210 00:56 02.11.2019
5133 Clouds 29 1011 62 16093 4.6 210 00:30 02.11.2019
5134 Clouds 29 1012 65 16093 3.1 200 23:56 01.11.2019
5135 Clouds 28 1012 65 16093 3.1 200 23:37 01.11.2019
5136 Clouds 28 1012 65 16093 3.1 200 23:19 01.11.2019
5137 Clouds 28 1012 61 16093 3.6 220 22:42 01.11.2019
5138 Clouds 28 1012 61 16093 3.6 220 22:20 01.11.2019
5139 Clouds 28 1013 61 16093 2.6 210 21:43 01.11.2019
5140 Clouds 28 1013 61 16093 2.6 210 21:43 01.11.2019
5141 Clouds 28 1013 61 16093 2.6 210 21:24 01.11.2019
5142 Clouds 27 1012 65 16093 1.5 0 20:59 01.11.2019
5143 Clouds 27 1012 65 16093 1.5 0 20:41 01.11.2019
5144 Clouds 27 1012 65 16093 1.5 0 20:22 01.11.2019
5145 Clouds 26 1012 74 16093 1.5 340 19:58 01.11.2019
5146 Clouds 26 1012 74 16093 1.5 340 19:40 01.11.2019
5147 Clouds 25 1012 74 16093 1.5 340 19:21 01.11.2019
5148 Clouds 23 1012 83 16093 1.5 10 18:40 01.11.2019
5149 Clouds 23 1012 83 16093 1.5 10 18:21 01.11.2019
5150 Clouds 22 1011 88 16093 1.5 320 17:56 01.11.2019
5151 Clouds 22 1011 88 16093 1.5 320 17:38 01.11.2019
5152 Clouds 22 1011 88 16093 1.5 320 17:19 01.11.2019
5153 Clouds 22 1010 83 16093 0.26 294 16:39 01.11.2019
5154 Clouds 22 1010 83 16093 0.26 294 16:20 01.11.2019
5155 Clouds 22 1010 83 16093 0.26 294 16:20 01.11.2019
5156 Clouds 22 1010 83 16093 1.5 330 15:55 01.11.2019
5157 Clouds 22 1010 83 16093 1.5 330 15:37 01.11.2019
5158 Clouds 22 1010 83 16093 1.5 330 15:19 01.11.2019
5159 Clouds 22 1011 83 16093 1.5 360 14:42 01.11.2019
5160 Clouds 22 1011 83 16093 1.5 360 14:24 01.11.2019
5161 Clouds 22 1011 78 16093 1.5 340 13:57 01.11.2019
5162 Clouds 22 1011 78 16093 1.5 340 13:57 01.11.2019
5163 Clouds 22 1011 78 16093 1.5 340 13:38 01.11.2019
5164 Clouds 22 1011 78 16093 1.5 340 13:20 01.11.2019
5165 Clouds 23 1012 78 16093 1.5 350 12:43 01.11.2019
5166 Clouds 23 1012 78 16093 1.5 350 12:43 01.11.2019
5167 Clouds 23 1012 78 16093 1.5 350 12:25 01.11.2019
5168 Clouds 22 1012 83 16093 0.18 182 11:56 01.11.2019
5169 Clouds 22 1012 83 16093 0.18 182 11:38 01.11.2019
5170 Clouds 22 1012 83 16093 0.4 247 11:19 01.11.2019
5171 Clouds 23 1012 74 16093 1.5 340 10:41 01.11.2019
5172 Clouds 24 1012 74 16093 1.5 340 10:21 01.11.2019
5173 Clouds 24 1012 94 16093 0.4 247 09:57 01.11.2019
5174 Clouds 24 1012 94 16093 0.4 247 09:38 01.11.2019
5175 Clouds 24 1012 94 16093 0.4 247 09:19 01.11.2019
5176 Clouds 24 1012 94 16093 0.4 247 09:19 01.11.2019
5177 Clouds 24 1013 74 16093 2.1 350 08:42 01.11.2019
5178 Clouds 24 1013 74 16093 2.1 350 08:22 01.11.2019
5179 Clouds 24 1013 74 16093 2.1 350 08:22 01.11.2019
5180 Clouds 24 1013 74 16093 2.1 350 08:22 01.11.2019
5181 Clouds 24 1012 69 16093 2.6 270 07:55 01.11.2019
5182 Clouds 25 1012 69 16093 2.6 270 07:36 01.11.2019
5183 Clouds 25 1012 69 16093 2.6 270 07:18 01.11.2019
5184 Clouds 25 1012 69 16093 2.6 270 07:18 01.11.2019
5185 Rain 25 1011 69 16093 2.1 220 06:40 01.11.2019
5186 Rain 25 1011 69 16093 2.1 220 06:21 01.11.2019
5187 Rain 25 1011 69 16093 2.1 220 06:21 01.11.2019
5188 Rain 26 1011 69 16093 2.6 210 05:43 01.11.2019
5189 Rain 27 1010 78 16093 1.5 90 03:34 01.11.2019
5190 Thunderstorm 27 1010 88 16093 3.1 90 01:56 01.11.2019
5191 Thunderstorm 28 1009 78 2816 3.1 320 01:28 01.11.2019
5192 Clouds 29 1011 62 16093 4.6 170 00:21 01.11.2019
5193 Clouds 28 1011 69 16093 0.98 247 23:56 31.10.2019
5194 Clouds 28 1011 69 16093 0.98 247 23:38 31.10.2019
5195 Clouds 28 1011 62 16093 4.1 180 23:19 31.10.2019
5196 Clouds 29 1012 58 16093 3.6 160 22:42 31.10.2019
5197 Clouds 28 1012 58 16093 3.6 160 22:24 31.10.2019
5198 Clouds 28 1012 69 16093 2.6 110 21:58 31.10.2019
5199 Clouds 28 1012 69 16093 2.6 110 21:40 31.10.2019
5200 Clouds 28 1012 69 16093 1.5 150 21:19 31.10.2019
5201 Clouds 28 1012 58 16093 1.5 110 20:41 31.10.2019
5202 Clouds 27 1012 58 16093 1.5 110 20:23 31.10.2019
5203 Clouds 26 1011 65 16093 2.1 350 19:59 31.10.2019
5204 Clouds 25 1011 65 16093 2.1 350 19:39 31.10.2019
5205 Clouds 25 1011 65 16093 2.1 350 19:21 31.10.2019
5206 Clouds 23 1011 78 16093 0.78 192 18:44 31.10.2019
5207 Clouds 23 1011 78 16093 0.78 192 18:26 31.10.2019
5208 Clouds 23 1010 83 16093 2.1 20 17:59 31.10.2019
5209 Clouds 22 1010 83 16093 2.1 20 17:41 31.10.2019
5210 Clouds 22 1010 83 16093 2.1 20 17:20 31.10.2019
5211 Clouds 22 1010 78 16093 2.1 0 16:55 31.10.2019
5212 Clouds 22 1010 78 16093 2.1 0 16:37 31.10.2019
5213 Clouds 22 1010 78 16093 2.1 0 16:18 31.10.2019
5214 Clouds 22 1009 78 16093 2.1 360 15:40 31.10.2019
5215 Clouds 22 1009 78 16093 2.1 360 15:40 31.10.2019
5216 Clouds 22 1009 78 16093 2.1 360 15:22 31.10.2019
5217 Clouds 22 1010 78 16093 0.63 204 14:59 31.10.2019
5218 Clouds 22 1010 78 16093 0.63 204 14:41 31.10.2019
5219 Clouds 22 1010 78 16093 0.66 81 14:22 31.10.2019
5220 Clouds 22 1010 78 16093 0.66 81 13:59 31.10.2019
5221 Clouds 22 1010 78 16093 0.66 81 13:39 31.10.2019
5222 Clouds 22 1010 78 16093 0.94 182 13:19 31.10.2019
5223 Clouds 23 1011 78 16093 2.1 340 12:55 31.10.2019
5224 Clouds 22 1011 78 16093 2.1 340 12:37 31.10.2019
5225 Clouds 22 1011 78 16093 2.1 340 12:18 31.10.2019
5226 Clouds 22 1011 73 16093 1.5 320 11:45 31.10.2019
5227 Clouds 23 1011 73 16093 1.5 320 11:21 31.10.2019
5228 Clouds 23 1011 78 16093 1.5 340 10:58 31.10.2019
5229 Clouds 23 1011 78 16093 1.5 340 10:58 31.10.2019
5230 Clear 23 1011 83 16093 2.1 340 10:39 31.10.2019
5231 Clear 23 1011 83 16093 2.1 340 10:20 31.10.2019
5232 Clouds 23 1011 73 16093 2.1 340 09:46 31.10.2019
5233 Clouds 23 1011 73 16093 2.1 340 09:20 31.10.2019
5234 Clouds 23 1011 73 16093 2.6 10 08:58 31.10.2019
5235 Clouds 24 1011 73 16093 2.6 10 08:39 31.10.2019
5236 Clouds 24 1011 73 16093 2.6 10 08:21 31.10.2019
5237 Clouds 24 1010 69 16093 2.6 350 07:45 31.10.2019
5238 Clouds 24 1010 69 16093 2.6 350 07:26 31.10.2019
5239 Clouds 25 1010 74 16093 3.6 330 06:52 31.10.2019
5240 Clouds 25 1010 74 16093 3.6 330 06:31 31.10.2019
5241 Clouds 25 1009 69 16093 3.6 330 05:19 31.10.2019
5242 Rain 27 1009 65 16093 3.1 50 02:49 31.10.2019
5243 Rain 27 1009 65 16093 3.1 50 02:24 31.10.2019
5244 Rain 27 1009 83 4023 2.6 300 00:51 31.10.2019
5245 Rain 28 1009 78 3219 4.1 310 00:25 31.10.2019
5246 Clouds 29 1011 62 16093 4.6 210 23:41 30.10.2019
5247 Clouds 28 1011 62 16093 4.6 210 23:22 30.10.2019
5248 Clouds 28 1011 65 16093 3.6 200 22:41 30.10.2019
5249 Clouds 28 1011 65 16093 3.6 200 22:19 30.10.2019
5250 Clouds 29 1012 65 16093 2.1 220 21:55 30.10.2019
5251 Clouds 28 1012 65 16093 2.1 220 21:36 30.10.2019
5252 Clouds 28 1012 65 16093 2.1 220 21:18 30.10.2019
5253 Clouds 28 1012 69 16093 0.87 305 20:57 30.10.2019
5254 Clouds 27 1012 69 16093 0.87 305 20:37 30.10.2019
5255 Clouds 27 1012 69 16093 1.15 203 20:19 30.10.2019
5256 Clouds 25 1011 74 16093 1.5 40 19:42 30.10.2019
5257 Clouds 25 1011 74 16093 1.5 40 19:23 30.10.2019
5258 Clouds 23 1011 88 16093 2.6 350 18:59 30.10.2019
5259 Clouds 23 1011 88 16093 2.6 350 18:38 30.10.2019
5260 Clouds 23 1011 88 16093 2.6 350 18:38 30.10.2019
5261 Clouds 23 1011 88 16093 2.6 350 18:19 30.10.2019
5262 Clouds 23 1011 88 16093 2.6 350 18:19 30.10.2019
5263 Clouds 23 1010 88 16093 2.1 10 17:55 30.10.2019
5264 Clouds 23 1010 88 16093 2.1 10 17:55 30.10.2019
5265 Clouds 23 1010 88 16093 2.1 10 17:37 30.10.2019
5266 Clouds 22 1010 88 16093 2.1 10 17:18 30.10.2019
5267 Clouds 23 1010 88 16093 1.33 188 16:42 30.10.2019
5268 Clouds 22 1010 88 16093 1.33 188 16:23 30.10.2019
5269 Clouds 22 1010 88 16093 1.5 300 15:59 30.10.2019
5270 Clouds 23 1010 88 16093 1.5 300 15:38 30.10.2019
5271 Clouds 23 1010 88 16093 1.5 300 15:19 30.10.2019
5272 Rain 23 1011 94 16093 2.1 340 14:57 30.10.2019
5273 Rain 23 1011 94 16093 2.1 340 14:39 30.10.2019
5274 Rain 22 1011 94 16093 2.1 340 14:21 30.10.2019
5275 Rain 23 1011 94 8047 2.1 60 13:54 30.10.2019
5276 Rain 22 1011 94 8047 2.1 60 13:36 30.10.2019
5277 Rain 23 1011 94 8047 2.1 60 13:18 30.10.2019
5278 Clouds 23 1012 83 16093 2.1 20 12:43 30.10.2019
5279 Clouds 23 1012 83 16093 2.1 20 12:25 30.10.2019
5280 Clouds 23 1012 83 16093 2.1 320 11:56 30.10.2019
5281 Clouds 23 1012 83 16093 2.1 320 11:56 30.10.2019
5282 Clouds 23 1012 83 16093 2.1 320 11:38 30.10.2019
5283 Clouds 23 1012 83 16093 2.1 320 11:18 30.10.2019
5284 Rain 23 1012 78 16093 1.5 20 10:42 30.10.2019
5285 Rain 23 1012 78 16093 1.5 20 10:23 30.10.2019
5286 Clouds 23 1012 78 16093 0.39 52 09:42 30.10.2019
5287 Clouds 23 1012 78 16093 0.39 52 09:22 30.10.2019
5288 Rain 24 1012 74 16093 2.1 130 08:57 30.10.2019
5289 Rain 24 1012 74 16093 2.1 130 08:38 30.10.2019
5290 Rain 24 1012 74 16093 2.1 130 08:19 30.10.2019
5291 Rain 24 1012 74 16093 1.5 350 07:43 30.10.2019
5292 Clouds 25 1011 69 16093 0.71 311 06:59 30.10.2019
5293 Clouds 25 1011 69 16093 0.71 311 06:40 30.10.2019
5294 Clouds 25 1011 69 16093 1.5 200 05:58 30.10.2019
5295 Clouds 25 1011 69 16093 1.5 200 05:39 30.10.2019
5296 Rain 27 1010 65 16093 3.1 0 03:54 30.10.2019
5297 Rain 27 1010 65 16093 3.1 0 03:23 30.10.2019
5298 Rain 27 1010 66 16093 4.1 170 02:49 30.10.2019
5299 Rain 27 1010 83 9656 2.6 130 01:49 30.10.2019
5300 Rain 27 1011 62 16093 4.1 140 00:38 30.10.2019
5301 Rain 27 1011 62 16093 4.1 140 00:19 30.10.2019
5302 Rain 27 1011 83 6437 3.1 0 23:41 29.10.2019
5303 Clouds 28 1012 62 16093 4.6 140 23:22 29.10.2019
5304 Clouds 27 1012 69 16093 2.6 350 22:42 29.10.2019
5305 Clouds 27 1012 65 16093 4.1 150 22:19 29.10.2019
5306 Clouds 27 1013 65 16093 0.45 147 21:55 29.10.2019
5307 Clouds 27 1013 65 16093 0.45 147 21:37 29.10.2019
5308 Clouds 27 1012 65 16093 4.1 140 21:19 29.10.2019
5309 Clouds 27 1012 61 16093 2.6 110 20:42 29.10.2019
5310 Clouds 26 1012 61 16093 2.6 110 20:23 29.10.2019
5311 Clouds 25 1011 88 16093 2.1 220 19:59 29.10.2019
5312 Clouds 24 1011 88 16093 2.1 220 19:40 29.10.2019
5313 Clouds 24 1011 88 16093 2.1 220 19:22 29.10.2019
5314 Clouds 23 1011 88 16093 2.1 220 18:58 29.10.2019
5315 Clouds 23 1011 88 16093 2.1 220 18:40 29.10.2019
5316 Clouds 24 1012 83 16093 2.6 10 18:20 29.10.2019
5317 Clouds 23 1011 88 16093 0.63 94 17:57 29.10.2019
5318 Clouds 22 1011 88 16093 0.63 94 17:38 29.10.2019
5319 Rain 22 1011 83 16093 3.6 100 17:20 29.10.2019
5320 Rain 23 1011 94 9656 0.71 84 16:41 29.10.2019
5321 Rain 23 1011 88 3219 1.5 270 16:23 29.10.2019
5322 Rain 23 1011 88 1609 3.6 160 15:59 29.10.2019
5323 Rain 23 1011 88 1609 3.6 160 15:41 29.10.2019
5324 Rain 23 1011 73 16093 1.5 20 15:21 29.10.2019
5325 Clouds 24 1011 69 16093 3.6 360 14:57 29.10.2019
5326 Clouds 24 1011 69 16093 3.6 360 14:39 29.10.2019
5327 Clouds 24 1011 69 16093 3.6 360 14:21 29.10.2019
5328 Clouds 23 1012 78 16093 2.1 350 13:41 29.10.2019
5329 Clouds 23 1012 78 16093 2.1 350 13:23 29.10.2019
5330 Rain 24 1012 69 16093 2.1 350 12:59 29.10.2019
5331 Rain 24 1012 69 16093 2.1 350 12:41 29.10.2019
5332 Rain 24 1012 69 16093 2.1 350 12:23 29.10.2019
5333 Rain 25 1013 69 16093 2.6 330 11:43 29.10.2019
5334 Clouds 25 1013 69 16093 2.6 330 11:23 29.10.2019
5335 Clouds 25 1013 69 16093 2.1 320 10:59 29.10.2019
5336 Clouds 25 1013 69 16093 2.1 320 10:41 29.10.2019
5337 Clouds 25 1013 69 16093 2.1 320 10:20 29.10.2019
5338 Clear 25 1013 65 16093 2.1 330 09:59 29.10.2019
5339 Clear 25 1013 65 16093 2.1 330 09:41 29.10.2019
5340 Clear 25 1013 65 16093 2.1 330 09:41 29.10.2019
5341 Clear 25 1013 65 16093 2.1 330 09:22 29.10.2019
5342 Clouds 25 1013 61 16093 3.1 60 08:45 29.10.2019
5343 Clouds 26 1013 61 16093 3.1 60 08:26 29.10.2019
5344 Clouds 26 1012 61 16093 2.1 30 07:55 29.10.2019
5345 Clouds 26 1012 61 16093 2.1 30 07:37 29.10.2019
5346 Clouds 26 1012 61 16093 2.1 30 07:18 29.10.2019
5347 Clouds 26 1012 61 16093 3.6 50 06:45 29.10.2019
5348 Clouds 26 1012 61 16093 3.6 50 06:25 29.10.2019
5349 Clouds 26 1011 61 16093 5.7 60 05:50 29.10.2019
5350 Clouds 26 1011 61 16093 5.7 60 05:26 29.10.2019
5351 Clouds 28 1011 48 16093 6.2 70 04:31 29.10.2019
5352 Clouds 28 1011 43 16093 6.2 60 02:33 29.10.2019
5353 Clouds 29 1011 43 16093 5.7 70 01:47 29.10.2019
5354 Clouds 29 1011 43 16093 5.7 70 01:18 29.10.2019
5355 Clouds 29 1012 43 16093 5.1 40 00:32 29.10.2019
5356 Clouds 29 1012 40 16093 4.1 70 23:43 28.10.2019
5357 Clouds 29 1012 40 16093 4.1 70 23:21 28.10.2019
5358 Clouds 29 1013 43 16093 7.2 60 22:58 28.10.2019
5359 Clouds 29 1013 43 16093 7.2 60 22:37 28.10.2019
5360 Clouds 29 1013 43 16093 7.2 60 22:18 28.10.2019
5361 Clouds 29 1013 48 16093 7.7 40 21:55 28.10.2019
5362 Clouds 29 1013 48 16093 7.7 40 21:37 28.10.2019
5363 Clouds 28 1013 48 16093 7.7 40 21:18 28.10.2019
5364 Clouds 28 1014 54 16093 3.6 60 20:44 28.10.2019
5365 Clouds 27 1014 54 16093 3.6 60 20:24 28.10.2019
5366 Rain 27 1013 61 16093 1.5 0 19:58 28.10.2019
5367 Rain 27 1013 61 16093 1.5 0 19:39 28.10.2019
5368 Rain 26 1013 61 16093 1.5 0 19:20 28.10.2019
5369 Rain 26 1013 61 16093 1.5 0 19:20 28.10.2019
5370 Drizzle 25 1014 88 16093 3.6 340 18:58 28.10.2019
5371 Rain 25 1013 61 16093 1.5 0 18:39 28.10.2019
5372 Rain 25 1013 61 16093 1.5 0 18:21 28.10.2019
5373 Rain 25 1013 61 16093 1.5 0 18:21 28.10.2019
5374 Clouds 24 1012 73 16093 2.1 310 17:56 28.10.2019
5375 Clouds 24 1012 73 16093 2.1 310 17:38 28.10.2019
5376 Clouds 24 1012 73 16093 2.1 310 17:19 28.10.2019
5377 Clouds 24 1012 73 16093 1.5 0 16:55 28.10.2019
5378 Clouds 24 1012 73 16093 1.5 0 16:37 28.10.2019
5379 Clouds 24 1012 73 16093 1.5 0 16:19 28.10.2019
5380 Clouds 24 1012 69 16093 1.5 10 15:56 28.10.2019
5381 Rain 24 1012 69 16093 1.5 10 15:37 28.10.2019
5382 Rain 24 1012 69 16093 1.5 10 15:18 28.10.2019
5383 Rain 24 1013 65 16093 2.1 70 14:55 28.10.2019
5384 Clouds 24 1013 65 16093 2.1 70 14:36 28.10.2019
5385 Clouds 24 1013 65 16093 2.1 70 14:18 28.10.2019
5386 Clouds 24 1013 65 16093 2.1 70 14:18 28.10.2019
5387 Rain 24 1013 65 16093 2.6 10 13:42 28.10.2019
5388 Rain 24 1013 65 16093 2.6 10 13:19 28.10.2019
5389 Rain 24 1014 69 16093 2.1 0 12:59 28.10.2019
5390 Rain 24 1014 69 16093 2.1 0 12:40 28.10.2019
5391 Rain 24 1014 69 16093 2.1 0 12:19 28.10.2019
5392 Clouds 25 1014 65 16093 2.1 10 11:38 28.10.2019
5393 Clouds 25 1014 65 16093 2.1 10 11:20 28.10.2019
5394 Clouds 25 1014 65 16093 4.1 40 10:42 28.10.2019
5395 Clouds 25 1014 65 16093 4.1 40 10:24 28.10.2019
5396 Clouds 25 1015 94 16093 2.1 50 09:58 28.10.2019
5397 Clouds 25 1015 94 16093 2.1 50 09:39 28.10.2019
5398 Clouds 25 1015 94 16093 2.1 50 09:39 28.10.2019
5399 Clouds 25 1014 65 16093 5.7 60 09:20 28.10.2019
5400 Rain 25 1014 69 16093 4.6 80 08:57 28.10.2019
5401 Rain 25 1014 69 16093 4.6 80 08:39 28.10.2019
5402 Rain 25 1014 69 16093 4.6 80 08:19 28.10.2019
5403 Rain 25 1013 61 16093 6.2 60 07:57 28.10.2019
5404 Rain 25 1013 61 16093 6.2 60 07:38 28.10.2019
5405 Rain 25 1013 61 16093 6.2 60 07:19 28.10.2019
5406 Rain 26 1013 57 16093 5.1 40 06:40 28.10.2019
5407 Clouds 27 1012 54 16093 5.7 40 05:53 28.10.2019
5408 Clouds 28 1012 48 16093 6.7 40 03:56 28.10.2019
5409 Clouds 28 1012 48 16093 6.7 40 03:38 28.10.2019
5410 Clouds 28 1012 45 16093 6.7 30 02:40 28.10.2019
5411 Clouds 29 1013 45 16093 5.7 30 00:59 28.10.2019
5412 Clouds 29 1013 45 16093 5.7 30 00:38 28.10.2019
5413 Rain 29 1013 45 16093 5.7 30 00:19 28.10.2019
5414 Rain 29 1013 45 16093 6.2 30 23:42 27.10.2019
5415 Rain 29 1013 45 16093 6.2 30 23:42 27.10.2019
5416 Rain 29 1014 43 16093 7.7 70 23:18 27.10.2019
5417 Clouds 29 1015 45 16093 6.7 30 22:42 27.10.2019
5418 Clouds 29 1015 45 16093 6.7 30 22:22 27.10.2019
5419 Clouds 28 1015 51 16093 5.1 40 21:58 27.10.2019
5420 Clouds 28 1015 51 16093 5.1 40 21:39 27.10.2019
5421 Clouds 29 1015 51 16093 5.1 40 21:21 27.10.2019
5422 Rain 28 1015 51 16093 5.1 50 20:57 27.10.2019
5423 Rain 28 1015 51 16093 5.1 50 20:38 27.10.2019
5424 Rain 28 1015 51 16093 5.1 50 20:20 27.10.2019
5425 Rain 27 1015 61 16093 5.1 50 19:55 27.10.2019
5426 Rain 27 1015 61 16093 5.1 50 19:36 27.10.2019
5427 Rain 26 1015 61 16093 5.1 50 19:18 27.10.2019
5428 Clouds 25 1014 69 16093 2.1 10 18:55 27.10.2019
5429 Clouds 25 1014 69 16093 2.1 10 18:36 27.10.2019
5430 Clouds 24 1014 69 16093 2.1 10 18:18 27.10.2019
5431 Clouds 24 1014 65 16093 3.6 30 17:40 27.10.2019
5432 Clouds 24 1014 65 16093 3.6 30 17:19 27.10.2019
5433 Clouds 24 1014 65 16093 3.6 30 17:19 27.10.2019
5434 Clouds 23 1014 65 16093 2.6 30 16:58 27.10.2019
5435 Clouds 23 1014 65 16093 2.6 30 16:39 27.10.2019
5436 Clouds 23 1014 65 16093 2.6 30 16:21 27.10.2019
5437 Clouds 24 1014 61 16093 4.6 60 15:56 27.10.2019
5438 Clouds 24 1014 61 16093 4.6 60 15:37 27.10.2019
5439 Clouds 24 1014 61 16093 4.6 60 15:19 27.10.2019
5440 Clouds 24 1013 65 16093 2.6 80 14:42 27.10.2019
5441 Clouds 24 1013 65 16093 2.6 80 14:42 27.10.2019
5442 Clouds 24 1013 65 16093 2.6 80 14:20 27.10.2019
5443 Clouds 24 1014 65 16093 3.6 40 13:57 27.10.2019
5444 Clouds 24 1014 65 16093 3.6 40 13:38 27.10.2019
5445 Clouds 24 1014 65 16093 3.6 40 13:19 27.10.2019
5446 Clouds 25 1014 65 16093 3.6 50 12:45 27.10.2019
5447 Clouds 25 1014 65 16093 3.6 50 12:24 27.10.2019
5448 Clouds 26 1015 61 16093 4.6 80 11:59 27.10.2019
5449 Clouds 26 1015 61 16093 4.6 80 11:59 27.10.2019
5450 Clouds 26 1015 61 16093 4.6 80 11:40 27.10.2019
5451 Clouds 26 1015 61 16093 4.6 80 11:21 27.10.2019
5452 Clouds 26 1015 65 16093 4.6 50 10:44 27.10.2019
5453 Clouds 26 1015 65 16093 4.6 50 10:24 27.10.2019
5454 Clouds 25 1015 65 16093 6.2 60 09:56 27.10.2019
5455 Clouds 25 1015 65 16093 6.2 60 09:37 27.10.2019
5456 Clouds 25 1015 65 16093 6.2 60 09:37 27.10.2019
5457 Clouds 25 1015 65 16093 6.2 60 09:18 27.10.2019
5458 Clouds 25 1015 65 16093 6.2 60 09:18 27.10.2019
5459 Clouds 25 1015 65 16093 6.2 60 09:18 27.10.2019
5460 Clouds 25 1015 65 16093 6.2 60 09:18 27.10.2019
5461 Clouds 26 1015 65 16093 3.6 50 08:41 27.10.2019
5462 Clouds 26 1015 65 16093 3.6 50 08:21 27.10.2019
5463 Clouds 26 1014 61 16093 4.1 70 07:50 27.10.2019
5464 Clouds 26 1014 61 16093 4.1 70 07:29 27.10.2019
5465 Clouds 26 1014 65 16093 5.1 90 06:56 27.10.2019
5466 Clouds 26 1014 65 16093 5.1 90 06:38 27.10.2019
5467 Clouds 26 1014 65 16093 5.1 90 06:38 27.10.2019
5468 Clouds 27 1014 65 16093 5.1 90 06:20 27.10.2019
5469 Clouds 27 1013 61 16093 5.1 80 05:38 27.10.2019
5470 Clouds 28 1012 58 16093 6.2 60 04:47 27.10.2019
5471 Clouds 29 1012 55 16093 3.1 50 02:46 27.10.2019
5472 Clouds 29 1013 69 16093 4.1 70 01:37 27.10.2019
5473 Clouds 30 1013 69 16093 4.1 70 01:18 27.10.2019
5474 Clouds 30 1014 52 16093 2.1 50 00:42 27.10.2019
5475 Clouds 29 1015 58 16093 3.6 40 23:59 26.10.2019
5476 Clouds 29 1015 58 16093 3.6 40 23:40 26.10.2019
5477 Clouds 29 1015 58 16093 3.6 40 23:22 26.10.2019
5478 Clouds 29 1016 66 16093 3.6 160 22:59 26.10.2019
5479 Clouds 29 1016 66 16093 3.6 160 22:39 26.10.2019
5480 Clouds 29 1016 62 16093 4.6 60 22:20 26.10.2019
5481 Clouds 29 1016 66 16093 3.1 10 21:59 26.10.2019
5482 Clouds 29 1016 66 16093 3.1 10 21:40 26.10.2019
5483 Clouds 28 1016 66 16093 3.1 10 21:19 26.10.2019
5484 Clouds 27 1015 69 16093 2.1 340 20:45 26.10.2019
5485 Clouds 26 1015 69 16093 2.1 340 20:20 26.10.2019
5486 Clear 25 1015 83 16093 1.88 86 19:56 26.10.2019
5487 Clear 24 1015 83 16093 1.88 86 19:38 26.10.2019
5488 Clear 24 1015 83 16093 1.88 86 19:19 26.10.2019
5489 Clear 24 1015 83 16093 1.88 86 19:19 26.10.2019
5490 Clear 24 1015 83 16093 1.88 86 19:19 26.10.2019
5491 Clouds 24 1014 78 16093 2.6 100 18:55 26.10.2019
5492 Clouds 24 1014 83 16093 1.5 340 18:36 26.10.2019
5493 Clouds 24 1014 83 16093 1.5 340 18:18 26.10.2019
5494 Clouds 24 1014 83 16093 1.5 320 17:39 26.10.2019
5495 Clouds 24 1014 83 16093 1.5 320 17:20 26.10.2019
5496 Clouds 24 1013 88 16093 1.29 49 16:58 26.10.2019
5497 Clouds 24 1013 88 16093 1.29 49 16:40 26.10.2019
5498 Clouds 24 1014 83 16093 1.5 350 16:20 26.10.2019
5499 Clear 24 1014 83 16093 2.1 330 15:40 26.10.2019
5500 Clear 24 1014 83 16093 2.1 330 15:19 26.10.2019
5501 Clear 24 1014 83 16093 2.1 330 15:19 26.10.2019
5502 Clouds 25 1013 83 16093 2.1 90 14:40 26.10.2019
5503 Clouds 25 1013 83 16093 2.1 90 14:40 26.10.2019
5504 Clear 25 1014 78 16093 2.6 330 14:20 26.10.2019
5505 Clear 22 1014 93 0 1.14 76 13:59 26.10.2019
5506 Clouds 25 1014 78 16093 1.5 310 13:39 26.10.2019
5507 Clear 22 1014 93 0 1.14 76 13:20 26.10.2019
5508 Clear 25 1013 77 0 1.14 76 12:45 26.10.2019
5509 Clouds 25 1015 74 16093 2.1 290 12:22 26.10.2019
5510 Clouds 25 1015 74 16093 2.1 290 11:48 26.10.2019
5511 Clouds 25 1015 74 16093 2.1 290 11:27 26.10.2019
5512 Clouds 25 1015 74 16093 2.1 290 11:27 26.10.2019
5513 Clouds 25 1015 65 16093 1.5 350 10:47 26.10.2019
5514 Clouds 25 1015 65 16093 1.5 350 10:27 26.10.2019
5515 Clouds 25 1015 65 16093 1.5 350 10:27 26.10.2019
5516 Clouds 26 1015 83 16093 2.1 20 09:51 26.10.2019
5517 Clouds 25 1015 65 16093 1.5 360 09:30 26.10.2019
5518 Clouds 26 1014 61 16093 2.6 20 08:57 26.10.2019
5519 Clouds 26 1014 61 16093 2.6 20 08:39 26.10.2019
5520 Clouds 26 1014 61 16093 2.6 20 08:21 26.10.2019
5521 Clouds 26 1013 65 16093 3.6 50 07:43 26.10.2019
5522 Clouds 26 1013 65 16093 3.6 50 07:23 26.10.2019
5523 Clear 26 1013 58 16093 4.6 30 06:41 26.10.2019
5524 Clouds 28 1013 74 16093 4.1 70 05:59 26.10.2019
5525 Clouds 29 1012 51 16093 4.6 60 05:19 26.10.2019
5526 Clouds 29 1012 51 16093 4.1 70 03:56 26.10.2019
5527 Clouds 29 1012 55 16093 3.6 140 02:35 26.10.2019
5528 Clouds 29 1013 62 16093 5.1 170 01:47 26.10.2019
5529 Clouds 29 1013 69 16093 4.6 70 00:56 26.10.2019
5530 Clouds 28 1014 62 16093 4.1 160 23:57 25.10.2019
5531 Clouds 28 1014 62 16093 4.1 160 23:38 25.10.2019
5532 Clouds 28 1014 62 16093 4.1 160 23:19 25.10.2019
5533 Clouds 28 1014 69 16093 3.1 0 22:39 25.10.2019
5534 Clouds 29 1014 54 16093 3.1 130 22:21 25.10.2019
5535 Clouds 28 1014 69 16093 3.1 0 21:56 25.10.2019
5536 Clouds 28 1014 69 16093 3.1 0 21:38 25.10.2019
5537 Clouds 27 1014 61 16093 1.5 310 21:19 25.10.2019
5538 Clouds 27 1014 74 16093 2.6 350 20:43 25.10.2019
5539 Clouds 26 1014 74 16093 2.6 350 20:20 25.10.2019
5540 Clouds 24 1014 83 16093 1.5 360 19:47 25.10.2019
5541 Clouds 24 1014 83 16093 1.5 360 19:47 25.10.2019
5542 Clouds 23 1014 83 16093 1.5 360 19:29 25.10.2019
5543 -273 0 0 0 0 0 18:56 25.10.2019
5544 Clouds 22 1013 83 16093 2.1 350 18:37 25.10.2019
5545 Clouds 22 1013 83 16093 2.1 350 18:19 25.10.2019
5546 Clouds 23 1013 83 16093 1.02 79 17:39 25.10.2019
5547 Clouds 23 1013 83 16093 1.02 79 17:20 25.10.2019
5548 Clear 23 1012 83 16093 2.1 330 16:46 25.10.2019
5549 Clear 23 1012 83 16093 2.1 330 16:23 25.10.2019
5550 Clear 23 1013 83 16093 1.5 360 15:56 25.10.2019
5551 Clear 23 1013 83 16093 1.5 360 15:38 25.10.2019
5552 Clear 23 1013 83 16093 1.5 360 15:19 25.10.2019
5553 Clouds 23 1013 83 16093 2.1 320 14:42 25.10.2019
5554 Clouds 23 1013 83 16093 2.1 320 14:23 25.10.2019
5555 Clouds 23 1013 83 16093 1.5 360 13:57 25.10.2019
5556 Clouds 23 1013 83 16093 1.5 360 13:38 25.10.2019
5557 Clouds 23 1013 83 16093 1.5 360 13:20 25.10.2019
5558 Clouds 24 1014 74 16093 2.1 330 12:42 25.10.2019
5559 Clouds 24 1014 74 16093 2.1 330 12:22 25.10.2019
5560 Clouds 25 1014 74 16093 2.1 360 11:58 25.10.2019
5561 Clouds 25 1014 74 16093 2.1 360 11:38 25.10.2019
5562 Clouds 25 1014 74 16093 2.1 360 11:18 25.10.2019
5563 Clouds 25 1014 69 16093 1.5 340 10:41 25.10.2019
5564 Clouds 25 1014 69 16093 1.5 340 10:41 25.10.2019
5565 Clouds 25 1014 69 16093 1.5 340 10:22 25.10.2019
5566 Clouds 26 1014 61 16093 1.22 85 09:58 25.10.2019
5567 Clouds 26 1014 61 16093 1.22 85 09:38 25.10.2019
5568 Clouds 26 1014 61 16093 1.57 56 09:19 25.10.2019
5569 Clouds 26 1014 88 16093 1.57 56 08:48 25.10.2019
5570 Clouds 26 1014 61 16093 3.1 70 08:29 25.10.2019
5571 Clouds 26 1014 65 16093 1.5 0 07:55 25.10.2019
5572 Clouds 26 1014 78 16093 2.6 60 07:34 25.10.2019
5573 Clouds 26 1012 69 16093 3.1 90 06:42 25.10.2019
5574 Clouds 27 1011 51 16093 4.6 20 05:54 25.10.2019
5575 Clouds 27 1011 51 16093 4.6 20 05:33 25.10.2019
5576 Clouds 28 1011 51 16093 3.6 40 04:52 25.10.2019
5577 Clouds 28 1011 65 16093 2.1 70 03:36 25.10.2019
5578 Clouds 29 1012 51 16093 4.1 140 01:54 25.10.2019
5579 Clouds 29 1012 62 16093 5.1 170 00:57 25.10.2019
5580 Clouds 30 1013 52 16093 5.7 150 00:20 25.10.2019
5581 Clouds 29 1014 62 16093 5.1 140 23:40 24.10.2019
5582 Clouds 29 1014 62 16093 5.1 140 23:22 24.10.2019
5583 Clouds 29 1014 51 16093 2.2 86 22:54 24.10.2019
5584 Clouds 29 1014 51 16093 2.2 86 22:36 24.10.2019
5585 Clouds 29 1014 51 16093 2.2 86 22:18 24.10.2019
5586 Clouds 29 1014 51 16093 2.2 86 22:18 24.10.2019
5587 -273 0 0 0 0 0 21:56 24.10.2019
5588 Clouds 28 1014 61 16093 1.5 58 21:37 24.10.2019
5589 Clouds 28 1014 61 16093 1.5 58 21:37 24.10.2019
5590 Clouds 28 1014 61 16093 1.5 58 21:37 24.10.2019
5591 Clouds 28 1014 61 16093 1.42 70 21:18 24.10.2019
5592 Clouds 28 1014 61 16093 1.42 70 21:18 24.10.2019
5593 Clouds 27 1014 65 16093 2.6 310 20:55 24.10.2019
5594 Clouds 27 1014 65 16093 2.6 310 20:55 24.10.2019
5595 Clouds 27 1014 65 16093 2.6 310 20:37 24.10.2019
5596 Clouds 26 1014 65 16093 2.6 310 20:19 24.10.2019
5597 Clouds 24 1013 78 16093 1.42 70 19:42 24.10.2019
5598 Clouds 24 1013 78 16093 1.42 70 19:23 24.10.2019
5599 Clouds 23 1012 78 16093 2.1 330 18:58 24.10.2019
5600 Clouds 23 1012 78 16093 2.1 330 18:39 24.10.2019
5601 Clouds 23 1012 78 16093 2.1 330 18:21 24.10.2019
5602 Clouds 24 1012 78 16093 1.5 330 17:57 24.10.2019
5603 Clouds 24 1012 78 16093 1.5 330 17:38 24.10.2019
5604 Clouds 24 1012 78 16093 1.5 330 17:19 24.10.2019
5605 Clouds 24 1012 73 16093 2.6 30 16:42 24.10.2019
5606 Clouds 24 1012 73 16093 2.6 30 16:24 24.10.2019
5607 Clouds 24 1013 78 16093 1.5 340 15:59 24.10.2019
5608 Clouds 24 1013 78 16093 1.5 340 15:41 24.10.2019
5609 Clouds 24 1013 78 16093 1.5 340 15:23 24.10.2019
5610 Clouds 25 1013 73 16093 1.5 360 14:59 24.10.2019
5611 Clouds 24 1013 73 16093 1.5 360 14:41 24.10.2019
5612 Clouds 24 1013 73 16093 1.5 360 14:41 24.10.2019
5613 Clouds 25 1013 73 16093 1.5 360 14:22 24.10.2019
5614 Clouds 25 1014 65 16093 1.03 65 13:57 24.10.2019
5615 Clouds 25 1014 65 16093 1.03 65 13:37 24.10.2019
5616 Clouds 25 1014 65 16093 1.03 65 13:18 24.10.2019
5617 Clouds 26 1014 65 16093 5.1 70 12:55 24.10.2019
5618 Clouds 26 1014 65 16093 5.1 70 12:37 24.10.2019
5619 Clouds 25 1014 65 16093 5.1 70 12:18 24.10.2019
5620 Clouds 25 1015 65 16093 3.6 70 11:54 24.10.2019
5621 Clouds 26 1015 65 16093 3.6 70 11:36 24.10.2019
5622 Clouds 26 1015 65 16093 3.6 70 11:18 24.10.2019
5623 Clouds 26 1015 65 16093 1.24 99 10:41 24.10.2019
5624 Clouds 26 1015 65 16093 1.24 99 10:22 24.10.2019
5625 Clouds 26 1015 65 16093 2.1 80 09:39 24.10.2019
5626 Clouds 26 1015 65 16093 2.1 80 09:39 24.10.2019
5627 Clouds 26 1015 65 16093 2.1 80 09:19 24.10.2019
5628 Clouds 26 1014 61 16093 2.6 60 08:57 24.10.2019
5629 Clouds 26 1014 61 16093 2.6 60 08:38 24.10.2019
5630 Clouds 26 1014 61 16093 2.6 60 08:18 24.10.2019
5631 Clouds 26 1013 65 16093 3.6 40 07:46 24.10.2019
5632 Clouds 26 1013 65 16093 3.6 40 07:23 24.10.2019
5633 Clouds 27 1012 61 16093 3.6 30 06:47 24.10.2019
5634 Clouds 27 1012 61 16093 3.6 30 06:24 24.10.2019
5635 Clouds 28 1012 51 16093 5.7 30 05:50 24.10.2019
5636 Clouds 28 1012 51 16093 5.7 30 05:29 24.10.2019
5637 Clouds 29 1012 48 16093 4.6 70 03:38 24.10.2019
5638 Clouds 29 1012 48 16093 4.6 70 03:18 24.10.2019
5639 Clouds 29 1012 48 16093 4.6 60 02:26 24.10.2019
5640 Clouds 30 1013 46 16093 5.1 100 01:52 24.10.2019
5641 Clouds 30 1013 46 16093 5.1 100 01:28 24.10.2019
5642 Clouds 29 1014 48 16093 4.6 120 00:44 24.10.2019
5643 Clouds 29 1014 48 16093 4.6 120 00:23 24.10.2019
5644 Clouds 29 1015 65 16093 4.6 80 23:43 23.10.2019
5645 Clouds 29 1015 65 16093 4.6 80 23:23 23.10.2019
5646 Clouds 29 1016 69 16093 3.6 90 22:57 23.10.2019
5647 Clouds 29 1016 69 16093 3.6 90 22:38 23.10.2019
5648 Clouds 29 1016 83 16093 3.1 330 22:19 23.10.2019
5649 Rain 28 1016 58 16093 2.1 80 21:57 23.10.2019
5650 Rain 28 1016 58 16093 2.1 80 21:38 23.10.2019
5651 Drizzle 27 1017 83 12874 3.1 120 21:38 23.10.2019
5652 Rain 28 1016 58 16093 2.1 80 21:20 23.10.2019
5653 Rain 27 1015 74 8047 4.1 90 20:57 23.10.2019
5654 Rain 27 1015 74 8047 4.1 90 20:39 23.10.2019
5655 Clouds 27 1015 61 16093 3.1 90 20:20 23.10.2019
5656 Clouds 26 1015 74 16093 3.1 90 19:57 23.10.2019
5657 Clouds 26 1015 74 16093 3.1 90 19:38 23.10.2019
5658 Clouds 25 1015 74 16093 3.1 90 19:18 23.10.2019
5659 Clouds 25 1014 74 16093 3.1 90 18:54 23.10.2019
5660 Clouds 25 1014 74 16093 3.1 90 18:36 23.10.2019
5661 Clouds 25 1014 74 16093 3.1 90 18:36 23.10.2019
5662 Clouds 25 1014 74 16093 3.1 90 18:18 23.10.2019
5663 Clouds 25 1014 69 16093 2.6 30 17:41 23.10.2019
5664 Clouds 25 1014 69 16093 2.6 30 17:20 23.10.2019
5665 Clouds 26 1014 65 16093 4.1 60 16:55 23.10.2019
5666 Clouds 26 1014 65 16093 4.1 60 16:36 23.10.2019
5667 Clouds 26 1014 65 16093 4.1 60 16:36 23.10.2019
5668 Clouds 26 1014 65 16093 4.1 60 16:18 23.10.2019
5669 Clouds 25 1014 69 16093 3.6 70 15:41 23.10.2019
5670 Clouds 26 1014 69 16093 3.6 70 15:21 23.10.2019
5671 Rain 26 1015 69 16093 5.1 70 14:58 23.10.2019
5672 Rain 26 1015 69 16093 5.1 70 14:38 23.10.2019
5673 Rain 26 1015 69 16093 5.1 70 14:19 23.10.2019
5674 Clouds 26 1014 69 16093 6.2 80 13:57 23.10.2019
5675 Clouds 26 1014 69 16093 6.2 80 13:38 23.10.2019
5676 Rain 26 1015 69 16093 5.1 60 13:20 23.10.2019
5677 Rain 26 1016 69 16093 5.1 70 12:41 23.10.2019
5678 Clouds 26 1016 69 16093 5.1 70 12:20 23.10.2019
5679 Clouds 26 1016 65 16093 4.6 50 11:58 23.10.2019
5680 Clouds 26 1016 65 16093 4.6 50 11:58 23.10.2019
5681 Clouds 26 1016 65 16093 4.6 50 11:40 23.10.2019
5682 Clouds 26 1016 65 16093 4.6 50 11:21 23.10.2019
5683 Clouds 26 1017 61 16093 4.1 60 10:59 23.10.2019
5684 Clouds 26 1017 61 16093 4.1 60 10:41 23.10.2019
5685 Clouds 26 1017 61 16093 4.1 60 10:22 23.10.2019
5686 Clouds 26 1017 65 16093 6.2 50 09:41 23.10.2019
5687 Clouds 26 1017 65 16093 6.2 50 09:23 23.10.2019
5688 Clouds 26 1016 65 16093 7.7 40 08:56 23.10.2019
5689 Clouds 26 1016 65 16093 7.7 40 08:38 23.10.2019
5690 Clouds 26 1016 65 16093 7.7 40 08:18 23.10.2019
5691 Clouds 27 1015 58 16093 7.2 60 07:45 23.10.2019
5692 Clouds 26 1015 58 16093 7.2 60 07:21 23.10.2019
5693 Clouds 27 1015 58 16093 6.2 60 06:45 23.10.2019
5694 Clouds 27 1015 58 16093 6.2 60 06:19 23.10.2019
5695 Clouds 28 1014 54 16093 8.2 60 05:20 23.10.2019
5696 Clouds 30 1014 48 16093 8.7 60 03:58 23.10.2019
5697 Clouds 29 1014 46 16093 7.7 60 02:44 23.10.2019
5698 Clouds 30 1014 66 16093 4.6 70 01:43 23.10.2019
5699 Clouds 30 1015 66 16093 5.1 60 01:19 23.10.2019
5700 Clouds 30 1016 52 16093 8.2 60 00:35 23.10.2019
5701 Clouds 29 1016 66 16093 5.1 70 23:57 22.10.2019
5702 Clouds 29 1016 66 16093 5.1 70 23:37 22.10.2019
5703 Clouds 29 1016 52 16093 6.7 60 23:18 22.10.2019
5704 Clouds 29 1016 69 16093 5.1 70 22:41 22.10.2019
5705 Clouds 29 1016 69 16093 5.1 70 22:41 22.10.2019
5706 Clouds 29 1017 55 16093 6.7 50 22:23 22.10.2019
5707 Clouds 28 1017 65 16093 6.2 70 21:57 22.10.2019
5708 Clouds 28 1017 65 16093 6.2 70 21:39 22.10.2019
5709 Clouds 28 1017 54 16093 6.7 70 21:19 22.10.2019
5710 Clouds 28 1016 58 16093 5.1 60 20:59 22.10.2019
5711 Clouds 28 1016 58 16093 5.1 60 20:40 22.10.2019
5712 Clouds 27 1016 58 16093 5.1 60 20:22 22.10.2019
5713 Clouds 26 1016 65 16093 5.7 60 19:59 22.10.2019
5714 Clouds 26 1016 65 16093 5.7 60 19:40 22.10.2019
5715 Clouds 26 1016 65 16093 5.7 60 19:22 22.10.2019
5716 Clouds 26 1016 88 16093 4.25 87 18:56 22.10.2019
5717 Clouds 25 1016 88 16093 4.25 87 18:37 22.10.2019
5718 Clouds 26 1015 65 16093 3.6 60 18:19 22.10.2019
5719 Clouds 26 1016 61 16093 4.6 60 17:55 22.10.2019
5720 Clouds 26 1016 61 16093 4.6 60 17:36 22.10.2019
5721 Clouds 25 1016 61 16093 4.6 60 17:18 22.10.2019
5722 Clouds 26 1015 69 16093 3.6 90 16:39 22.10.2019
5723 Clouds 26 1015 65 16093 3.1 50 16:20 22.10.2019
5724 Clouds 26 1015 69 16093 4.1 80 15:59 22.10.2019
5725 Clouds 26 1015 69 16093 4.1 80 15:41 22.10.2019
5726 Clouds 26 1015 61 16093 6.2 80 15:19 22.10.2019
5727 Clouds 26 1016 65 16093 4.1 70 14:46 22.10.2019
5728 Clouds 26 1016 65 16093 4.1 70 14:22 22.10.2019
5729 Clouds 26 1016 69 16093 4.6 80 13:55 22.10.2019
5730 Clouds 26 1016 69 16093 4.6 80 13:55 22.10.2019
5731 Clouds 26 1016 69 16093 4.6 80 13:37 22.10.2019
5732 Clouds 26 1016 69 16093 4.6 60 13:18 22.10.2019
5733 Clouds 26 1016 69 16093 4.6 70 12:41 22.10.2019
5734 Clouds 26 1016 69 16093 4.6 70 12:22 22.10.2019
5735 Clouds 26 1017 65 16093 3.6 70 11:59 22.10.2019
5736 Clouds 26 1017 65 16093 3.6 70 11:39 22.10.2019
5737 Clouds 26 1017 65 16093 3.6 70 11:21 22.10.2019
5738 Clouds 26 1017 65 16093 3.6 70 11:21 22.10.2019
5739 Clouds 26 1017 65 16093 4.1 70 10:58 22.10.2019
5740 Clouds 26 1017 65 16093 4.1 70 10:37 22.10.2019
5741 Clouds 26 1017 65 16093 4.1 70 10:37 22.10.2019
5742 Clouds 26 1017 65 16093 4.1 70 10:19 22.10.2019
5743 Clouds 27 1017 65 16093 4.6 90 09:55 22.10.2019
5744 Clouds 27 1017 65 16093 4.6 90 09:36 22.10.2019
5745 Clouds 27 1017 65 16093 4.6 90 09:18 22.10.2019
5746 Clouds 27 1017 88 16093 3.1 90 08:42 22.10.2019
5747 Clouds 27 1017 88 16093 3.1 90 08:21 22.10.2019
5748 Clouds 27 1017 88 16093 3.1 90 08:21 22.10.2019
5749 Clouds 27 1015 65 16093 5.7 60 07:48 22.10.2019
5750 Clouds 27 1015 65 16093 5.7 60 07:26 22.10.2019
5751 Clouds 27 1015 65 16093 5.7 60 07:26 22.10.2019
5752 Clouds 27 1015 65 16093 7.2 60 06:51 22.10.2019
5753 Clouds 27 1015 65 16093 7.2 60 06:31 22.10.2019
5754 Clouds 27 1015 74 16093 4.6 70 05:56 22.10.2019
5755 Rain 28 1014 62 16093 6.7 60 05:20 22.10.2019
5756 Clouds 29 1014 70 16093 4.6 90 02:47 22.10.2019
5757 Clouds 30 1014 70 16093 5.1 70 01:51 22.10.2019
5758 Clouds 30 1015 52 16093 7.7 70 01:26 22.10.2019
5759 Clouds 29 1016 52 16093 7.7 70 00:57 22.10.2019
5760 Clouds 30 1016 52 16093 7.7 70 00:39 22.10.2019
5761 Clouds 29 1016 52 16093 7.7 70 00:20 22.10.2019
5762 Clouds 29 1017 69 16093 3.1 80 23:39 21.10.2019
5763 Clouds 30 1016 70 16093 5.1 70 23:20 21.10.2019
5764 Clouds 29 1016 70 16093 4.6 70 22:59 21.10.2019
5765 Clouds 29 1016 70 16093 4.6 70 22:40 21.10.2019
5766 Rain 29 1016 58 16093 4.1 100 22:20 21.10.2019
5767 Rain 29 1017 62 16093 5.1 50 21:58 21.10.2019
5768 Rain 29 1017 62 16093 5.1 50 21:39 21.10.2019
5769 Rain 28 1017 62 16093 5.1 50 21:21 21.10.2019
5770 Rain 28 1016 65 16093 4.1 70 20:58 21.10.2019
5771 Rain 27 1016 65 16093 4.1 70 20:39 21.10.2019
5772 Rain 27 1016 65 16093 4.1 70 20:20 21.10.2019
5773 Rain 27 1016 65 16093 4.1 70 20:20 21.10.2019
5774 Clouds 26 1016 69 16093 4.1 70 19:57 21.10.2019
5775 Clouds 26 1016 69 16093 4.1 70 19:38 21.10.2019
5776 Clouds 26 1016 69 16093 4.1 70 19:20 21.10.2019
5777 Clouds 25 1015 74 16093 2.6 80 18:55 21.10.2019
5778 Clouds 25 1015 74 16093 3.6 50 18:36 21.10.2019
5779 Clouds 25 1015 74 16093 3.6 50 18:18 21.10.2019
5780 Clouds 25 1015 74 16093 3.1 40 17:39 21.10.2019
5781 Clouds 25 1015 74 16093 3.1 40 17:20 21.10.2019
5782 Clouds 26 1014 74 16093 3.6 80 16:59 21.10.2019
5783 Clouds 25 1015 94 16093 2.58 92 16:40 21.10.2019
5784 Clouds 25 1014 74 16093 3.6 80 16:22 21.10.2019
5785 Clouds 25 1014 74 16093 3.6 90 15:58 21.10.2019
5786 Clouds 25 1014 74 16093 3.6 90 15:39 21.10.2019
5787 Clouds 25 1015 69 16093 2.1 50 15:19 21.10.2019
5788 Clouds 25 1015 74 16093 3.1 60 14:40 21.10.2019
5789 Clouds 25 1015 74 16093 3.1 60 14:22 21.10.2019
5790 Clouds 25 1016 69 16093 3.1 40 13:59 21.10.2019
5791 Clouds 26 1016 69 16093 3.1 40 13:40 21.10.2019
5792 Clouds 26 1016 69 16093 3.1 40 13:20 21.10.2019
5793 Clouds 26 1017 83 16093 1.62 86 12:58 21.10.2019
5794 Clouds 26 1017 83 16093 1.62 86 12:40 21.10.2019
5795 Clouds 26 1016 65 16093 3.1 70 12:20 21.10.2019
5796 Clouds 26 1016 65 16093 3.1 70 12:20 21.10.2019
5797 Clouds 26 1017 65 16093 4.1 50 11:42 21.10.2019
5798 Clouds 26 1017 65 16093 4.1 50 11:23 21.10.2019
5799 Clouds 26 1017 69 16093 5.7 50 10:58 21.10.2019
5800 Clouds 26 1017 69 16093 5.7 50 10:40 21.10.2019
5801 Clouds 26 1017 69 16093 5.7 50 10:20 21.10.2019
5802 Clouds 26 1016 74 16093 3.6 90 09:57 21.10.2019
5803 Clouds 26 1016 74 16093 3.6 90 09:38 21.10.2019
5804 Clouds 27 1016 69 16093 3.1 100 09:19 21.10.2019
5805 Clouds 27 1016 74 16093 1.5 70 08:41 21.10.2019
5806 Clouds 26 1016 65 16093 5.7 50 08:22 21.10.2019
5807 Clouds 27 1015 65 16093 3.6 50 07:45 21.10.2019
5808 Clouds 27 1015 65 16093 3.6 50 07:23 21.10.2019
5809 Clouds 27 1015 69 16093 3.6 70 06:59 21.10.2019
5810 Clouds 27 1015 69 16093 3.6 70 06:40 21.10.2019
5811 Clouds 27 1015 65 16093 4.6 60 06:18 21.10.2019
5812 Clouds 28 1014 62 16093 5.1 50 05:21 21.10.2019
5813 Rain 28 1015 74 16093 3.6 80 03:39 21.10.2019
5814 Rain 28 1015 83 2816 3.6 310 02:39 21.10.2019
5815 Rain 28 1015 83 2816 3.6 310 02:19 21.10.2019
5816 Rain 29 1015 62 16093 4.6 30 01:43 21.10.2019
5817 Rain 29 1016 78 16093 2.6 70 00:51 21.10.2019
5818 Rain 29 1015 70 16093 3.1 80 00:28 21.10.2019
5819 Rain 28 1017 78 16093 4.6 100 23:43 20.10.2019
5820 Rain 28 1017 78 8047 4.1 40 23:23 20.10.2019
5821 Rain 28 1017 66 16093 2.6 130 22:58 20.10.2019
5822 Rain 27 1016 83 16093 4.6 240 22:39 20.10.2019
5823 Rain 27 1017 66 16093 2.6 130 22:19 20.10.2019
5824 Rain 28 1016 78 6437 1.5 120 21:59 20.10.2019
5825 Rain 28 1016 78 6437 1.5 120 21:39 20.10.2019
5826 Rain 28 1016 88 2816 2.15 92.323 21:21 20.10.2019
5827 Rain 27 1016 83 16093 1.5 230 20:42 20.10.2019
5828 Rain 26 1016 83 16093 1.5 230 20:20 20.10.2019
5829 Rain 26 1015 83 6437 1.5 220 19:57 20.10.2019
5830 Rain 25 1015 83 6437 1.5 220 19:39 20.10.2019
5831 Rain 25 1016 83 16093 2.1 360 19:20 20.10.2019
5832 Rain 24 1016 88 16093 2.24 93.845 18:58 20.10.2019
5833 Rain 24 1016 88 16093 2.24 93.845 18:40 20.10.2019
5834 Rain 24 1015 78 16093 1.5 10 18:20 20.10.2019
5835 Clouds 25 1014 83 16093 2.6 240 17:56 20.10.2019
5836 Clouds 25 1014 83 16093 2.6 240 17:37 20.10.2019
5837 Clouds 25 1015 78 16093 2.1 350 17:18 20.10.2019
5838 Clouds 25 1014 74 16093 2.6 120 16:42 20.10.2019
5839 Clouds 25 1014 74 16093 2.6 120 16:42 20.10.2019
5840 Clouds 25 1015 78 16093 2.17 87.305 16:23 20.10.2019
5841 Clouds 25 1015 78 16093 1.5 40 15:58 20.10.2019
5842 Clouds 25 1015 78 16093 1.5 40 15:38 20.10.2019
5843 Clouds 25 1015 78 16093 1.5 40 15:20 20.10.2019
5844 Clouds 25 1015 78 16093 1.5 30 14:57 20.10.2019
5845 Clouds 25 1015 78 16093 1.5 30 14:37 20.10.2019
5846 Clouds 25 1015 78 16093 1.5 30 14:19 20.10.2019
5847 Clouds 25 1015 78 16093 3.6 110 13:55 20.10.2019
5848 Clouds 25 1015 78 16093 3.6 110 13:36 20.10.2019
5849 Clouds 25 1016 78 16093 2.1 350 13:18 20.10.2019
5850 Clouds 25 1016 74 16093 1.5 330 12:55 20.10.2019
5851 Clouds 25 1016 74 16093 1.5 330 12:37 20.10.2019
5852 Clouds 25 1016 74 16093 1.5 330 12:19 20.10.2019
5853 Clouds 25 1016 74 16093 2.1 330 11:42 20.10.2019
5854 Clouds 25 1016 74 16093 2.1 330 11:23 20.10.2019
5855 Clouds 26 1017 74 16093 2.6 330 10:59 20.10.2019
5856 Clouds 26 1017 74 16093 2.6 330 10:40 20.10.2019
5857 Clouds 26 1017 74 16093 2.6 330 10:21 20.10.2019
5858 Clouds 26 1017 69 16093 1.5 10 09:57 20.10.2019
5859 Clouds 26 1017 69 16093 1.5 10 09:38 20.10.2019
5860 Clouds 26 1017 69 16093 1.5 10 09:20 20.10.2019
5861 Clouds 26 1017 78 16093 1.67 70.404 08:44 20.10.2019
5862 Clouds 27 1016 65 16093 1.67 70.404 08:22 20.10.2019
5863 Clouds 27 1016 65 16093 2.6 70 07:49 20.10.2019
5864 Clouds 27 1016 65 16093 2.6 70 07:29 20.10.2019
5865 Clouds 28 1015 62 16093 2.6 70 06:31 20.10.2019
5866 Rain 29 1014 55 16093 5.1 50 04:41 20.10.2019
5867 Rain 29 1014 52 16093 2.6 90 03:59 20.10.2019
5868 Rain 29 1014 52 16093 2.6 90 03:39 20.10.2019
5869 Rain 29 1014 52 16093 2.6 90 03:18 20.10.2019
5870 Clouds 29 1015 52 16093 6.2 60 02:28 20.10.2019
5871 Clouds 30 1015 48 16093 6.7 80 01:54 20.10.2019
5872 Clouds 30 1015 48 16093 6.7 80 01:23 20.10.2019
5873 Clouds 30 1016 48 16093 5.7 60 00:53 20.10.2019
5874 Clouds 29 1016 48 16093 5.7 60 00:21 20.10.2019
5875 Clouds 29 1017 51 16093 6.7 50 23:55 19.10.2019
5876 Clouds 29 1017 51 16093 6.7 50 23:37 19.10.2019
5877 Clouds 29 1017 51 16093 6.7 50 23:19 19.10.2019
5878 Clouds 28 1017 48 16093 5.7 70 22:41 19.10.2019
5879 Clouds 28 1017 48 16093 5.7 70 22:23 19.10.2019
5880 Clouds 29 1018 54 16093 3.6 60 21:58 19.10.2019
5881 Clouds 28 1018 54 16093 3.6 60 21:40 19.10.2019
5882 Clouds 28 1018 54 16093 3.6 60 21:40 19.10.2019
5883 Clouds 27 1018 54 16093 3.6 60 21:20 19.10.2019
5884 Rain 27 1017 61 16093 3.6 40 20:43 19.10.2019
5885 Rain 26 1018 88 16093 2.1 120 20:21 19.10.2019
5886 Mist 26 1018 94 16093 2.1 100 19:45 19.10.2019
5887 Mist 26 1017 69 16093 2.6 70 19:27 19.10.2019
5888 Clouds 26 1016 69 16093 3.1 60 18:59 19.10.2019
5889 Clouds 26 1016 69 16093 3.1 60 18:41 19.10.2019
5890 Clouds 26 1016 69 16093 3.1 60 18:41 19.10.2019
5891 Clouds 25 1016 69 16093 3.1 60 18:22 19.10.2019
5892 Clouds 25 1016 74 16093 3.6 40 17:41 19.10.2019
5893 Clouds 25 1016 74 16093 3.6 40 17:41 19.10.2019
5894 Clouds 25 1016 74 16093 3.6 40 17:23 19.10.2019
5895 Clouds 25 1015 69 16093 4.6 80 16:57 19.10.2019
5896 Clouds 25 1015 69 16093 4.6 80 16:57 19.10.2019
5897 Clouds 25 1015 69 16093 4.6 80 16:38 19.10.2019
5898 Clouds 25 1015 69 16093 4.6 80 16:19 19.10.2019
5899 Clouds 25 1016 69 16093 2.1 80 15:42 19.10.2019
5900 Clouds 25 1016 69 16093 2.1 80 15:24 19.10.2019
5901 Clouds 25 1017 69 16093 4.6 80 14:39 19.10.2019
5902 Clouds 25 1017 69 16093 4.6 80 14:21 19.10.2019
5903 Clouds 25 1017 69 16093 4.6 80 14:20 19.10.2019
5904 Clouds 25 1018 94 16093 1.5 80 13:58 19.10.2019
5905 Clouds 25 1018 94 16093 1.5 80 13:40 19.10.2019
5906 Clouds 25 1017 74 16093 4.1 80 13:19 19.10.2019
5907 Clouds 25 1017 74 16093 4.1 80 13:19 19.10.2019
5908 Clouds 25 1017 74 16093 5.1 90 12:57 19.10.2019
5909 Clouds 25 1017 74 16093 5.1 90 12:37 19.10.2019
5910 Clouds 25 1018 74 16093 4.1 80 12:19 19.10.2019
5911 Clouds 26 1018 69 16093 4.1 70 11:41 19.10.2019
5912 Clouds 25 1018 69 16093 4.1 70 11:23 19.10.2019
5913 Clouds 25 1018 61 16093 5.1 70 10:56 19.10.2019
5914 Clouds 25 1018 61 16093 5.1 70 10:38 19.10.2019
5915 Clouds 26 1018 61 16093 5.1 70 10:20 19.10.2019
5916 Clouds 26 1018 65 16093 4.1 90 09:43 19.10.2019
5917 Clouds 26 1018 65 16093 4.1 90 09:25 19.10.2019
5918 Rain 26 1017 65 16093 4.1 80 08:59 19.10.2019
5919 Rain 26 1017 65 16093 4.1 80 08:59 19.10.2019
5920 Rain 26 1017 65 16093 4.1 80 08:59 19.10.2019
5921 Rain 26 1017 65 16093 4.1 80 08:59 19.10.2019
5922 Rain 26 1017 65 16093 4.1 80 08:40 19.10.2019
5923 Rain 26 1017 65 16093 4.1 80 08:21 19.10.2019
5924 Clouds 26 1017 61 16093 6.2 60 07:44 19.10.2019
5925 Clouds 26 1017 61 16093 6.2 60 07:25 19.10.2019
5926 Clouds 26 1017 61 16093 6.2 60 07:25 19.10.2019
5927 Haze 27 1017 78 16093 3.24 76.393 06:47 19.10.2019
5928 Rain 27 1017 74 16093 4.1 80 05:58 19.10.2019
5929 Clouds 28 1016 54 16093 8.2 70 05:32 19.10.2019
5930 Rain 28 1016 51 16093 8.2 60 04:21 19.10.2019
5931 Clouds 29 1017 65 16093 5.7 70 02:44 19.10.2019
5932 Clouds 30 1016 66 16093 4.1 90 01:53 19.10.2019
5933 Clouds 30 1017 48 16093 7.7 60 01:20 19.10.2019
5934 Clouds 29 1018 48 16093 7.2 50 00:47 19.10.2019
5935 Clouds 29 1018 48 16093 7.2 50 00:25 19.10.2019
5936 Rain 28 1018 65 16093 4.1 80 23:43 18.10.2019
5937 Rain 28 1018 65 16093 4.1 80 23:25 18.10.2019
5938 Rain 28 1019 74 16093 4.6 130 22:56 18.10.2019
5939 Rain 27 1019 74 16093 4.6 130 22:38 18.10.2019
5940 Rain 27 1019 65 16093 3.6 40 22:20 18.10.2019
5941 Rain 27 1019 65 16093 3.6 40 22:20 18.10.2019
5942 Rain 28 1018 69 16093 5.7 100 21:57 18.10.2019
5943 Rain 28 1018 69 16093 5.7 100 21:38 18.10.2019
5944 Rain 28 1019 62 16093 6.2 50 21:20 18.10.2019
5945 Clouds 27 1018 65 16093 5.1 110 20:56 18.10.2019
5946 Clouds 26 1018 65 16093 5.1 110 20:38 18.10.2019
5947 Clouds 26 1018 69 16093 4.1 60 20:19 18.10.2019
5948 Rain 26 1018 74 16093 2.6 40 19:55 18.10.2019
5949 Rain 25 1018 74 16093 2.6 40 19:37 18.10.2019
5950 Rain 25 1018 74 16093 2.6 40 19:19 18.10.2019
5951 Rain 25 1017 78 16093 4.1 90 18:42 18.10.2019
5952 Rain 25 1017 78 16093 4.1 90 18:24 18.10.2019
5953 Rain 25 1017 78 16093 4.1 90 18:24 18.10.2019
5954 Rain 24 1018 100 16093 2.1 40 17:57 18.10.2019
5955 Rain 25 1018 100 16093 2.1 40 17:38 18.10.2019
5956 Rain 24 1017 78 16093 3.1 50 17:20 18.10.2019
5957 Rain 24 1017 78 16093 3.1 50 17:20 18.10.2019
5958 Clouds 25 1017 69 16093 1.5 0 16:44 18.10.2019
5959 Clouds 25 1017 69 16093 1.5 0 16:44 18.10.2019
5960 Clouds 25 1017 69 16093 1.5 0 16:22 18.10.2019
5961 Rain 25 1018 100 16093 3.14 77.249 15:59 18.10.2019
5962 Rain 25 1018 100 16093 3.14 77.249 15:40 18.10.2019
5963 Rain 25 1017 74 16093 1.5 20 15:21 18.10.2019
5964 Clouds 25 1018 94 16093 2.99 81.07 14:58 18.10.2019
5965 Clouds 25 1018 94 16093 2.99 81.07 14:39 18.10.2019
5966 Clouds 25 1018 74 16093 3.6 60 14:21 18.10.2019
5967 Clouds 25 1018 74 16093 2.6 40 13:58 18.10.2019
5968 Rain 25 1018 74 16093 2.6 40 13:39 18.10.2019
5969 Rain 25 1018 74 16093 2.6 40 13:21 18.10.2019
5970 Clouds 25 1018 69 16093 3.1 90 12:56 18.10.2019
5971 Clouds 25 1018 69 16093 3.1 90 12:37 18.10.2019
5972 Drizzle 25 1018 74 16093 3.1 80 12:19 18.10.2019
5973 Clouds 25 1020 100 16093 2.63 90.892 11:42 18.10.2019
5974 Rain 25 1019 78 16093 3.1 70 11:21 18.10.2019
5975 Rain 25 1020 94 14484 1.5 160 10:59 18.10.2019
5976 Rain 25 1020 94 14484 1.5 160 10:41 18.10.2019
5977 Rain 25 1018 69 16093 3.1 90 10:22 18.10.2019
5978 Clouds 26 1018 69 16093 4.6 70 09:58 18.10.2019
5979 Clouds 26 1018 69 16093 4.6 70 09:39 18.10.2019
5980 Clouds 26 1018 69 16093 4.6 70 09:19 18.10.2019
5981 Drizzle 26 1019 83 16093 1.5 80 08:45 18.10.2019
5982 Clouds 26 1018 74 16093 3.6 70 08:26 18.10.2019
5983 Clouds 26 1017 69 16093 6.2 60 07:57 18.10.2019
5984 Clouds 26 1017 69 16093 6.2 60 07:39 18.10.2019
5985 Clouds 26 1017 69 16093 6.2 60 07:18 18.10.2019
5986 Rain 26 1017 65 16093 6.7 50 06:37 18.10.2019
5987 Rain 26 1017 65 16093 6.7 50 06:19 18.10.2019
5988 Rain 28 1017 74 16093 3.1 70 05:53 18.10.2019
5989 Rain 28 1016 62 16093 6.7 70 05:20 18.10.2019
5990 Clouds 29 1017 69 16093 3.6 50 03:41 18.10.2019
5991 Rain 29 1017 65 16093 5.7 70 02:56 18.10.2019
5992 Rain 29 1017 65 16093 5.7 70 02:56 18.10.2019
5993 Rain 29 1017 65 16093 5.7 70 02:32 18.10.2019
5994 Rain 29 1018 69 16093 4.6 70 01:40 18.10.2019
5995 Rain 29 1017 55 16093 7.2 80 01:21 18.10.2019
5996 Clouds 29 1018 74 16093 3.6 90 00:43 18.10.2019
5997 Clouds 29 1018 52 16093 7.7 50 00:20 18.10.2019
5998 Clouds 29 1018 66 16093 5.1 80 23:40 17.10.2019
5999 Clouds 29 1018 66 16093 5.1 80 23:21 17.10.2019
6000 Rain 29 1018 62 16093 6.2 70 22:57 17.10.2019
6001 Rain 29 1018 62 16093 6.2 70 22:39 17.10.2019
6002 Rain 29 1018 62 16093 6.2 70 22:19 17.10.2019
6003 Clouds 28 1018 58 16093 5.7 80 21:57 17.10.2019
6004 Clouds 28 1018 58 16093 5.7 80 21:57 17.10.2019
6005 Clouds 28 1018 58 16093 5.7 80 21:39 17.10.2019
6006 Clouds 28 1018 58 16093 5.7 80 21:20 17.10.2019
6007 Clouds 28 1018 65 16093 3.1 70 20:58 17.10.2019
6008 Clouds 28 1018 65 16093 3.1 70 20:39 17.10.2019
6009 Clouds 27 1018 65 16093 3.1 70 20:19 17.10.2019
6010 Clouds 27 1018 65 16093 3.1 70 20:19 17.10.2019
6011 Clouds 26 1017 74 16093 3.6 90 19:58 17.10.2019
6012 Clouds 26 1017 74 16093 3.6 90 19:39 17.10.2019
6013 Clouds 26 1017 69 16093 3.6 80 19:19 17.10.2019
6014 Clouds 26 1017 69 16093 3.6 80 19:19 17.10.2019
6015 Clouds 25 1016 74 16093 3.1 50 18:43 17.10.2019
6016 Clouds 25 1016 74 16093 3.1 50 18:21 17.10.2019
6017 Clouds 25 1016 69 16093 3.1 30 17:58 17.10.2019
6018 Clouds 25 1016 69 16093 3.1 30 17:40 17.10.2019
6019 Clouds 25 1016 69 16093 3.1 30 17:22 17.10.2019
6020 Clouds 26 1016 74 16093 2.6 60 16:56 17.10.2019
6021 Clouds 25 1016 74 16093 2.6 60 16:37 17.10.2019
6022 Clouds 25 1016 74 16093 2.6 60 16:37 17.10.2019
6023 Clouds 25 1016 74 16093 2.6 60 16:18 17.10.2019
6024 Clouds 25 1015 74 16093 7.2 80 15:55 17.10.2019
6025 Clouds 25 1015 74 16093 7.2 80 15:37 17.10.2019
6026 Clouds 26 1016 69 16093 3.1 60 15:18 17.10.2019
6027 Clouds 26 1016 65 16093 4.1 70 14:42 17.10.2019
6028 Clouds 25 1016 65 16093 4.1 70 14:23 17.10.2019
6029 Clouds 25 1016 65 16093 4.1 70 14:23 17.10.2019
6030 Clouds 26 1017 65 16093 4.1 70 13:55 17.10.2019
6031 Clouds 26 1017 65 16093 4.1 70 13:36 17.10.2019
6032 Clouds 26 1017 65 16093 4.1 70 13:18 17.10.2019
6033 Clouds 25 1017 69 16093 5.1 90 12:41 17.10.2019
6034 Clouds 25 1017 69 16093 3.1 60 12:20 17.10.2019
6035 Clouds 26 1018 88 16093 2.1 80 11:57 17.10.2019
6036 Drizzle 26 1018 88 12874 4.6 70 11:39 17.10.2019
6037 Drizzle 26 1018 88 12874 4.6 70 11:19 17.10.2019
6038 Clouds 26 1017 65 16093 5.7 60 10:42 17.10.2019
6039 Clouds 26 1017 65 16093 5.7 60 10:42 17.10.2019
6040 Clouds 26 1017 65 16093 5.7 60 10:21 17.10.2019
6041 Clouds 26 1017 65 16093 5.7 60 10:21 17.10.2019
6042 Clouds 26 1018 83 16093 4.1 80 09:59 17.10.2019
6043 Clouds 26 1018 83 16093 4.1 80 09:41 17.10.2019
6044 Clouds 26 1018 83 16093 4.1 80 09:41 17.10.2019
6045 Clouds 26 1017 65 16093 5.1 60 09:21 17.10.2019
6046 Clouds 26 1017 83 16093 4.173 82 08:58 17.10.2019
6047 Clouds 26 1017 83 16093 4.173 82 08:58 17.10.2019
6048 Clouds 26 1017 83 16093 4.173 82 08:39 17.10.2019
6049 Rain 26 1017 78 16093 4.173 82 08:19 17.10.2019
6050 Clouds 26 1016 61 16093 5.1 50 07:50 17.10.2019
6051 Clouds 26 1016 61 16093 5.1 50 07:21 17.10.2019
6052 Clouds 26 1016 61 16093 5.1 50 07:21 17.10.2019
6053 Clouds 26 1015 61 16093 6.7 50 06:59 17.10.2019
6054 Clouds 26 1015 61 16093 6.7 50 06:39 17.10.2019
6055 Clouds 27 1015 61 16093 6.7 50 06:20 17.10.2019
6056 Clouds 27 1015 58 16093 3.1 0 05:46 17.10.2019
6057 Clouds 27 1014 54 16093 8.2 40 05:28 17.10.2019
6058 Clouds 28 1014 54 16093 6.2 60 04:50 17.10.2019
6059 Rain 28 1014 61 16093 6.7 70 03:50 17.10.2019
6060 Rain 27 1015 78 8047 4.1 50 02:35 17.10.2019
6061 Rain 27 1017 94 6437 3.6 50 00:44 17.10.2019
6062 Rain 27 1016 66 16093 5.7 40 00:22 17.10.2019
6063 Clouds 27 1016 78 16093 4.6 60 23:59 16.10.2019
6064 Clouds 27 1016 78 16093 4.6 60 23:41 16.10.2019
6065 Rain 27 1017 74 16093 4.1 40 23:19 16.10.2019
6066 Rain 27 1017 83 6437 5.1 60 22:55 16.10.2019
6067 Rain 27 1017 83 6437 5.1 60 22:55 16.10.2019
6068 Rain 27 1017 83 6437 5.1 60 22:36 16.10.2019
6069 Rain 27 1017 83 6437 5.1 60 22:36 16.10.2019
6070 Rain 27 1016 83 4828 6.7 60 22:18 16.10.2019
6071 Rain 28 1017 65 16093 3.6 30 21:55 16.10.2019
6072 Rain 28 1017 65 16093 3.6 30 21:54 16.10.2019
6073 Rain 28 1017 65 16093 3.6 30 21:54 16.10.2019
6074 Rain 28 1017 65 16093 3.6 30 21:54 16.10.2019
6075 Rain 28 1017 65 16093 3.6 30 21:36 16.10.2019
6076 Clouds 27 1017 83 16093 2.1 20 21:18 16.10.2019
6077 Clouds 27 1016 69 16093 4.1 50 20:54 16.10.2019
6078 Clouds 27 1016 69 16093 4.1 50 20:36 16.10.2019
6079 Clouds 27 1016 69 16093 4.1 50 20:36 16.10.2019
6080 Clouds 26 1016 69 16093 4.1 50 20:18 16.10.2019
6081 Rain 26 1015 74 8047 1.5 80 19:40 16.10.2019
6082 Clouds 25 1015 74 16093 3.6 50 19:21 16.10.2019
6083 Clouds 25 1015 74 16093 3.6 50 19:21 16.10.2019
6084 Clouds 24 1015 78 16093 2.1 350 18:57 16.10.2019
6085 Clouds 24 1015 78 16093 2.1 350 18:57 16.10.2019
6086 Clouds 24 1015 78 16093 2.1 350 18:56 16.10.2019
6087 Clouds 24 1015 78 16093 2.1 350 18:37 16.10.2019
6088 Clouds 24 1015 78 16093 2.1 350 18:18 16.10.2019
6089 Clouds 24 1015 78 16093 2.1 350 18:18 16.10.2019
6090 Clouds 23 1015 73 16093 1.206 61 17:55 16.10.2019
6091 Clouds 23 1015 73 16093 1.206 61 17:36 16.10.2019
6092 Clouds 25 1015 73 16093 1.206 61 17:18 16.10.2019
6093 Clouds 25 1015 65 16093 1.206 61 16:43 16.10.2019
6094 Clouds 25 1015 65 16093 1.206 61 16:22 16.10.2019
6095 Clouds 25 1015 74 16093 3.1 70 15:59 16.10.2019
6096 Clouds 25 1015 74 16093 3.1 70 15:39 16.10.2019
6097 Clouds 25 1016 61 16093 1.5 20 15:19 16.10.2019
6098 Clouds 25 1016 61 16093 1.5 20 14:58 16.10.2019
6099 Clouds 25 1016 61 16093 1.5 20 14:39 16.10.2019
6100 Clouds 25 1016 61 16093 1.5 20 14:39 16.10.2019
6101 Clouds 25 1016 61 16093 1.5 20 14:20 16.10.2019
6102 Clouds 25 1016 61 16093 1.5 20 13:57 16.10.2019
6103 Clouds 26 1016 61 16093 1.5 10 13:38 16.10.2019
6104 Clouds 26 1016 61 16093 1.5 10 13:38 16.10.2019
6105 Clouds 25 1016 61 16093 1.5 10 13:20 16.10.2019
6106 Clouds 25 1017 65 16093 2.1 40 12:42 16.10.2019
6107 Clouds 25 1017 65 16093 2.1 40 12:20 16.10.2019
6108 Clouds 26 1017 61 16093 3.1 30 11:45 16.10.2019
6109 Clouds 26 1017 61 16093 3.1 30 11:45 16.10.2019
6110 Clouds 26 1017 61 16093 3.1 30 11:19 16.10.2019
6111 Clouds 26 1017 61 16093 3.1 30 10:55 16.10.2019
6112 Clouds 26 1017 61 16093 3.1 30 10:36 16.10.2019
6113 Clouds 26 1017 61 16093 3.1 30 10:18 16.10.2019
6114 Clouds 26 1017 61 16093 3.1 30 09:40 16.10.2019
6115 Clouds 26 1017 61 16093 3.1 30 09:21 16.10.2019
6116 Clouds 26 1017 61 16093 4.1 50 08:46 16.10.2019
6117 Clouds 26 1017 61 16093 4.1 50 08:26 16.10.2019
6118 Clouds 26 1017 61 16093 4.1 50 07:58 16.10.2019
6119 Clouds 26 1016 61 16093 4.1 30 07:40 16.10.2019
6120 Clouds 26 1016 61 16093 4.1 30 07:21 16.10.2019
6121 Clouds 26 1016 58 16093 4.1 30 06:40 16.10.2019
6122 Clouds 27 1016 58 16093 4.1 30 06:19 16.10.2019
6123 Clouds 29 1015 45 16093 5.1 60 03:46 16.10.2019
6124 Clouds 30 1015 48 16093 4.6 50 02:50 16.10.2019
6125 Clouds 30 1016 48 16093 6.2 50 01:20 16.10.2019
6126 Clouds 30 1016 48 16093 6.2 50 00:57 16.10.2019
6127 Clouds 29 1017 45 16093 6.2 30 00:37 16.10.2019
6128 Clouds 30 1017 45 16093 5.7 30 23:42 15.10.2019
6129 Clouds 29 1017 45 16093 5.7 30 23:23 15.10.2019
6130 Clouds 29 1017 45 16093 5.7 30 22:58 15.10.2019
6131 Clouds 29 1018 51 16093 5.7 30 22:40 15.10.2019
6132 Clouds 29 1018 51 16093 5.7 30 22:21 15.10.2019
6133 Clouds 29 1018 51 16093 5.7 30 21:57 15.10.2019
6134 Clouds 28 1017 54 16093 5.1 40 21:38 15.10.2019
6135 Clouds 28 1017 54 16093 5.1 40 21:20 15.10.2019
6136 Clouds 28 1017 54 16093 5.1 40 20:58 15.10.2019
6137 Clouds 27 1017 58 16093 4.1 20 20:40 15.10.2019
6138 Clouds 27 1017 58 16093 4.1 20 20:21 15.10.2019
6139 Clouds 26 1017 58 16093 4.1 20 19:59 15.10.2019
6140 Clouds 25 1017 69 16093 3.1 20 19:40 15.10.2019
6141 Clouds 25 1017 69 16093 3.1 20 19:40 15.10.2019
6142 Clouds 25 1017 69 16093 3.1 20 19:20 15.10.2019
6143 Clouds 25 1017 65 16093 2.6 20 18:48 15.10.2019
6144 Clouds 25 1017 65 16093 2.6 20 18:30 15.10.2019
6145 Clouds 25 1017 65 16093 2.6 20 17:59 15.10.2019
6146 Clouds 25 1016 65 16093 2.6 330 17:41 15.10.2019
6147 Clouds 25 1016 65 16093 2.6 330 17:41 15.10.2019
6148 Clouds 25 1016 65 16093 2.6 330 17:20 15.10.2019
6149 Clouds 26 1016 65 16093 2.6 330 16:57 15.10.2019
6150 Clouds 25 1016 65 16093 1.5 0 16:38 15.10.2019
6151 Clouds 25 1016 65 16093 1.5 0 16:20 15.10.2019
6152 Clouds 25 1016 65 16093 5.7 40 15:43 15.10.2019
6153 Clouds 25 1016 65 16093 5.7 40 15:43 15.10.2019
6154 Clouds 25 1016 65 16093 5.7 40 15:21 15.10.2019
6155 Clouds 25 1016 65 16093 5.7 40 14:58 15.10.2019
6156 Clouds 25 1016 65 16093 5.7 50 14:38 15.10.2019
6157 Clouds 25 1016 65 16093 5.7 50 14:20 15.10.2019
6158 Clouds 25 1016 65 16093 5.7 50 13:56 15.10.2019
6159 Clouds 25 1017 61 16093 4.1 50 13:37 15.10.2019
6160 Clouds 25 1017 61 16093 4.1 50 13:19 15.10.2019
6161 Clouds 26 1017 65 16093 4.1 40 12:42 15.10.2019
6162 Clouds 26 1017 65 16093 4.1 40 12:21 15.10.2019
6163 Rain 26 1017 65 16093 2.1 0 11:57 15.10.2019
6164 Rain 26 1017 65 16093 2.1 0 11:37 15.10.2019
6165 Rain 26 1017 65 16093 2.1 0 11:19 15.10.2019
6166 Rain 26 1017 65 16093 2.1 0 11:19 15.10.2019
6167 Clouds 26 1017 61 16093 2.678 69 10:44 15.10.2019
6168 Clouds 26 1017 61 16093 2.678 69 10:44 15.10.2019
6169 Clouds 26 1017 61 16093 2.68 69.291 10:21 15.10.2019
6170 Clouds 27 1017 61 16093 2.68 69.291 09:58 15.10.2019
6171 Clouds 27 1017 65 16093 2.6 0 09:38 15.10.2019
6172 Clouds 27 1017 65 16093 2.6 0 09:19 15.10.2019
6173 -273 0 0 0 0 0 08:43 15.10.2019
6174 Clear 27 1016 61 16093 3.6 50 08:22 15.10.2019
6175 Clear 27 1016 61 16093 3.6 50 07:58 15.10.2019
6176 Clear 27 1015 58 16093 6.2 70 07:39 15.10.2019
6177 Clear 27 1015 58 16093 6.2 70 07:20 15.10.2019
6178 Clouds 28 1015 69 16093 4.1 90 06:45 15.10.2019
6179 Clouds 27 1015 69 16093 4.1 90 06:26 15.10.2019
6180 Clouds 28 1015 55 16093 6.7 50 05:41 15.10.2019
6181 Clouds 29 1015 55 16093 6.7 50 05:23 15.10.2019
6182 Clouds 30 1014 69 16093 5.7 70 04:32 15.10.2019
6183 Clouds 30 1014 52 16093 7.2 60 03:37 15.10.2019
6184 Clouds 30 1014 48 16093 7.7 50 02:29 15.10.2019
6185 Clouds 30 1015 46 16093 6.7 60 01:48 15.10.2019
6186 Clouds 30 1015 46 16093 6.7 60 01:19 15.10.2019
6187 Clouds 30 1015 66 16093 4.1 70 00:49 15.10.2019
6188 Clouds 29 1015 66 16093 4.1 70 00:21 15.10.2019
6189 Clouds 29 1016 51 16093 6.2 70 23:43 14.10.2019
6190 Clouds 30 1016 51 16093 6.2 70 23:20 14.10.2019
6191 Clouds 30 1016 51 16093 6.2 70 22:55 14.10.2019
6192 Clouds 29 1016 62 16093 7.7 70 22:37 14.10.2019
6193 Clouds 29 1016 62 16093 7.7 70 22:37 14.10.2019
6194 Clouds 29 1016 62 16093 7.7 70 22:18 14.10.2019
6195 Clouds 28 1016 58 16093 5.7 60 21:41 14.10.2019
6196 Clouds 28 1016 58 16093 5.7 60 21:22 14.10.2019
6197 Clouds 28 1016 58 16093 5.7 60 20:59 14.10.2019
6198 Clouds 28 1016 61 16093 3.1 30 20:40 14.10.2019
6199 Clouds 28 1016 61 16093 3.1 30 20:21 14.10.2019
6200 Clouds 27 1016 61 16093 3.1 30 19:59 14.10.2019
6201 Clouds 26 1015 78 16093 2.94 83 19:40 14.10.2019
6202 Clouds 25 1015 78 16093 2.94 83.535 19:22 14.10.2019
6203 Clouds 25 1015 78 16093 2.94 83.535 18:58 14.10.2019
6204 Clouds 25 1015 78 16093 2.1 320 18:38 14.10.2019
6205 Clouds 25 1015 78 16093 2.1 320 18:18 14.10.2019
6206 Clouds 25 1015 78 16093 2.1 320 18:18 14.10.2019
6207 Clouds 25 1015 78 16093 1.87 80.744 17:44 14.10.2019
6208 Clouds 25 1015 78 16093 1.87 80.744 17:25 14.10.2019
6209 Clouds 26 1015 73 16093 1.5 350 16:58 14.10.2019
6210 Clouds 25 1015 73 16093 1.5 350 16:40 14.10.2019
6211 Clouds 25 1015 73 16093 1.5 350 16:40 14.10.2019
6212 Clouds 25 1015 73 16093 1.5 350 16:20 14.10.2019
6213 Clouds 26 1014 69 16093 1.5 50 15:41 14.10.2019
6214 Clouds 25 1014 69 16093 1.5 50 15:22 14.10.2019
6215 Clouds 26 1014 65 16093 2.6 50 14:45 14.10.2019
6216 Clouds 26 1014 65 16093 2.6 50 14:26 14.10.2019
6217 Clouds 26 1015 65 16093 3.1 60 13:59 14.10.2019
6218 Clouds 26 1015 65 16093 3.1 60 13:41 14.10.2019
6219 Clouds 26 1015 65 16093 3.1 60 13:21 14.10.2019
6220 Clouds 26 1015 65 16093 3.1 60 12:42 14.10.2019
6221 Clouds 26 1015 65 16093 3.1 60 12:21 14.10.2019
6222 Clouds 26 1015 65 16093 3.1 60 12:21 14.10.2019
6223 Clouds 27 1014 69 16093 3.6 90 11:57 14.10.2019
6224 Clouds 26 1014 69 16093 3.6 90 11:39 14.10.2019
6225 Clouds 26 1015 61 16093 4.6 60 11:20 14.10.2019
6226 Clouds 27 1015 61 16093 5.7 60 10:44 14.10.2019
6227 Clouds 27 1015 61 16093 5.7 60 10:23 14.10.2019
6228 Clouds 27 1015 65 16093 5.1 60 09:59 14.10.2019
6229 -273 0 0 0 0 0 09:40 14.10.2019
6230 Clouds 27 1015 65 16093 5.1 60 09:20 14.10.2019
6231 Clouds 27 1014 69 16093 6.2 60 08:48 14.10.2019
6232 Clouds 27 1014 69 16093 6.2 60 08:23 14.10.2019
6233 Clouds 27 1014 58 16093 4.1 60 07:44 14.10.2019
6234 Clouds 27 1014 58 16093 4.1 60 07:22 14.10.2019
6235 Clouds 27 1014 54 16093 6.2 60 06:55 14.10.2019
6236 Clouds 27 1014 54 16093 6.2 60 06:27 14.10.2019
6237 Clouds 28 1013 58 16093 6.7 50 05:52 14.10.2019
6238 Clouds 28 1013 58 16093 5.7 60 04:51 14.10.2019
6239 Clouds 29 1013 48 16093 7.7 70 03:48 14.10.2019
6240 Clouds 29 1013 48 16093 7.7 70 03:22 14.10.2019
6241 Clouds 29 1014 69 16093 3.1 60 01:46 14.10.2019
6242 Clouds 29 1014 69 16093 5.1 110 01:18 14.10.2019
6243 Clouds 29 1014 55 16093 5.7 60 00:23 14.10.2019
6244 Clouds 29 1016 83 16093 3.6 90 23:46 13.10.2019
6245 Drizzle 29 1015 55 16093 5.1 90 23:21 13.10.2019
6246 Clouds 29 1015 66 16093 6.7 40 23:00 13.10.2019
6247 Clouds 29 1015 66 16093 6.7 40 22:41 13.10.2019
6248 Rain 29 1015 66 16093 6.7 40 22:22 13.10.2019
6249 Rain 28 1015 62 16093 5.7 50 21:58 13.10.2019
6250 Rain 28 1015 62 16093 5.7 50 21:58 13.10.2019
6251 Rain 28 1015 62 16093 5.7 50 21:38 13.10.2019
6252 Clouds 28 1015 62 16093 5.7 50 21:19 13.10.2019
6253 Clouds 28 1015 74 16093 4.1 70 20:58 13.10.2019
6254 Clouds 27 1015 74 16093 4.1 70 20:39 13.10.2019
6255 Clouds 26 1015 69 16093 4.1 40 20:21 13.10.2019
6256 -273 0 0 0 0 0 19:59 13.10.2019
6257 Clouds 25 1015 100 16093 1.5 160 19:39 13.10.2019
6258 Clouds 25 1015 100 16093 1.5 160 19:39 13.10.2019
6259 Clouds 25 1015 74 16093 3.1 60 19:21 13.10.2019
6260 Rain 25 1014 74 16093 2.1 60 18:57 13.10.2019
6261 Rain 25 1015 100 16093 3.19 88.42 18:55 13.10.2019
6262 Rain 24 1014 74 16093 2.1 60 18:36 13.10.2019
6263 Rain 24 1014 74 16093 2.1 60 18:18 13.10.2019
6264 Clouds 25 1013 74 16093 3.1 90 17:43 13.10.2019
6265 Clouds 25 1013 74 16093 3.1 90 17:25 13.10.2019
6266 Clouds 25 1013 69 16093 5.7 80 16:58 13.10.2019
6267 Drizzle 25 1014 74 16093 3.1 70 16:40 13.10.2019
6268 Drizzle 25 1014 74 16093 3.1 70 16:18 13.10.2019
6269 Clouds 25 1014 94 16093 2.84 86.872 15:55 13.10.2019
6270 Clouds 25 1014 94 16093 2.84 86.872 15:55 13.10.2019
6271 Clouds 25 1014 94 16093 2.84 86.872 15:36 13.10.2019
6272 Clouds 25 1014 74 16093 2.6 50 15:18 13.10.2019
6273 Rain 26 1014 74 14484 3.6 90 14:40 13.10.2019
6274 Rain 26 1014 74 14484 3.6 90 14:22 13.10.2019
6275 Rain 26 1015 83 16093 4.2 90.464 13:59 13.10.2019
6276 Clouds 26 1015 83 16093 4.2 90.464 13:39 13.10.2019
6277 Clouds 26 1015 83 16093 4.2 90.464 13:39 13.10.2019
6278 Drizzle 26 1015 83 16093 3.48 94.32 13:21 13.10.2019
6279 Clouds 26 1015 69 16093 2.6 50 12:56 13.10.2019
6280 Clouds 26 1015 69 16093 2.6 50 12:38 13.10.2019
6281 Clouds 26 1015 69 16093 2.6 50 12:19 13.10.2019
6282 Clouds 26 1014 74 16093 4.6 110 11:58 13.10.2019
6283 Clouds 26 1014 74 16093 5.7 90 11:38 13.10.2019
6284 Clouds 26 1014 74 16093 5.7 90 11:19 13.10.2019
6285 Clouds 26 1014 69 16093 6.7 80 10:42 13.10.2019
6286 Clouds 27 1015 61 16093 6.2 60 10:23 13.10.2019
6287 Clouds 27 1015 69 16093 5.7 80 09:56 13.10.2019
6288 Clouds 27 1015 69 16093 5.7 80 09:37 13.10.2019
6289 Drizzle 27 1015 65 16093 6.7 60 09:19 13.10.2019
6290 Drizzle 27 1015 65 16093 6.7 60 09:19 13.10.2019
6291 Clouds 27 1015 78 16093 3.1 100 08:43 13.10.2019
6292 Clouds 27 1015 78 16093 3.1 100 08:21 13.10.2019
6293 Clouds 27 1014 61 16093 5.7 40 07:46 13.10.2019
6294 Clouds 27 1014 61 16093 5.7 40 07:23 13.10.2019
6295 Clouds 27 1014 61 16093 6.2 70 06:42 13.10.2019
6296 Clouds 28 1013 58 16093 6.7 60 05:49 13.10.2019
6297 Clouds 28 1013 65 16093 5.7 70 04:52 13.10.2019
6298 Clouds 29 1013 65 16093 5.7 70 04:32 13.10.2019
6299 Clouds 29 1014 66 16093 4.6 70 02:42 13.10.2019
6300 Clouds 29 1014 66 16093 4.6 70 02:42 13.10.2019
6301 Clouds 30 1014 66 16093 6.2 60 01:59 13.10.2019
6302 Clouds 29 1015 48 16093 5.1 80 01:30 13.10.2019
6303 Clouds 29 1015 66 16093 6.7 60 00:49 13.10.2019
6304 Clouds 29 1016 55 16093 5.1 50 00:22 13.10.2019
6305 Clouds 29 1016 55 16093 5.1 80 23:57 12.10.2019
6306 Clouds 29 1016 55 16093 5.1 80 23:39 12.10.2019
6307 Clouds 29 1016 55 16093 5.1 80 23:19 12.10.2019
6308 Clouds 29 1016 58 16093 5.7 60 22:57 12.10.2019
6309 Clouds 29 1016 58 16093 5.7 60 22:38 12.10.2019
6310 Clouds 29 1016 58 16093 5.7 60 22:20 12.10.2019
6311 Rain 28 1017 78 16093 2.1 110 21:55 12.10.2019
6312 Rain 28 1016 58 16093 4.1 80 21:37 12.10.2019
6313 Rain 28 1016 58 16093 4.1 80 21:18 12.10.2019
6314 Rain 27 1016 61 16093 4.1 70 20:40 12.10.2019
6315 Rain 27 1016 61 16093 4.1 70 20:22 12.10.2019
6316 Clouds 26 1016 65 16093 3.6 60 19:38 12.10.2019
6317 Clouds 26 1016 65 16093 3.6 60 19:20 12.10.2019
6318 Clear 25 1016 61 16093 4.6 60 18:57 12.10.2019
6319 Clear 25 1016 61 16093 4.6 60 18:38 12.10.2019
6320 Clear 25 1016 61 16093 4.6 60 18:20 12.10.2019
6321 Clouds 25 1015 65 16093 3.1 50 17:43 12.10.2019
6322 Clouds 25 1015 65 16093 3.1 50 17:19 12.10.2019
6323 Clouds 25 1015 65 16093 4.6 70 16:54 12.10.2019
6324 -273 0 0 0 0 0 16:54 12.10.2019
6325 Clouds 25 1015 65 16093 4.6 70 16:36 12.10.2019
6326 Clouds 26 1015 65 16093 4.6 70 16:18 12.10.2019
6327 Clouds 26 1015 69 16093 4.1 70 15:40 12.10.2019
6328 Clouds 26 1015 69 16093 4.1 70 15:22 12.10.2019
6329 Clouds 26 1015 74 16093 2.6 0 14:41 12.10.2019
6330 Clouds 26 1016 65 16093 5.1 80 14:22 12.10.2019
6331 Clouds 26 1016 65 16093 4.1 80 13:53 12.10.2019
6332 Clouds 26 1016 65 16093 4.1 80 13:33 12.10.2019
6333 Clouds 26 1016 69 16093 4.1 70 12:59 12.10.2019
6334 Clouds 26 1016 69 16093 4.1 70 12:39 12.10.2019
6335 Clouds 26 1016 69 16093 4.1 70 12:20 12.10.2019
6336 Clouds 26 1017 69 16093 3.6 70 11:58 12.10.2019
6337 Clouds 27 1017 69 16093 3.6 70 11:38 12.10.2019
6338 Clouds 27 1017 69 16093 3.6 70 11:38 12.10.2019
6339 Clouds 27 1017 69 16093 3.6 70 11:18 12.10.2019
6340 Clouds 26 1017 69 16093 5.7 60 10:40 12.10.2019
6341 Clouds 27 1017 69 16093 5.7 60 10:22 12.10.2019
6342 Clouds 26 1017 69 16093 5.7 90 09:57 12.10.2019
6343 Clouds 26 1017 69 16093 5.7 90 09:57 12.10.2019
6344 Clouds 27 1017 69 16093 3.1 80 09:39 12.10.2019
6345 Clouds 27 1017 69 16093 3.1 80 09:20 12.10.2019
6346 Clouds 27 1017 74 16093 5.1 90 08:55 12.10.2019
6347 Clouds 27 1017 65 16093 6.7 60 08:36 12.10.2019
6348 Clouds 27 1017 65 16093 6.7 60 08:18 12.10.2019
6349 Clouds 27 1017 65 16093 6.7 60 08:18 12.10.2019
6350 Clouds 27 1016 74 16093 6.2 80 07:32 12.10.2019
6351 Rain 28 1015 74 16093 5.7 80 06:38 12.10.2019
6352 Clouds 28 1015 78 16093 6.7 80 05:44 12.10.2019
6353 Clouds 28 1014 74 16093 5.1 80 04:43 12.10.2019
6354 Rain 30 1014 74 16093 2.6 0 03:56 12.10.2019
6355 Clouds 29 1014 58 16093 1.5 0 02:50 12.10.2019
6356 Clouds 29 1015 58 16093 1.5 0 01:35 12.10.2019
6357 Clouds 29 1016 74 16093 2.1 10 00:56 12.10.2019
6358 Clouds 30 1016 74 16093 2.6 20 00:38 12.10.2019
6359 Clouds 28 1017 62 16093 3.1 110 23:55 11.10.2019
6360 Clouds 28 1017 62 16093 3.1 110 23:37 11.10.2019
6361 Clouds 28 1017 62 16093 3.1 110 23:18 11.10.2019
6362 Clouds 27 1017 78 16093 3.1 90 22:38 11.10.2019
6363 Clouds 26 1017 78 16093 3.1 90 22:19 11.10.2019
6364 Rain 26 1017 100 16093 2.1 140 21:44 11.10.2019
6365 Rain 25 1016 88 16093 2.1 50 21:22 11.10.2019
6366 Rain 25 1017 100 16093 2.6 110 20:57 11.10.2019
6367 Rain 25 1017 100 16093 2.6 110 20:57 11.10.2019
6368 Rain 25 1016 100 16093 2.1 120 20:39 11.10.2019
6369 Rain 24 1016 100 16093 2.1 120 20:20 11.10.2019
6370 Rain 24 1015 88 16093 2.6 180 19:55 11.10.2019
6371 Rain 24 1016 88 16093 2.6 50 19:37 11.10.2019
6372 Rain 24 1016 88 16093 2.6 50 19:18 11.10.2019
6373 Rain 24 1016 88 16093 2.6 50 19:18 11.10.2019
6374 Rain 24 1016 88 16093 2.6 50 19:18 11.10.2019
6375 Rain 24 1016 88 16093 2.6 50 19:18 11.10.2019
6376 Rain 24 1016 88 16093 2.6 50 19:18 11.10.2019
6377 Rain 24 1016 88 8047 2.6 20 18:56 11.10.2019
6378 Rain 24 1016 88 4023 2.1 10 18:37 11.10.2019
6379 Rain 24 1016 88 4023 2.1 10 18:18 11.10.2019
6380 Rain 24 1014 88 1207 6.7 330 17:55 11.10.2019
6381 Rain 24 1016 100 2213 2.1 170 17:36 11.10.2019
6382 Rain 24 1015 94 3219 6.7 240 17:18 11.10.2019
6383 Rain 25 1014 83 16093 3.6 280 16:40 11.10.2019
6384 Rain 25 1014 83 16093 3.6 280 16:19 11.10.2019
6385 Rain 25 1014 88 16093 2.6 300 15:58 11.10.2019
6386 Rain 25 1014 88 16093 2.6 300 15:38 11.10.2019
6387 Rain 25 1014 83 16093 2.1 350 15:18 11.10.2019
6388 Rain 25 1013 83 16093 1.24 113.168 14:44 11.10.2019
6389 Rain 26 1014 83 16093 2.1 10 14:25 11.10.2019
6390 Rain 26 1015 100 16093 1.24 113.168 13:47 11.10.2019
6391 Rain 26 1015 83 16093 1.44 103.581 13:27 11.10.2019
6392 Rain 26 1016 94 16093 2.1 140 12:59 11.10.2019
6393 Rain 26 1016 94 16093 2.1 140 12:41 11.10.2019
6394 Rain 27 1014 83 14484 3.6 110 12:22 11.10.2019
6395 Clouds 27 1016 100 16093 1.24 68.629 11:59 11.10.2019
6396 Clouds 27 1016 100 16093 1.24 68.629 11:39 11.10.2019
6397 Rain 27 1015 78 16093 3.1 130 11:21 11.10.2019
6398 Clouds 27 1016 88 16093 1.5 130 10:56 11.10.2019
6399 Clouds 28 1016 88 16093 1.5 130 10:38 11.10.2019
6400 Clouds 28 1016 74 16093 2.6 110 10:19 11.10.2019
6401 Clouds 28 1016 88 16093 2.1 170 09:43 11.10.2019
6402 Clouds 28 1015 70 16093 2.6 130 09:22 11.10.2019
6403 Clouds 28 1016 88 16093 2.6 150 08:59 11.10.2019
6404 Clouds 28 1015 70 16093 3.1 130 08:39 11.10.2019
6405 Clouds 28 1015 70 16093 3.1 130 08:39 11.10.2019
6406 Clouds 28 1015 70 16093 3.1 130 08:20 11.10.2019
6407 Clouds 28 1015 83 16093 2.1 170 07:57 11.10.2019
6408 Clouds 28 1015 83 16093 2.1 170 07:38 11.10.2019
6409 Clouds 28 1014 66 16093 3.6 140 07:19 11.10.2019
6410 Clouds 29 1013 66 16093 2.1 160 06:43 11.10.2019
6411 Clouds 29 1013 66 16093 2.1 160 06:19 11.10.2019
6412 Clouds 29 1012 66 16093 4.1 150 05:32 11.10.2019
6413 Clouds 31 1012 66 16093 5.1 150 04:58 11.10.2019
6414 Clouds 30 1011 66 16093 4.6 180 03:45 11.10.2019
6415 Clouds 31 1012 62 16093 4.1 130 01:57 11.10.2019
6416 Clouds 31 1013 59 16093 6.7 120 00:42 11.10.2019
6417 Clouds 31 1013 59 16093 6.7 120 00:20 11.10.2019
6418 Rain 31 1014 79 14484 2.1 170 23:41 10.10.2019
6419 Rain 30 1013 59 16093 7.7 110 23:20 10.10.2019
6420 Rain 29 1013 62 16093 2.6 70 22:57 10.10.2019
6421 Rain 29 1013 62 16093 2.6 70 22:36 10.10.2019
6422 Rain 29 1013 62 16093 2.6 70 22:18 10.10.2019
6423 Clouds 28 1013 66 16093 3.1 80 21:42 10.10.2019
6424 Clouds 28 1013 66 16093 3.1 80 21:42 10.10.2019
6425 Clouds 28 1013 66 16093 3.1 80 21:22 10.10.2019
6426 Clouds 27 1012 83 16093 2.26 106.123 20:59 10.10.2019
6427 Clouds 27 1012 83 16093 2.26 106.123 20:40 10.10.2019
6428 Clouds 27 1012 83 16093 2.26 106.123 20:20 10.10.2019
6429 Clouds 27 1013 78 16093 1.5 60 19:57 10.10.2019
6430 Clouds 27 1013 78 16093 1.5 60 19:39 10.10.2019
6431 Clouds 26 1012 74 16093 2.1 10 19:19 10.10.2019
6432 Clouds 25 1012 83 16093 1.5 350 18:42 10.10.2019
6433 Clouds 25 1012 83 16093 1.5 350 18:21 10.10.2019
6434 Clouds 25 1011 78 16093 1.5 340 17:59 10.10.2019
6435 Clouds 25 1011 78 16093 1.5 340 17:40 10.10.2019
6436 Clouds 25 1011 78 16093 1.5 340 17:19 10.10.2019
6437 Clouds 25 1010 83 16093 3.6 230 16:57 10.10.2019
6438 Clouds 25 1010 83 16093 3.6 230 16:37 10.10.2019
6439 Rain 25 1010 83 16093 2.6 130 16:19 10.10.2019
6440 Rain 25 1012 78 16093 1.82 74.336 15:40 10.10.2019
6441 Rain 25 1012 78 16093 1.93 78.527 15:22 10.10.2019
6442 Clouds 25 1012 74 16093 1.93 78.527 14:58 10.10.2019
6443 Clouds 25 1012 74 16093 1.93 78.527 14:37 10.10.2019
6444 Clouds 25 1012 74 16093 1.93 78.527 14:19 10.10.2019
6445 Clouds 26 1012 83 16093 1.5 280 13:57 10.10.2019
6446 Clouds 25 1012 83 16093 1.93 78.527 13:39 10.10.2019
6447 Clouds 25 1012 83 16093 1.88 84.991 13:18 10.10.2019
6448 Clouds 26 1012 83 16093 2.6 40 12:42 10.10.2019
6449 Clouds 25 1013 74 16093 3.6 80 12:21 10.10.2019
6450 Clouds 25 1013 69 16093 2.6 300 11:58 10.10.2019
6451 Clouds 25 1013 69 16093 2.6 300 11:40 10.10.2019
6452 Clouds 25 1013 69 16093 2.6 300 11:19 10.10.2019
6453 Clouds 26 1012 78 16093 3.1 70 10:47 10.10.2019
6454 Haze 26 1013 69 16093 3.1 20 10:28 10.10.2019
6455 Clouds 26 1013 74 16093 3.1 80 09:59 10.10.2019
6456 Clouds 26 1013 74 16093 3.1 80 09:41 10.10.2019
6457 Clouds 26 1013 74 16093 3.1 80 09:23 10.10.2019
6458 Clouds 27 1012 65 16093 5.7 80 08:59 10.10.2019
6459 Clouds 26 1012 65 16093 5.7 80 08:39 10.10.2019
6460 Clouds 27 1012 65 16093 5.7 80 08:20 10.10.2019
6461 Clouds 27 1012 65 16093 4.1 80 07:47 10.10.2019
6462 Clouds 27 1012 65 16093 4.1 80 07:25 10.10.2019
6463 Clouds 27 1011 69 16093 3.1 90 06:55 10.10.2019
6464 Clouds 27 1011 58 16093 5.1 70 06:36 10.10.2019
6465 Clouds 28 1011 55 16093 7.2 80 05:39 10.10.2019
6466 Clouds 28 1011 55 16093 7.2 80 05:18 10.10.2019
6467 Rain 29 1011 55 16093 4.1 170 04:34 10.10.2019
6468 Clouds 29 1011 48 16093 3.6 170 02:19 10.10.2019
6469 Clouds 30 1012 55 16093 5.1 160 01:36 10.10.2019
6470 Clouds 30 1012 55 16093 5.1 160 01:36 10.10.2019
6471 Clouds 29 1012 55 16093 5.1 160 01:18 10.10.2019
6472 Clouds 29 1013 55 16093 5.1 150 00:25 10.10.2019
6473 Clouds 29 1014 69 16093 2.6 100 23:41 09.10.2019
6474 Clouds 29 1013 58 16093 6.7 150 23:23 09.10.2019
6475 Clouds 29 1013 69 16093 5.1 110 22:59 09.10.2019
6476 Clouds 29 1013 69 16093 5.1 110 22:40 09.10.2019
6477 Clouds 28 1013 69 16093 5.1 110 22:22 09.10.2019
6478 Clouds 28 1013 74 16093 1.5 190 21:41 09.10.2019
6479 Clouds 27 1013 74 16093 1.5 190 21:21 09.10.2019
6480 Clouds 27 1013 65 16093 1.5 10 20:56 09.10.2019
6481 Clouds 27 1013 65 16093 1.5 10 20:38 09.10.2019
6482 Clouds 27 1013 65 16093 1.5 10 20:19 09.10.2019
6483 Clouds 25 1012 83 16093 1.5 360 19:58 09.10.2019
6484 Clouds 25 1012 83 16093 1.5 360 19:40 09.10.2019
6485 Clouds 24 1012 83 16093 1.5 360 19:22 09.10.2019
6486 Clouds 24 1012 78 16093 1.5 320 18:38 09.10.2019
6487 Clouds 23 1012 78 16093 1.5 320 18:20 09.10.2019
6488 Clouds 24 1011 78 16093 1.74 86.245 17:57 09.10.2019
6489 Clouds 24 1012 83 16093 2.1 0 17:37 09.10.2019
6490 Clouds 24 1012 83 16093 2.1 0 17:19 09.10.2019
6491 Clouds 24 1012 83 16093 2.1 350 16:56 09.10.2019
6492 Clouds 24 1012 83 16093 2.1 350 16:37 09.10.2019
6493 Clouds 24 1012 83 16093 2.1 350 16:18 09.10.2019
6494 Clouds 24 1012 83 16093 2.1 350 16:18 09.10.2019
6495 Clouds 24 1012 83 16093 2.1 320 15:55 09.10.2019
6496 Clouds 24 1012 83 16093 2.1 320 15:36 09.10.2019
6497 Clouds 24 1012 83 16093 2.1 320 15:18 09.10.2019
6498 Clouds 25 1012 73 16093 1.55 96.299 14:44 09.10.2019
6499 Clouds 25 1012 73 16093 1.55 96.299 14:19 09.10.2019
6500 Clouds 25 1013 73 16093 1.55 96.299 13:58 09.10.2019
6501 Clouds 25 1013 73 16093 1.55 96.299 13:36 09.10.2019
6502 Clouds 25 1013 73 16093 1.47 93.005 13:18 09.10.2019
6503 Clouds 25 1013 69 16093 1.5 60 12:42 09.10.2019
6504 Clouds 25 1013 69 16093 1.5 60 12:22 09.10.2019
6505 Clouds 25 1013 69 16093 1.25 89.543 11:58 09.10.2019
6506 Clouds 25 1013 69 16093 1.25 89.543 11:39 09.10.2019
6507 Clouds 25 1013 69 16093 1.25 89.543 11:20 09.10.2019
6508 Clouds 25 1014 69 16093 3.1 50 10:55 09.10.2019
6509 Clouds 26 1014 69 16093 3.1 50 10:37 09.10.2019
6510 Clouds 26 1014 69 16093 3.1 50 10:18 09.10.2019
6511 Clouds 26 1013 65 16093 2.6 60 09:42 09.10.2019
6512 Clouds 26 1013 65 16093 2.6 60 09:19 09.10.2019
6513 Clouds 26 1013 65 16093 3.6 60 08:55 09.10.2019
6514 Clouds 26 1013 65 16093 3.6 60 08:37 09.10.2019
6515 Clouds 26 1013 65 16093 3.6 60 08:18 09.10.2019
6516 Clouds 26 1012 61 16093 3.6 70 07:42 09.10.2019
6517 Clouds 27 1012 61 16093 3.6 70 07:22 09.10.2019
6518 Clouds 27 1012 61 16093 4.1 70 06:52 09.10.2019
6519 Clouds 27 1012 61 16093 4.1 70 06:52 09.10.2019
6520 Clouds 27 1012 61 16093 4.1 70 06:52 09.10.2019
6521 Clouds 27 1012 61 16093 4.1 70 06:19 09.10.2019
6522 Clouds 28 1011 61 16093 4.1 50 05:44 09.10.2019
6523 Clouds 28 1011 54 16093 3.6 210 04:26 09.10.2019
6524 Rain 27 1012 74 16093 2.1 170 02:53 09.10.2019
6525 Rain 27 1013 74 16093 2.6 120 01:43 09.10.2019
6526 Rain 27 1013 51 16093 3.6 160 01:20 09.10.2019
6527 Drizzle 27 1014 78 16093 1.5 280 00:57 09.10.2019
6528 Clouds 28 1013 54 16093 4.1 150 00:38 09.10.2019
6529 Clouds 28 1013 54 16093 4.1 150 00:20 09.10.2019
6530 Clouds 28 1014 54 16093 3.6 160 23:39 08.10.2019
6531 Clouds 29 1014 54 16093 3.6 160 23:19 08.10.2019
6532 Clouds 28 1014 54 16093 3.6 130 22:57 08.10.2019
6533 Clouds 28 1014 54 16093 3.6 130 22:38 08.10.2019
6534 Clouds 28 1014 54 16093 3.6 130 22:19 08.10.2019
6535 Clouds 26 1014 61 16093 2.1 0 21:57 08.10.2019
6536 Clouds 26 1014 61 16093 2.1 0 21:39 08.10.2019
6537 Clouds 26 1014 61 16093 2.1 0 21:19 08.10.2019
6538 Clouds 26 1014 61 16093 2.1 0 21:19 08.10.2019
6539 Clouds 25 1013 65 16093 2.1 30 20:56 08.10.2019
6540 Clouds 25 1013 65 16093 2.1 30 20:37 08.10.2019
6541 Clouds 25 1013 65 16093 2.1 30 20:19 08.10.2019
6542 Clouds 25 1013 83 16093 1.32 98.832 19:56 08.10.2019
6543 Clouds 25 1013 73 16093 1.32 98.832 19:37 08.10.2019
6544 Clouds 24 1013 73 16093 1.32 98.832 19:18 08.10.2019
6545 Clouds 24 1012 73 16093 2.1 110 18:46 08.10.2019
6546 Clouds 24 1012 73 16093 2.1 110 18:25 08.10.2019
6547 Rain 24 1012 69 16093 2.1 20 17:58 08.10.2019
6548 Rain 24 1012 69 16093 2.1 20 17:39 08.10.2019
6549 Rain 24 1012 69 16093 2.1 20 17:20 08.10.2019
6550 Rain 24 1011 88 8047 3.6 360 16:56 08.10.2019
6551 Rain 24 1011 88 8047 3.6 360 16:56 08.10.2019
6552 Rain 24 1012 65 16093 1.41 93.286 16:37 08.10.2019
6553 Rain 24 1012 65 16093 1.41 93.286 16:19 08.10.2019
6554 Rain 24 1012 69 16093 2.1 360 15:40 08.10.2019
6555 Rain 24 1012 69 16093 2.1 360 15:20 08.10.2019
6556 Rain 24 1012 78 16093 2.1 30 14:57 08.10.2019
6557 Rain 24 1012 78 16093 2.1 30 14:38 08.10.2019
6558 Rain 24 1012 78 16093 2.1 30 14:19 08.10.2019
6559 Rain 24 1012 94 9656 3.6 290 13:55 08.10.2019
6560 Rain 24 1012 94 9656 3.6 290 13:37 08.10.2019
6561 Rain 24 1012 94 9656 1.5 310 13:37 08.10.2019
6562 Rain 24 1012 94 9656 1.5 310 13:18 08.10.2019
6563 Rain 24 1012 88 12874 2.6 340 12:41 08.10.2019
6564 Rain 25 1012 88 2414 1.5 300 12:20 08.10.2019
6565 Rain 24 1013 88 12874 2.1 360 11:58 08.10.2019
6566 Rain 24 1013 88 12874 2.1 360 11:39 08.10.2019
6567 Clouds 25 1013 69 16093 3.1 70 11:21 08.10.2019
6568 -273 0 0 0 0 0 10:54 08.10.2019
6569 Clouds 24 1014 78 16093 2.6 30 10:54 08.10.2019
6570 Clouds 24 1014 78 16093 2.6 30 10:36 08.10.2019
6571 Clouds 25 1014 78 16093 2.6 30 10:18 08.10.2019
6572 -273 0 0 0 0 0 09:40 08.10.2019
6573 Clouds 25 1013 74 16093 3.1 50 09:22 08.10.2019
6574 Rain 25 1013 74 16093 3.1 80 08:45 08.10.2019
6575 Rain 25 1013 74 16093 3.1 80 08:25 08.10.2019
6576 Rain 25 1012 83 14484 1.5 230 07:57 08.10.2019
6577 Rain 25 1012 69 12874 3.6 10 07:38 08.10.2019
6578 Rain 25 1012 69 12874 3.6 10 07:19 08.10.2019
6579 Rain 25 1012 69 16093 4.6 80 06:45 08.10.2019
6580 Rain 26 1012 69 16093 4.6 80 06:21 08.10.2019
6581 Rain 26 1011 78 16093 3.6 300 05:43 08.10.2019
6582 Rain 27 1012 69 16093 5.1 90 05:19 08.10.2019
6583 Rain 27 1012 61 16093 4.1 160 03:31 08.10.2019
6584 Rain 27 1012 88 16093 2.6 310 02:42 08.10.2019
6585 Drizzle 28 1012 58 16093 4.1 170 01:58 08.10.2019
6586 Drizzle 28 1012 58 16093 4.1 170 01:40 08.10.2019
6587 Clouds 28 1013 69 16093 3.1 360 00:55 08.10.2019
6588 Clouds 28 1013 58 16093 4.1 140 00:23 08.10.2019
6589 Clouds 28 1014 54 16093 4.1 210 23:46 07.10.2019
6590 Clouds 28 1014 54 16093 4.1 210 23:21 07.10.2019
6591 Clouds 28 1014 54 16093 4.1 210 23:21 07.10.2019
6592 Clouds 28 1014 54 16093 2.1 0 22:59 07.10.2019
6593 Clouds 28 1014 54 16093 2.1 0 22:41 07.10.2019
6594 Clouds 28 1014 54 16093 2.1 0 22:23 07.10.2019
6595 Clouds 27 1014 65 16093 1.45 71.89 21:59 07.10.2019
6596 Clouds 26 1014 65 16093 1.45 71.89 21:40 07.10.2019
6597 Clouds 26 1014 65 16093 1.18 75.293 21:21 07.10.2019
6598 Clouds 25 1014 69 16093 2.6 70 20:59 07.10.2019
6599 Clouds 25 1014 69 16093 2.6 70 20:40 07.10.2019
6600 Clouds 25 1014 69 16093 2.6 70 20:40 07.10.2019
6601 Clouds 25 1014 69 16093 2.6 70 20:21 07.10.2019
6602 Rain 23 1013 88 16093 2.1 120 19:59 07.10.2019
6603 Rain 23 1013 88 14484 3.6 90 19:41 07.10.2019
6604 Rain 23 1013 88 14484 3.6 90 19:20 07.10.2019
6605 Mist 23 1012 88 9656 2.6 100 18:59 07.10.2019
6606 Clouds 23 1012 78 16093 2.1 20 18:40 07.10.2019
6607 Clouds 23 1012 78 16093 2.1 20 18:19 07.10.2019
6608 Clear 23 1012 78 16093 1.5 350 17:54 07.10.2019
6609 Clear 23 1012 78 16093 1.5 350 17:54 07.10.2019
6610 Clear 23 1012 78 16093 1.5 350 17:36 07.10.2019
6611 Clear 24 1012 78 16093 1.5 350 17:18 07.10.2019
6612 Clouds 23 1011 73 16093 0.14 36.541 16:43 07.10.2019
6613 Clouds 23 1011 73 16093 0.14 36.541 16:25 07.10.2019
6614 Clear 23 1011 69 16093 0.14 36.541 15:46 07.10.2019
6615 Clear 23 1011 69 16093 0.14 36.541 15:26 07.10.2019
6616 Clouds 24 1012 69 16093 1.5 350 14:58 07.10.2019
6617 Clouds 24 1012 69 16093 1.5 350 14:58 07.10.2019
6618 Clouds 24 1012 69 16093 1.5 350 14:40 07.10.2019
6619 Clouds 24 1012 69 16093 1.5 350 14:22 07.10.2019
6620 Clouds 24 1013 65 16093 1.5 30 13:43 07.10.2019
6621 Clouds 24 1013 65 16093 1.5 30 13:21 07.10.2019
6622 Rain 24 1013 69 16093 2.6 10 12:57 07.10.2019
6623 Rain 24 1013 69 16093 2.6 10 12:39 07.10.2019
6624 Rain 24 1013 69 16093 2.6 10 12:19 07.10.2019
6625 Rain 24 1013 69 16093 5.7 70 11:58 07.10.2019
6626 Rain 24 1013 69 16093 5.7 70 11:38 07.10.2019
6627 Rain 24 1013 69 16093 5.7 70 11:20 07.10.2019
6628 Rain 25 1013 65 16093 3.6 70 10:42 07.10.2019
6629 Rain 25 1013 65 16093 3.6 70 10:21 07.10.2019
6630 Clouds 25 1014 88 16093 2.1 330 09:43 07.10.2019
6631 Clouds 25 1013 78 16093 1.14 28.164 09:25 07.10.2019
6632 Rain 25 1012 78 4828 2.6 360 08:58 07.10.2019
6633 Rain 25 1012 78 4828 2.6 360 08:39 07.10.2019
6634 Clouds 25 1013 61 16093 2.1 110 08:20 07.10.2019
6635 Clouds 26 1013 88 16093 1.5 350 07:43 07.10.2019
6636 Clouds 26 1012 61 16093 2.1 170 07:25 07.10.2019
6637 Clouds 26 1011 74 16093 4.6 360 06:54 07.10.2019
6638 Clouds 26 1011 69 16093 2.1 350 06:34 07.10.2019
6639 Clouds 27 1011 61 16093 3.6 180 05:49 07.10.2019
6640 Clouds 27 1011 61 16093 3.6 180 05:23 07.10.2019
6641 Clouds 28 1010 58 16093 3.6 200 04:28 07.10.2019
6642 Rain 28 1011 54 16093 4.6 200 03:45 07.10.2019
6643 Rain 28 1011 54 16093 4.6 200 03:45 07.10.2019
6644 Rain 28 1011 54 16093 4.6 200 03:21 07.10.2019
6645 Rain 28 1011 54 16093 4.6 200 03:21 07.10.2019
6646 Clouds 29 1011 51 16093 4.6 220 02:22 07.10.2019
6647 Clouds 29 1011 51 16093 4.6 220 02:22 07.10.2019
6648 Clouds 29 1012 54 16093 4.6 200 01:52 07.10.2019
6649 Clouds 29 1012 54 16093 4.6 200 01:21 07.10.2019
6650 Clouds 29 1013 51 16093 4.1 190 00:41 07.10.2019
6651 Clouds 28 1013 51 16093 4.1 190 00:20 07.10.2019
6652 Clouds 29 1013 51 16093 4.1 170 23:42 06.10.2019
6653 Clouds 29 1013 51 16093 4.1 170 23:42 06.10.2019
6654 Clouds 29 1013 51 16093 4.1 170 23:42 06.10.2019
6655 Clouds 29 1013 51 16093 4.1 170 23:22 06.10.2019
6656 Clouds 28 1013 54 16093 1.56 24.596 22:59 06.10.2019
6657 Clouds 28 1013 54 16093 1.56 24.596 22:41 06.10.2019
6658 Clouds 28 1013 54 16093 1.56 24.596 22:22 06.10.2019
6659 Clouds 28 1013 58 16093 1.56 24.596 21:58 06.10.2019
6660 Clouds 28 1013 58 16093 1.56 24.596 21:38 06.10.2019
6661 Clouds 28 1013 58 16093 1.56 24.596 21:38 06.10.2019
6662 Clouds 28 1013 58 16093 0.9 74.272 21:19 06.10.2019
6663 Clouds 26 1013 69 16093 1.5 0 20:58 06.10.2019
6664 Clouds 26 1013 69 16093 1.5 0 20:40 06.10.2019
6665 Clouds 26 1013 69 16093 1.5 0 20:20 06.10.2019
6666 Clouds 26 1013 69 16093 1.5 0 20:20 06.10.2019
6667 Clouds 23 1013 73 16093 2.1 350 19:57 06.10.2019
6668 Clouds 23 1013 73 16093 2.1 350 19:37 06.10.2019
6669 Clouds 23 1013 73 16093 2.1 350 19:19 06.10.2019
6670 Clear 22 1013 83 16093 1.5 360 18:56 06.10.2019
6671 Clear 21 1013 83 16093 1.5 360 18:38 06.10.2019
6672 Clear 22 1013 83 16093 1.5 360 18:19 06.10.2019
6673 Clear 22 1012 83 16093 2.1 10 17:57 06.10.2019
6674 Clear 22 1012 83 16093 2.1 10 17:38 06.10.2019
6675 Clear 22 1012 83 16093 2.1 10 17:18 06.10.2019
6676 Clouds 23 1012 73 16093 2.6 330 16:42 06.10.2019
6677 Clouds 23 1012 73 16093 2.6 330 16:23 06.10.2019